<?xml version="1.0" encoding="UTF-8" standalone="no" ?>
<gpx xmlns="http://www.topografix.com/GPX/1/1" xmlns:xsi="http://www.w3.org/2001/XMLSchema-instance" xsi:schemaLocation="http://www.topografix.com/GPX/1/1 http://www.topografix.com/GPX/1/1/gpx.xsd" version="1.1" creator="VisuGPX - https://www.visugpx.com">
  <metadata>
    <name>2017-01-12 Walk from Montmelas-Saint-Sorlin</name>
    <desc><![CDATA[2017-01-12 Walk from Montmelas-Saint-Sorlin]]></desc>
  </metadata>
  <wpt lat="46.01518" lon="4.6031">
    <ele>586</ele>
    <name><![CDATA[2017-01-12 09:11 (Start)]]></name>
  </wpt>
  <wpt lat="46.01514" lon="4.60324">
    <ele>582</ele>
    <name><![CDATA[2017-01-12 09:11 (End)]]></name>
    <desc><![CDATA[Created by Google My Tracks on Android  Name: 2017-01-12 09:11 Activity type: walking Description: - Total distance: 25.30 km (15.7 mi) Total time: 7:18:47 Moving time: 7:09:53 Average speed: 3.46 km/h (2.1 mi/h) Average moving speed: 3.53 km/h (2.2 mi/h) Max speed: 5.29 km/h (3.3 mi/h) Average pace: 17:20 min/km (27:54 min/mi) Average moving pace: 16:59 min/km (27:20 min/mi) Fastest pace: 11:20 min/km (18:15 min/mi) Max elevation: 778 m (2551 ft) Min elevation: 334 m (1095 ft) Elevation gain: 1806 m (5925 ft) Max grade: 43 % Min grade: -32 % Recorded: 12/01/2017 09:11]]></desc>
  </wpt>
  <trk>
    <name><![CDATA[2017-01-12 09:11]]></name>
    <trkseg>
      <trkpt lat="46.01518" lon="4.6031">
        <ele>586</ele>
        <time>2017-01-12T08:11:59.659Z</time>
      </trkpt>
      <trkpt lat="46.01517" lon="4.60311">
        <ele>586</ele>
        <time>2017-01-12T08:12:03.316Z</time>
      </trkpt>
      <trkpt lat="46.01516" lon="4.60324">
        <ele>583</ele>
        <time>2017-01-12T08:12:04.276Z</time>
      </trkpt>
      <trkpt lat="46.0151" lon="4.60314">
        <ele>584</ele>
        <time>2017-01-12T08:13:19Z</time>
      </trkpt>
      <trkpt lat="46.0151" lon="4.60313">
        <ele>584</ele>
        <time>2017-01-12T08:13:20Z</time>
      </trkpt>
      <trkpt lat="46.01505" lon="4.60304">
        <ele>586</ele>
        <time>2017-01-12T08:13:35Z</time>
      </trkpt>
      <trkpt lat="46.01504" lon="4.60303">
        <ele>586</ele>
        <time>2017-01-12T08:13:36Z</time>
      </trkpt>
      <trkpt lat="46.01497" lon="4.60296">
        <ele>574</ele>
        <time>2017-01-12T08:13:48Z</time>
      </trkpt>
      <trkpt lat="46.01496" lon="4.60295">
        <ele>574</ele>
        <time>2017-01-12T08:13:49Z</time>
      </trkpt>
      <trkpt lat="46.01489" lon="4.60289">
        <ele>574</ele>
        <time>2017-01-12T08:13:57Z</time>
      </trkpt>
      <trkpt lat="46.01488" lon="4.60288">
        <ele>574</ele>
        <time>2017-01-12T08:13:58Z</time>
      </trkpt>
      <trkpt lat="46.0148" lon="4.60282">
        <ele>574</ele>
        <time>2017-01-12T08:14:05Z</time>
      </trkpt>
      <trkpt lat="46.01479" lon="4.60282">
        <ele>574</ele>
        <time>2017-01-12T08:14:06Z</time>
      </trkpt>
      <trkpt lat="46.01472" lon="4.60276">
        <ele>574</ele>
        <time>2017-01-12T08:14:13Z</time>
      </trkpt>
      <trkpt lat="46.01471" lon="4.60275">
        <ele>574</ele>
        <time>2017-01-12T08:14:14Z</time>
      </trkpt>
      <trkpt lat="46.01463" lon="4.60269">
        <ele>573</ele>
        <time>2017-01-12T08:14:21Z</time>
      </trkpt>
      <trkpt lat="46.01462" lon="4.60268">
        <ele>573</ele>
        <time>2017-01-12T08:14:22Z</time>
      </trkpt>
      <trkpt lat="46.01455" lon="4.6026">
        <ele>572</ele>
        <time>2017-01-12T08:14:29Z</time>
      </trkpt>
      <trkpt lat="46.01454" lon="4.60259">
        <ele>572</ele>
        <time>2017-01-12T08:14:30Z</time>
      </trkpt>
      <trkpt lat="46.0145" lon="4.60248">
        <ele>578</ele>
        <time>2017-01-12T08:14:37Z</time>
      </trkpt>
      <trkpt lat="46.0145" lon="4.60247">
        <ele>578</ele>
        <time>2017-01-12T08:14:38Z</time>
      </trkpt>
      <trkpt lat="46.01446" lon="4.60235">
        <ele>578</ele>
        <time>2017-01-12T08:14:46Z</time>
      </trkpt>
      <trkpt lat="46.01446" lon="4.60234">
        <ele>578</ele>
        <time>2017-01-12T08:14:47Z</time>
      </trkpt>
      <trkpt lat="46.01444" lon="4.60222">
        <ele>578</ele>
        <time>2017-01-12T08:14:55Z</time>
      </trkpt>
      <trkpt lat="46.01444" lon="4.6022">
        <ele>578</ele>
        <time>2017-01-12T08:14:56Z</time>
      </trkpt>
      <trkpt lat="46.01442" lon="4.60209">
        <ele>578</ele>
        <time>2017-01-12T08:15:04Z</time>
      </trkpt>
      <trkpt lat="46.01442" lon="4.60207">
        <ele>578</ele>
        <time>2017-01-12T08:15:05Z</time>
      </trkpt>
      <trkpt lat="46.01442" lon="4.60195">
        <ele>578</ele>
        <time>2017-01-12T08:15:12Z</time>
      </trkpt>
      <trkpt lat="46.01442" lon="4.60194">
        <ele>578</ele>
        <time>2017-01-12T08:15:13Z</time>
      </trkpt>
      <trkpt lat="46.01441" lon="4.60182">
        <ele>578</ele>
        <time>2017-01-12T08:15:20Z</time>
      </trkpt>
      <trkpt lat="46.01441" lon="4.6018">
        <ele>578</ele>
        <time>2017-01-12T08:15:21Z</time>
      </trkpt>
      <trkpt lat="46.01441" lon="4.60168">
        <ele>578</ele>
        <time>2017-01-12T08:15:29Z</time>
      </trkpt>
      <trkpt lat="46.01441" lon="4.60167">
        <ele>578</ele>
        <time>2017-01-12T08:15:30Z</time>
      </trkpt>
      <trkpt lat="46.01444" lon="4.60155">
        <ele>577</ele>
        <time>2017-01-12T08:15:38Z</time>
      </trkpt>
      <trkpt lat="46.01444" lon="4.60154">
        <ele>577</ele>
        <time>2017-01-12T08:15:39Z</time>
      </trkpt>
      <trkpt lat="46.01448" lon="4.60143">
        <ele>577</ele>
        <time>2017-01-12T08:15:47Z</time>
      </trkpt>
      <trkpt lat="46.01448" lon="4.60142">
        <ele>577</ele>
        <time>2017-01-12T08:15:48Z</time>
      </trkpt>
      <trkpt lat="46.01454" lon="4.60132">
        <ele>577</ele>
        <time>2017-01-12T08:15:55Z</time>
      </trkpt>
      <trkpt lat="46.01454" lon="4.60131">
        <ele>577</ele>
        <time>2017-01-12T08:15:56Z</time>
      </trkpt>
      <trkpt lat="46.01461" lon="4.60124">
        <ele>577</ele>
        <time>2017-01-12T08:16:04Z</time>
      </trkpt>
      <trkpt lat="46.01462" lon="4.60124">
        <ele>577</ele>
        <time>2017-01-12T08:16:05Z</time>
      </trkpt>
      <trkpt lat="46.0147" lon="4.60127">
        <ele>578</ele>
        <time>2017-01-12T08:16:17Z</time>
      </trkpt>
      <trkpt lat="46.01471" lon="4.60128">
        <ele>578</ele>
        <time>2017-01-12T08:16:18Z</time>
      </trkpt>
      <trkpt lat="46.01477" lon="4.60137">
        <ele>579</ele>
        <time>2017-01-12T08:16:31Z</time>
      </trkpt>
      <trkpt lat="46.01477" lon="4.60138">
        <ele>579</ele>
        <time>2017-01-12T08:16:32Z</time>
      </trkpt>
      <trkpt lat="46.01482" lon="4.60147">
        <ele>580</ele>
        <time>2017-01-12T08:16:46Z</time>
      </trkpt>
      <trkpt lat="46.01483" lon="4.60148">
        <ele>581</ele>
        <time>2017-01-12T08:16:47Z</time>
      </trkpt>
      <trkpt lat="46.01485" lon="4.6016">
        <ele>583</ele>
        <time>2017-01-12T08:16:56Z</time>
      </trkpt>
      <trkpt lat="46.01485" lon="4.60162">
        <ele>583</ele>
        <time>2017-01-12T08:16:57Z</time>
      </trkpt>
      <trkpt lat="46.01488" lon="4.60173">
        <ele>585</ele>
        <time>2017-01-12T08:17:04Z</time>
      </trkpt>
      <trkpt lat="46.01489" lon="4.60174">
        <ele>585</ele>
        <time>2017-01-12T08:17:05Z</time>
      </trkpt>
      <trkpt lat="46.01494" lon="4.60184">
        <ele>584</ele>
        <time>2017-01-12T08:17:14Z</time>
      </trkpt>
      <trkpt lat="46.01494" lon="4.60185">
        <ele>584</ele>
        <time>2017-01-12T08:17:15Z</time>
      </trkpt>
      <trkpt lat="46.01499" lon="4.60195">
        <ele>584</ele>
        <time>2017-01-12T08:17:25Z</time>
      </trkpt>
      <trkpt lat="46.01499" lon="4.60196">
        <ele>584</ele>
        <time>2017-01-12T08:17:26Z</time>
      </trkpt>
      <trkpt lat="46.01504" lon="4.60207">
        <ele>593</ele>
        <time>2017-01-12T08:17:36Z</time>
      </trkpt>
      <trkpt lat="46.01505" lon="4.60207">
        <ele>593</ele>
        <time>2017-01-12T08:17:37Z</time>
      </trkpt>
      <trkpt lat="46.01512" lon="4.60213">
        <ele>593</ele>
        <time>2017-01-12T08:17:48Z</time>
      </trkpt>
      <trkpt lat="46.01513" lon="4.60213">
        <ele>593</ele>
        <time>2017-01-12T08:17:49Z</time>
      </trkpt>
      <trkpt lat="46.01521" lon="4.60218">
        <ele>594</ele>
        <time>2017-01-12T08:18:01Z</time>
      </trkpt>
      <trkpt lat="46.01521" lon="4.60219">
        <ele>594</ele>
        <time>2017-01-12T08:18:02Z</time>
      </trkpt>
      <trkpt lat="46.01528" lon="4.60226">
        <ele>594</ele>
        <time>2017-01-12T08:18:12Z</time>
      </trkpt>
      <trkpt lat="46.01529" lon="4.60226">
        <ele>594</ele>
        <time>2017-01-12T08:18:13Z</time>
      </trkpt>
      <trkpt lat="46.01535" lon="4.60235">
        <ele>595</ele>
        <time>2017-01-12T08:18:22Z</time>
      </trkpt>
      <trkpt lat="46.01536" lon="4.60236">
        <ele>595</ele>
        <time>2017-01-12T08:18:23Z</time>
      </trkpt>
      <trkpt lat="46.01543" lon="4.60242">
        <ele>596</ele>
        <time>2017-01-12T08:18:31Z</time>
      </trkpt>
      <trkpt lat="46.01544" lon="4.60243">
        <ele>596</ele>
        <time>2017-01-12T08:18:32Z</time>
      </trkpt>
      <trkpt lat="46.01553" lon="4.60244">
        <ele>598</ele>
        <time>2017-01-12T08:18:40Z</time>
      </trkpt>
      <trkpt lat="46.01554" lon="4.60244">
        <ele>598</ele>
        <time>2017-01-12T08:18:41Z</time>
      </trkpt>
      <trkpt lat="46.01562" lon="4.60244">
        <ele>599</ele>
        <time>2017-01-12T08:18:49Z</time>
      </trkpt>
      <trkpt lat="46.01563" lon="4.60244">
        <ele>600</ele>
        <time>2017-01-12T08:18:50Z</time>
      </trkpt>
      <trkpt lat="46.0157" lon="4.60252">
        <ele>601</ele>
        <time>2017-01-12T08:19:00Z</time>
      </trkpt>
      <trkpt lat="46.0157" lon="4.60253">
        <ele>601</ele>
        <time>2017-01-12T08:19:01Z</time>
      </trkpt>
      <trkpt lat="46.01578" lon="4.60257">
        <ele>603</ele>
        <time>2017-01-12T08:19:11Z</time>
      </trkpt>
      <trkpt lat="46.01579" lon="4.60258">
        <ele>603</ele>
        <time>2017-01-12T08:19:12Z</time>
      </trkpt>
      <trkpt lat="46.01587" lon="4.60261">
        <ele>609</ele>
        <time>2017-01-12T08:19:21Z</time>
      </trkpt>
      <trkpt lat="46.01588" lon="4.60261">
        <ele>610</ele>
        <time>2017-01-12T08:19:22Z</time>
      </trkpt>
      <trkpt lat="46.01597" lon="4.60262">
        <ele>611</ele>
        <time>2017-01-12T08:19:33Z</time>
      </trkpt>
      <trkpt lat="46.01598" lon="4.60262">
        <ele>611</ele>
        <time>2017-01-12T08:19:34Z</time>
      </trkpt>
      <trkpt lat="46.01606" lon="4.60263">
        <ele>612</ele>
        <time>2017-01-12T08:19:45Z</time>
      </trkpt>
      <trkpt lat="46.01607" lon="4.60264">
        <ele>612</ele>
        <time>2017-01-12T08:19:46Z</time>
      </trkpt>
      <trkpt lat="46.01615" lon="4.6027">
        <ele>614</ele>
        <time>2017-01-12T08:19:58Z</time>
      </trkpt>
      <trkpt lat="46.01615" lon="4.60271">
        <ele>614</ele>
        <time>2017-01-12T08:19:59Z</time>
      </trkpt>
      <trkpt lat="46.01624" lon="4.60274">
        <ele>615</ele>
        <time>2017-01-12T08:20:10Z</time>
      </trkpt>
      <trkpt lat="46.01624" lon="4.60274">
        <ele>615</ele>
        <time>2017-01-12T08:20:11Z</time>
      </trkpt>
      <trkpt lat="46.01633" lon="4.60279">
        <ele>616</ele>
        <time>2017-01-12T08:20:24Z</time>
      </trkpt>
      <trkpt lat="46.01633" lon="4.6028">
        <ele>616</ele>
        <time>2017-01-12T08:20:25Z</time>
      </trkpt>
      <trkpt lat="46.01641" lon="4.60286">
        <ele>617</ele>
        <time>2017-01-12T08:20:36Z</time>
      </trkpt>
      <trkpt lat="46.01642" lon="4.60286">
        <ele>617</ele>
        <time>2017-01-12T08:20:37Z</time>
      </trkpt>
      <trkpt lat="46.01651" lon="4.60285">
        <ele>618</ele>
        <time>2017-01-12T08:20:49Z</time>
      </trkpt>
      <trkpt lat="46.01652" lon="4.60285">
        <ele>618</ele>
        <time>2017-01-12T08:20:50Z</time>
      </trkpt>
      <trkpt lat="46.0166" lon="4.60285">
        <ele>619</ele>
        <time>2017-01-12T08:21:05Z</time>
      </trkpt>
      <trkpt lat="46.01661" lon="4.60285">
        <ele>619</ele>
        <time>2017-01-12T08:21:06Z</time>
      </trkpt>
      <trkpt lat="46.01669" lon="4.60286">
        <ele>633</ele>
        <time>2017-01-12T08:21:19Z</time>
      </trkpt>
      <trkpt lat="46.0167" lon="4.60287">
        <ele>633</ele>
        <time>2017-01-12T08:21:20Z</time>
      </trkpt>
      <trkpt lat="46.01678" lon="4.60287">
        <ele>634</ele>
        <time>2017-01-12T08:21:32Z</time>
      </trkpt>
      <trkpt lat="46.01679" lon="4.60286">
        <ele>634</ele>
        <time>2017-01-12T08:21:33Z</time>
      </trkpt>
      <trkpt lat="46.01687" lon="4.60286">
        <ele>635</ele>
        <time>2017-01-12T08:21:50Z</time>
      </trkpt>
      <trkpt lat="46.01688" lon="4.60286">
        <ele>635</ele>
        <time>2017-01-12T08:21:51Z</time>
      </trkpt>
      <trkpt lat="46.01696" lon="4.60291">
        <ele>635</ele>
        <time>2017-01-12T08:22:06Z</time>
      </trkpt>
      <trkpt lat="46.01697" lon="4.60291">
        <ele>635</ele>
        <time>2017-01-12T08:22:07Z</time>
      </trkpt>
      <trkpt lat="46.01705" lon="4.60286">
        <ele>636</ele>
        <time>2017-01-12T08:22:21Z</time>
      </trkpt>
      <trkpt lat="46.01706" lon="4.60286">
        <ele>637</ele>
        <time>2017-01-12T08:22:22Z</time>
      </trkpt>
      <trkpt lat="46.01714" lon="4.60283">
        <ele>638</ele>
        <time>2017-01-12T08:22:44Z</time>
      </trkpt>
      <trkpt lat="46.01715" lon="4.60282">
        <ele>638</ele>
        <time>2017-01-12T08:22:45Z</time>
      </trkpt>
      <trkpt lat="46.01723" lon="4.60281">
        <ele>639</ele>
        <time>2017-01-12T08:22:56Z</time>
      </trkpt>
      <trkpt lat="46.01724" lon="4.60281">
        <ele>639</ele>
        <time>2017-01-12T08:22:57Z</time>
      </trkpt>
      <trkpt lat="46.01732" lon="4.60281">
        <ele>640</ele>
        <time>2017-01-12T08:23:07Z</time>
      </trkpt>
      <trkpt lat="46.01733" lon="4.60281">
        <ele>640</ele>
        <time>2017-01-12T08:23:08Z</time>
      </trkpt>
      <trkpt lat="46.01742" lon="4.60283">
        <ele>641</ele>
        <time>2017-01-12T08:23:20Z</time>
      </trkpt>
      <trkpt lat="46.01743" lon="4.60283">
        <ele>641</ele>
        <time>2017-01-12T08:23:21Z</time>
      </trkpt>
      <trkpt lat="46.0175" lon="4.60278">
        <ele>650</ele>
        <time>2017-01-12T08:23:35Z</time>
      </trkpt>
      <trkpt lat="46.01751" lon="4.60278">
        <ele>650</ele>
        <time>2017-01-12T08:23:36Z</time>
      </trkpt>
      <trkpt lat="46.0176" lon="4.6028">
        <ele>651</ele>
        <time>2017-01-12T08:23:49Z</time>
      </trkpt>
      <trkpt lat="46.01761" lon="4.6028">
        <ele>651</ele>
        <time>2017-01-12T08:23:50Z</time>
      </trkpt>
      <trkpt lat="46.01768" lon="4.60285">
        <ele>651</ele>
        <time>2017-01-12T08:24:00Z</time>
      </trkpt>
      <trkpt lat="46.01769" lon="4.60285">
        <ele>651</ele>
        <time>2017-01-12T08:24:01Z</time>
      </trkpt>
      <trkpt lat="46.01777" lon="4.60284">
        <ele>651</ele>
        <time>2017-01-12T08:24:12Z</time>
      </trkpt>
      <trkpt lat="46.01778" lon="4.60284">
        <ele>651</ele>
        <time>2017-01-12T08:24:13Z</time>
      </trkpt>
      <trkpt lat="46.01786" lon="4.60279">
        <ele>652</ele>
        <time>2017-01-12T08:24:25Z</time>
      </trkpt>
      <trkpt lat="46.01787" lon="4.60279">
        <ele>652</ele>
        <time>2017-01-12T08:24:26Z</time>
      </trkpt>
      <trkpt lat="46.01795" lon="4.60276">
        <ele>653</ele>
        <time>2017-01-12T08:24:39Z</time>
      </trkpt>
      <trkpt lat="46.01796" lon="4.60275">
        <ele>653</ele>
        <time>2017-01-12T08:24:40Z</time>
      </trkpt>
      <trkpt lat="46.01803" lon="4.60269">
        <ele>655</ele>
        <time>2017-01-12T08:24:50Z</time>
      </trkpt>
      <trkpt lat="46.01804" lon="4.60268">
        <ele>655</ele>
        <time>2017-01-12T08:24:51Z</time>
      </trkpt>
      <trkpt lat="46.0181" lon="4.60259">
        <ele>657</ele>
        <time>2017-01-12T08:25:02Z</time>
      </trkpt>
      <trkpt lat="46.01811" lon="4.60258">
        <ele>657</ele>
        <time>2017-01-12T08:25:03Z</time>
      </trkpt>
      <trkpt lat="46.01819" lon="4.60255">
        <ele>659</ele>
        <time>2017-01-12T08:25:14Z</time>
      </trkpt>
      <trkpt lat="46.0182" lon="4.60254">
        <ele>660</ele>
        <time>2017-01-12T08:25:15Z</time>
      </trkpt>
      <trkpt lat="46.01829" lon="4.60253">
        <ele>663</ele>
        <time>2017-01-12T08:25:25Z</time>
      </trkpt>
      <trkpt lat="46.0183" lon="4.60252">
        <ele>664</ele>
        <time>2017-01-12T08:25:26Z</time>
      </trkpt>
      <trkpt lat="46.01838" lon="4.60247">
        <ele>665</ele>
        <time>2017-01-12T08:25:36Z</time>
      </trkpt>
      <trkpt lat="46.01839" lon="4.60246">
        <ele>665</ele>
        <time>2017-01-12T08:25:37Z</time>
      </trkpt>
      <trkpt lat="46.01846" lon="4.60241">
        <ele>664</ele>
        <time>2017-01-12T08:25:47Z</time>
      </trkpt>
      <trkpt lat="46.01847" lon="4.60241">
        <ele>664</ele>
        <time>2017-01-12T08:25:48Z</time>
      </trkpt>
      <trkpt lat="46.01855" lon="4.60235">
        <ele>663</ele>
        <time>2017-01-12T08:25:59Z</time>
      </trkpt>
      <trkpt lat="46.01856" lon="4.60234">
        <ele>663</ele>
        <time>2017-01-12T08:26:00Z</time>
      </trkpt>
      <trkpt lat="46.01859" lon="4.60224">
        <ele>662</ele>
        <time>2017-01-12T08:30:07Z</time>
      </trkpt>
      <trkpt lat="46.01859" lon="4.60222">
        <ele>662</ele>
        <time>2017-01-12T08:30:08Z</time>
      </trkpt>
      <trkpt lat="46.01862" lon="4.6021">
        <ele>662</ele>
        <time>2017-01-12T08:30:16Z</time>
      </trkpt>
      <trkpt lat="46.01862" lon="4.60209">
        <ele>662</ele>
        <time>2017-01-12T08:30:17Z</time>
      </trkpt>
      <trkpt lat="46.01871" lon="4.60206">
        <ele>662</ele>
        <time>2017-01-12T08:30:30Z</time>
      </trkpt>
      <trkpt lat="46.01871" lon="4.60207">
        <ele>662</ele>
        <time>2017-01-12T08:30:31Z</time>
      </trkpt>
      <trkpt lat="46.01872" lon="4.60194">
        <ele>661</ele>
        <time>2017-01-12T08:31:00Z</time>
      </trkpt>
      <trkpt lat="46.01872" lon="4.60193">
        <ele>661</ele>
        <time>2017-01-12T08:31:01Z</time>
      </trkpt>
      <trkpt lat="46.01876" lon="4.60181">
        <ele>661</ele>
        <time>2017-01-12T08:31:13Z</time>
      </trkpt>
      <trkpt lat="46.01876" lon="4.6018">
        <ele>661</ele>
        <time>2017-01-12T08:31:14Z</time>
      </trkpt>
      <trkpt lat="46.01873" lon="4.60169">
        <ele>661</ele>
        <time>2017-01-12T08:31:22Z</time>
      </trkpt>
      <trkpt lat="46.01872" lon="4.60168">
        <ele>661</ele>
        <time>2017-01-12T08:31:23Z</time>
      </trkpt>
      <trkpt lat="46.01873" lon="4.60155">
        <ele>657</ele>
        <time>2017-01-12T08:31:34Z</time>
      </trkpt>
      <trkpt lat="46.01873" lon="4.60154">
        <ele>657</ele>
        <time>2017-01-12T08:31:35Z</time>
      </trkpt>
      <trkpt lat="46.01873" lon="4.60142">
        <ele>656</ele>
        <time>2017-01-12T08:31:46Z</time>
      </trkpt>
      <trkpt lat="46.01873" lon="4.60141">
        <ele>656</ele>
        <time>2017-01-12T08:31:47Z</time>
      </trkpt>
      <trkpt lat="46.01876" lon="4.60129">
        <ele>655</ele>
        <time>2017-01-12T08:31:59Z</time>
      </trkpt>
      <trkpt lat="46.01876" lon="4.60128">
        <ele>655</ele>
        <time>2017-01-12T08:32:00Z</time>
      </trkpt>
      <trkpt lat="46.01878" lon="4.60117">
        <ele>655</ele>
        <time>2017-01-12T08:32:11Z</time>
      </trkpt>
      <trkpt lat="46.01879" lon="4.60116">
        <ele>655</ele>
        <time>2017-01-12T08:32:12Z</time>
      </trkpt>
      <trkpt lat="46.01881" lon="4.60104">
        <ele>654</ele>
        <time>2017-01-12T08:32:22Z</time>
      </trkpt>
      <trkpt lat="46.01882" lon="4.60103">
        <ele>654</ele>
        <time>2017-01-12T08:32:23Z</time>
      </trkpt>
      <trkpt lat="46.01886" lon="4.60092">
        <ele>653</ele>
        <time>2017-01-12T08:32:34Z</time>
      </trkpt>
      <trkpt lat="46.01886" lon="4.6009">
        <ele>653</ele>
        <time>2017-01-12T08:32:35Z</time>
      </trkpt>
      <trkpt lat="46.01889" lon="4.60078">
        <ele>647</ele>
        <time>2017-01-12T08:32:44Z</time>
      </trkpt>
      <trkpt lat="46.01889" lon="4.60077">
        <ele>647</ele>
        <time>2017-01-12T08:32:45Z</time>
      </trkpt>
      <trkpt lat="46.01892" lon="4.60065">
        <ele>646</ele>
        <time>2017-01-12T08:32:55Z</time>
      </trkpt>
      <trkpt lat="46.01892" lon="4.60064">
        <ele>646</ele>
        <time>2017-01-12T08:32:56Z</time>
      </trkpt>
      <trkpt lat="46.01896" lon="4.60054">
        <ele>646</ele>
        <time>2017-01-12T08:33:06Z</time>
      </trkpt>
      <trkpt lat="46.01896" lon="4.60052">
        <ele>646</ele>
        <time>2017-01-12T08:33:07Z</time>
      </trkpt>
      <trkpt lat="46.01899" lon="4.6004">
        <ele>645</ele>
        <time>2017-01-12T08:33:15Z</time>
      </trkpt>
      <trkpt lat="46.019" lon="4.60039">
        <ele>645</ele>
        <time>2017-01-12T08:33:16Z</time>
      </trkpt>
      <trkpt lat="46.01903" lon="4.60028">
        <ele>644</ele>
        <time>2017-01-12T08:33:25Z</time>
      </trkpt>
      <trkpt lat="46.01904" lon="4.60027">
        <ele>644</ele>
        <time>2017-01-12T08:33:26Z</time>
      </trkpt>
      <trkpt lat="46.01909" lon="4.60017">
        <ele>644</ele>
        <time>2017-01-12T08:33:34Z</time>
      </trkpt>
      <trkpt lat="46.0191" lon="4.60016">
        <ele>644</ele>
        <time>2017-01-12T08:33:35Z</time>
      </trkpt>
      <trkpt lat="46.01914" lon="4.60006">
        <ele>643</ele>
        <time>2017-01-12T08:33:41Z</time>
      </trkpt>
      <trkpt lat="46.01914" lon="4.60004">
        <ele>643</ele>
        <time>2017-01-12T08:33:42Z</time>
      </trkpt>
      <trkpt lat="46.01917" lon="4.59994">
        <ele>642</ele>
        <time>2017-01-12T08:33:47Z</time>
      </trkpt>
      <trkpt lat="46.01918" lon="4.59992">
        <ele>642</ele>
        <time>2017-01-12T08:33:48Z</time>
      </trkpt>
      <trkpt lat="46.0192" lon="4.59981">
        <ele>641</ele>
        <time>2017-01-12T08:33:53Z</time>
      </trkpt>
      <trkpt lat="46.01921" lon="4.59978">
        <ele>641</ele>
        <time>2017-01-12T08:33:54Z</time>
      </trkpt>
      <trkpt lat="46.01923" lon="4.59968">
        <ele>641</ele>
        <time>2017-01-12T08:33:58Z</time>
      </trkpt>
      <trkpt lat="46.01923" lon="4.59966">
        <ele>640</ele>
        <time>2017-01-12T08:33:59Z</time>
      </trkpt>
      <trkpt lat="46.01925" lon="4.59954">
        <ele>640</ele>
        <time>2017-01-12T08:34:04Z</time>
      </trkpt>
      <trkpt lat="46.01926" lon="4.59951">
        <ele>640</ele>
        <time>2017-01-12T08:34:05Z</time>
      </trkpt>
      <trkpt lat="46.01928" lon="4.59939">
        <ele>639</ele>
        <time>2017-01-12T08:34:11Z</time>
      </trkpt>
      <trkpt lat="46.01928" lon="4.59937">
        <ele>639</ele>
        <time>2017-01-12T08:34:12Z</time>
      </trkpt>
      <trkpt lat="46.01931" lon="4.59925">
        <ele>639</ele>
        <time>2017-01-12T08:34:19Z</time>
      </trkpt>
      <trkpt lat="46.01931" lon="4.59924">
        <ele>639</ele>
        <time>2017-01-12T08:34:20Z</time>
      </trkpt>
      <trkpt lat="46.01934" lon="4.59913">
        <ele>639</ele>
        <time>2017-01-12T08:34:26Z</time>
      </trkpt>
      <trkpt lat="46.01935" lon="4.59911">
        <ele>639</ele>
        <time>2017-01-12T08:34:27Z</time>
      </trkpt>
      <trkpt lat="46.01938" lon="4.59899">
        <ele>639</ele>
        <time>2017-01-12T08:34:33Z</time>
      </trkpt>
      <trkpt lat="46.01938" lon="4.59897">
        <ele>639</ele>
        <time>2017-01-12T08:34:34Z</time>
      </trkpt>
      <trkpt lat="46.01939" lon="4.59885">
        <ele>640</ele>
        <time>2017-01-12T08:34:40Z</time>
      </trkpt>
      <trkpt lat="46.0194" lon="4.59883">
        <ele>640</ele>
        <time>2017-01-12T08:34:41Z</time>
      </trkpt>
      <trkpt lat="46.01942" lon="4.59871">
        <ele>640</ele>
        <time>2017-01-12T08:34:47Z</time>
      </trkpt>
      <trkpt lat="46.01942" lon="4.59869">
        <ele>640</ele>
        <time>2017-01-12T08:34:48Z</time>
      </trkpt>
      <trkpt lat="46.01943" lon="4.59857">
        <ele>640</ele>
        <time>2017-01-12T08:34:54Z</time>
      </trkpt>
      <trkpt lat="46.01943" lon="4.59855">
        <ele>640</ele>
        <time>2017-01-12T08:34:55Z</time>
      </trkpt>
      <trkpt lat="46.01945" lon="4.59843">
        <ele>640</ele>
        <time>2017-01-12T08:35:03Z</time>
      </trkpt>
      <trkpt lat="46.01945" lon="4.59842">
        <ele>640</ele>
        <time>2017-01-12T08:35:04Z</time>
      </trkpt>
      <trkpt lat="46.01947" lon="4.59829">
        <ele>640</ele>
        <time>2017-01-12T08:35:11Z</time>
      </trkpt>
      <trkpt lat="46.01947" lon="4.59828">
        <ele>640</ele>
        <time>2017-01-12T08:35:12Z</time>
      </trkpt>
      <trkpt lat="46.0195" lon="4.59817">
        <ele>640</ele>
        <time>2017-01-12T08:35:18Z</time>
      </trkpt>
      <trkpt lat="46.0195" lon="4.59813">
        <ele>641</ele>
        <time>2017-01-12T08:35:19Z</time>
      </trkpt>
      <trkpt lat="46.01951" lon="4.59801">
        <ele>641</ele>
        <time>2017-01-12T08:35:25Z</time>
      </trkpt>
      <trkpt lat="46.01952" lon="4.59799">
        <ele>641</ele>
        <time>2017-01-12T08:35:26Z</time>
      </trkpt>
      <trkpt lat="46.01955" lon="4.59787">
        <ele>641</ele>
        <time>2017-01-12T08:35:33Z</time>
      </trkpt>
      <trkpt lat="46.01956" lon="4.59785">
        <ele>641</ele>
        <time>2017-01-12T08:35:34Z</time>
      </trkpt>
      <trkpt lat="46.01958" lon="4.59774">
        <ele>641</ele>
        <time>2017-01-12T08:35:40Z</time>
      </trkpt>
      <trkpt lat="46.01958" lon="4.59772">
        <ele>641</ele>
        <time>2017-01-12T08:35:41Z</time>
      </trkpt>
      <trkpt lat="46.0196" lon="4.5976">
        <ele>641</ele>
        <time>2017-01-12T08:35:48Z</time>
      </trkpt>
      <trkpt lat="46.0196" lon="4.59758">
        <ele>641</ele>
        <time>2017-01-12T08:35:49Z</time>
      </trkpt>
      <trkpt lat="46.01961" lon="4.59747">
        <ele>641</ele>
        <time>2017-01-12T08:35:55Z</time>
      </trkpt>
      <trkpt lat="46.01962" lon="4.59745">
        <ele>641</ele>
        <time>2017-01-12T08:35:56Z</time>
      </trkpt>
      <trkpt lat="46.01967" lon="4.59735">
        <ele>641</ele>
        <time>2017-01-12T08:36:05Z</time>
      </trkpt>
      <trkpt lat="46.01967" lon="4.59733">
        <ele>641</ele>
        <time>2017-01-12T08:36:06Z</time>
      </trkpt>
      <trkpt lat="46.01967" lon="4.59721">
        <ele>641</ele>
        <time>2017-01-12T08:36:16Z</time>
      </trkpt>
      <trkpt lat="46.01967" lon="4.5972">
        <ele>641</ele>
        <time>2017-01-12T08:36:17Z</time>
      </trkpt>
      <trkpt lat="46.01966" lon="4.59708">
        <ele>641</ele>
        <time>2017-01-12T08:36:23Z</time>
      </trkpt>
      <trkpt lat="46.01967" lon="4.59705">
        <ele>641</ele>
        <time>2017-01-12T08:36:24Z</time>
      </trkpt>
      <trkpt lat="46.0197" lon="4.59693">
        <ele>641</ele>
        <time>2017-01-12T08:36:30Z</time>
      </trkpt>
      <trkpt lat="46.0197" lon="4.59692">
        <ele>641</ele>
        <time>2017-01-12T08:36:31Z</time>
      </trkpt>
      <trkpt lat="46.01972" lon="4.5968">
        <ele>641</ele>
        <time>2017-01-12T08:36:38Z</time>
      </trkpt>
      <trkpt lat="46.01972" lon="4.59678">
        <ele>641</ele>
        <time>2017-01-12T08:36:39Z</time>
      </trkpt>
      <trkpt lat="46.01974" lon="4.59666">
        <ele>641</ele>
        <time>2017-01-12T08:36:45Z</time>
      </trkpt>
      <trkpt lat="46.01974" lon="4.59664">
        <ele>641</ele>
        <time>2017-01-12T08:36:46Z</time>
      </trkpt>
      <trkpt lat="46.01973" lon="4.59653">
        <ele>641</ele>
        <time>2017-01-12T08:36:52Z</time>
      </trkpt>
      <trkpt lat="46.01972" lon="4.5965">
        <ele>641</ele>
        <time>2017-01-12T08:36:53Z</time>
      </trkpt>
      <trkpt lat="46.0197" lon="4.59638">
        <ele>641</ele>
        <time>2017-01-12T08:36:59Z</time>
      </trkpt>
      <trkpt lat="46.0197" lon="4.59637">
        <ele>641</ele>
        <time>2017-01-12T08:37:00Z</time>
      </trkpt>
      <trkpt lat="46.01968" lon="4.59625">
        <ele>641</ele>
        <time>2017-01-12T08:37:08Z</time>
      </trkpt>
      <trkpt lat="46.01967" lon="4.59624">
        <ele>641</ele>
        <time>2017-01-12T08:37:09Z</time>
      </trkpt>
      <trkpt lat="46.01962" lon="4.59614">
        <ele>641</ele>
        <time>2017-01-12T08:37:16Z</time>
      </trkpt>
      <trkpt lat="46.01961" lon="4.59612">
        <ele>641</ele>
        <time>2017-01-12T08:37:17Z</time>
      </trkpt>
      <trkpt lat="46.01955" lon="4.59604">
        <ele>641</ele>
        <time>2017-01-12T08:37:23Z</time>
      </trkpt>
      <trkpt lat="46.01954" lon="4.59602">
        <ele>641</ele>
        <time>2017-01-12T08:37:24Z</time>
      </trkpt>
      <trkpt lat="46.0195" lon="4.59591">
        <ele>641</ele>
        <time>2017-01-12T08:37:31Z</time>
      </trkpt>
      <trkpt lat="46.0195" lon="4.59589">
        <ele>641</ele>
        <time>2017-01-12T08:37:32Z</time>
      </trkpt>
      <trkpt lat="46.01947" lon="4.59578">
        <ele>643</ele>
        <time>2017-01-12T08:37:38Z</time>
      </trkpt>
      <trkpt lat="46.01947" lon="4.59576">
        <ele>643</ele>
        <time>2017-01-12T08:37:39Z</time>
      </trkpt>
      <trkpt lat="46.01943" lon="4.59564">
        <ele>643</ele>
        <time>2017-01-12T08:37:45Z</time>
      </trkpt>
      <trkpt lat="46.01943" lon="4.59564">
        <ele>643</ele>
        <time>2017-01-12T08:37:46Z</time>
      </trkpt>
      <trkpt lat="46.01942" lon="4.59551">
        <ele>644</ele>
        <time>2017-01-12T08:37:52Z</time>
      </trkpt>
      <trkpt lat="46.01942" lon="4.59549">
        <ele>644</ele>
        <time>2017-01-12T08:37:53Z</time>
      </trkpt>
      <trkpt lat="46.01944" lon="4.59537">
        <ele>644</ele>
        <time>2017-01-12T08:37:59Z</time>
      </trkpt>
      <trkpt lat="46.01944" lon="4.59535">
        <ele>644</ele>
        <time>2017-01-12T08:38:00Z</time>
      </trkpt>
      <trkpt lat="46.01947" lon="4.59523">
        <ele>645</ele>
        <time>2017-01-12T08:38:06Z</time>
      </trkpt>
      <trkpt lat="46.01948" lon="4.59521">
        <ele>645</ele>
        <time>2017-01-12T08:38:07Z</time>
      </trkpt>
      <trkpt lat="46.01948" lon="4.59509">
        <ele>645</ele>
        <time>2017-01-12T08:38:13Z</time>
      </trkpt>
      <trkpt lat="46.01948" lon="4.59507">
        <ele>645</ele>
        <time>2017-01-12T08:38:14Z</time>
      </trkpt>
      <trkpt lat="46.01949" lon="4.59497">
        <ele>647</ele>
        <time>2017-01-12T08:38:19Z</time>
      </trkpt>
      <trkpt lat="46.01949" lon="4.59494">
        <ele>647</ele>
        <time>2017-01-12T08:38:20Z</time>
      </trkpt>
      <trkpt lat="46.0195" lon="4.59483">
        <ele>647</ele>
        <time>2017-01-12T08:38:25Z</time>
      </trkpt>
      <trkpt lat="46.0195" lon="4.59481">
        <ele>647</ele>
        <time>2017-01-12T08:38:26Z</time>
      </trkpt>
      <trkpt lat="46.01948" lon="4.59469">
        <ele>647</ele>
        <time>2017-01-12T08:38:32Z</time>
      </trkpt>
      <trkpt lat="46.01948" lon="4.59468">
        <ele>647</ele>
        <time>2017-01-12T08:38:33Z</time>
      </trkpt>
      <trkpt lat="46.0195" lon="4.59456">
        <ele>647</ele>
        <time>2017-01-12T08:38:39Z</time>
      </trkpt>
      <trkpt lat="46.0195" lon="4.59454">
        <ele>647</ele>
        <time>2017-01-12T08:38:40Z</time>
      </trkpt>
      <trkpt lat="46.01954" lon="4.59443">
        <ele>648</ele>
        <time>2017-01-12T08:38:47Z</time>
      </trkpt>
      <trkpt lat="46.01955" lon="4.59442">
        <ele>648</ele>
        <time>2017-01-12T08:38:48Z</time>
      </trkpt>
      <trkpt lat="46.01955" lon="4.5943">
        <ele>648</ele>
        <time>2017-01-12T08:38:56Z</time>
      </trkpt>
      <trkpt lat="46.01955" lon="4.59428">
        <ele>648</ele>
        <time>2017-01-12T08:38:57Z</time>
      </trkpt>
      <trkpt lat="46.01955" lon="4.59416">
        <ele>648</ele>
        <time>2017-01-12T08:39:03Z</time>
      </trkpt>
      <trkpt lat="46.01955" lon="4.59414">
        <ele>648</ele>
        <time>2017-01-12T08:39:04Z</time>
      </trkpt>
      <trkpt lat="46.01957" lon="4.59403">
        <ele>649</ele>
        <time>2017-01-12T08:39:09Z</time>
      </trkpt>
      <trkpt lat="46.01957" lon="4.594">
        <ele>649</ele>
        <time>2017-01-12T08:39:10Z</time>
      </trkpt>
      <trkpt lat="46.0196" lon="4.59389">
        <ele>649</ele>
        <time>2017-01-12T08:39:16Z</time>
      </trkpt>
      <trkpt lat="46.01961" lon="4.59387">
        <ele>649</ele>
        <time>2017-01-12T08:39:17Z</time>
      </trkpt>
      <trkpt lat="46.01962" lon="4.59375">
        <ele>650</ele>
        <time>2017-01-12T08:39:24Z</time>
      </trkpt>
      <trkpt lat="46.01963" lon="4.59373">
        <ele>650</ele>
        <time>2017-01-12T08:39:25Z</time>
      </trkpt>
      <trkpt lat="46.01964" lon="4.59361">
        <ele>650</ele>
        <time>2017-01-12T08:39:34Z</time>
      </trkpt>
      <trkpt lat="46.01964" lon="4.59359">
        <ele>650</ele>
        <time>2017-01-12T08:39:35Z</time>
      </trkpt>
      <trkpt lat="46.01967" lon="4.59347">
        <ele>651</ele>
        <time>2017-01-12T08:39:41Z</time>
      </trkpt>
      <trkpt lat="46.01967" lon="4.59345">
        <ele>651</ele>
        <time>2017-01-12T08:39:42Z</time>
      </trkpt>
      <trkpt lat="46.01969" lon="4.59333">
        <ele>650</ele>
        <time>2017-01-12T08:39:48Z</time>
      </trkpt>
      <trkpt lat="46.0197" lon="4.59331">
        <ele>650</ele>
        <time>2017-01-12T08:39:49Z</time>
      </trkpt>
      <trkpt lat="46.01973" lon="4.5932">
        <ele>650</ele>
        <time>2017-01-12T08:39:55Z</time>
      </trkpt>
      <trkpt lat="46.01974" lon="4.59318">
        <ele>650</ele>
        <time>2017-01-12T08:39:56Z</time>
      </trkpt>
      <trkpt lat="46.01976" lon="4.59305">
        <ele>649</ele>
        <time>2017-01-12T08:40:03Z</time>
      </trkpt>
      <trkpt lat="46.01977" lon="4.59304">
        <ele>649</ele>
        <time>2017-01-12T08:40:04Z</time>
      </trkpt>
      <trkpt lat="46.01982" lon="4.59295">
        <ele>649</ele>
        <time>2017-01-12T08:40:10Z</time>
      </trkpt>
      <trkpt lat="46.01982" lon="4.59293">
        <ele>649</ele>
        <time>2017-01-12T08:40:11Z</time>
      </trkpt>
      <trkpt lat="46.01987" lon="4.59283">
        <ele>649</ele>
        <time>2017-01-12T08:40:18Z</time>
      </trkpt>
      <trkpt lat="46.01988" lon="4.59282">
        <ele>649</ele>
        <time>2017-01-12T08:40:19Z</time>
      </trkpt>
      <trkpt lat="46.01993" lon="4.59271">
        <ele>650</ele>
        <time>2017-01-12T08:40:26Z</time>
      </trkpt>
      <trkpt lat="46.01994" lon="4.5927">
        <ele>650</ele>
        <time>2017-01-12T08:40:27Z</time>
      </trkpt>
      <trkpt lat="46.01999" lon="4.5926">
        <ele>652</ele>
        <time>2017-01-12T08:40:32Z</time>
      </trkpt>
      <trkpt lat="46.02" lon="4.59258">
        <ele>656</ele>
        <time>2017-01-12T08:40:33Z</time>
      </trkpt>
      <trkpt lat="46.02005" lon="4.5925">
        <ele>654</ele>
        <time>2017-01-12T08:40:38Z</time>
      </trkpt>
      <trkpt lat="46.02006" lon="4.59248">
        <ele>654</ele>
        <time>2017-01-12T08:40:39Z</time>
      </trkpt>
      <trkpt lat="46.02011" lon="4.59239">
        <ele>655</ele>
        <time>2017-01-12T08:40:45Z</time>
      </trkpt>
      <trkpt lat="46.02012" lon="4.59237">
        <ele>655</ele>
        <time>2017-01-12T08:40:46Z</time>
      </trkpt>
      <trkpt lat="46.02017" lon="4.59228">
        <ele>655</ele>
        <time>2017-01-12T08:40:52Z</time>
      </trkpt>
      <trkpt lat="46.02018" lon="4.59227">
        <ele>655</ele>
        <time>2017-01-12T08:40:53Z</time>
      </trkpt>
      <trkpt lat="46.02023" lon="4.59218">
        <ele>654</ele>
        <time>2017-01-12T08:40:59Z</time>
      </trkpt>
      <trkpt lat="46.02024" lon="4.59216">
        <ele>654</ele>
        <time>2017-01-12T08:41:00Z</time>
      </trkpt>
      <trkpt lat="46.02029" lon="4.59209">
        <ele>654</ele>
        <time>2017-01-12T08:41:06Z</time>
      </trkpt>
      <trkpt lat="46.0203" lon="4.59208">
        <ele>654</ele>
        <time>2017-01-12T08:41:07Z</time>
      </trkpt>
      <trkpt lat="46.02036" lon="4.592">
        <ele>654</ele>
        <time>2017-01-12T08:41:13Z</time>
      </trkpt>
      <trkpt lat="46.02038" lon="4.59199">
        <ele>654</ele>
        <time>2017-01-12T08:41:14Z</time>
      </trkpt>
      <trkpt lat="46.02045" lon="4.59193">
        <ele>655</ele>
        <time>2017-01-12T08:41:20Z</time>
      </trkpt>
      <trkpt lat="46.02046" lon="4.59192">
        <ele>655</ele>
        <time>2017-01-12T08:41:21Z</time>
      </trkpt>
      <trkpt lat="46.02053" lon="4.59185">
        <ele>655</ele>
        <time>2017-01-12T08:41:27Z</time>
      </trkpt>
      <trkpt lat="46.02054" lon="4.59184">
        <ele>656</ele>
        <time>2017-01-12T08:41:28Z</time>
      </trkpt>
      <trkpt lat="46.02061" lon="4.59177">
        <ele>656</ele>
        <time>2017-01-12T08:41:34Z</time>
      </trkpt>
      <trkpt lat="46.02062" lon="4.59176">
        <ele>656</ele>
        <time>2017-01-12T08:41:35Z</time>
      </trkpt>
      <trkpt lat="46.02069" lon="4.59169">
        <ele>657</ele>
        <time>2017-01-12T08:41:41Z</time>
      </trkpt>
      <trkpt lat="46.0207" lon="4.59168">
        <ele>657</ele>
        <time>2017-01-12T08:41:42Z</time>
      </trkpt>
      <trkpt lat="46.02076" lon="4.59162">
        <ele>654</ele>
        <time>2017-01-12T08:41:48Z</time>
      </trkpt>
      <trkpt lat="46.02078" lon="4.59161">
        <ele>654</ele>
        <time>2017-01-12T08:41:49Z</time>
      </trkpt>
      <trkpt lat="46.02085" lon="4.59156">
        <ele>655</ele>
        <time>2017-01-12T08:41:55Z</time>
      </trkpt>
      <trkpt lat="46.02086" lon="4.59155">
        <ele>655</ele>
        <time>2017-01-12T08:41:56Z</time>
      </trkpt>
      <trkpt lat="46.02094" lon="4.59149">
        <ele>653</ele>
        <time>2017-01-12T08:42:03Z</time>
      </trkpt>
      <trkpt lat="46.02095" lon="4.59148">
        <ele>652</ele>
        <time>2017-01-12T08:42:04Z</time>
      </trkpt>
      <trkpt lat="46.02102" lon="4.59141">
        <ele>651</ele>
        <time>2017-01-12T08:42:12Z</time>
      </trkpt>
      <trkpt lat="46.02102" lon="4.5914">
        <ele>651</ele>
        <time>2017-01-12T08:42:13Z</time>
      </trkpt>
      <trkpt lat="46.02109" lon="4.59132">
        <ele>649</ele>
        <time>2017-01-12T08:42:23Z</time>
      </trkpt>
      <trkpt lat="46.02109" lon="4.59131">
        <ele>649</ele>
        <time>2017-01-12T08:42:24Z</time>
      </trkpt>
      <trkpt lat="46.02117" lon="4.59127">
        <ele>649</ele>
        <time>2017-01-12T08:42:31Z</time>
      </trkpt>
      <trkpt lat="46.02118" lon="4.59126">
        <ele>648</ele>
        <time>2017-01-12T08:42:32Z</time>
      </trkpt>
      <trkpt lat="46.02126" lon="4.59122">
        <ele>648</ele>
        <time>2017-01-12T08:42:39Z</time>
      </trkpt>
      <trkpt lat="46.02128" lon="4.59122">
        <ele>648</ele>
        <time>2017-01-12T08:42:40Z</time>
      </trkpt>
      <trkpt lat="46.02134" lon="4.59116">
        <ele>648</ele>
        <time>2017-01-12T08:42:45Z</time>
      </trkpt>
      <trkpt lat="46.02135" lon="4.59115">
        <ele>648</ele>
        <time>2017-01-12T08:42:46Z</time>
      </trkpt>
      <trkpt lat="46.02143" lon="4.59111">
        <ele>647</ele>
        <time>2017-01-12T08:42:50Z</time>
      </trkpt>
      <trkpt lat="46.02144" lon="4.5911">
        <ele>647</ele>
        <time>2017-01-12T08:42:51Z</time>
      </trkpt>
      <trkpt lat="46.02153" lon="4.59105">
        <ele>647</ele>
        <time>2017-01-12T08:42:56Z</time>
      </trkpt>
      <trkpt lat="46.02154" lon="4.59105">
        <ele>647</ele>
        <time>2017-01-12T08:42:57Z</time>
      </trkpt>
      <trkpt lat="46.02163" lon="4.59101">
        <ele>647</ele>
        <time>2017-01-12T08:43:02Z</time>
      </trkpt>
      <trkpt lat="46.02164" lon="4.591">
        <ele>647</ele>
        <time>2017-01-12T08:43:03Z</time>
      </trkpt>
      <trkpt lat="46.02172" lon="4.59097">
        <ele>645</ele>
        <time>2017-01-12T08:43:08Z</time>
      </trkpt>
      <trkpt lat="46.02173" lon="4.59096">
        <ele>645</ele>
        <time>2017-01-12T08:43:09Z</time>
      </trkpt>
      <trkpt lat="46.0218" lon="4.59092">
        <ele>645</ele>
        <time>2017-01-12T08:43:14Z</time>
      </trkpt>
      <trkpt lat="46.02181" lon="4.59091">
        <ele>645</ele>
        <time>2017-01-12T08:43:15Z</time>
      </trkpt>
      <trkpt lat="46.02189" lon="4.59086">
        <ele>645</ele>
        <time>2017-01-12T08:43:22Z</time>
      </trkpt>
      <trkpt lat="46.0219" lon="4.59085">
        <ele>645</ele>
        <time>2017-01-12T08:43:23Z</time>
      </trkpt>
      <trkpt lat="46.02197" lon="4.59077">
        <ele>647</ele>
        <time>2017-01-12T08:43:30Z</time>
      </trkpt>
      <trkpt lat="46.02198" lon="4.59076">
        <ele>647</ele>
        <time>2017-01-12T08:43:31Z</time>
      </trkpt>
      <trkpt lat="46.02203" lon="4.59065">
        <ele>647</ele>
        <time>2017-01-12T08:43:40Z</time>
      </trkpt>
      <trkpt lat="46.02203" lon="4.59064">
        <ele>647</ele>
        <time>2017-01-12T08:43:41Z</time>
      </trkpt>
      <trkpt lat="46.02209" lon="4.59057">
        <ele>647</ele>
        <time>2017-01-12T08:43:49Z</time>
      </trkpt>
      <trkpt lat="46.0221" lon="4.59056">
        <ele>647</ele>
        <time>2017-01-12T08:43:50Z</time>
      </trkpt>
      <trkpt lat="46.02218" lon="4.59049">
        <ele>647</ele>
        <time>2017-01-12T08:43:58Z</time>
      </trkpt>
      <trkpt lat="46.02218" lon="4.59048">
        <ele>647</ele>
        <time>2017-01-12T08:43:59Z</time>
      </trkpt>
      <trkpt lat="46.02224" lon="4.59039">
        <ele>647</ele>
        <time>2017-01-12T08:44:07Z</time>
      </trkpt>
      <trkpt lat="46.02225" lon="4.59039">
        <ele>648</ele>
        <time>2017-01-12T08:44:08Z</time>
      </trkpt>
      <trkpt lat="46.02232" lon="4.59032">
        <ele>648</ele>
        <time>2017-01-12T08:44:16Z</time>
      </trkpt>
      <trkpt lat="46.02233" lon="4.59031">
        <ele>648</ele>
        <time>2017-01-12T08:44:17Z</time>
      </trkpt>
      <trkpt lat="46.02239" lon="4.59024">
        <ele>649</ele>
        <time>2017-01-12T08:44:26Z</time>
      </trkpt>
      <trkpt lat="46.0224" lon="4.59023">
        <ele>649</ele>
        <time>2017-01-12T08:44:27Z</time>
      </trkpt>
      <trkpt lat="46.02246" lon="4.59015">
        <ele>650</ele>
        <time>2017-01-12T08:44:40Z</time>
      </trkpt>
      <trkpt lat="46.02247" lon="4.59015">
        <ele>650</ele>
        <time>2017-01-12T08:44:41Z</time>
      </trkpt>
      <trkpt lat="46.02256" lon="4.59013">
        <ele>653</ele>
        <time>2017-01-12T08:44:51Z</time>
      </trkpt>
      <trkpt lat="46.02256" lon="4.59012">
        <ele>653</ele>
        <time>2017-01-12T08:44:52Z</time>
      </trkpt>
      <trkpt lat="46.02262" lon="4.59004">
        <ele>654</ele>
        <time>2017-01-12T08:45:05Z</time>
      </trkpt>
      <trkpt lat="46.02263" lon="4.59002">
        <ele>654</ele>
        <time>2017-01-12T08:45:06Z</time>
      </trkpt>
      <trkpt lat="46.02267" lon="4.58992">
        <ele>657</ele>
        <time>2017-01-12T08:45:14Z</time>
      </trkpt>
      <trkpt lat="46.02267" lon="4.5899">
        <ele>657</ele>
        <time>2017-01-12T08:45:15Z</time>
      </trkpt>
      <trkpt lat="46.02272" lon="4.5898">
        <ele>658</ele>
        <time>2017-01-12T08:45:25Z</time>
      </trkpt>
      <trkpt lat="46.02272" lon="4.58978">
        <ele>658</ele>
        <time>2017-01-12T08:45:26Z</time>
      </trkpt>
      <trkpt lat="46.02276" lon="4.58968">
        <ele>659</ele>
        <time>2017-01-12T08:45:35Z</time>
      </trkpt>
      <trkpt lat="46.02277" lon="4.58967">
        <ele>659</ele>
        <time>2017-01-12T08:45:36Z</time>
      </trkpt>
      <trkpt lat="46.02281" lon="4.58956">
        <ele>659</ele>
        <time>2017-01-12T08:45:49Z</time>
      </trkpt>
      <trkpt lat="46.02281" lon="4.58955">
        <ele>659</ele>
        <time>2017-01-12T08:45:50Z</time>
      </trkpt>
      <trkpt lat="46.02284" lon="4.58943">
        <ele>659</ele>
        <time>2017-01-12T08:45:59Z</time>
      </trkpt>
      <trkpt lat="46.02284" lon="4.58942">
        <ele>659</ele>
        <time>2017-01-12T08:46:00Z</time>
      </trkpt>
      <trkpt lat="46.02286" lon="4.5893">
        <ele>660</ele>
        <time>2017-01-12T08:46:07Z</time>
      </trkpt>
      <trkpt lat="46.02286" lon="4.58929">
        <ele>660</ele>
        <time>2017-01-12T08:46:08Z</time>
      </trkpt>
      <trkpt lat="46.02292" lon="4.5892">
        <ele>661</ele>
        <time>2017-01-12T08:46:15Z</time>
      </trkpt>
      <trkpt lat="46.02293" lon="4.58919">
        <ele>661</ele>
        <time>2017-01-12T08:46:16Z</time>
      </trkpt>
      <trkpt lat="46.02297" lon="4.58909">
        <ele>660</ele>
        <time>2017-01-12T08:46:21Z</time>
      </trkpt>
      <trkpt lat="46.02298" lon="4.58908">
        <ele>660</ele>
        <time>2017-01-12T08:46:22Z</time>
      </trkpt>
      <trkpt lat="46.02304" lon="4.58899">
        <ele>661</ele>
        <time>2017-01-12T08:46:30Z</time>
      </trkpt>
      <trkpt lat="46.02304" lon="4.58898">
        <ele>661</ele>
        <time>2017-01-12T08:46:31Z</time>
      </trkpt>
      <trkpt lat="46.0231" lon="4.5889">
        <ele>661</ele>
        <time>2017-01-12T08:46:39Z</time>
      </trkpt>
      <trkpt lat="46.02311" lon="4.58889">
        <ele>661</ele>
        <time>2017-01-12T08:46:40Z</time>
      </trkpt>
      <trkpt lat="46.02317" lon="4.58881">
        <ele>661</ele>
        <time>2017-01-12T08:46:48Z</time>
      </trkpt>
      <trkpt lat="46.02318" lon="4.5888">
        <ele>661</ele>
        <time>2017-01-12T08:46:49Z</time>
      </trkpt>
      <trkpt lat="46.02324" lon="4.58872">
        <ele>661</ele>
        <time>2017-01-12T08:46:54Z</time>
      </trkpt>
      <trkpt lat="46.02325" lon="4.5887">
        <ele>661</ele>
        <time>2017-01-12T08:46:55Z</time>
      </trkpt>
      <trkpt lat="46.0233" lon="4.58861">
        <ele>662</ele>
        <time>2017-01-12T08:47:03Z</time>
      </trkpt>
      <trkpt lat="46.02331" lon="4.5886">
        <ele>662</ele>
        <time>2017-01-12T08:47:04Z</time>
      </trkpt>
      <trkpt lat="46.02336" lon="4.58852">
        <ele>674</ele>
        <time>2017-01-12T08:47:12Z</time>
      </trkpt>
      <trkpt lat="46.02337" lon="4.5885">
        <ele>674</ele>
        <time>2017-01-12T08:47:13Z</time>
      </trkpt>
      <trkpt lat="46.02343" lon="4.58842">
        <ele>673</ele>
        <time>2017-01-12T08:47:21Z</time>
      </trkpt>
      <trkpt lat="46.02344" lon="4.58841">
        <ele>673</ele>
        <time>2017-01-12T08:47:22Z</time>
      </trkpt>
      <trkpt lat="46.0235" lon="4.58833">
        <ele>671</ele>
        <time>2017-01-12T08:47:31Z</time>
      </trkpt>
      <trkpt lat="46.0235" lon="4.58831">
        <ele>671</ele>
        <time>2017-01-12T08:47:32Z</time>
      </trkpt>
      <trkpt lat="46.02355" lon="4.58821">
        <ele>672</ele>
        <time>2017-01-12T08:47:40Z</time>
      </trkpt>
      <trkpt lat="46.02355" lon="4.58819">
        <ele>673</ele>
        <time>2017-01-12T08:47:41Z</time>
      </trkpt>
      <trkpt lat="46.0236" lon="4.58811">
        <ele>673</ele>
        <time>2017-01-12T08:47:46Z</time>
      </trkpt>
      <trkpt lat="46.02361" lon="4.58809">
        <ele>674</ele>
        <time>2017-01-12T08:47:47Z</time>
      </trkpt>
      <trkpt lat="46.02366" lon="4.588">
        <ele>674</ele>
        <time>2017-01-12T08:47:55Z</time>
      </trkpt>
      <trkpt lat="46.02367" lon="4.58799">
        <ele>674</ele>
        <time>2017-01-12T08:47:56Z</time>
      </trkpt>
      <trkpt lat="46.02374" lon="4.58791">
        <ele>675</ele>
        <time>2017-01-12T08:48:03Z</time>
      </trkpt>
      <trkpt lat="46.02375" lon="4.5879">
        <ele>675</ele>
        <time>2017-01-12T08:48:04Z</time>
      </trkpt>
      <trkpt lat="46.02381" lon="4.58783">
        <ele>676</ele>
        <time>2017-01-12T08:48:11Z</time>
      </trkpt>
      <trkpt lat="46.02382" lon="4.58782">
        <ele>676</ele>
        <time>2017-01-12T08:48:12Z</time>
      </trkpt>
      <trkpt lat="46.02387" lon="4.58774">
        <ele>676</ele>
        <time>2017-01-12T08:48:20Z</time>
      </trkpt>
      <trkpt lat="46.02387" lon="4.58772">
        <ele>676</ele>
        <time>2017-01-12T08:48:21Z</time>
      </trkpt>
      <trkpt lat="46.02393" lon="4.58762">
        <ele>677</ele>
        <time>2017-01-12T08:48:28Z</time>
      </trkpt>
      <trkpt lat="46.02393" lon="4.5876">
        <ele>677</ele>
        <time>2017-01-12T08:48:29Z</time>
      </trkpt>
      <trkpt lat="46.02398" lon="4.5875">
        <ele>679</ele>
        <time>2017-01-12T08:48:36Z</time>
      </trkpt>
      <trkpt lat="46.02399" lon="4.58749">
        <ele>673</ele>
        <time>2017-01-12T08:48:37Z</time>
      </trkpt>
      <trkpt lat="46.02405" lon="4.5874">
        <ele>674</ele>
        <time>2017-01-12T08:48:45Z</time>
      </trkpt>
      <trkpt lat="46.02406" lon="4.5874">
        <ele>674</ele>
        <time>2017-01-12T08:48:46Z</time>
      </trkpt>
      <trkpt lat="46.02414" lon="4.58736">
        <ele>675</ele>
        <time>2017-01-12T08:48:54Z</time>
      </trkpt>
      <trkpt lat="46.02415" lon="4.58735">
        <ele>675</ele>
        <time>2017-01-12T08:48:55Z</time>
      </trkpt>
      <trkpt lat="46.0242" lon="4.58726">
        <ele>686</ele>
        <time>2017-01-12T08:49:06Z</time>
      </trkpt>
      <trkpt lat="46.02421" lon="4.58725">
        <ele>686</ele>
        <time>2017-01-12T08:49:07Z</time>
      </trkpt>
      <trkpt lat="46.02428" lon="4.58719">
        <ele>686</ele>
        <time>2017-01-12T08:49:11Z</time>
      </trkpt>
      <trkpt lat="46.02429" lon="4.58718">
        <ele>686</ele>
        <time>2017-01-12T08:49:12Z</time>
      </trkpt>
      <trkpt lat="46.02437" lon="4.58712">
        <ele>686</ele>
        <time>2017-01-12T08:49:18Z</time>
      </trkpt>
      <trkpt lat="46.02438" lon="4.58711">
        <ele>686</ele>
        <time>2017-01-12T08:49:19Z</time>
      </trkpt>
      <trkpt lat="46.02445" lon="4.58703">
        <ele>686</ele>
        <time>2017-01-12T08:49:27Z</time>
      </trkpt>
      <trkpt lat="46.02446" lon="4.58703">
        <ele>687</ele>
        <time>2017-01-12T08:49:28Z</time>
      </trkpt>
      <trkpt lat="46.02452" lon="4.58696">
        <ele>687</ele>
        <time>2017-01-12T08:49:38Z</time>
      </trkpt>
      <trkpt lat="46.02453" lon="4.58695">
        <ele>687</ele>
        <time>2017-01-12T08:49:39Z</time>
      </trkpt>
      <trkpt lat="46.02461" lon="4.58689">
        <ele>688</ele>
        <time>2017-01-12T08:49:44Z</time>
      </trkpt>
      <trkpt lat="46.02462" lon="4.58688">
        <ele>688</ele>
        <time>2017-01-12T08:49:45Z</time>
      </trkpt>
      <trkpt lat="46.02469" lon="4.58681">
        <ele>689</ele>
        <time>2017-01-12T08:49:53Z</time>
      </trkpt>
      <trkpt lat="46.0247" lon="4.58681">
        <ele>689</ele>
        <time>2017-01-12T08:49:54Z</time>
      </trkpt>
      <trkpt lat="46.02478" lon="4.58675">
        <ele>690</ele>
        <time>2017-01-12T08:50:01Z</time>
      </trkpt>
      <trkpt lat="46.02479" lon="4.58673">
        <ele>690</ele>
        <time>2017-01-12T08:50:02Z</time>
      </trkpt>
      <trkpt lat="46.02485" lon="4.58666">
        <ele>683</ele>
        <time>2017-01-12T08:50:09Z</time>
      </trkpt>
      <trkpt lat="46.02486" lon="4.58665">
        <ele>684</ele>
        <time>2017-01-12T08:50:10Z</time>
      </trkpt>
      <trkpt lat="46.02494" lon="4.5866">
        <ele>686</ele>
        <time>2017-01-12T08:50:17Z</time>
      </trkpt>
      <trkpt lat="46.02495" lon="4.5866">
        <ele>686</ele>
        <time>2017-01-12T08:50:18Z</time>
      </trkpt>
      <trkpt lat="46.02502" lon="4.58656">
        <ele>693</ele>
        <time>2017-01-12T08:50:25Z</time>
      </trkpt>
      <trkpt lat="46.02503" lon="4.58655">
        <ele>692</ele>
        <time>2017-01-12T08:50:26Z</time>
      </trkpt>
      <trkpt lat="46.02511" lon="4.58649">
        <ele>692</ele>
        <time>2017-01-12T08:50:35Z</time>
      </trkpt>
      <trkpt lat="46.02511" lon="4.58648">
        <ele>692</ele>
        <time>2017-01-12T08:50:36Z</time>
      </trkpt>
      <trkpt lat="46.0252" lon="4.58648">
        <ele>693</ele>
        <time>2017-01-12T08:50:44Z</time>
      </trkpt>
      <trkpt lat="46.02521" lon="4.58648">
        <ele>693</ele>
        <time>2017-01-12T08:50:45Z</time>
      </trkpt>
      <trkpt lat="46.02529" lon="4.58642">
        <ele>693</ele>
        <time>2017-01-12T08:50:55Z</time>
      </trkpt>
      <trkpt lat="46.02529" lon="4.58641">
        <ele>693</ele>
        <time>2017-01-12T08:50:56Z</time>
      </trkpt>
      <trkpt lat="46.02537" lon="4.58637">
        <ele>693</ele>
        <time>2017-01-12T08:51:05Z</time>
      </trkpt>
      <trkpt lat="46.02538" lon="4.58636">
        <ele>693</ele>
        <time>2017-01-12T08:51:06Z</time>
      </trkpt>
      <trkpt lat="46.02546" lon="4.58633">
        <ele>694</ele>
        <time>2017-01-12T08:51:13Z</time>
      </trkpt>
      <trkpt lat="46.02547" lon="4.58632">
        <ele>694</ele>
        <time>2017-01-12T08:51:14Z</time>
      </trkpt>
      <trkpt lat="46.02555" lon="4.58629">
        <ele>695</ele>
        <time>2017-01-12T08:51:21Z</time>
      </trkpt>
      <trkpt lat="46.02556" lon="4.58628">
        <ele>695</ele>
        <time>2017-01-12T08:51:22Z</time>
      </trkpt>
      <trkpt lat="46.02564" lon="4.58623">
        <ele>695</ele>
        <time>2017-01-12T08:51:30Z</time>
      </trkpt>
      <trkpt lat="46.02566" lon="4.58622">
        <ele>695</ele>
        <time>2017-01-12T08:51:31Z</time>
      </trkpt>
      <trkpt lat="46.02574" lon="4.58619">
        <ele>695</ele>
        <time>2017-01-12T08:51:36Z</time>
      </trkpt>
      <trkpt lat="46.02575" lon="4.58619">
        <ele>695</ele>
        <time>2017-01-12T08:51:37Z</time>
      </trkpt>
      <trkpt lat="46.02582" lon="4.58611">
        <ele>695</ele>
        <time>2017-01-12T08:51:46Z</time>
      </trkpt>
      <trkpt lat="46.02583" lon="4.58611">
        <ele>695</ele>
        <time>2017-01-12T08:51:47Z</time>
      </trkpt>
      <trkpt lat="46.02591" lon="4.58608">
        <ele>703</ele>
        <time>2017-01-12T08:51:55Z</time>
      </trkpt>
      <trkpt lat="46.02592" lon="4.58608">
        <ele>703</ele>
        <time>2017-01-12T08:51:56Z</time>
      </trkpt>
      <trkpt lat="46.026" lon="4.58604">
        <ele>703</ele>
        <time>2017-01-12T08:52:04Z</time>
      </trkpt>
      <trkpt lat="46.02601" lon="4.58603">
        <ele>703</ele>
        <time>2017-01-12T08:52:05Z</time>
      </trkpt>
      <trkpt lat="46.02609" lon="4.58601">
        <ele>703</ele>
        <time>2017-01-12T08:52:13Z</time>
      </trkpt>
      <trkpt lat="46.0261" lon="4.58601">
        <ele>704</ele>
        <time>2017-01-12T08:52:14Z</time>
      </trkpt>
      <trkpt lat="46.02618" lon="4.58605">
        <ele>705</ele>
        <time>2017-01-12T08:52:20Z</time>
      </trkpt>
      <trkpt lat="46.0262" lon="4.58605">
        <ele>705</ele>
        <time>2017-01-12T08:52:21Z</time>
      </trkpt>
      <trkpt lat="46.02628" lon="4.58602">
        <ele>705</ele>
        <time>2017-01-12T08:52:30Z</time>
      </trkpt>
      <trkpt lat="46.02628" lon="4.58602">
        <ele>705</ele>
        <time>2017-01-12T08:52:31Z</time>
      </trkpt>
      <trkpt lat="46.02637" lon="4.58601">
        <ele>706</ele>
        <time>2017-01-12T08:52:40Z</time>
      </trkpt>
      <trkpt lat="46.02638" lon="4.58601">
        <ele>706</ele>
        <time>2017-01-12T08:52:41Z</time>
      </trkpt>
      <trkpt lat="46.02646" lon="4.58602">
        <ele>706</ele>
        <time>2017-01-12T08:52:50Z</time>
      </trkpt>
      <trkpt lat="46.02647" lon="4.58602">
        <ele>706</ele>
        <time>2017-01-12T08:52:51Z</time>
      </trkpt>
      <trkpt lat="46.02655" lon="4.58604">
        <ele>706</ele>
        <time>2017-01-12T08:52:58Z</time>
      </trkpt>
      <trkpt lat="46.02657" lon="4.58604">
        <ele>706</ele>
        <time>2017-01-12T08:52:59Z</time>
      </trkpt>
      <trkpt lat="46.02665" lon="4.58606">
        <ele>706</ele>
        <time>2017-01-12T08:53:05Z</time>
      </trkpt>
      <trkpt lat="46.02666" lon="4.58606">
        <ele>706</ele>
        <time>2017-01-12T08:53:06Z</time>
      </trkpt>
      <trkpt lat="46.02674" lon="4.58609">
        <ele>709</ele>
        <time>2017-01-12T08:53:15Z</time>
      </trkpt>
      <trkpt lat="46.02675" lon="4.5861">
        <ele>709</ele>
        <time>2017-01-12T08:53:16Z</time>
      </trkpt>
      <trkpt lat="46.02682" lon="4.58614">
        <ele>710</ele>
        <time>2017-01-12T08:53:24Z</time>
      </trkpt>
      <trkpt lat="46.02684" lon="4.58614">
        <ele>710</ele>
        <time>2017-01-12T08:53:25Z</time>
      </trkpt>
      <trkpt lat="46.02692" lon="4.58619">
        <ele>710</ele>
        <time>2017-01-12T08:53:31Z</time>
      </trkpt>
      <trkpt lat="46.02694" lon="4.58619">
        <ele>711</ele>
        <time>2017-01-12T08:53:32Z</time>
      </trkpt>
      <trkpt lat="46.02702" lon="4.58622">
        <ele>711</ele>
        <time>2017-01-12T08:53:39Z</time>
      </trkpt>
      <trkpt lat="46.02703" lon="4.58622">
        <ele>711</ele>
        <time>2017-01-12T08:53:40Z</time>
      </trkpt>
      <trkpt lat="46.02711" lon="4.58624">
        <ele>711</ele>
        <time>2017-01-12T08:53:48Z</time>
      </trkpt>
      <trkpt lat="46.02712" lon="4.58625">
        <ele>711</ele>
        <time>2017-01-12T08:53:49Z</time>
      </trkpt>
      <trkpt lat="46.0272" lon="4.58629">
        <ele>711</ele>
        <time>2017-01-12T08:53:56Z</time>
      </trkpt>
      <trkpt lat="46.02722" lon="4.5863">
        <ele>711</ele>
        <time>2017-01-12T08:53:57Z</time>
      </trkpt>
      <trkpt lat="46.0273" lon="4.58633">
        <ele>712</ele>
        <time>2017-01-12T08:54:04Z</time>
      </trkpt>
      <trkpt lat="46.02731" lon="4.58633">
        <ele>712</ele>
        <time>2017-01-12T08:54:05Z</time>
      </trkpt>
      <trkpt lat="46.02739" lon="4.58635">
        <ele>712</ele>
        <time>2017-01-12T08:54:11Z</time>
      </trkpt>
      <trkpt lat="46.0274" lon="4.58635">
        <ele>712</ele>
        <time>2017-01-12T08:54:12Z</time>
      </trkpt>
      <trkpt lat="46.02749" lon="4.58636">
        <ele>712</ele>
        <time>2017-01-12T08:54:19Z</time>
      </trkpt>
      <trkpt lat="46.0275" lon="4.58636">
        <ele>713</ele>
        <time>2017-01-12T08:54:20Z</time>
      </trkpt>
      <trkpt lat="46.02758" lon="4.58637">
        <ele>713</ele>
        <time>2017-01-12T08:54:27Z</time>
      </trkpt>
      <trkpt lat="46.02759" lon="4.58636">
        <ele>713</ele>
        <time>2017-01-12T08:54:28Z</time>
      </trkpt>
      <trkpt lat="46.02768" lon="4.58638">
        <ele>714</ele>
        <time>2017-01-12T08:54:36Z</time>
      </trkpt>
      <trkpt lat="46.02769" lon="4.58638">
        <ele>714</ele>
        <time>2017-01-12T08:54:37Z</time>
      </trkpt>
      <trkpt lat="46.02777" lon="4.5864">
        <ele>714</ele>
        <time>2017-01-12T08:54:46Z</time>
      </trkpt>
      <trkpt lat="46.02778" lon="4.5864">
        <ele>714</ele>
        <time>2017-01-12T08:54:47Z</time>
      </trkpt>
      <trkpt lat="46.02786" lon="4.58633">
        <ele>714</ele>
        <time>2017-01-12T08:54:59Z</time>
      </trkpt>
      <trkpt lat="46.02786" lon="4.58632">
        <ele>714</ele>
        <time>2017-01-12T08:55:00Z</time>
      </trkpt>
      <trkpt lat="46.02793" lon="4.58625">
        <ele>714</ele>
        <time>2017-01-12T08:55:10Z</time>
      </trkpt>
      <trkpt lat="46.02794" lon="4.58623">
        <ele>714</ele>
        <time>2017-01-12T08:55:11Z</time>
      </trkpt>
      <trkpt lat="46.028" lon="4.58614">
        <ele>713</ele>
        <time>2017-01-12T08:55:20Z</time>
      </trkpt>
      <trkpt lat="46.028" lon="4.58613">
        <ele>713</ele>
        <time>2017-01-12T08:55:21Z</time>
      </trkpt>
      <trkpt lat="46.02805" lon="4.58602">
        <ele>713</ele>
        <time>2017-01-12T08:55:29Z</time>
      </trkpt>
      <trkpt lat="46.02805" lon="4.58602">
        <ele>713</ele>
        <time>2017-01-12T08:55:30Z</time>
      </trkpt>
      <trkpt lat="46.02812" lon="4.58595">
        <ele>714</ele>
        <time>2017-01-12T08:55:36Z</time>
      </trkpt>
      <trkpt lat="46.02812" lon="4.58593">
        <ele>714</ele>
        <time>2017-01-12T08:55:37Z</time>
      </trkpt>
      <trkpt lat="46.02817" lon="4.58585">
        <ele>714</ele>
        <time>2017-01-12T08:55:48Z</time>
      </trkpt>
      <trkpt lat="46.02819" lon="4.58583">
        <ele>714</ele>
        <time>2017-01-12T08:55:49Z</time>
      </trkpt>
      <trkpt lat="46.02824" lon="4.58574">
        <ele>710</ele>
        <time>2017-01-12T08:55:56Z</time>
      </trkpt>
      <trkpt lat="46.02825" lon="4.58573">
        <ele>710</ele>
        <time>2017-01-12T08:55:57Z</time>
      </trkpt>
      <trkpt lat="46.02831" lon="4.58564">
        <ele>709</ele>
        <time>2017-01-12T08:56:06Z</time>
      </trkpt>
      <trkpt lat="46.02832" lon="4.58564">
        <ele>709</ele>
        <time>2017-01-12T08:56:07Z</time>
      </trkpt>
      <trkpt lat="46.02835" lon="4.58554">
        <ele>714</ele>
        <time>2017-01-12T08:56:14Z</time>
      </trkpt>
      <trkpt lat="46.02836" lon="4.58551">
        <ele>714</ele>
        <time>2017-01-12T08:56:15Z</time>
      </trkpt>
      <trkpt lat="46.02841" lon="4.58543">
        <ele>714</ele>
        <time>2017-01-12T08:56:22Z</time>
      </trkpt>
      <trkpt lat="46.02842" lon="4.58542">
        <ele>714</ele>
        <time>2017-01-12T08:56:23Z</time>
      </trkpt>
      <trkpt lat="46.02848" lon="4.58532">
        <ele>713</ele>
        <time>2017-01-12T08:56:30Z</time>
      </trkpt>
      <trkpt lat="46.02849" lon="4.58531">
        <ele>713</ele>
        <time>2017-01-12T08:56:31Z</time>
      </trkpt>
      <trkpt lat="46.02853" lon="4.5852">
        <ele>712</ele>
        <time>2017-01-12T08:56:43Z</time>
      </trkpt>
      <trkpt lat="46.02853" lon="4.58518">
        <ele>712</ele>
        <time>2017-01-12T08:56:44Z</time>
      </trkpt>
      <trkpt lat="46.02857" lon="4.58508">
        <ele>712</ele>
        <time>2017-01-12T08:56:53Z</time>
      </trkpt>
      <trkpt lat="46.02858" lon="4.58506">
        <ele>712</ele>
        <time>2017-01-12T08:56:54Z</time>
      </trkpt>
      <trkpt lat="46.02862" lon="4.58495">
        <ele>707</ele>
        <time>2017-01-12T08:57:03Z</time>
      </trkpt>
      <trkpt lat="46.02863" lon="4.58493">
        <ele>707</ele>
        <time>2017-01-12T08:57:04Z</time>
      </trkpt>
      <trkpt lat="46.02868" lon="4.58483">
        <ele>707</ele>
        <time>2017-01-12T08:57:12Z</time>
      </trkpt>
      <trkpt lat="46.02868" lon="4.58482">
        <ele>707</ele>
        <time>2017-01-12T08:57:13Z</time>
      </trkpt>
      <trkpt lat="46.02874" lon="4.58473">
        <ele>707</ele>
        <time>2017-01-12T08:57:19Z</time>
      </trkpt>
      <trkpt lat="46.02876" lon="4.58469">
        <ele>707</ele>
        <time>2017-01-12T08:57:20Z</time>
      </trkpt>
      <trkpt lat="46.02881" lon="4.58461">
        <ele>707</ele>
        <time>2017-01-12T08:57:25Z</time>
      </trkpt>
      <trkpt lat="46.02882" lon="4.58457">
        <ele>707</ele>
        <time>2017-01-12T08:57:26Z</time>
      </trkpt>
      <trkpt lat="46.02887" lon="4.58448">
        <ele>707</ele>
        <time>2017-01-12T08:57:31Z</time>
      </trkpt>
      <trkpt lat="46.02888" lon="4.58447">
        <ele>707</ele>
        <time>2017-01-12T08:57:32Z</time>
      </trkpt>
      <trkpt lat="46.02892" lon="4.58436">
        <ele>707</ele>
        <time>2017-01-12T08:57:48Z</time>
      </trkpt>
      <trkpt lat="46.02893" lon="4.58434">
        <ele>707</ele>
        <time>2017-01-12T08:57:49Z</time>
      </trkpt>
      <trkpt lat="46.02895" lon="4.58423">
        <ele>708</ele>
        <time>2017-01-12T08:57:55Z</time>
      </trkpt>
      <trkpt lat="46.02896" lon="4.58421">
        <ele>708</ele>
        <time>2017-01-12T08:57:56Z</time>
      </trkpt>
      <trkpt lat="46.02902" lon="4.58412">
        <ele>702</ele>
        <time>2017-01-12T08:57:59Z</time>
      </trkpt>
      <trkpt lat="46.02902" lon="4.58411">
        <ele>702</ele>
        <time>2017-01-12T08:58:00Z</time>
      </trkpt>
      <trkpt lat="46.02906" lon="4.584">
        <ele>701</ele>
        <time>2017-01-12T08:58:07Z</time>
      </trkpt>
      <trkpt lat="46.02907" lon="4.58399">
        <ele>701</ele>
        <time>2017-01-12T08:58:08Z</time>
      </trkpt>
      <trkpt lat="46.02911" lon="4.5839">
        <ele>699</ele>
        <time>2017-01-12T08:58:13Z</time>
      </trkpt>
      <trkpt lat="46.02912" lon="4.58387">
        <ele>698</ele>
        <time>2017-01-12T08:58:14Z</time>
      </trkpt>
      <trkpt lat="46.02915" lon="4.58375">
        <ele>697</ele>
        <time>2017-01-12T08:58:19Z</time>
      </trkpt>
      <trkpt lat="46.02916" lon="4.58372">
        <ele>696</ele>
        <time>2017-01-12T08:58:20Z</time>
      </trkpt>
      <trkpt lat="46.02919" lon="4.58362">
        <ele>709</ele>
        <time>2017-01-12T08:58:27Z</time>
      </trkpt>
      <trkpt lat="46.02919" lon="4.5836">
        <ele>709</ele>
        <time>2017-01-12T08:58:28Z</time>
      </trkpt>
      <trkpt lat="46.0292" lon="4.58348">
        <ele>706</ele>
        <time>2017-01-12T08:58:36Z</time>
      </trkpt>
      <trkpt lat="46.02921" lon="4.58347">
        <ele>706</ele>
        <time>2017-01-12T08:58:37Z</time>
      </trkpt>
      <trkpt lat="46.02924" lon="4.58337">
        <ele>704</ele>
        <time>2017-01-12T08:58:45Z</time>
      </trkpt>
      <trkpt lat="46.02925" lon="4.58335">
        <ele>704</ele>
        <time>2017-01-12T08:58:46Z</time>
      </trkpt>
      <trkpt lat="46.02927" lon="4.58323">
        <ele>700</ele>
        <time>2017-01-12T08:58:52Z</time>
      </trkpt>
      <trkpt lat="46.02928" lon="4.58321">
        <ele>700</ele>
        <time>2017-01-12T08:58:53Z</time>
      </trkpt>
      <trkpt lat="46.0293" lon="4.58309">
        <ele>700</ele>
        <time>2017-01-12T08:58:59Z</time>
      </trkpt>
      <trkpt lat="46.0293" lon="4.58307">
        <ele>699</ele>
        <time>2017-01-12T08:59:00Z</time>
      </trkpt>
      <trkpt lat="46.02932" lon="4.58295">
        <ele>699</ele>
        <time>2017-01-12T08:59:07Z</time>
      </trkpt>
      <trkpt lat="46.02932" lon="4.58293">
        <ele>699</ele>
        <time>2017-01-12T08:59:08Z</time>
      </trkpt>
      <trkpt lat="46.02935" lon="4.58281">
        <ele>697</ele>
        <time>2017-01-12T08:59:15Z</time>
      </trkpt>
      <trkpt lat="46.02935" lon="4.5828">
        <ele>697</ele>
        <time>2017-01-12T08:59:16Z</time>
      </trkpt>
      <trkpt lat="46.02938" lon="4.58268">
        <ele>696</ele>
        <time>2017-01-12T08:59:24Z</time>
      </trkpt>
      <trkpt lat="46.02939" lon="4.58267">
        <ele>696</ele>
        <time>2017-01-12T08:59:25Z</time>
      </trkpt>
      <trkpt lat="46.02942" lon="4.58256">
        <ele>696</ele>
        <time>2017-01-12T08:59:33Z</time>
      </trkpt>
      <trkpt lat="46.02943" lon="4.58254">
        <ele>696</ele>
        <time>2017-01-12T08:59:34Z</time>
      </trkpt>
      <trkpt lat="46.02948" lon="4.58246">
        <ele>689</ele>
        <time>2017-01-12T08:59:41Z</time>
      </trkpt>
      <trkpt lat="46.02949" lon="4.58245">
        <ele>689</ele>
        <time>2017-01-12T08:59:42Z</time>
      </trkpt>
      <trkpt lat="46.02955" lon="4.58236">
        <ele>689</ele>
        <time>2017-01-12T08:59:48Z</time>
      </trkpt>
      <trkpt lat="46.02956" lon="4.58235">
        <ele>689</ele>
        <time>2017-01-12T08:59:49Z</time>
      </trkpt>
      <trkpt lat="46.02964" lon="4.58231">
        <ele>689</ele>
        <time>2017-01-12T08:59:57Z</time>
      </trkpt>
      <trkpt lat="46.02965" lon="4.58231">
        <ele>689</ele>
        <time>2017-01-12T08:59:58Z</time>
      </trkpt>
      <trkpt lat="46.02972" lon="4.5823">
        <ele>689</ele>
        <time>2017-01-12T09:00:04Z</time>
      </trkpt>
      <trkpt lat="46.02974" lon="4.58228">
        <ele>689</ele>
        <time>2017-01-12T09:00:05Z</time>
      </trkpt>
      <trkpt lat="46.02982" lon="4.58226">
        <ele>689</ele>
        <time>2017-01-12T09:00:12Z</time>
      </trkpt>
      <trkpt lat="46.02983" lon="4.58226">
        <ele>689</ele>
        <time>2017-01-12T09:00:13Z</time>
      </trkpt>
      <trkpt lat="46.0299" lon="4.5823">
        <ele>690</ele>
        <time>2017-01-12T09:00:25Z</time>
      </trkpt>
      <trkpt lat="46.02991" lon="4.58231">
        <ele>690</ele>
        <time>2017-01-12T09:00:26Z</time>
      </trkpt>
      <trkpt lat="46.02999" lon="4.58232">
        <ele>691</ele>
        <time>2017-01-12T09:00:32Z</time>
      </trkpt>
      <trkpt lat="46.03" lon="4.58233">
        <ele>687</ele>
        <time>2017-01-12T09:00:33Z</time>
      </trkpt>
      <trkpt lat="46.03008" lon="4.58235">
        <ele>686</ele>
        <time>2017-01-12T09:00:39Z</time>
      </trkpt>
      <trkpt lat="46.0301" lon="4.58235">
        <ele>686</ele>
        <time>2017-01-12T09:00:40Z</time>
      </trkpt>
      <trkpt lat="46.03018" lon="4.58241">
        <ele>686</ele>
        <time>2017-01-12T09:00:47Z</time>
      </trkpt>
      <trkpt lat="46.03018" lon="4.58242">
        <ele>686</ele>
        <time>2017-01-12T09:00:48Z</time>
      </trkpt>
      <trkpt lat="46.03026" lon="4.58246">
        <ele>684</ele>
        <time>2017-01-12T09:00:57Z</time>
      </trkpt>
      <trkpt lat="46.03027" lon="4.58247">
        <ele>684</ele>
        <time>2017-01-12T09:00:58Z</time>
      </trkpt>
      <trkpt lat="46.03036" lon="4.58249">
        <ele>682</ele>
        <time>2017-01-12T09:01:08Z</time>
      </trkpt>
      <trkpt lat="46.03036" lon="4.58249">
        <ele>682</ele>
        <time>2017-01-12T09:01:09Z</time>
      </trkpt>
      <trkpt lat="46.03044" lon="4.58254">
        <ele>692</ele>
        <time>2017-01-12T09:01:16Z</time>
      </trkpt>
      <trkpt lat="46.03045" lon="4.58255">
        <ele>692</ele>
        <time>2017-01-12T09:01:17Z</time>
      </trkpt>
      <trkpt lat="46.03052" lon="4.58262">
        <ele>691</ele>
        <time>2017-01-12T09:01:28Z</time>
      </trkpt>
      <trkpt lat="46.03053" lon="4.58263">
        <ele>691</ele>
        <time>2017-01-12T09:01:29Z</time>
      </trkpt>
      <trkpt lat="46.0306" lon="4.5827">
        <ele>691</ele>
        <time>2017-01-12T09:01:38Z</time>
      </trkpt>
      <trkpt lat="46.03061" lon="4.58271">
        <ele>691</ele>
        <time>2017-01-12T09:01:39Z</time>
      </trkpt>
      <trkpt lat="46.03068" lon="4.58278">
        <ele>691</ele>
        <time>2017-01-12T09:01:45Z</time>
      </trkpt>
      <trkpt lat="46.03069" lon="4.58279">
        <ele>691</ele>
        <time>2017-01-12T09:01:46Z</time>
      </trkpt>
      <trkpt lat="46.03074" lon="4.58288">
        <ele>692</ele>
        <time>2017-01-12T09:01:52Z</time>
      </trkpt>
      <trkpt lat="46.03075" lon="4.58289">
        <ele>692</ele>
        <time>2017-01-12T09:01:53Z</time>
      </trkpt>
      <trkpt lat="46.03081" lon="4.58298">
        <ele>693</ele>
        <time>2017-01-12T09:01:59Z</time>
      </trkpt>
      <trkpt lat="46.03081" lon="4.583">
        <ele>693</ele>
        <time>2017-01-12T09:02:00Z</time>
      </trkpt>
      <trkpt lat="46.03088" lon="4.58308">
        <ele>679</ele>
        <time>2017-01-12T09:02:07Z</time>
      </trkpt>
      <trkpt lat="46.03089" lon="4.5831">
        <ele>680</ele>
        <time>2017-01-12T09:02:08Z</time>
      </trkpt>
      <trkpt lat="46.03096" lon="4.58316">
        <ele>680</ele>
        <time>2017-01-12T09:02:14Z</time>
      </trkpt>
      <trkpt lat="46.03097" lon="4.58318">
        <ele>681</ele>
        <time>2017-01-12T09:02:15Z</time>
      </trkpt>
      <trkpt lat="46.03103" lon="4.58327">
        <ele>680</ele>
        <time>2017-01-12T09:02:22Z</time>
      </trkpt>
      <trkpt lat="46.03103" lon="4.58328">
        <ele>680</ele>
        <time>2017-01-12T09:02:23Z</time>
      </trkpt>
      <trkpt lat="46.03109" lon="4.58337">
        <ele>687</ele>
        <time>2017-01-12T09:02:32Z</time>
      </trkpt>
      <trkpt lat="46.0311" lon="4.58338">
        <ele>687</ele>
        <time>2017-01-12T09:02:33Z</time>
      </trkpt>
      <trkpt lat="46.03116" lon="4.58347">
        <ele>685</ele>
        <time>2017-01-12T09:02:39Z</time>
      </trkpt>
      <trkpt lat="46.03116" lon="4.58349">
        <ele>685</ele>
        <time>2017-01-12T09:02:40Z</time>
      </trkpt>
      <trkpt lat="46.03121" lon="4.58359">
        <ele>685</ele>
        <time>2017-01-12T09:02:45Z</time>
      </trkpt>
      <trkpt lat="46.03122" lon="4.5836">
        <ele>685</ele>
        <time>2017-01-12T09:02:46Z</time>
      </trkpt>
      <trkpt lat="46.03129" lon="4.58368">
        <ele>684</ele>
        <time>2017-01-12T09:02:52Z</time>
      </trkpt>
      <trkpt lat="46.03129" lon="4.5837">
        <ele>684</ele>
        <time>2017-01-12T09:02:53Z</time>
      </trkpt>
      <trkpt lat="46.03136" lon="4.58378">
        <ele>684</ele>
        <time>2017-01-12T09:03:02Z</time>
      </trkpt>
      <trkpt lat="46.03136" lon="4.5838">
        <ele>684</ele>
        <time>2017-01-12T09:03:03Z</time>
      </trkpt>
      <trkpt lat="46.0314" lon="4.5839">
        <ele>684</ele>
        <time>2017-01-12T09:03:10Z</time>
      </trkpt>
      <trkpt lat="46.03141" lon="4.58392">
        <ele>684</ele>
        <time>2017-01-12T09:03:11Z</time>
      </trkpt>
      <trkpt lat="46.03147" lon="4.58401">
        <ele>683</ele>
        <time>2017-01-12T09:03:17Z</time>
      </trkpt>
      <trkpt lat="46.03148" lon="4.58403">
        <ele>683</ele>
        <time>2017-01-12T09:03:18Z</time>
      </trkpt>
      <trkpt lat="46.03154" lon="4.58411">
        <ele>681</ele>
        <time>2017-01-12T09:03:23Z</time>
      </trkpt>
      <trkpt lat="46.03154" lon="4.58412">
        <ele>681</ele>
        <time>2017-01-12T09:03:24Z</time>
      </trkpt>
      <trkpt lat="46.03159" lon="4.58422">
        <ele>683</ele>
        <time>2017-01-12T09:03:31Z</time>
      </trkpt>
      <trkpt lat="46.0316" lon="4.58423">
        <ele>683</ele>
        <time>2017-01-12T09:03:32Z</time>
      </trkpt>
      <trkpt lat="46.03166" lon="4.58431">
        <ele>686</ele>
        <time>2017-01-12T09:03:38Z</time>
      </trkpt>
      <trkpt lat="46.03167" lon="4.58433">
        <ele>672</ele>
        <time>2017-01-12T09:03:39Z</time>
      </trkpt>
      <trkpt lat="46.03172" lon="4.58442">
        <ele>670</ele>
        <time>2017-01-12T09:03:48Z</time>
      </trkpt>
      <trkpt lat="46.03173" lon="4.58444">
        <ele>670</ele>
        <time>2017-01-12T09:03:49Z</time>
      </trkpt>
      <trkpt lat="46.03178" lon="4.58452">
        <ele>669</ele>
        <time>2017-01-12T09:03:53Z</time>
      </trkpt>
      <trkpt lat="46.03179" lon="4.58454">
        <ele>669</ele>
        <time>2017-01-12T09:03:54Z</time>
      </trkpt>
      <trkpt lat="46.03183" lon="4.58464">
        <ele>669</ele>
        <time>2017-01-12T09:04:00Z</time>
      </trkpt>
      <trkpt lat="46.03184" lon="4.58466">
        <ele>669</ele>
        <time>2017-01-12T09:04:01Z</time>
      </trkpt>
      <trkpt lat="46.03188" lon="4.58477">
        <ele>670</ele>
        <time>2017-01-12T09:04:08Z</time>
      </trkpt>
      <trkpt lat="46.03188" lon="4.58478">
        <ele>670</ele>
        <time>2017-01-12T09:04:09Z</time>
      </trkpt>
      <trkpt lat="46.03194" lon="4.58486">
        <ele>670</ele>
        <time>2017-01-12T09:04:15Z</time>
      </trkpt>
      <trkpt lat="46.03195" lon="4.58488">
        <ele>670</ele>
        <time>2017-01-12T09:04:16Z</time>
      </trkpt>
      <trkpt lat="46.032" lon="4.58498">
        <ele>668</ele>
        <time>2017-01-12T09:04:24Z</time>
      </trkpt>
      <trkpt lat="46.03201" lon="4.585">
        <ele>668</ele>
        <time>2017-01-12T09:04:25Z</time>
      </trkpt>
      <trkpt lat="46.03206" lon="4.58509">
        <ele>670</ele>
        <time>2017-01-12T09:04:31Z</time>
      </trkpt>
      <trkpt lat="46.03207" lon="4.58511">
        <ele>670</ele>
        <time>2017-01-12T09:04:32Z</time>
      </trkpt>
      <trkpt lat="46.03209" lon="4.58523">
        <ele>669</ele>
        <time>2017-01-12T09:04:38Z</time>
      </trkpt>
      <trkpt lat="46.0321" lon="4.58524">
        <ele>669</ele>
        <time>2017-01-12T09:04:39Z</time>
      </trkpt>
      <trkpt lat="46.03214" lon="4.58535">
        <ele>668</ele>
        <time>2017-01-12T09:04:45Z</time>
      </trkpt>
      <trkpt lat="46.03215" lon="4.58537">
        <ele>668</ele>
        <time>2017-01-12T09:04:46Z</time>
      </trkpt>
      <trkpt lat="46.03218" lon="4.58548">
        <ele>668</ele>
        <time>2017-01-12T09:04:53Z</time>
      </trkpt>
      <trkpt lat="46.03218" lon="4.5855">
        <ele>668</ele>
        <time>2017-01-12T09:04:54Z</time>
      </trkpt>
      <trkpt lat="46.03218" lon="4.58562">
        <ele>668</ele>
        <time>2017-01-12T09:05:03Z</time>
      </trkpt>
      <trkpt lat="46.03218" lon="4.58564">
        <ele>668</ele>
        <time>2017-01-12T09:05:04Z</time>
      </trkpt>
      <trkpt lat="46.03219" lon="4.58575">
        <ele>668</ele>
        <time>2017-01-12T09:05:10Z</time>
      </trkpt>
      <trkpt lat="46.03219" lon="4.58577">
        <ele>668</ele>
        <time>2017-01-12T09:05:11Z</time>
      </trkpt>
      <trkpt lat="46.03222" lon="4.58587">
        <ele>667</ele>
        <time>2017-01-12T09:05:17Z</time>
      </trkpt>
      <trkpt lat="46.03223" lon="4.58589">
        <ele>667</ele>
        <time>2017-01-12T09:05:18Z</time>
      </trkpt>
      <trkpt lat="46.03225" lon="4.586">
        <ele>667</ele>
        <time>2017-01-12T09:05:28Z</time>
      </trkpt>
      <trkpt lat="46.03226" lon="4.58602">
        <ele>667</ele>
        <time>2017-01-12T09:05:29Z</time>
      </trkpt>
      <trkpt lat="46.03229" lon="4.58612">
        <ele>667</ele>
        <time>2017-01-12T09:05:35Z</time>
      </trkpt>
      <trkpt lat="46.03229" lon="4.58614">
        <ele>667</ele>
        <time>2017-01-12T09:05:36Z</time>
      </trkpt>
      <trkpt lat="46.03229" lon="4.58626">
        <ele>667</ele>
        <time>2017-01-12T09:05:43Z</time>
      </trkpt>
      <trkpt lat="46.0323" lon="4.58628">
        <ele>667</ele>
        <time>2017-01-12T09:05:44Z</time>
      </trkpt>
      <trkpt lat="46.03231" lon="4.5864">
        <ele>666</ele>
        <time>2017-01-12T09:05:51Z</time>
      </trkpt>
      <trkpt lat="46.03232" lon="4.58641">
        <ele>666</ele>
        <time>2017-01-12T09:05:52Z</time>
      </trkpt>
      <trkpt lat="46.03234" lon="4.58653">
        <ele>665</ele>
        <time>2017-01-12T09:06:05Z</time>
      </trkpt>
      <trkpt lat="46.03234" lon="4.58654">
        <ele>665</ele>
        <time>2017-01-12T09:06:06Z</time>
      </trkpt>
      <trkpt lat="46.03235" lon="4.58667">
        <ele>661</ele>
        <time>2017-01-12T09:06:15Z</time>
      </trkpt>
      <trkpt lat="46.03234" lon="4.58668">
        <ele>661</ele>
        <time>2017-01-12T09:06:16Z</time>
      </trkpt>
      <trkpt lat="46.03233" lon="4.5868">
        <ele>661</ele>
        <time>2017-01-12T09:06:22Z</time>
      </trkpt>
      <trkpt lat="46.03233" lon="4.58682">
        <ele>661</ele>
        <time>2017-01-12T09:06:23Z</time>
      </trkpt>
      <trkpt lat="46.03232" lon="4.58693">
        <ele>661</ele>
        <time>2017-01-12T09:06:29Z</time>
      </trkpt>
      <trkpt lat="46.03231" lon="4.58695">
        <ele>661</ele>
        <time>2017-01-12T09:06:30Z</time>
      </trkpt>
      <trkpt lat="46.0323" lon="4.58706">
        <ele>660</ele>
        <time>2017-01-12T09:06:36Z</time>
      </trkpt>
      <trkpt lat="46.0323" lon="4.58708">
        <ele>660</ele>
        <time>2017-01-12T09:06:37Z</time>
      </trkpt>
      <trkpt lat="46.03231" lon="4.58719">
        <ele>659</ele>
        <time>2017-01-12T09:06:42Z</time>
      </trkpt>
      <trkpt lat="46.03231" lon="4.58721">
        <ele>659</ele>
        <time>2017-01-12T09:06:43Z</time>
      </trkpt>
      <trkpt lat="46.03235" lon="4.58731">
        <ele>658</ele>
        <time>2017-01-12T09:06:47Z</time>
      </trkpt>
      <trkpt lat="46.03236" lon="4.58734">
        <ele>658</ele>
        <time>2017-01-12T09:06:48Z</time>
      </trkpt>
      <trkpt lat="46.0324" lon="4.58745">
        <ele>656</ele>
        <time>2017-01-12T09:06:53Z</time>
      </trkpt>
      <trkpt lat="46.0324" lon="4.58747">
        <ele>656</ele>
        <time>2017-01-12T09:06:54Z</time>
      </trkpt>
      <trkpt lat="46.03242" lon="4.58759">
        <ele>651</ele>
        <time>2017-01-12T09:07:07Z</time>
      </trkpt>
      <trkpt lat="46.03243" lon="4.58759">
        <ele>651</ele>
        <time>2017-01-12T09:07:08Z</time>
      </trkpt>
      <trkpt lat="46.03248" lon="4.58769">
        <ele>650</ele>
        <time>2017-01-12T09:07:49Z</time>
      </trkpt>
      <trkpt lat="46.03248" lon="4.58769">
        <ele>650</ele>
        <time>2017-01-12T09:07:50Z</time>
      </trkpt>
      <trkpt lat="46.03257" lon="4.58773">
        <ele>648</ele>
        <time>2017-01-12T09:11:26Z</time>
      </trkpt>
      <trkpt lat="46.03257" lon="4.58772">
        <ele>648</ele>
        <time>2017-01-12T09:11:27Z</time>
      </trkpt>
      <trkpt lat="46.03259" lon="4.58785">
        <ele>647</ele>
        <time>2017-01-12T09:12:51Z</time>
      </trkpt>
      <trkpt lat="46.0326" lon="4.58785">
        <ele>647</ele>
        <time>2017-01-12T09:12:52Z</time>
      </trkpt>
      <trkpt lat="46.03262" lon="4.58772">
        <ele>648</ele>
        <time>2017-01-12T09:13:11Z</time>
      </trkpt>
      <trkpt lat="46.03262" lon="4.58771">
        <ele>648</ele>
        <time>2017-01-12T09:13:12Z</time>
      </trkpt>
      <trkpt lat="46.03263" lon="4.58758">
        <ele>649</ele>
        <time>2017-01-12T09:13:24Z</time>
      </trkpt>
      <trkpt lat="46.03264" lon="4.58757">
        <ele>649</ele>
        <time>2017-01-12T09:13:25Z</time>
      </trkpt>
      <trkpt lat="46.03266" lon="4.58744">
        <ele>649</ele>
        <time>2017-01-12T09:13:32Z</time>
      </trkpt>
      <trkpt lat="46.03266" lon="4.58743">
        <ele>649</ele>
        <time>2017-01-12T09:13:33Z</time>
      </trkpt>
      <trkpt lat="46.03266" lon="4.58731">
        <ele>648</ele>
        <time>2017-01-12T09:13:42Z</time>
      </trkpt>
      <trkpt lat="46.03267" lon="4.58729">
        <ele>648</ele>
        <time>2017-01-12T09:13:43Z</time>
      </trkpt>
      <trkpt lat="46.03265" lon="4.58718">
        <ele>648</ele>
        <time>2017-01-12T09:13:50Z</time>
      </trkpt>
      <trkpt lat="46.03265" lon="4.58716">
        <ele>648</ele>
        <time>2017-01-12T09:13:51Z</time>
      </trkpt>
      <trkpt lat="46.03266" lon="4.58703">
        <ele>648</ele>
        <time>2017-01-12T09:13:58Z</time>
      </trkpt>
      <trkpt lat="46.03266" lon="4.58701">
        <ele>648</ele>
        <time>2017-01-12T09:13:59Z</time>
      </trkpt>
      <trkpt lat="46.03266" lon="4.58689">
        <ele>650</ele>
        <time>2017-01-12T09:14:05Z</time>
      </trkpt>
      <trkpt lat="46.03266" lon="4.58687">
        <ele>650</ele>
        <time>2017-01-12T09:14:06Z</time>
      </trkpt>
      <trkpt lat="46.03267" lon="4.58676">
        <ele>651</ele>
        <time>2017-01-12T09:14:13Z</time>
      </trkpt>
      <trkpt lat="46.03266" lon="4.58674">
        <ele>651</ele>
        <time>2017-01-12T09:14:14Z</time>
      </trkpt>
      <trkpt lat="46.03267" lon="4.58662">
        <ele>650</ele>
        <time>2017-01-12T09:14:21Z</time>
      </trkpt>
      <trkpt lat="46.03268" lon="4.5866">
        <ele>650</ele>
        <time>2017-01-12T09:14:22Z</time>
      </trkpt>
      <trkpt lat="46.03269" lon="4.58648">
        <ele>648</ele>
        <time>2017-01-12T09:14:29Z</time>
      </trkpt>
      <trkpt lat="46.03269" lon="4.58646">
        <ele>648</ele>
        <time>2017-01-12T09:14:30Z</time>
      </trkpt>
      <trkpt lat="46.03266" lon="4.58635">
        <ele>647</ele>
        <time>2017-01-12T09:14:36Z</time>
      </trkpt>
      <trkpt lat="46.03267" lon="4.58632">
        <ele>647</ele>
        <time>2017-01-12T09:14:37Z</time>
      </trkpt>
      <trkpt lat="46.03265" lon="4.5862">
        <ele>647</ele>
        <time>2017-01-12T09:14:43Z</time>
      </trkpt>
      <trkpt lat="46.03264" lon="4.58618">
        <ele>647</ele>
        <time>2017-01-12T09:14:44Z</time>
      </trkpt>
      <trkpt lat="46.03261" lon="4.58607">
        <ele>649</ele>
        <time>2017-01-12T09:14:50Z</time>
      </trkpt>
      <trkpt lat="46.0326" lon="4.58605">
        <ele>649</ele>
        <time>2017-01-12T09:14:51Z</time>
      </trkpt>
      <trkpt lat="46.03256" lon="4.58595">
        <ele>652</ele>
        <time>2017-01-12T09:14:57Z</time>
      </trkpt>
      <trkpt lat="46.03255" lon="4.58594">
        <ele>653</ele>
        <time>2017-01-12T09:14:58Z</time>
      </trkpt>
      <trkpt lat="46.03248" lon="4.58585">
        <ele>660</ele>
        <time>2017-01-12T09:15:05Z</time>
      </trkpt>
      <trkpt lat="46.03248" lon="4.58584">
        <ele>660</ele>
        <time>2017-01-12T09:15:06Z</time>
      </trkpt>
      <trkpt lat="46.03242" lon="4.58574">
        <ele>663</ele>
        <time>2017-01-12T09:15:13Z</time>
      </trkpt>
      <trkpt lat="46.03242" lon="4.58572">
        <ele>663</ele>
        <time>2017-01-12T09:15:14Z</time>
      </trkpt>
      <trkpt lat="46.03243" lon="4.5856">
        <ele>664</ele>
        <time>2017-01-12T09:15:20Z</time>
      </trkpt>
      <trkpt lat="46.03244" lon="4.58558">
        <ele>665</ele>
        <time>2017-01-12T09:15:21Z</time>
      </trkpt>
      <trkpt lat="46.03242" lon="4.58546">
        <ele>665</ele>
        <time>2017-01-12T09:15:28Z</time>
      </trkpt>
      <trkpt lat="46.03242" lon="4.58545">
        <ele>665</ele>
        <time>2017-01-12T09:15:29Z</time>
      </trkpt>
      <trkpt lat="46.03238" lon="4.58533">
        <ele>664</ele>
        <time>2017-01-12T09:15:37Z</time>
      </trkpt>
      <trkpt lat="46.03239" lon="4.58531">
        <ele>664</ele>
        <time>2017-01-12T09:15:38Z</time>
      </trkpt>
      <trkpt lat="46.03238" lon="4.58519">
        <ele>662</ele>
        <time>2017-01-12T09:15:45Z</time>
      </trkpt>
      <trkpt lat="46.03239" lon="4.58517">
        <ele>661</ele>
        <time>2017-01-12T09:15:46Z</time>
      </trkpt>
      <trkpt lat="46.03241" lon="4.58506">
        <ele>657</ele>
        <time>2017-01-12T09:15:51Z</time>
      </trkpt>
      <trkpt lat="46.03241" lon="4.58504">
        <ele>657</ele>
        <time>2017-01-12T09:15:52Z</time>
      </trkpt>
      <trkpt lat="46.03244" lon="4.58492">
        <ele>655</ele>
        <time>2017-01-12T09:15:57Z</time>
      </trkpt>
      <trkpt lat="46.03245" lon="4.5849">
        <ele>655</ele>
        <time>2017-01-12T09:15:58Z</time>
      </trkpt>
      <trkpt lat="46.03245" lon="4.58478">
        <ele>657</ele>
        <time>2017-01-12T09:16:03Z</time>
      </trkpt>
      <trkpt lat="46.03244" lon="4.58476">
        <ele>658</ele>
        <time>2017-01-12T09:16:04Z</time>
      </trkpt>
      <trkpt lat="46.03242" lon="4.58465">
        <ele>658</ele>
        <time>2017-01-12T09:16:09Z</time>
      </trkpt>
      <trkpt lat="46.03241" lon="4.58463">
        <ele>658</ele>
        <time>2017-01-12T09:16:10Z</time>
      </trkpt>
      <trkpt lat="46.03236" lon="4.58452">
        <ele>658</ele>
        <time>2017-01-12T09:16:16Z</time>
      </trkpt>
      <trkpt lat="46.03235" lon="4.58451">
        <ele>658</ele>
        <time>2017-01-12T09:16:17Z</time>
      </trkpt>
      <trkpt lat="46.03229" lon="4.58443">
        <ele>658</ele>
        <time>2017-01-12T09:16:22Z</time>
      </trkpt>
      <trkpt lat="46.03228" lon="4.58441">
        <ele>658</ele>
        <time>2017-01-12T09:16:23Z</time>
      </trkpt>
      <trkpt lat="46.03225" lon="4.5843">
        <ele>658</ele>
        <time>2017-01-12T09:16:29Z</time>
      </trkpt>
      <trkpt lat="46.03224" lon="4.58428">
        <ele>658</ele>
        <time>2017-01-12T09:16:30Z</time>
      </trkpt>
      <trkpt lat="46.03223" lon="4.58417">
        <ele>658</ele>
        <time>2017-01-12T09:16:36Z</time>
      </trkpt>
      <trkpt lat="46.03223" lon="4.58415">
        <ele>650</ele>
        <time>2017-01-12T09:16:37Z</time>
      </trkpt>
      <trkpt lat="46.03226" lon="4.58404">
        <ele>649</ele>
        <time>2017-01-12T09:16:45Z</time>
      </trkpt>
      <trkpt lat="46.03226" lon="4.58402">
        <ele>649</ele>
        <time>2017-01-12T09:16:46Z</time>
      </trkpt>
      <trkpt lat="46.03221" lon="4.58392">
        <ele>650</ele>
        <time>2017-01-12T09:16:51Z</time>
      </trkpt>
      <trkpt lat="46.03221" lon="4.58391">
        <ele>650</ele>
        <time>2017-01-12T09:16:52Z</time>
      </trkpt>
      <trkpt lat="46.03213" lon="4.58384">
        <ele>651</ele>
        <time>2017-01-12T09:16:57Z</time>
      </trkpt>
      <trkpt lat="46.03212" lon="4.58383">
        <ele>651</ele>
        <time>2017-01-12T09:16:58Z</time>
      </trkpt>
      <trkpt lat="46.0321" lon="4.58372">
        <ele>651</ele>
        <time>2017-01-12T09:17:04Z</time>
      </trkpt>
      <trkpt lat="46.03209" lon="4.5837">
        <ele>651</ele>
        <time>2017-01-12T09:17:05Z</time>
      </trkpt>
      <trkpt lat="46.03203" lon="4.5836">
        <ele>651</ele>
        <time>2017-01-12T09:17:11Z</time>
      </trkpt>
      <trkpt lat="46.03203" lon="4.58358">
        <ele>651</ele>
        <time>2017-01-12T09:17:12Z</time>
      </trkpt>
      <trkpt lat="46.03203" lon="4.58346">
        <ele>650</ele>
        <time>2017-01-12T09:17:18Z</time>
      </trkpt>
      <trkpt lat="46.03203" lon="4.58344">
        <ele>650</ele>
        <time>2017-01-12T09:17:19Z</time>
      </trkpt>
      <trkpt lat="46.03199" lon="4.58334">
        <ele>651</ele>
        <time>2017-01-12T09:17:25Z</time>
      </trkpt>
      <trkpt lat="46.03198" lon="4.58333">
        <ele>641</ele>
        <time>2017-01-12T09:17:26Z</time>
      </trkpt>
      <trkpt lat="46.03194" lon="4.58323">
        <ele>642</ele>
        <time>2017-01-12T09:17:31Z</time>
      </trkpt>
      <trkpt lat="46.03193" lon="4.58321">
        <ele>642</ele>
        <time>2017-01-12T09:17:32Z</time>
      </trkpt>
      <trkpt lat="46.0319" lon="4.58311">
        <ele>642</ele>
        <time>2017-01-12T09:17:37Z</time>
      </trkpt>
      <trkpt lat="46.03189" lon="4.58309">
        <ele>641</ele>
        <time>2017-01-12T09:17:38Z</time>
      </trkpt>
      <trkpt lat="46.03188" lon="4.58296">
        <ele>640</ele>
        <time>2017-01-12T09:17:45Z</time>
      </trkpt>
      <trkpt lat="46.03188" lon="4.58294">
        <ele>639</ele>
        <time>2017-01-12T09:17:46Z</time>
      </trkpt>
      <trkpt lat="46.03187" lon="4.58282">
        <ele>638</ele>
        <time>2017-01-12T09:17:53Z</time>
      </trkpt>
      <trkpt lat="46.03187" lon="4.5828">
        <ele>638</ele>
        <time>2017-01-12T09:17:54Z</time>
      </trkpt>
      <trkpt lat="46.03183" lon="4.5827">
        <ele>639</ele>
        <time>2017-01-12T09:18:00Z</time>
      </trkpt>
      <trkpt lat="46.03182" lon="4.58269">
        <ele>639</ele>
        <time>2017-01-12T09:18:01Z</time>
      </trkpt>
      <trkpt lat="46.03179" lon="4.58258">
        <ele>640</ele>
        <time>2017-01-12T09:18:07Z</time>
      </trkpt>
      <trkpt lat="46.03178" lon="4.58256">
        <ele>640</ele>
        <time>2017-01-12T09:18:08Z</time>
      </trkpt>
      <trkpt lat="46.03177" lon="4.58243">
        <ele>635</ele>
        <time>2017-01-12T09:18:15Z</time>
      </trkpt>
      <trkpt lat="46.03178" lon="4.58241">
        <ele>635</ele>
        <time>2017-01-12T09:18:16Z</time>
      </trkpt>
      <trkpt lat="46.03174" lon="4.5823">
        <ele>632</ele>
        <time>2017-01-12T09:18:22Z</time>
      </trkpt>
      <trkpt lat="46.03172" lon="4.58228">
        <ele>632</ele>
        <time>2017-01-12T09:18:23Z</time>
      </trkpt>
      <trkpt lat="46.03168" lon="4.58219">
        <ele>630</ele>
        <time>2017-01-12T09:18:28Z</time>
      </trkpt>
      <trkpt lat="46.03167" lon="4.58217">
        <ele>630</ele>
        <time>2017-01-12T09:18:29Z</time>
      </trkpt>
      <trkpt lat="46.03164" lon="4.58206">
        <ele>647</ele>
        <time>2017-01-12T09:18:35Z</time>
      </trkpt>
      <trkpt lat="46.03164" lon="4.58204">
        <ele>646</ele>
        <time>2017-01-12T09:18:36Z</time>
      </trkpt>
      <trkpt lat="46.03159" lon="4.58194">
        <ele>645</ele>
        <time>2017-01-12T09:18:43Z</time>
      </trkpt>
      <trkpt lat="46.03158" lon="4.58193">
        <ele>645</ele>
        <time>2017-01-12T09:18:44Z</time>
      </trkpt>
      <trkpt lat="46.03151" lon="4.58187">
        <ele>645</ele>
        <time>2017-01-12T09:18:50Z</time>
      </trkpt>
      <trkpt lat="46.0315" lon="4.58186">
        <ele>645</ele>
        <time>2017-01-12T09:18:51Z</time>
      </trkpt>
      <trkpt lat="46.03145" lon="4.58176">
        <ele>644</ele>
        <time>2017-01-12T09:18:58Z</time>
      </trkpt>
      <trkpt lat="46.03144" lon="4.58174">
        <ele>644</ele>
        <time>2017-01-12T09:18:59Z</time>
      </trkpt>
      <trkpt lat="46.03137" lon="4.58167">
        <ele>636</ele>
        <time>2017-01-12T09:19:05Z</time>
      </trkpt>
      <trkpt lat="46.03136" lon="4.58165">
        <ele>636</ele>
        <time>2017-01-12T09:19:06Z</time>
      </trkpt>
      <trkpt lat="46.03133" lon="4.58153">
        <ele>636</ele>
        <time>2017-01-12T09:19:13Z</time>
      </trkpt>
      <trkpt lat="46.03132" lon="4.58152">
        <ele>636</ele>
        <time>2017-01-12T09:19:14Z</time>
      </trkpt>
      <trkpt lat="46.03126" lon="4.58145">
        <ele>637</ele>
        <time>2017-01-12T09:19:19Z</time>
      </trkpt>
      <trkpt lat="46.03125" lon="4.58144">
        <ele>637</ele>
        <time>2017-01-12T09:19:20Z</time>
      </trkpt>
      <trkpt lat="46.03118" lon="4.58137">
        <ele>637</ele>
        <time>2017-01-12T09:19:26Z</time>
      </trkpt>
      <trkpt lat="46.03117" lon="4.58136">
        <ele>637</ele>
        <time>2017-01-12T09:19:27Z</time>
      </trkpt>
      <trkpt lat="46.03109" lon="4.58129">
        <ele>638</ele>
        <time>2017-01-12T09:19:34Z</time>
      </trkpt>
      <trkpt lat="46.03108" lon="4.58128">
        <ele>638</ele>
        <time>2017-01-12T09:19:35Z</time>
      </trkpt>
      <trkpt lat="46.03102" lon="4.58121">
        <ele>637</ele>
        <time>2017-01-12T09:19:43Z</time>
      </trkpt>
      <trkpt lat="46.03101" lon="4.5812">
        <ele>637</ele>
        <time>2017-01-12T09:19:44Z</time>
      </trkpt>
      <trkpt lat="46.03094" lon="4.58112">
        <ele>637</ele>
        <time>2017-01-12T09:19:53Z</time>
      </trkpt>
      <trkpt lat="46.03094" lon="4.5811">
        <ele>637</ele>
        <time>2017-01-12T09:19:54Z</time>
      </trkpt>
      <trkpt lat="46.03087" lon="4.58104">
        <ele>637</ele>
        <time>2017-01-12T09:20:01Z</time>
      </trkpt>
      <trkpt lat="46.03086" lon="4.58103">
        <ele>637</ele>
        <time>2017-01-12T09:20:02Z</time>
      </trkpt>
      <trkpt lat="46.03082" lon="4.58092">
        <ele>644</ele>
        <time>2017-01-12T09:20:12Z</time>
      </trkpt>
      <trkpt lat="46.03082" lon="4.58091">
        <ele>643</ele>
        <time>2017-01-12T09:20:13Z</time>
      </trkpt>
      <trkpt lat="46.03075" lon="4.58083">
        <ele>638</ele>
        <time>2017-01-12T09:20:18Z</time>
      </trkpt>
      <trkpt lat="46.03074" lon="4.58081">
        <ele>638</ele>
        <time>2017-01-12T09:20:19Z</time>
      </trkpt>
      <trkpt lat="46.03067" lon="4.58074">
        <ele>639</ele>
        <time>2017-01-12T09:20:24Z</time>
      </trkpt>
      <trkpt lat="46.03065" lon="4.58073">
        <ele>639</ele>
        <time>2017-01-12T09:20:25Z</time>
      </trkpt>
      <trkpt lat="46.03058" lon="4.58066">
        <ele>640</ele>
        <time>2017-01-12T09:20:30Z</time>
      </trkpt>
      <trkpt lat="46.03057" lon="4.58065">
        <ele>640</ele>
        <time>2017-01-12T09:20:31Z</time>
      </trkpt>
      <trkpt lat="46.03052" lon="4.58055">
        <ele>640</ele>
        <time>2017-01-12T09:20:38Z</time>
      </trkpt>
      <trkpt lat="46.03052" lon="4.58054">
        <ele>640</ele>
        <time>2017-01-12T09:20:39Z</time>
      </trkpt>
      <trkpt lat="46.03051" lon="4.58041">
        <ele>638</ele>
        <time>2017-01-12T09:20:47Z</time>
      </trkpt>
      <trkpt lat="46.03051" lon="4.5804">
        <ele>638</ele>
        <time>2017-01-12T09:20:48Z</time>
      </trkpt>
      <trkpt lat="46.03046" lon="4.58029">
        <ele>637</ele>
        <time>2017-01-12T09:20:56Z</time>
      </trkpt>
      <trkpt lat="46.03045" lon="4.58028">
        <ele>638</ele>
        <time>2017-01-12T09:20:57Z</time>
      </trkpt>
      <trkpt lat="46.03039" lon="4.5802">
        <ele>638</ele>
        <time>2017-01-12T09:21:03Z</time>
      </trkpt>
      <trkpt lat="46.03038" lon="4.58018">
        <ele>638</ele>
        <time>2017-01-12T09:21:04Z</time>
      </trkpt>
      <trkpt lat="46.03035" lon="4.58006">
        <ele>638</ele>
        <time>2017-01-12T09:21:11Z</time>
      </trkpt>
      <trkpt lat="46.03034" lon="4.58004">
        <ele>638</ele>
        <time>2017-01-12T09:21:12Z</time>
      </trkpt>
      <trkpt lat="46.03031" lon="4.57993">
        <ele>627</ele>
        <time>2017-01-12T09:21:18Z</time>
      </trkpt>
      <trkpt lat="46.03032" lon="4.57991">
        <ele>627</ele>
        <time>2017-01-12T09:21:19Z</time>
      </trkpt>
      <trkpt lat="46.03027" lon="4.57981">
        <ele>627</ele>
        <time>2017-01-12T09:21:26Z</time>
      </trkpt>
      <trkpt lat="46.03026" lon="4.5798">
        <ele>627</ele>
        <time>2017-01-12T09:21:27Z</time>
      </trkpt>
      <trkpt lat="46.03022" lon="4.57969">
        <ele>626</ele>
        <time>2017-01-12T09:21:34Z</time>
      </trkpt>
      <trkpt lat="46.03022" lon="4.57968">
        <ele>626</ele>
        <time>2017-01-12T09:21:35Z</time>
      </trkpt>
      <trkpt lat="46.0302" lon="4.57956">
        <ele>624</ele>
        <time>2017-01-12T09:21:44Z</time>
      </trkpt>
      <trkpt lat="46.03019" lon="4.57955">
        <ele>624</ele>
        <time>2017-01-12T09:21:45Z</time>
      </trkpt>
      <trkpt lat="46.03014" lon="4.57944">
        <ele>624</ele>
        <time>2017-01-12T09:21:52Z</time>
      </trkpt>
      <trkpt lat="46.03014" lon="4.57943">
        <ele>624</ele>
        <time>2017-01-12T09:21:53Z</time>
      </trkpt>
      <trkpt lat="46.03013" lon="4.57931">
        <ele>624</ele>
        <time>2017-01-12T09:22:02Z</time>
      </trkpt>
      <trkpt lat="46.03012" lon="4.57929">
        <ele>624</ele>
        <time>2017-01-12T09:22:03Z</time>
      </trkpt>
      <trkpt lat="46.03005" lon="4.57921">
        <ele>626</ele>
        <time>2017-01-12T09:22:09Z</time>
      </trkpt>
      <trkpt lat="46.03005" lon="4.57919">
        <ele>626</ele>
        <time>2017-01-12T09:22:10Z</time>
      </trkpt>
      <trkpt lat="46.03003" lon="4.57907">
        <ele>620</ele>
        <time>2017-01-12T09:22:16Z</time>
      </trkpt>
      <trkpt lat="46.03002" lon="4.57905">
        <ele>619</ele>
        <time>2017-01-12T09:22:17Z</time>
      </trkpt>
      <trkpt lat="46.02995" lon="4.57897">
        <ele>627</ele>
        <time>2017-01-12T09:22:22Z</time>
      </trkpt>
      <trkpt lat="46.02994" lon="4.57896">
        <ele>627</ele>
        <time>2017-01-12T09:22:23Z</time>
      </trkpt>
      <trkpt lat="46.02988" lon="4.57886">
        <ele>626</ele>
        <time>2017-01-12T09:22:30Z</time>
      </trkpt>
      <trkpt lat="46.02988" lon="4.57884">
        <ele>626</ele>
        <time>2017-01-12T09:22:31Z</time>
      </trkpt>
      <trkpt lat="46.02987" lon="4.57872">
        <ele>624</ele>
        <time>2017-01-12T09:22:38Z</time>
      </trkpt>
      <trkpt lat="46.02986" lon="4.5787">
        <ele>624</ele>
        <time>2017-01-12T09:22:39Z</time>
      </trkpt>
      <trkpt lat="46.02982" lon="4.57862">
        <ele>622</ele>
        <time>2017-01-12T09:22:44Z</time>
      </trkpt>
      <trkpt lat="46.0298" lon="4.5786">
        <ele>622</ele>
        <time>2017-01-12T09:22:45Z</time>
      </trkpt>
      <trkpt lat="46.02975" lon="4.57852">
        <ele>621</ele>
        <time>2017-01-12T09:22:49Z</time>
      </trkpt>
      <trkpt lat="46.02974" lon="4.57849">
        <ele>621</ele>
        <time>2017-01-12T09:22:50Z</time>
      </trkpt>
      <trkpt lat="46.02967" lon="4.57842">
        <ele>622</ele>
        <time>2017-01-12T09:22:55Z</time>
      </trkpt>
      <trkpt lat="46.02965" lon="4.57841">
        <ele>622</ele>
        <time>2017-01-12T09:22:56Z</time>
      </trkpt>
      <trkpt lat="46.02958" lon="4.57834">
        <ele>624</ele>
        <time>2017-01-12T09:23:02Z</time>
      </trkpt>
      <trkpt lat="46.02957" lon="4.57833">
        <ele>609</ele>
        <time>2017-01-12T09:23:03Z</time>
      </trkpt>
      <trkpt lat="46.0295" lon="4.57827">
        <ele>610</ele>
        <time>2017-01-12T09:23:10Z</time>
      </trkpt>
      <trkpt lat="46.02948" lon="4.57826">
        <ele>610</ele>
        <time>2017-01-12T09:23:11Z</time>
      </trkpt>
      <trkpt lat="46.02942" lon="4.57818">
        <ele>611</ele>
        <time>2017-01-12T09:23:18Z</time>
      </trkpt>
      <trkpt lat="46.02942" lon="4.57816">
        <ele>611</ele>
        <time>2017-01-12T09:23:19Z</time>
      </trkpt>
      <trkpt lat="46.02936" lon="4.5781">
        <ele>611</ele>
        <time>2017-01-12T09:23:24Z</time>
      </trkpt>
      <trkpt lat="46.02934" lon="4.57809">
        <ele>611</ele>
        <time>2017-01-12T09:23:25Z</time>
      </trkpt>
      <trkpt lat="46.02928" lon="4.57803">
        <ele>610</ele>
        <time>2017-01-12T09:23:30Z</time>
      </trkpt>
      <trkpt lat="46.02926" lon="4.57802">
        <ele>610</ele>
        <time>2017-01-12T09:23:31Z</time>
      </trkpt>
      <trkpt lat="46.02919" lon="4.57792">
        <ele>608</ele>
        <time>2017-01-12T09:23:37Z</time>
      </trkpt>
      <trkpt lat="46.02918" lon="4.57791">
        <ele>607</ele>
        <time>2017-01-12T09:23:38Z</time>
      </trkpt>
      <trkpt lat="46.02916" lon="4.57779">
        <ele>614</ele>
        <time>2017-01-12T09:23:47Z</time>
      </trkpt>
      <trkpt lat="46.02915" lon="4.57778">
        <ele>614</ele>
        <time>2017-01-12T09:23:48Z</time>
      </trkpt>
      <trkpt lat="46.02921" lon="4.57786">
        <ele>606</ele>
        <time>2017-01-12T09:23:58Z</time>
      </trkpt>
      <trkpt lat="46.02922" lon="4.57787">
        <ele>606</ele>
        <time>2017-01-12T09:23:59Z</time>
      </trkpt>
      <trkpt lat="46.02928" lon="4.57795">
        <ele>608</ele>
        <time>2017-01-12T09:24:07Z</time>
      </trkpt>
      <trkpt lat="46.02929" lon="4.57796">
        <ele>608</ele>
        <time>2017-01-12T09:24:08Z</time>
      </trkpt>
      <trkpt lat="46.02936" lon="4.57804">
        <ele>609</ele>
        <time>2017-01-12T09:24:16Z</time>
      </trkpt>
      <trkpt lat="46.02937" lon="4.57804">
        <ele>609</ele>
        <time>2017-01-12T09:24:17Z</time>
      </trkpt>
      <trkpt lat="46.02945" lon="4.57809">
        <ele>609</ele>
        <time>2017-01-12T09:24:26Z</time>
      </trkpt>
      <trkpt lat="46.02946" lon="4.57809">
        <ele>608</ele>
        <time>2017-01-12T09:24:27Z</time>
      </trkpt>
      <trkpt lat="46.02954" lon="4.57812">
        <ele>608</ele>
        <time>2017-01-12T09:24:34Z</time>
      </trkpt>
      <trkpt lat="46.02955" lon="4.57813">
        <ele>607</ele>
        <time>2017-01-12T09:24:35Z</time>
      </trkpt>
      <trkpt lat="46.02963" lon="4.57818">
        <ele>607</ele>
        <time>2017-01-12T09:24:41Z</time>
      </trkpt>
      <trkpt lat="46.02965" lon="4.57818">
        <ele>606</ele>
        <time>2017-01-12T09:24:42Z</time>
      </trkpt>
      <trkpt lat="46.02972" lon="4.57824">
        <ele>606</ele>
        <time>2017-01-12T09:24:48Z</time>
      </trkpt>
      <trkpt lat="46.02973" lon="4.57825">
        <ele>606</ele>
        <time>2017-01-12T09:24:49Z</time>
      </trkpt>
      <trkpt lat="46.0298" lon="4.5783">
        <ele>605</ele>
        <time>2017-01-12T09:24:55Z</time>
      </trkpt>
      <trkpt lat="46.02981" lon="4.5783">
        <ele>605</ele>
        <time>2017-01-12T09:24:56Z</time>
      </trkpt>
      <trkpt lat="46.02989" lon="4.57835">
        <ele>612</ele>
        <time>2017-01-12T09:25:02Z</time>
      </trkpt>
      <trkpt lat="46.02991" lon="4.57836">
        <ele>612</ele>
        <time>2017-01-12T09:25:03Z</time>
      </trkpt>
      <trkpt lat="46.02997" lon="4.57842">
        <ele>612</ele>
        <time>2017-01-12T09:25:09Z</time>
      </trkpt>
      <trkpt lat="46.02999" lon="4.57843">
        <ele>612</ele>
        <time>2017-01-12T09:25:10Z</time>
      </trkpt>
      <trkpt lat="46.03006" lon="4.57847">
        <ele>605</ele>
        <time>2017-01-12T09:25:16Z</time>
      </trkpt>
      <trkpt lat="46.03007" lon="4.57847">
        <ele>605</ele>
        <time>2017-01-12T09:25:17Z</time>
      </trkpt>
      <trkpt lat="46.03011" lon="4.57859">
        <ele>606</ele>
        <time>2017-01-12T09:25:26Z</time>
      </trkpt>
      <trkpt lat="46.03012" lon="4.5786">
        <ele>606</ele>
        <time>2017-01-12T09:25:27Z</time>
      </trkpt>
      <trkpt lat="46.03018" lon="4.57869">
        <ele>606</ele>
        <time>2017-01-12T09:25:36Z</time>
      </trkpt>
      <trkpt lat="46.03018" lon="4.5787">
        <ele>607</ele>
        <time>2017-01-12T09:25:37Z</time>
      </trkpt>
      <trkpt lat="46.03024" lon="4.5788">
        <ele>607</ele>
        <time>2017-01-12T09:25:45Z</time>
      </trkpt>
      <trkpt lat="46.03025" lon="4.57881">
        <ele>607</ele>
        <time>2017-01-12T09:25:46Z</time>
      </trkpt>
      <trkpt lat="46.03028" lon="4.57892">
        <ele>609</ele>
        <time>2017-01-12T09:25:53Z</time>
      </trkpt>
      <trkpt lat="46.03029" lon="4.57894">
        <ele>609</ele>
        <time>2017-01-12T09:25:54Z</time>
      </trkpt>
      <trkpt lat="46.0303" lon="4.57905">
        <ele>610</ele>
        <time>2017-01-12T09:26:00Z</time>
      </trkpt>
      <trkpt lat="46.03031" lon="4.57907">
        <ele>610</ele>
        <time>2017-01-12T09:26:01Z</time>
      </trkpt>
      <trkpt lat="46.03034" lon="4.57918">
        <ele>619</ele>
        <time>2017-01-12T09:26:07Z</time>
      </trkpt>
      <trkpt lat="46.03035" lon="4.5792">
        <ele>619</ele>
        <time>2017-01-12T09:26:08Z</time>
      </trkpt>
      <trkpt lat="46.03042" lon="4.57925">
        <ele>617</ele>
        <time>2017-01-12T09:26:12Z</time>
      </trkpt>
      <trkpt lat="46.03044" lon="4.57927">
        <ele>617</ele>
        <time>2017-01-12T09:26:13Z</time>
      </trkpt>
      <trkpt lat="46.03051" lon="4.57933">
        <ele>615</ele>
        <time>2017-01-12T09:26:18Z</time>
      </trkpt>
      <trkpt lat="46.03052" lon="4.57933">
        <ele>615</ele>
        <time>2017-01-12T09:26:19Z</time>
      </trkpt>
      <trkpt lat="46.0306" lon="4.57939">
        <ele>614</ele>
        <time>2017-01-12T09:26:27Z</time>
      </trkpt>
      <trkpt lat="46.03061" lon="4.57941">
        <ele>614</ele>
        <time>2017-01-12T09:26:28Z</time>
      </trkpt>
      <trkpt lat="46.03064" lon="4.57952">
        <ele>615</ele>
        <time>2017-01-12T09:26:36Z</time>
      </trkpt>
      <trkpt lat="46.03064" lon="4.57953">
        <ele>615</ele>
        <time>2017-01-12T09:26:37Z</time>
      </trkpt>
      <trkpt lat="46.03071" lon="4.57962">
        <ele>615</ele>
        <time>2017-01-12T09:26:46Z</time>
      </trkpt>
      <trkpt lat="46.03071" lon="4.57963">
        <ele>615</ele>
        <time>2017-01-12T09:26:47Z</time>
      </trkpt>
      <trkpt lat="46.03077" lon="4.5797">
        <ele>615</ele>
        <time>2017-01-12T09:26:52Z</time>
      </trkpt>
      <trkpt lat="46.03078" lon="4.57971">
        <ele>615</ele>
        <time>2017-01-12T09:26:53Z</time>
      </trkpt>
      <trkpt lat="46.03086" lon="4.57974">
        <ele>598</ele>
        <time>2017-01-12T09:26:59Z</time>
      </trkpt>
      <trkpt lat="46.03087" lon="4.57976">
        <ele>599</ele>
        <time>2017-01-12T09:27:00Z</time>
      </trkpt>
      <trkpt lat="46.03093" lon="4.57983">
        <ele>600</ele>
        <time>2017-01-12T09:27:05Z</time>
      </trkpt>
      <trkpt lat="46.03093" lon="4.57986">
        <ele>601</ele>
        <time>2017-01-12T09:27:06Z</time>
      </trkpt>
      <trkpt lat="46.03096" lon="4.57995">
        <ele>603</ele>
        <time>2017-01-12T09:27:10Z</time>
      </trkpt>
      <trkpt lat="46.03097" lon="4.57998">
        <ele>603</ele>
        <time>2017-01-12T09:27:11Z</time>
      </trkpt>
      <trkpt lat="46.03101" lon="4.58007">
        <ele>612</ele>
        <time>2017-01-12T09:27:15Z</time>
      </trkpt>
      <trkpt lat="46.03102" lon="4.58009">
        <ele>612</ele>
        <time>2017-01-12T09:27:16Z</time>
      </trkpt>
      <trkpt lat="46.03109" lon="4.58016">
        <ele>612</ele>
        <time>2017-01-12T09:27:21Z</time>
      </trkpt>
      <trkpt lat="46.0311" lon="4.58018">
        <ele>612</ele>
        <time>2017-01-12T09:27:22Z</time>
      </trkpt>
      <trkpt lat="46.03118" lon="4.58022">
        <ele>611</ele>
        <time>2017-01-12T09:27:27Z</time>
      </trkpt>
      <trkpt lat="46.03119" lon="4.58023">
        <ele>611</ele>
        <time>2017-01-12T09:27:28Z</time>
      </trkpt>
      <trkpt lat="46.03127" lon="4.58027">
        <ele>611</ele>
        <time>2017-01-12T09:27:34Z</time>
      </trkpt>
      <trkpt lat="46.03128" lon="4.58027">
        <ele>611</ele>
        <time>2017-01-12T09:27:35Z</time>
      </trkpt>
      <trkpt lat="46.03136" lon="4.5803">
        <ele>610</ele>
        <time>2017-01-12T09:27:41Z</time>
      </trkpt>
      <trkpt lat="46.03137" lon="4.58031">
        <ele>610</ele>
        <time>2017-01-12T09:27:42Z</time>
      </trkpt>
      <trkpt lat="46.03145" lon="4.58033">
        <ele>609</ele>
        <time>2017-01-12T09:27:48Z</time>
      </trkpt>
      <trkpt lat="46.03146" lon="4.58033">
        <ele>609</ele>
        <time>2017-01-12T09:27:49Z</time>
      </trkpt>
      <trkpt lat="46.03154" lon="4.58034">
        <ele>608</ele>
        <time>2017-01-12T09:27:54Z</time>
      </trkpt>
      <trkpt lat="46.03155" lon="4.58035">
        <ele>608</ele>
        <time>2017-01-12T09:27:55Z</time>
      </trkpt>
      <trkpt lat="46.03163" lon="4.58037">
        <ele>608</ele>
        <time>2017-01-12T09:28:00Z</time>
      </trkpt>
      <trkpt lat="46.03165" lon="4.58038">
        <ele>608</ele>
        <time>2017-01-12T09:28:01Z</time>
      </trkpt>
      <trkpt lat="46.03173" lon="4.5804">
        <ele>596</ele>
        <time>2017-01-12T09:28:07Z</time>
      </trkpt>
      <trkpt lat="46.03174" lon="4.58041">
        <ele>596</ele>
        <time>2017-01-12T09:28:08Z</time>
      </trkpt>
      <trkpt lat="46.03182" lon="4.58043">
        <ele>596</ele>
        <time>2017-01-12T09:28:15Z</time>
      </trkpt>
      <trkpt lat="46.03184" lon="4.58043">
        <ele>596</ele>
        <time>2017-01-12T09:28:16Z</time>
      </trkpt>
      <trkpt lat="46.03192" lon="4.58044">
        <ele>596</ele>
        <time>2017-01-12T09:28:22Z</time>
      </trkpt>
      <trkpt lat="46.03194" lon="4.58044">
        <ele>595</ele>
        <time>2017-01-12T09:28:23Z</time>
      </trkpt>
      <trkpt lat="46.03201" lon="4.58041">
        <ele>594</ele>
        <time>2017-01-12T09:28:28Z</time>
      </trkpt>
      <trkpt lat="46.03203" lon="4.5804">
        <ele>594</ele>
        <time>2017-01-12T09:28:29Z</time>
      </trkpt>
      <trkpt lat="46.0321" lon="4.58036">
        <ele>593</ele>
        <time>2017-01-12T09:28:34Z</time>
      </trkpt>
      <trkpt lat="46.03211" lon="4.58036">
        <ele>592</ele>
        <time>2017-01-12T09:28:35Z</time>
      </trkpt>
      <trkpt lat="46.0322" lon="4.58034">
        <ele>591</ele>
        <time>2017-01-12T09:28:42Z</time>
      </trkpt>
      <trkpt lat="46.03221" lon="4.58034">
        <ele>591</ele>
        <time>2017-01-12T09:28:43Z</time>
      </trkpt>
      <trkpt lat="46.0323" lon="4.58032">
        <ele>590</ele>
        <time>2017-01-12T09:28:50Z</time>
      </trkpt>
      <trkpt lat="46.03231" lon="4.58032">
        <ele>590</ele>
        <time>2017-01-12T09:28:51Z</time>
      </trkpt>
      <trkpt lat="46.03239" lon="4.58032">
        <ele>589</ele>
        <time>2017-01-12T09:28:57Z</time>
      </trkpt>
      <trkpt lat="46.03241" lon="4.58032">
        <ele>589</ele>
        <time>2017-01-12T09:28:58Z</time>
      </trkpt>
      <trkpt lat="46.03249" lon="4.5803">
        <ele>588</ele>
        <time>2017-01-12T09:29:05Z</time>
      </trkpt>
      <trkpt lat="46.03251" lon="4.5803">
        <ele>578</ele>
        <time>2017-01-12T09:29:06Z</time>
      </trkpt>
      <trkpt lat="46.03259" lon="4.58026">
        <ele>577</ele>
        <time>2017-01-12T09:29:13Z</time>
      </trkpt>
      <trkpt lat="46.03261" lon="4.58026">
        <ele>577</ele>
        <time>2017-01-12T09:29:14Z</time>
      </trkpt>
      <trkpt lat="46.03268" lon="4.58021">
        <ele>576</ele>
        <time>2017-01-12T09:29:20Z</time>
      </trkpt>
      <trkpt lat="46.03269" lon="4.58021">
        <ele>576</ele>
        <time>2017-01-12T09:29:21Z</time>
      </trkpt>
      <trkpt lat="46.03278" lon="4.58019">
        <ele>576</ele>
        <time>2017-01-12T09:29:27Z</time>
      </trkpt>
      <trkpt lat="46.03279" lon="4.58019">
        <ele>576</ele>
        <time>2017-01-12T09:29:28Z</time>
      </trkpt>
      <trkpt lat="46.03286" lon="4.58027">
        <ele>576</ele>
        <time>2017-01-12T09:29:35Z</time>
      </trkpt>
      <trkpt lat="46.03287" lon="4.58028">
        <ele>576</ele>
        <time>2017-01-12T09:29:36Z</time>
      </trkpt>
      <trkpt lat="46.03289" lon="4.58041">
        <ele>576</ele>
        <time>2017-01-12T09:30:35Z</time>
      </trkpt>
      <trkpt lat="46.03289" lon="4.58041">
        <ele>576</ele>
        <time>2017-01-12T09:30:36Z</time>
      </trkpt>
      <trkpt lat="46.03286" lon="4.58053">
        <ele>577</ele>
        <time>2017-01-12T09:30:48Z</time>
      </trkpt>
      <trkpt lat="46.03286" lon="4.58054">
        <ele>577</ele>
        <time>2017-01-12T09:30:49Z</time>
      </trkpt>
      <trkpt lat="46.03284" lon="4.58066">
        <ele>578</ele>
        <time>2017-01-12T09:30:58Z</time>
      </trkpt>
      <trkpt lat="46.03284" lon="4.58067">
        <ele>578</ele>
        <time>2017-01-12T09:30:59Z</time>
      </trkpt>
      <trkpt lat="46.03285" lon="4.58079">
        <ele>579</ele>
        <time>2017-01-12T09:31:07Z</time>
      </trkpt>
      <trkpt lat="46.03285" lon="4.5808">
        <ele>579</ele>
        <time>2017-01-12T09:31:08Z</time>
      </trkpt>
      <trkpt lat="46.03286" lon="4.58092">
        <ele>581</ele>
        <time>2017-01-12T09:31:15Z</time>
      </trkpt>
      <trkpt lat="46.03285" lon="4.58093">
        <ele>581</ele>
        <time>2017-01-12T09:31:16Z</time>
      </trkpt>
      <trkpt lat="46.03289" lon="4.58104">
        <ele>580</ele>
        <time>2017-01-12T09:31:22Z</time>
      </trkpt>
      <trkpt lat="46.03289" lon="4.58106">
        <ele>580</ele>
        <time>2017-01-12T09:31:23Z</time>
      </trkpt>
      <trkpt lat="46.03293" lon="4.58116">
        <ele>579</ele>
        <time>2017-01-12T09:31:30Z</time>
      </trkpt>
      <trkpt lat="46.03294" lon="4.58117">
        <ele>579</ele>
        <time>2017-01-12T09:31:31Z</time>
      </trkpt>
      <trkpt lat="46.03294" lon="4.5813">
        <ele>579</ele>
        <time>2017-01-12T09:31:39Z</time>
      </trkpt>
      <trkpt lat="46.03294" lon="4.58131">
        <ele>579</ele>
        <time>2017-01-12T09:31:40Z</time>
      </trkpt>
      <trkpt lat="46.03294" lon="4.58144">
        <ele>579</ele>
        <time>2017-01-12T09:31:48Z</time>
      </trkpt>
      <trkpt lat="46.03294" lon="4.58145">
        <ele>579</ele>
        <time>2017-01-12T09:31:49Z</time>
      </trkpt>
      <trkpt lat="46.03293" lon="4.58157">
        <ele>579</ele>
        <time>2017-01-12T09:31:55Z</time>
      </trkpt>
      <trkpt lat="46.03293" lon="4.58159">
        <ele>579</ele>
        <time>2017-01-12T09:31:56Z</time>
      </trkpt>
      <trkpt lat="46.03296" lon="4.58169">
        <ele>582</ele>
        <time>2017-01-12T09:32:02Z</time>
      </trkpt>
      <trkpt lat="46.03296" lon="4.58172">
        <ele>582</ele>
        <time>2017-01-12T09:32:03Z</time>
      </trkpt>
      <trkpt lat="46.03298" lon="4.58184">
        <ele>582</ele>
        <time>2017-01-12T09:32:10Z</time>
      </trkpt>
      <trkpt lat="46.03298" lon="4.58185">
        <ele>582</ele>
        <time>2017-01-12T09:32:11Z</time>
      </trkpt>
      <trkpt lat="46.033" lon="4.58197">
        <ele>583</ele>
        <time>2017-01-12T09:32:18Z</time>
      </trkpt>
      <trkpt lat="46.033" lon="4.58199">
        <ele>583</ele>
        <time>2017-01-12T09:32:19Z</time>
      </trkpt>
      <trkpt lat="46.03304" lon="4.58209">
        <ele>583</ele>
        <time>2017-01-12T09:32:25Z</time>
      </trkpt>
      <trkpt lat="46.03305" lon="4.5821">
        <ele>582</ele>
        <time>2017-01-12T09:32:26Z</time>
      </trkpt>
      <trkpt lat="46.03312" lon="4.58217">
        <ele>581</ele>
        <time>2017-01-12T09:32:31Z</time>
      </trkpt>
      <trkpt lat="46.03313" lon="4.58218">
        <ele>581</ele>
        <time>2017-01-12T09:32:32Z</time>
      </trkpt>
      <trkpt lat="46.03319" lon="4.58226">
        <ele>580</ele>
        <time>2017-01-12T09:32:38Z</time>
      </trkpt>
      <trkpt lat="46.0332" lon="4.58227">
        <ele>580</ele>
        <time>2017-01-12T09:32:39Z</time>
      </trkpt>
      <trkpt lat="46.03328" lon="4.58232">
        <ele>578</ele>
        <time>2017-01-12T09:32:45Z</time>
      </trkpt>
      <trkpt lat="46.03329" lon="4.58233">
        <ele>577</ele>
        <time>2017-01-12T09:32:46Z</time>
      </trkpt>
      <trkpt lat="46.03336" lon="4.5824">
        <ele>564</ele>
        <time>2017-01-12T09:32:53Z</time>
      </trkpt>
      <trkpt lat="46.03337" lon="4.58241">
        <ele>564</ele>
        <time>2017-01-12T09:32:54Z</time>
      </trkpt>
      <trkpt lat="46.03344" lon="4.58246">
        <ele>563</ele>
        <time>2017-01-12T09:33:01Z</time>
      </trkpt>
      <trkpt lat="46.03346" lon="4.58246">
        <ele>562</ele>
        <time>2017-01-12T09:33:02Z</time>
      </trkpt>
      <trkpt lat="46.03352" lon="4.5825">
        <ele>568</ele>
        <time>2017-01-12T09:33:08Z</time>
      </trkpt>
      <trkpt lat="46.03354" lon="4.58251">
        <ele>568</ele>
        <time>2017-01-12T09:33:09Z</time>
      </trkpt>
      <trkpt lat="46.03361" lon="4.58255">
        <ele>567</ele>
        <time>2017-01-12T09:33:15Z</time>
      </trkpt>
      <trkpt lat="46.03363" lon="4.58256">
        <ele>566</ele>
        <time>2017-01-12T09:33:16Z</time>
      </trkpt>
      <trkpt lat="46.03371" lon="4.58257">
        <ele>565</ele>
        <time>2017-01-12T09:33:22Z</time>
      </trkpt>
      <trkpt lat="46.03372" lon="4.58258">
        <ele>564</ele>
        <time>2017-01-12T09:33:23Z</time>
      </trkpt>
      <trkpt lat="46.0338" lon="4.58262">
        <ele>563</ele>
        <time>2017-01-12T09:33:29Z</time>
      </trkpt>
      <trkpt lat="46.03381" lon="4.58262">
        <ele>563</ele>
        <time>2017-01-12T09:33:30Z</time>
      </trkpt>
      <trkpt lat="46.03389" lon="4.58262">
        <ele>561</ele>
        <time>2017-01-12T09:33:35Z</time>
      </trkpt>
      <trkpt lat="46.0339" lon="4.58263">
        <ele>560</ele>
        <time>2017-01-12T09:33:36Z</time>
      </trkpt>
      <trkpt lat="46.03398" lon="4.58265">
        <ele>559</ele>
        <time>2017-01-12T09:33:42Z</time>
      </trkpt>
      <trkpt lat="46.03399" lon="4.58265">
        <ele>558</ele>
        <time>2017-01-12T09:33:43Z</time>
      </trkpt>
      <trkpt lat="46.03407" lon="4.58268">
        <ele>557</ele>
        <time>2017-01-12T09:33:51Z</time>
      </trkpt>
      <trkpt lat="46.03408" lon="4.58268">
        <ele>557</ele>
        <time>2017-01-12T09:33:52Z</time>
      </trkpt>
      <trkpt lat="46.03416" lon="4.58272">
        <ele>557</ele>
        <time>2017-01-12T09:34:00Z</time>
      </trkpt>
      <trkpt lat="46.03417" lon="4.58272">
        <ele>543</ele>
        <time>2017-01-12T09:34:01Z</time>
      </trkpt>
      <trkpt lat="46.03423" lon="4.58281">
        <ele>542</ele>
        <time>2017-01-12T09:34:09Z</time>
      </trkpt>
      <trkpt lat="46.03424" lon="4.58282">
        <ele>542</ele>
        <time>2017-01-12T09:34:10Z</time>
      </trkpt>
      <trkpt lat="46.0343" lon="4.5829">
        <ele>542</ele>
        <time>2017-01-12T09:34:17Z</time>
      </trkpt>
      <trkpt lat="46.03431" lon="4.58291">
        <ele>542</ele>
        <time>2017-01-12T09:34:18Z</time>
      </trkpt>
      <trkpt lat="46.03437" lon="4.58299">
        <ele>542</ele>
        <time>2017-01-12T09:34:25Z</time>
      </trkpt>
      <trkpt lat="46.03438" lon="4.583">
        <ele>542</ele>
        <time>2017-01-12T09:34:26Z</time>
      </trkpt>
      <trkpt lat="46.03442" lon="4.5831">
        <ele>543</ele>
        <time>2017-01-12T09:34:36Z</time>
      </trkpt>
      <trkpt lat="46.03443" lon="4.58312">
        <ele>543</ele>
        <time>2017-01-12T09:34:37Z</time>
      </trkpt>
      <trkpt lat="46.03445" lon="4.58324">
        <ele>544</ele>
        <time>2017-01-12T09:34:46Z</time>
      </trkpt>
      <trkpt lat="46.03445" lon="4.58325">
        <ele>544</ele>
        <time>2017-01-12T09:34:47Z</time>
      </trkpt>
      <trkpt lat="46.03446" lon="4.58337">
        <ele>546</ele>
        <time>2017-01-12T09:34:55Z</time>
      </trkpt>
      <trkpt lat="46.03446" lon="4.58339">
        <ele>546</ele>
        <time>2017-01-12T09:34:56Z</time>
      </trkpt>
      <trkpt lat="46.03446" lon="4.58351">
        <ele>546</ele>
        <time>2017-01-12T09:35:06Z</time>
      </trkpt>
      <trkpt lat="46.03445" lon="4.58353">
        <ele>546</ele>
        <time>2017-01-12T09:35:07Z</time>
      </trkpt>
      <trkpt lat="46.03443" lon="4.58364">
        <ele>546</ele>
        <time>2017-01-12T09:35:17Z</time>
      </trkpt>
      <trkpt lat="46.03442" lon="4.58365">
        <ele>546</ele>
        <time>2017-01-12T09:35:18Z</time>
      </trkpt>
      <trkpt lat="46.03438" lon="4.58375">
        <ele>547</ele>
        <time>2017-01-12T09:35:28Z</time>
      </trkpt>
      <trkpt lat="46.03438" lon="4.58377">
        <ele>547</ele>
        <time>2017-01-12T09:35:29Z</time>
      </trkpt>
      <trkpt lat="46.03435" lon="4.58387">
        <ele>548</ele>
        <time>2017-01-12T09:35:37Z</time>
      </trkpt>
      <trkpt lat="46.03435" lon="4.58389">
        <ele>548</ele>
        <time>2017-01-12T09:35:38Z</time>
      </trkpt>
      <trkpt lat="46.03436" lon="4.58401">
        <ele>549</ele>
        <time>2017-01-12T09:35:45Z</time>
      </trkpt>
      <trkpt lat="46.03437" lon="4.58403">
        <ele>550</ele>
        <time>2017-01-12T09:35:46Z</time>
      </trkpt>
      <trkpt lat="46.03439" lon="4.58415">
        <ele>550</ele>
        <time>2017-01-12T09:35:52Z</time>
      </trkpt>
      <trkpt lat="46.03439" lon="4.58417">
        <ele>550</ele>
        <time>2017-01-12T09:35:53Z</time>
      </trkpt>
      <trkpt lat="46.03441" lon="4.58429">
        <ele>553</ele>
        <time>2017-01-12T09:36:00Z</time>
      </trkpt>
      <trkpt lat="46.03441" lon="4.58431">
        <ele>553</ele>
        <time>2017-01-12T09:36:01Z</time>
      </trkpt>
      <trkpt lat="46.03447" lon="4.58439">
        <ele>552</ele>
        <time>2017-01-12T09:36:08Z</time>
      </trkpt>
      <trkpt lat="46.03448" lon="4.58439">
        <ele>551</ele>
        <time>2017-01-12T09:36:09Z</time>
      </trkpt>
      <trkpt lat="46.03454" lon="4.58449">
        <ele>551</ele>
        <time>2017-01-12T09:36:17Z</time>
      </trkpt>
      <trkpt lat="46.03454" lon="4.5845">
        <ele>551</ele>
        <time>2017-01-12T09:36:18Z</time>
      </trkpt>
      <trkpt lat="46.03462" lon="4.58453">
        <ele>550</ele>
        <time>2017-01-12T09:36:30Z</time>
      </trkpt>
      <trkpt lat="46.03462" lon="4.58454">
        <ele>550</ele>
        <time>2017-01-12T09:36:31Z</time>
      </trkpt>
      <trkpt lat="46.03471" lon="4.58452">
        <ele>548</ele>
        <time>2017-01-12T09:36:52Z</time>
      </trkpt>
      <trkpt lat="46.03472" lon="4.58452">
        <ele>548</ele>
        <time>2017-01-12T09:36:53Z</time>
      </trkpt>
      <trkpt lat="46.0348" lon="4.58451">
        <ele>546</ele>
        <time>2017-01-12T09:37:01Z</time>
      </trkpt>
      <trkpt lat="46.03481" lon="4.5845">
        <ele>546</ele>
        <time>2017-01-12T09:37:02Z</time>
      </trkpt>
      <trkpt lat="46.03488" lon="4.58448">
        <ele>544</ele>
        <time>2017-01-12T09:37:09Z</time>
      </trkpt>
      <trkpt lat="46.0349" lon="4.58447">
        <ele>544</ele>
        <time>2017-01-12T09:37:10Z</time>
      </trkpt>
      <trkpt lat="46.03499" lon="4.58445">
        <ele>542</ele>
        <time>2017-01-12T09:37:17Z</time>
      </trkpt>
      <trkpt lat="46.03499" lon="4.58445">
        <ele>542</ele>
        <time>2017-01-12T09:37:18Z</time>
      </trkpt>
      <trkpt lat="46.03507" lon="4.5844">
        <ele>534</ele>
        <time>2017-01-12T09:37:27Z</time>
      </trkpt>
      <trkpt lat="46.03508" lon="4.5844">
        <ele>534</ele>
        <time>2017-01-12T09:37:28Z</time>
      </trkpt>
      <trkpt lat="46.03516" lon="4.58435">
        <ele>533</ele>
        <time>2017-01-12T09:37:40Z</time>
      </trkpt>
      <trkpt lat="46.03516" lon="4.58435">
        <ele>533</ele>
        <time>2017-01-12T09:37:41Z</time>
      </trkpt>
      <trkpt lat="46.03523" lon="4.5843">
        <ele>533</ele>
        <time>2017-01-12T09:37:53Z</time>
      </trkpt>
      <trkpt lat="46.03524" lon="4.58429">
        <ele>533</ele>
        <time>2017-01-12T09:37:54Z</time>
      </trkpt>
      <trkpt lat="46.03532" lon="4.58425">
        <ele>533</ele>
        <time>2017-01-12T09:37:59Z</time>
      </trkpt>
      <trkpt lat="46.03533" lon="4.58425">
        <ele>534</ele>
        <time>2017-01-12T09:38:00Z</time>
      </trkpt>
      <trkpt lat="46.03541" lon="4.5842">
        <ele>533</ele>
        <time>2017-01-12T09:38:05Z</time>
      </trkpt>
      <trkpt lat="46.03542" lon="4.58419">
        <ele>533</ele>
        <time>2017-01-12T09:38:06Z</time>
      </trkpt>
      <trkpt lat="46.0355" lon="4.58413">
        <ele>520</ele>
        <time>2017-01-12T09:38:12Z</time>
      </trkpt>
      <trkpt lat="46.03551" lon="4.58411">
        <ele>520</ele>
        <time>2017-01-12T09:38:13Z</time>
      </trkpt>
      <trkpt lat="46.03559" lon="4.58407">
        <ele>520</ele>
        <time>2017-01-12T09:38:20Z</time>
      </trkpt>
      <trkpt lat="46.0356" lon="4.58406">
        <ele>520</ele>
        <time>2017-01-12T09:38:21Z</time>
      </trkpt>
      <trkpt lat="46.03567" lon="4.58404">
        <ele>520</ele>
        <time>2017-01-12T09:38:25Z</time>
      </trkpt>
      <trkpt lat="46.03569" lon="4.58403">
        <ele>520</ele>
        <time>2017-01-12T09:38:26Z</time>
      </trkpt>
      <trkpt lat="46.03576" lon="4.584">
        <ele>520</ele>
        <time>2017-01-12T09:38:30Z</time>
      </trkpt>
      <trkpt lat="46.03578" lon="4.58399">
        <ele>520</ele>
        <time>2017-01-12T09:38:31Z</time>
      </trkpt>
      <trkpt lat="46.03585" lon="4.58395">
        <ele>520</ele>
        <time>2017-01-12T09:38:36Z</time>
      </trkpt>
      <trkpt lat="46.03587" lon="4.58395">
        <ele>520</ele>
        <time>2017-01-12T09:38:37Z</time>
      </trkpt>
      <trkpt lat="46.03595" lon="4.5839">
        <ele>519</ele>
        <time>2017-01-12T09:38:43Z</time>
      </trkpt>
      <trkpt lat="46.03595" lon="4.5839">
        <ele>519</ele>
        <time>2017-01-12T09:38:44Z</time>
      </trkpt>
      <trkpt lat="46.03602" lon="4.58383">
        <ele>518</ele>
        <time>2017-01-12T09:38:51Z</time>
      </trkpt>
      <trkpt lat="46.03603" lon="4.58382">
        <ele>518</ele>
        <time>2017-01-12T09:38:52Z</time>
      </trkpt>
      <trkpt lat="46.03609" lon="4.58375">
        <ele>517</ele>
        <time>2017-01-12T09:39:00Z</time>
      </trkpt>
      <trkpt lat="46.03611" lon="4.58374">
        <ele>517</ele>
        <time>2017-01-12T09:39:01Z</time>
      </trkpt>
      <trkpt lat="46.03617" lon="4.58365">
        <ele>516</ele>
        <time>2017-01-12T09:39:08Z</time>
      </trkpt>
      <trkpt lat="46.03618" lon="4.58364">
        <ele>516</ele>
        <time>2017-01-12T09:39:09Z</time>
      </trkpt>
      <trkpt lat="46.03626" lon="4.5836">
        <ele>516</ele>
        <time>2017-01-12T09:39:16Z</time>
      </trkpt>
      <trkpt lat="46.03628" lon="4.5836">
        <ele>516</ele>
        <time>2017-01-12T09:39:17Z</time>
      </trkpt>
      <trkpt lat="46.03635" lon="4.58356">
        <ele>515</ele>
        <time>2017-01-12T09:39:23Z</time>
      </trkpt>
      <trkpt lat="46.03636" lon="4.58355">
        <ele>515</ele>
        <time>2017-01-12T09:39:24Z</time>
      </trkpt>
      <trkpt lat="46.03644" lon="4.58352">
        <ele>515</ele>
        <time>2017-01-12T09:39:29Z</time>
      </trkpt>
      <trkpt lat="46.03645" lon="4.58351">
        <ele>515</ele>
        <time>2017-01-12T09:39:30Z</time>
      </trkpt>
      <trkpt lat="46.03653" lon="4.58348">
        <ele>514</ele>
        <time>2017-01-12T09:39:39Z</time>
      </trkpt>
      <trkpt lat="46.03654" lon="4.58348">
        <ele>514</ele>
        <time>2017-01-12T09:39:40Z</time>
      </trkpt>
      <trkpt lat="46.03663" lon="4.58347">
        <ele>513</ele>
        <time>2017-01-12T09:39:50Z</time>
      </trkpt>
      <trkpt lat="46.03664" lon="4.58347">
        <ele>513</ele>
        <time>2017-01-12T09:39:51Z</time>
      </trkpt>
      <trkpt lat="46.03672" lon="4.58347">
        <ele>517</ele>
        <time>2017-01-12T09:40:01Z</time>
      </trkpt>
      <trkpt lat="46.03673" lon="4.58347">
        <ele>517</ele>
        <time>2017-01-12T09:40:02Z</time>
      </trkpt>
      <trkpt lat="46.03682" lon="4.58345">
        <ele>518</ele>
        <time>2017-01-12T09:40:08Z</time>
      </trkpt>
      <trkpt lat="46.03683" lon="4.58345">
        <ele>519</ele>
        <time>2017-01-12T09:40:09Z</time>
      </trkpt>
      <trkpt lat="46.03692" lon="4.58341">
        <ele>520</ele>
        <time>2017-01-12T09:40:16Z</time>
      </trkpt>
      <trkpt lat="46.03693" lon="4.58339">
        <ele>520</ele>
        <time>2017-01-12T09:40:17Z</time>
      </trkpt>
      <trkpt lat="46.03701" lon="4.58336">
        <ele>520</ele>
        <time>2017-01-12T09:40:26Z</time>
      </trkpt>
      <trkpt lat="46.03702" lon="4.58336">
        <ele>520</ele>
        <time>2017-01-12T09:40:27Z</time>
      </trkpt>
      <trkpt lat="46.0371" lon="4.58334">
        <ele>521</ele>
        <time>2017-01-12T09:40:42Z</time>
      </trkpt>
      <trkpt lat="46.03711" lon="4.58333">
        <ele>503</ele>
        <time>2017-01-12T09:40:43Z</time>
      </trkpt>
      <trkpt lat="46.03719" lon="4.58329">
        <ele>503</ele>
        <time>2017-01-12T09:40:51Z</time>
      </trkpt>
      <trkpt lat="46.0372" lon="4.58328">
        <ele>503</ele>
        <time>2017-01-12T09:40:52Z</time>
      </trkpt>
      <trkpt lat="46.03728" lon="4.58324">
        <ele>504</ele>
        <time>2017-01-12T09:40:58Z</time>
      </trkpt>
      <trkpt lat="46.03729" lon="4.58324">
        <ele>504</ele>
        <time>2017-01-12T09:40:59Z</time>
      </trkpt>
      <trkpt lat="46.03737" lon="4.58319">
        <ele>505</ele>
        <time>2017-01-12T09:41:05Z</time>
      </trkpt>
      <trkpt lat="46.03739" lon="4.5832">
        <ele>505</ele>
        <time>2017-01-12T09:41:06Z</time>
      </trkpt>
      <trkpt lat="46.03747" lon="4.58319">
        <ele>506</ele>
        <time>2017-01-12T09:41:12Z</time>
      </trkpt>
      <trkpt lat="46.03749" lon="4.58319">
        <ele>506</ele>
        <time>2017-01-12T09:41:13Z</time>
      </trkpt>
      <trkpt lat="46.03757" lon="4.58319">
        <ele>506</ele>
        <time>2017-01-12T09:41:20Z</time>
      </trkpt>
      <trkpt lat="46.03758" lon="4.5832">
        <ele>506</ele>
        <time>2017-01-12T09:41:21Z</time>
      </trkpt>
      <trkpt lat="46.03766" lon="4.58321">
        <ele>505</ele>
        <time>2017-01-12T09:41:28Z</time>
      </trkpt>
      <trkpt lat="46.03767" lon="4.58321">
        <ele>505</ele>
        <time>2017-01-12T09:41:29Z</time>
      </trkpt>
      <trkpt lat="46.03775" lon="4.58321">
        <ele>504</ele>
        <time>2017-01-12T09:41:38Z</time>
      </trkpt>
      <trkpt lat="46.03776" lon="4.58321">
        <ele>504</ele>
        <time>2017-01-12T09:41:39Z</time>
      </trkpt>
      <trkpt lat="46.03785" lon="4.5832">
        <ele>503</ele>
        <time>2017-01-12T09:41:50Z</time>
      </trkpt>
      <trkpt lat="46.03786" lon="4.5832">
        <ele>503</ele>
        <time>2017-01-12T09:41:51Z</time>
      </trkpt>
      <trkpt lat="46.03794" lon="4.5832">
        <ele>503</ele>
        <time>2017-01-12T09:41:57Z</time>
      </trkpt>
      <trkpt lat="46.03796" lon="4.5832">
        <ele>503</ele>
        <time>2017-01-12T09:41:58Z</time>
      </trkpt>
      <trkpt lat="46.03804" lon="4.58319">
        <ele>503</ele>
        <time>2017-01-12T09:42:10Z</time>
      </trkpt>
      <trkpt lat="46.03805" lon="4.58318">
        <ele>503</ele>
        <time>2017-01-12T09:42:11Z</time>
      </trkpt>
      <trkpt lat="46.03812" lon="4.58315">
        <ele>503</ele>
        <time>2017-01-12T09:42:20Z</time>
      </trkpt>
      <trkpt lat="46.03814" lon="4.58314">
        <ele>503</ele>
        <time>2017-01-12T09:42:21Z</time>
      </trkpt>
      <trkpt lat="46.0382" lon="4.58311">
        <ele>503</ele>
        <time>2017-01-12T09:42:25Z</time>
      </trkpt>
      <trkpt lat="46.03824" lon="4.58309">
        <ele>503</ele>
        <time>2017-01-12T09:42:26Z</time>
      </trkpt>
      <trkpt lat="46.03831" lon="4.58304">
        <ele>502</ele>
        <time>2017-01-12T09:42:31Z</time>
      </trkpt>
      <trkpt lat="46.03832" lon="4.58302">
        <ele>501</ele>
        <time>2017-01-12T09:42:32Z</time>
      </trkpt>
      <trkpt lat="46.03838" lon="4.58297">
        <ele>504</ele>
        <time>2017-01-12T09:42:36Z</time>
      </trkpt>
      <trkpt lat="46.03841" lon="4.58294">
        <ele>504</ele>
        <time>2017-01-12T09:42:37Z</time>
      </trkpt>
      <trkpt lat="46.03847" lon="4.58288">
        <ele>503</ele>
        <time>2017-01-12T09:42:42Z</time>
      </trkpt>
      <trkpt lat="46.0385" lon="4.58286">
        <ele>503</ele>
        <time>2017-01-12T09:42:43Z</time>
      </trkpt>
      <trkpt lat="46.03857" lon="4.58279">
        <ele>502</ele>
        <time>2017-01-12T09:42:48Z</time>
      </trkpt>
      <trkpt lat="46.03858" lon="4.58277">
        <ele>502</ele>
        <time>2017-01-12T09:42:49Z</time>
      </trkpt>
      <trkpt lat="46.03864" lon="4.58268">
        <ele>501</ele>
        <time>2017-01-12T09:42:56Z</time>
      </trkpt>
      <trkpt lat="46.03864" lon="4.58268">
        <ele>501</ele>
        <time>2017-01-12T09:42:57Z</time>
      </trkpt>
      <trkpt lat="46.0387" lon="4.58259">
        <ele>501</ele>
        <time>2017-01-12T09:43:09Z</time>
      </trkpt>
      <trkpt lat="46.03871" lon="4.58258">
        <ele>501</ele>
        <time>2017-01-12T09:43:10Z</time>
      </trkpt>
      <trkpt lat="46.03877" lon="4.5825">
        <ele>487</ele>
        <time>2017-01-12T09:43:17Z</time>
      </trkpt>
      <trkpt lat="46.03878" lon="4.58248">
        <ele>487</ele>
        <time>2017-01-12T09:43:18Z</time>
      </trkpt>
      <trkpt lat="46.03885" lon="4.58241">
        <ele>487</ele>
        <time>2017-01-12T09:43:24Z</time>
      </trkpt>
      <trkpt lat="46.03887" lon="4.5824">
        <ele>487</ele>
        <time>2017-01-12T09:43:25Z</time>
      </trkpt>
      <trkpt lat="46.03895" lon="4.58235">
        <ele>488</ele>
        <time>2017-01-12T09:43:32Z</time>
      </trkpt>
      <trkpt lat="46.03897" lon="4.58232">
        <ele>488</ele>
        <time>2017-01-12T09:43:33Z</time>
      </trkpt>
      <trkpt lat="46.03905" lon="4.58229">
        <ele>489</ele>
        <time>2017-01-12T09:43:41Z</time>
      </trkpt>
      <trkpt lat="46.03906" lon="4.58228">
        <ele>489</ele>
        <time>2017-01-12T09:43:42Z</time>
      </trkpt>
      <trkpt lat="46.03913" lon="4.58224">
        <ele>488</ele>
        <time>2017-01-12T09:43:48Z</time>
      </trkpt>
      <trkpt lat="46.03914" lon="4.58223">
        <ele>488</ele>
        <time>2017-01-12T09:43:49Z</time>
      </trkpt>
      <trkpt lat="46.03921" lon="4.58217">
        <ele>493</ele>
        <time>2017-01-12T09:43:58Z</time>
      </trkpt>
      <trkpt lat="46.03923" lon="4.58216">
        <ele>493</ele>
        <time>2017-01-12T09:43:59Z</time>
      </trkpt>
      <trkpt lat="46.0393" lon="4.58209">
        <ele>492</ele>
        <time>2017-01-12T09:44:08Z</time>
      </trkpt>
      <trkpt lat="46.03932" lon="4.58207">
        <ele>492</ele>
        <time>2017-01-12T09:44:09Z</time>
      </trkpt>
      <trkpt lat="46.03938" lon="4.58199">
        <ele>491</ele>
        <time>2017-01-12T09:44:16Z</time>
      </trkpt>
      <trkpt lat="46.0394" lon="4.58197">
        <ele>490</ele>
        <time>2017-01-12T09:44:17Z</time>
      </trkpt>
      <trkpt lat="46.03945" lon="4.58187">
        <ele>489</ele>
        <time>2017-01-12T09:44:24Z</time>
      </trkpt>
      <trkpt lat="46.03946" lon="4.58185">
        <ele>489</ele>
        <time>2017-01-12T09:44:25Z</time>
      </trkpt>
      <trkpt lat="46.03951" lon="4.58176">
        <ele>489</ele>
        <time>2017-01-12T09:44:31Z</time>
      </trkpt>
      <trkpt lat="46.03952" lon="4.58175">
        <ele>489</ele>
        <time>2017-01-12T09:44:32Z</time>
      </trkpt>
      <trkpt lat="46.0396" lon="4.58169">
        <ele>489</ele>
        <time>2017-01-12T09:44:38Z</time>
      </trkpt>
      <trkpt lat="46.03961" lon="4.58168">
        <ele>489</ele>
        <time>2017-01-12T09:44:39Z</time>
      </trkpt>
      <trkpt lat="46.03968" lon="4.58163">
        <ele>472</ele>
        <time>2017-01-12T09:44:46Z</time>
      </trkpt>
      <trkpt lat="46.03969" lon="4.58163">
        <ele>472</ele>
        <time>2017-01-12T09:44:47Z</time>
      </trkpt>
      <trkpt lat="46.03977" lon="4.58159">
        <ele>473</ele>
        <time>2017-01-12T09:44:54Z</time>
      </trkpt>
      <trkpt lat="46.03978" lon="4.58158">
        <ele>473</ele>
        <time>2017-01-12T09:44:55Z</time>
      </trkpt>
      <trkpt lat="46.03986" lon="4.58153">
        <ele>474</ele>
        <time>2017-01-12T09:45:04Z</time>
      </trkpt>
      <trkpt lat="46.03986" lon="4.58153">
        <ele>474</ele>
        <time>2017-01-12T09:45:05Z</time>
      </trkpt>
      <trkpt lat="46.03993" lon="4.58148">
        <ele>474</ele>
        <time>2017-01-12T09:45:12Z</time>
      </trkpt>
      <trkpt lat="46.03995" lon="4.58147">
        <ele>474</ele>
        <time>2017-01-12T09:45:13Z</time>
      </trkpt>
      <trkpt lat="46.04002" lon="4.58143">
        <ele>474</ele>
        <time>2017-01-12T09:45:18Z</time>
      </trkpt>
      <trkpt lat="46.04004" lon="4.58142">
        <ele>474</ele>
        <time>2017-01-12T09:45:19Z</time>
      </trkpt>
      <trkpt lat="46.04011" lon="4.58136">
        <ele>472</ele>
        <time>2017-01-12T09:45:26Z</time>
      </trkpt>
      <trkpt lat="46.04012" lon="4.58135">
        <ele>471</ele>
        <time>2017-01-12T09:45:27Z</time>
      </trkpt>
      <trkpt lat="46.04019" lon="4.5813">
        <ele>470</ele>
        <time>2017-01-12T09:45:33Z</time>
      </trkpt>
      <trkpt lat="46.04021" lon="4.58129">
        <ele>470</ele>
        <time>2017-01-12T09:45:34Z</time>
      </trkpt>
      <trkpt lat="46.04028" lon="4.58124">
        <ele>468</ele>
        <time>2017-01-12T09:45:39Z</time>
      </trkpt>
      <trkpt lat="46.0403" lon="4.58124">
        <ele>468</ele>
        <time>2017-01-12T09:45:40Z</time>
      </trkpt>
      <trkpt lat="46.04038" lon="4.58121">
        <ele>468</ele>
        <time>2017-01-12T09:45:46Z</time>
      </trkpt>
      <trkpt lat="46.04039" lon="4.58121">
        <ele>468</ele>
        <time>2017-01-12T09:45:47Z</time>
      </trkpt>
      <trkpt lat="46.04047" lon="4.58118">
        <ele>468</ele>
        <time>2017-01-12T09:45:53Z</time>
      </trkpt>
      <trkpt lat="46.04049" lon="4.58118">
        <ele>468</ele>
        <time>2017-01-12T09:45:54Z</time>
      </trkpt>
      <trkpt lat="46.04057" lon="4.58114">
        <ele>467</ele>
        <time>2017-01-12T09:46:00Z</time>
      </trkpt>
      <trkpt lat="46.04059" lon="4.58114">
        <ele>467</ele>
        <time>2017-01-12T09:46:01Z</time>
      </trkpt>
      <trkpt lat="46.04068" lon="4.58113">
        <ele>466</ele>
        <time>2017-01-12T09:46:07Z</time>
      </trkpt>
      <trkpt lat="46.04069" lon="4.58113">
        <ele>466</ele>
        <time>2017-01-12T09:46:08Z</time>
      </trkpt>
      <trkpt lat="46.04077" lon="4.58111">
        <ele>466</ele>
        <time>2017-01-12T09:46:14Z</time>
      </trkpt>
      <trkpt lat="46.04079" lon="4.58111">
        <ele>466</ele>
        <time>2017-01-12T09:46:15Z</time>
      </trkpt>
      <trkpt lat="46.04087" lon="4.58109">
        <ele>463</ele>
        <time>2017-01-12T09:46:21Z</time>
      </trkpt>
      <trkpt lat="46.04089" lon="4.58109">
        <ele>463</ele>
        <time>2017-01-12T09:46:22Z</time>
      </trkpt>
      <trkpt lat="46.04097" lon="4.58107">
        <ele>463</ele>
        <time>2017-01-12T09:46:29Z</time>
      </trkpt>
      <trkpt lat="46.04098" lon="4.58107">
        <ele>463</ele>
        <time>2017-01-12T09:46:30Z</time>
      </trkpt>
      <trkpt lat="46.04106" lon="4.58105">
        <ele>463</ele>
        <time>2017-01-12T09:46:37Z</time>
      </trkpt>
      <trkpt lat="46.04108" lon="4.58105">
        <ele>463</ele>
        <time>2017-01-12T09:46:38Z</time>
      </trkpt>
      <trkpt lat="46.04116" lon="4.58104">
        <ele>463</ele>
        <time>2017-01-12T09:46:48Z</time>
      </trkpt>
      <trkpt lat="46.04117" lon="4.58105">
        <ele>463</ele>
        <time>2017-01-12T09:46:49Z</time>
      </trkpt>
      <trkpt lat="46.04125" lon="4.58103">
        <ele>463</ele>
        <time>2017-01-12T09:46:57Z</time>
      </trkpt>
      <trkpt lat="46.04126" lon="4.58102">
        <ele>462</ele>
        <time>2017-01-12T09:46:58Z</time>
      </trkpt>
      <trkpt lat="46.04135" lon="4.58102">
        <ele>462</ele>
        <time>2017-01-12T09:47:06Z</time>
      </trkpt>
      <trkpt lat="46.04136" lon="4.58102">
        <ele>462</ele>
        <time>2017-01-12T09:47:07Z</time>
      </trkpt>
      <trkpt lat="46.04144" lon="4.58103">
        <ele>461</ele>
        <time>2017-01-12T09:47:14Z</time>
      </trkpt>
      <trkpt lat="46.04145" lon="4.58103">
        <ele>461</ele>
        <time>2017-01-12T09:47:15Z</time>
      </trkpt>
      <trkpt lat="46.04153" lon="4.58102">
        <ele>460</ele>
        <time>2017-01-12T09:47:21Z</time>
      </trkpt>
      <trkpt lat="46.04154" lon="4.58102">
        <ele>460</ele>
        <time>2017-01-12T09:47:22Z</time>
      </trkpt>
      <trkpt lat="46.04163" lon="4.58101">
        <ele>459</ele>
        <time>2017-01-12T09:47:30Z</time>
      </trkpt>
      <trkpt lat="46.04164" lon="4.58101">
        <ele>459</ele>
        <time>2017-01-12T09:47:31Z</time>
      </trkpt>
      <trkpt lat="46.04173" lon="4.58102">
        <ele>452</ele>
        <time>2017-01-12T09:47:40Z</time>
      </trkpt>
      <trkpt lat="46.04174" lon="4.58103">
        <ele>451</ele>
        <time>2017-01-12T09:47:41Z</time>
      </trkpt>
      <trkpt lat="46.04182" lon="4.58106">
        <ele>451</ele>
        <time>2017-01-12T09:47:49Z</time>
      </trkpt>
      <trkpt lat="46.04183" lon="4.58107">
        <ele>451</ele>
        <time>2017-01-12T09:47:50Z</time>
      </trkpt>
      <trkpt lat="46.04191" lon="4.58111">
        <ele>450</ele>
        <time>2017-01-12T09:47:58Z</time>
      </trkpt>
      <trkpt lat="46.04192" lon="4.58112">
        <ele>450</ele>
        <time>2017-01-12T09:47:59Z</time>
      </trkpt>
      <trkpt lat="46.04199" lon="4.58117">
        <ele>449</ele>
        <time>2017-01-12T09:48:08Z</time>
      </trkpt>
      <trkpt lat="46.042" lon="4.58117">
        <ele>449</ele>
        <time>2017-01-12T09:48:09Z</time>
      </trkpt>
      <trkpt lat="46.04209" lon="4.58118">
        <ele>448</ele>
        <time>2017-01-12T09:48:25Z</time>
      </trkpt>
      <trkpt lat="46.04209" lon="4.58118">
        <ele>448</ele>
        <time>2017-01-12T09:48:26Z</time>
      </trkpt>
      <trkpt lat="46.04217" lon="4.58124">
        <ele>447</ele>
        <time>2017-01-12T09:48:42Z</time>
      </trkpt>
      <trkpt lat="46.04217" lon="4.58124">
        <ele>447</ele>
        <time>2017-01-12T09:48:43Z</time>
      </trkpt>
      <trkpt lat="46.04222" lon="4.58135">
        <ele>447</ele>
        <time>2017-01-12T09:48:55Z</time>
      </trkpt>
      <trkpt lat="46.04222" lon="4.58136">
        <ele>447</ele>
        <time>2017-01-12T09:48:56Z</time>
      </trkpt>
      <trkpt lat="46.04226" lon="4.58147">
        <ele>446</ele>
        <time>2017-01-12T09:49:09Z</time>
      </trkpt>
      <trkpt lat="46.04226" lon="4.58147">
        <ele>446</ele>
        <time>2017-01-12T09:49:10Z</time>
      </trkpt>
      <trkpt lat="46.04227" lon="4.58159">
        <ele>446</ele>
        <time>2017-01-12T09:49:21Z</time>
      </trkpt>
      <trkpt lat="46.04228" lon="4.5816">
        <ele>446</ele>
        <time>2017-01-12T09:49:22Z</time>
      </trkpt>
      <trkpt lat="46.04228" lon="4.58172">
        <ele>451</ele>
        <time>2017-01-12T09:49:34Z</time>
      </trkpt>
      <trkpt lat="46.04228" lon="4.58173">
        <ele>451</ele>
        <time>2017-01-12T09:49:35Z</time>
      </trkpt>
      <trkpt lat="46.04233" lon="4.58184">
        <ele>451</ele>
        <time>2017-01-12T09:49:43Z</time>
      </trkpt>
      <trkpt lat="46.04234" lon="4.58185">
        <ele>451</ele>
        <time>2017-01-12T09:49:44Z</time>
      </trkpt>
      <trkpt lat="46.0424" lon="4.58194">
        <ele>452</ele>
        <time>2017-01-12T09:49:52Z</time>
      </trkpt>
      <trkpt lat="46.0424" lon="4.58195">
        <ele>452</ele>
        <time>2017-01-12T09:49:53Z</time>
      </trkpt>
      <trkpt lat="46.04248" lon="4.582">
        <ele>452</ele>
        <time>2017-01-12T09:50:08Z</time>
      </trkpt>
      <trkpt lat="46.04248" lon="4.582">
        <ele>452</ele>
        <time>2017-01-12T09:50:09Z</time>
      </trkpt>
      <trkpt lat="46.04256" lon="4.58202">
        <ele>440</ele>
        <time>2017-01-12T09:50:25Z</time>
      </trkpt>
      <trkpt lat="46.04257" lon="4.58202">
        <ele>440</ele>
        <time>2017-01-12T09:50:26Z</time>
      </trkpt>
      <trkpt lat="46.04265" lon="4.58201">
        <ele>439</ele>
        <time>2017-01-12T09:50:34Z</time>
      </trkpt>
      <trkpt lat="46.04267" lon="4.58201">
        <ele>439</ele>
        <time>2017-01-12T09:50:35Z</time>
      </trkpt>
      <trkpt lat="46.04275" lon="4.58202">
        <ele>438</ele>
        <time>2017-01-12T09:50:42Z</time>
      </trkpt>
      <trkpt lat="46.04276" lon="4.58202">
        <ele>438</ele>
        <time>2017-01-12T09:50:43Z</time>
      </trkpt>
      <trkpt lat="46.04285" lon="4.58201">
        <ele>438</ele>
        <time>2017-01-12T09:50:51Z</time>
      </trkpt>
      <trkpt lat="46.04286" lon="4.58201">
        <ele>437</ele>
        <time>2017-01-12T09:50:52Z</time>
      </trkpt>
      <trkpt lat="46.04293" lon="4.58201">
        <ele>437</ele>
        <time>2017-01-12T09:50:57Z</time>
      </trkpt>
      <trkpt lat="46.04295" lon="4.58201">
        <ele>436</ele>
        <time>2017-01-12T09:50:58Z</time>
      </trkpt>
      <trkpt lat="46.04303" lon="4.582">
        <ele>435</ele>
        <time>2017-01-12T09:51:04Z</time>
      </trkpt>
      <trkpt lat="46.04304" lon="4.582">
        <ele>435</ele>
        <time>2017-01-12T09:51:05Z</time>
      </trkpt>
      <trkpt lat="46.04312" lon="4.58198">
        <ele>434</ele>
        <time>2017-01-12T09:51:11Z</time>
      </trkpt>
      <trkpt lat="46.04313" lon="4.58198">
        <ele>434</ele>
        <time>2017-01-12T09:51:12Z</time>
      </trkpt>
      <trkpt lat="46.04321" lon="4.58197">
        <ele>433</ele>
        <time>2017-01-12T09:51:17Z</time>
      </trkpt>
      <trkpt lat="46.04323" lon="4.58196">
        <ele>432</ele>
        <time>2017-01-12T09:51:18Z</time>
      </trkpt>
      <trkpt lat="46.04331" lon="4.58195">
        <ele>431</ele>
        <time>2017-01-12T09:51:24Z</time>
      </trkpt>
      <trkpt lat="46.04333" lon="4.58194">
        <ele>431</ele>
        <time>2017-01-12T09:51:25Z</time>
      </trkpt>
      <trkpt lat="46.0434" lon="4.58193">
        <ele>424</ele>
        <time>2017-01-12T09:51:30Z</time>
      </trkpt>
      <trkpt lat="46.04342" lon="4.58192">
        <ele>424</ele>
        <time>2017-01-12T09:51:31Z</time>
      </trkpt>
      <trkpt lat="46.0435" lon="4.58192">
        <ele>424</ele>
        <time>2017-01-12T09:51:36Z</time>
      </trkpt>
      <trkpt lat="46.04351" lon="4.58192">
        <ele>424</ele>
        <time>2017-01-12T09:51:37Z</time>
      </trkpt>
      <trkpt lat="46.04359" lon="4.58191">
        <ele>424</ele>
        <time>2017-01-12T09:51:42Z</time>
      </trkpt>
      <trkpt lat="46.0436" lon="4.58191">
        <ele>424</ele>
        <time>2017-01-12T09:51:43Z</time>
      </trkpt>
      <trkpt lat="46.04369" lon="4.58192">
        <ele>424</ele>
        <time>2017-01-12T09:51:49Z</time>
      </trkpt>
      <trkpt lat="46.0437" lon="4.58192">
        <ele>424</ele>
        <time>2017-01-12T09:51:50Z</time>
      </trkpt>
      <trkpt lat="46.04379" lon="4.58192">
        <ele>423</ele>
        <time>2017-01-12T09:51:56Z</time>
      </trkpt>
      <trkpt lat="46.0438" lon="4.58192">
        <ele>423</ele>
        <time>2017-01-12T09:51:57Z</time>
      </trkpt>
      <trkpt lat="46.04388" lon="4.58193">
        <ele>423</ele>
        <time>2017-01-12T09:52:03Z</time>
      </trkpt>
      <trkpt lat="46.04389" lon="4.58193">
        <ele>423</ele>
        <time>2017-01-12T09:52:04Z</time>
      </trkpt>
      <trkpt lat="46.04398" lon="4.58193">
        <ele>422</ele>
        <time>2017-01-12T09:52:10Z</time>
      </trkpt>
      <trkpt lat="46.04399" lon="4.58193">
        <ele>422</ele>
        <time>2017-01-12T09:52:11Z</time>
      </trkpt>
      <trkpt lat="46.04407" lon="4.58196">
        <ele>422</ele>
        <time>2017-01-12T09:52:17Z</time>
      </trkpt>
      <trkpt lat="46.04408" lon="4.58197">
        <ele>422</ele>
        <time>2017-01-12T09:52:18Z</time>
      </trkpt>
      <trkpt lat="46.04415" lon="4.58199">
        <ele>422</ele>
        <time>2017-01-12T09:52:24Z</time>
      </trkpt>
      <trkpt lat="46.04417" lon="4.58199">
        <ele>422</ele>
        <time>2017-01-12T09:52:25Z</time>
      </trkpt>
      <trkpt lat="46.04425" lon="4.582">
        <ele>417</ele>
        <time>2017-01-12T09:52:32Z</time>
      </trkpt>
      <trkpt lat="46.04426" lon="4.58201">
        <ele>417</ele>
        <time>2017-01-12T09:52:33Z</time>
      </trkpt>
      <trkpt lat="46.04435" lon="4.58197">
        <ele>417</ele>
        <time>2017-01-12T09:52:44Z</time>
      </trkpt>
      <trkpt lat="46.04435" lon="4.58196">
        <ele>417</ele>
        <time>2017-01-12T09:52:45Z</time>
      </trkpt>
      <trkpt lat="46.04443" lon="4.58192">
        <ele>416</ele>
        <time>2017-01-12T09:52:52Z</time>
      </trkpt>
      <trkpt lat="46.04444" lon="4.58191">
        <ele>416</ele>
        <time>2017-01-12T09:52:53Z</time>
      </trkpt>
      <trkpt lat="46.04452" lon="4.58187">
        <ele>415</ele>
        <time>2017-01-12T09:52:59Z</time>
      </trkpt>
      <trkpt lat="46.04454" lon="4.58186">
        <ele>415</ele>
        <time>2017-01-12T09:53:00Z</time>
      </trkpt>
      <trkpt lat="46.04462" lon="4.58184">
        <ele>415</ele>
        <time>2017-01-12T09:53:04Z</time>
      </trkpt>
      <trkpt lat="46.04464" lon="4.58184">
        <ele>414</ele>
        <time>2017-01-12T09:53:05Z</time>
      </trkpt>
      <trkpt lat="46.04473" lon="4.58185">
        <ele>414</ele>
        <time>2017-01-12T09:53:10Z</time>
      </trkpt>
      <trkpt lat="46.04474" lon="4.58185">
        <ele>414</ele>
        <time>2017-01-12T09:53:11Z</time>
      </trkpt>
      <trkpt lat="46.04482" lon="4.58187">
        <ele>413</ele>
        <time>2017-01-12T09:53:17Z</time>
      </trkpt>
      <trkpt lat="46.04483" lon="4.58187">
        <ele>413</ele>
        <time>2017-01-12T09:53:18Z</time>
      </trkpt>
      <trkpt lat="46.04492" lon="4.58189">
        <ele>412</ele>
        <time>2017-01-12T09:53:24Z</time>
      </trkpt>
      <trkpt lat="46.04493" lon="4.58189">
        <ele>412</ele>
        <time>2017-01-12T09:53:25Z</time>
      </trkpt>
      <trkpt lat="46.04501" lon="4.58193">
        <ele>407</ele>
        <time>2017-01-12T09:53:31Z</time>
      </trkpt>
      <trkpt lat="46.04502" lon="4.58194">
        <ele>407</ele>
        <time>2017-01-12T09:53:32Z</time>
      </trkpt>
      <trkpt lat="46.04509" lon="4.582">
        <ele>407</ele>
        <time>2017-01-12T09:53:38Z</time>
      </trkpt>
      <trkpt lat="46.04511" lon="4.582">
        <ele>407</ele>
        <time>2017-01-12T09:53:39Z</time>
      </trkpt>
      <trkpt lat="46.04518" lon="4.58206">
        <ele>408</ele>
        <time>2017-01-12T09:53:45Z</time>
      </trkpt>
      <trkpt lat="46.04519" lon="4.58207">
        <ele>408</ele>
        <time>2017-01-12T09:53:46Z</time>
      </trkpt>
      <trkpt lat="46.04526" lon="4.58211">
        <ele>408</ele>
        <time>2017-01-12T09:53:52Z</time>
      </trkpt>
      <trkpt lat="46.04527" lon="4.58212">
        <ele>408</ele>
        <time>2017-01-12T09:53:53Z</time>
      </trkpt>
      <trkpt lat="46.04535" lon="4.58216">
        <ele>407</ele>
        <time>2017-01-12T09:54:00Z</time>
      </trkpt>
      <trkpt lat="46.04536" lon="4.58217">
        <ele>407</ele>
        <time>2017-01-12T09:54:01Z</time>
      </trkpt>
      <trkpt lat="46.04544" lon="4.58222">
        <ele>407</ele>
        <time>2017-01-12T09:54:07Z</time>
      </trkpt>
      <trkpt lat="46.04545" lon="4.58223">
        <ele>407</ele>
        <time>2017-01-12T09:54:08Z</time>
      </trkpt>
      <trkpt lat="46.04552" lon="4.58229">
        <ele>407</ele>
        <time>2017-01-12T09:54:15Z</time>
      </trkpt>
      <trkpt lat="46.04553" lon="4.5823">
        <ele>407</ele>
        <time>2017-01-12T09:54:16Z</time>
      </trkpt>
      <trkpt lat="46.0456" lon="4.58235">
        <ele>407</ele>
        <time>2017-01-12T09:54:22Z</time>
      </trkpt>
      <trkpt lat="46.04561" lon="4.58236">
        <ele>407</ele>
        <time>2017-01-12T09:54:23Z</time>
      </trkpt>
      <trkpt lat="46.04569" lon="4.58242">
        <ele>406</ele>
        <time>2017-01-12T09:54:30Z</time>
      </trkpt>
      <trkpt lat="46.0457" lon="4.58243">
        <ele>406</ele>
        <time>2017-01-12T09:54:31Z</time>
      </trkpt>
      <trkpt lat="46.04577" lon="4.58251">
        <ele>409</ele>
        <time>2017-01-12T09:54:38Z</time>
      </trkpt>
      <trkpt lat="46.04578" lon="4.58252">
        <ele>409</ele>
        <time>2017-01-12T09:54:39Z</time>
      </trkpt>
      <trkpt lat="46.04585" lon="4.58258">
        <ele>406</ele>
        <time>2017-01-12T09:54:47Z</time>
      </trkpt>
      <trkpt lat="46.04586" lon="4.58259">
        <ele>406</ele>
        <time>2017-01-12T09:54:48Z</time>
      </trkpt>
      <trkpt lat="46.04594" lon="4.58262">
        <ele>406</ele>
        <time>2017-01-12T09:54:56Z</time>
      </trkpt>
      <trkpt lat="46.04595" lon="4.58261">
        <ele>406</ele>
        <time>2017-01-12T09:54:57Z</time>
      </trkpt>
      <trkpt lat="46.04603" lon="4.58259">
        <ele>406</ele>
        <time>2017-01-12T09:55:06Z</time>
      </trkpt>
      <trkpt lat="46.04604" lon="4.58259">
        <ele>406</ele>
        <time>2017-01-12T09:55:07Z</time>
      </trkpt>
      <trkpt lat="46.04613" lon="4.58258">
        <ele>405</ele>
        <time>2017-01-12T09:55:16Z</time>
      </trkpt>
      <trkpt lat="46.04614" lon="4.58258">
        <ele>405</ele>
        <time>2017-01-12T09:55:17Z</time>
      </trkpt>
      <trkpt lat="46.04622" lon="4.58257">
        <ele>404</ele>
        <time>2017-01-12T09:55:25Z</time>
      </trkpt>
      <trkpt lat="46.04623" lon="4.58257">
        <ele>404</ele>
        <time>2017-01-12T09:55:26Z</time>
      </trkpt>
      <trkpt lat="46.04632" lon="4.58258">
        <ele>403</ele>
        <time>2017-01-12T09:55:35Z</time>
      </trkpt>
      <trkpt lat="46.04633" lon="4.58258">
        <ele>403</ele>
        <time>2017-01-12T09:55:36Z</time>
      </trkpt>
      <trkpt lat="46.04641" lon="4.58255">
        <ele>402</ele>
        <time>2017-01-12T09:55:51Z</time>
      </trkpt>
      <trkpt lat="46.04642" lon="4.58255">
        <ele>402</ele>
        <time>2017-01-12T09:55:52Z</time>
      </trkpt>
      <trkpt lat="46.04649" lon="4.5825">
        <ele>395</ele>
        <time>2017-01-12T09:56:07Z</time>
      </trkpt>
      <trkpt lat="46.0465" lon="4.58249">
        <ele>395</ele>
        <time>2017-01-12T09:56:08Z</time>
      </trkpt>
      <trkpt lat="46.04657" lon="4.58242">
        <ele>395</ele>
        <time>2017-01-12T09:56:16Z</time>
      </trkpt>
      <trkpt lat="46.04659" lon="4.58241">
        <ele>395</ele>
        <time>2017-01-12T09:56:17Z</time>
      </trkpt>
      <trkpt lat="46.04666" lon="4.58234">
        <ele>395</ele>
        <time>2017-01-12T09:56:29Z</time>
      </trkpt>
      <trkpt lat="46.04667" lon="4.58233">
        <ele>389</ele>
        <time>2017-01-12T09:56:30Z</time>
      </trkpt>
      <trkpt lat="46.04675" lon="4.58227">
        <ele>387</ele>
        <time>2017-01-12T09:56:44Z</time>
      </trkpt>
      <trkpt lat="46.04676" lon="4.58227">
        <ele>387</ele>
        <time>2017-01-12T09:56:45Z</time>
      </trkpt>
      <trkpt lat="46.04683" lon="4.58222">
        <ele>386</ele>
        <time>2017-01-12T09:56:52Z</time>
      </trkpt>
      <trkpt lat="46.04684" lon="4.58221">
        <ele>386</ele>
        <time>2017-01-12T09:56:53Z</time>
      </trkpt>
      <trkpt lat="46.04691" lon="4.58214">
        <ele>384</ele>
        <time>2017-01-12T09:57:00Z</time>
      </trkpt>
      <trkpt lat="46.04693" lon="4.58213">
        <ele>384</ele>
        <time>2017-01-12T09:57:01Z</time>
      </trkpt>
      <trkpt lat="46.04701" lon="4.58208">
        <ele>383</ele>
        <time>2017-01-12T09:57:07Z</time>
      </trkpt>
      <trkpt lat="46.04702" lon="4.58207">
        <ele>383</ele>
        <time>2017-01-12T09:57:08Z</time>
      </trkpt>
      <trkpt lat="46.0471" lon="4.58202">
        <ele>382</ele>
        <time>2017-01-12T09:57:17Z</time>
      </trkpt>
      <trkpt lat="46.04712" lon="4.58202">
        <ele>382</ele>
        <time>2017-01-12T09:57:18Z</time>
      </trkpt>
      <trkpt lat="46.0472" lon="4.582">
        <ele>381</ele>
        <time>2017-01-12T09:57:23Z</time>
      </trkpt>
      <trkpt lat="46.04721" lon="4.58201">
        <ele>381</ele>
        <time>2017-01-12T09:57:24Z</time>
      </trkpt>
      <trkpt lat="46.04729" lon="4.58197">
        <ele>380</ele>
        <time>2017-01-12T09:57:30Z</time>
      </trkpt>
      <trkpt lat="46.04731" lon="4.58196">
        <ele>380</ele>
        <time>2017-01-12T09:57:31Z</time>
      </trkpt>
      <trkpt lat="46.04738" lon="4.58193">
        <ele>379</ele>
        <time>2017-01-12T09:57:34Z</time>
      </trkpt>
      <trkpt lat="46.0474" lon="4.58192">
        <ele>379</ele>
        <time>2017-01-12T09:57:35Z</time>
      </trkpt>
      <trkpt lat="46.04747" lon="4.58188">
        <ele>378</ele>
        <time>2017-01-12T09:57:39Z</time>
      </trkpt>
      <trkpt lat="46.04749" lon="4.58187">
        <ele>378</ele>
        <time>2017-01-12T09:57:40Z</time>
      </trkpt>
      <trkpt lat="46.04755" lon="4.58179">
        <ele>370</ele>
        <time>2017-01-12T09:57:45Z</time>
      </trkpt>
      <trkpt lat="46.04755" lon="4.58177">
        <ele>370</ele>
        <time>2017-01-12T09:57:46Z</time>
      </trkpt>
      <trkpt lat="46.04754" lon="4.58164">
        <ele>371</ele>
        <time>2017-01-12T09:57:52Z</time>
      </trkpt>
      <trkpt lat="46.04754" lon="4.58162">
        <ele>370</ele>
        <time>2017-01-12T09:57:53Z</time>
      </trkpt>
      <trkpt lat="46.04754" lon="4.5815">
        <ele>366</ele>
        <time>2017-01-12T09:57:59Z</time>
      </trkpt>
      <trkpt lat="46.04754" lon="4.58148">
        <ele>366</ele>
        <time>2017-01-12T09:58:00Z</time>
      </trkpt>
      <trkpt lat="46.04752" lon="4.58137">
        <ele>364</ele>
        <time>2017-01-12T09:58:07Z</time>
      </trkpt>
      <trkpt lat="46.04752" lon="4.58135">
        <ele>364</ele>
        <time>2017-01-12T09:58:08Z</time>
      </trkpt>
      <trkpt lat="46.0475" lon="4.58123">
        <ele>373</ele>
        <time>2017-01-12T09:58:15Z</time>
      </trkpt>
      <trkpt lat="46.04749" lon="4.58122">
        <ele>373</ele>
        <time>2017-01-12T09:58:16Z</time>
      </trkpt>
      <trkpt lat="46.04748" lon="4.5811">
        <ele>372</ele>
        <time>2017-01-12T09:58:24Z</time>
      </trkpt>
      <trkpt lat="46.04748" lon="4.58108">
        <ele>372</ele>
        <time>2017-01-12T09:58:25Z</time>
      </trkpt>
      <trkpt lat="46.04746" lon="4.58097">
        <ele>370</ele>
        <time>2017-01-12T09:58:32Z</time>
      </trkpt>
      <trkpt lat="46.04746" lon="4.58096">
        <ele>370</ele>
        <time>2017-01-12T09:58:33Z</time>
      </trkpt>
      <trkpt lat="46.04745" lon="4.58083">
        <ele>367</ele>
        <time>2017-01-12T09:58:41Z</time>
      </trkpt>
      <trkpt lat="46.04744" lon="4.58082">
        <ele>367</ele>
        <time>2017-01-12T09:58:42Z</time>
      </trkpt>
      <trkpt lat="46.04739" lon="4.58073">
        <ele>366</ele>
        <time>2017-01-12T09:58:48Z</time>
      </trkpt>
      <trkpt lat="46.04738" lon="4.58071">
        <ele>366</ele>
        <time>2017-01-12T09:58:49Z</time>
      </trkpt>
      <trkpt lat="46.04734" lon="4.5806">
        <ele>366</ele>
        <time>2017-01-12T09:58:56Z</time>
      </trkpt>
      <trkpt lat="46.04734" lon="4.58058">
        <ele>366</ele>
        <time>2017-01-12T09:58:57Z</time>
      </trkpt>
      <trkpt lat="46.04731" lon="4.58046">
        <ele>365</ele>
        <time>2017-01-12T09:59:03Z</time>
      </trkpt>
      <trkpt lat="46.04731" lon="4.58044">
        <ele>365</ele>
        <time>2017-01-12T09:59:04Z</time>
      </trkpt>
      <trkpt lat="46.04728" lon="4.58034">
        <ele>364</ele>
        <time>2017-01-12T09:59:10Z</time>
      </trkpt>
      <trkpt lat="46.04728" lon="4.58032">
        <ele>364</ele>
        <time>2017-01-12T09:59:11Z</time>
      </trkpt>
      <trkpt lat="46.04727" lon="4.58019">
        <ele>363</ele>
        <time>2017-01-12T09:59:19Z</time>
      </trkpt>
      <trkpt lat="46.04728" lon="4.58018">
        <ele>363</ele>
        <time>2017-01-12T09:59:20Z</time>
      </trkpt>
      <trkpt lat="46.04732" lon="4.58007">
        <ele>362</ele>
        <time>2017-01-12T09:59:28Z</time>
      </trkpt>
      <trkpt lat="46.04732" lon="4.58005">
        <ele>362</ele>
        <time>2017-01-12T09:59:29Z</time>
      </trkpt>
      <trkpt lat="46.04736" lon="4.57995">
        <ele>357</ele>
        <time>2017-01-12T09:59:37Z</time>
      </trkpt>
      <trkpt lat="46.04737" lon="4.57993">
        <ele>357</ele>
        <time>2017-01-12T09:59:38Z</time>
      </trkpt>
      <trkpt lat="46.04741" lon="4.57984">
        <ele>356</ele>
        <time>2017-01-12T09:59:46Z</time>
      </trkpt>
      <trkpt lat="46.04742" lon="4.57983">
        <ele>356</ele>
        <time>2017-01-12T09:59:47Z</time>
      </trkpt>
      <trkpt lat="46.04749" lon="4.57976">
        <ele>356</ele>
        <time>2017-01-12T09:59:55Z</time>
      </trkpt>
      <trkpt lat="46.0475" lon="4.57976">
        <ele>351</ele>
        <time>2017-01-12T09:59:56Z</time>
      </trkpt>
      <trkpt lat="46.04757" lon="4.57968">
        <ele>350</ele>
        <time>2017-01-12T10:00:05Z</time>
      </trkpt>
      <trkpt lat="46.04758" lon="4.57967">
        <ele>349</ele>
        <time>2017-01-12T10:00:06Z</time>
      </trkpt>
      <trkpt lat="46.04764" lon="4.5796">
        <ele>348</ele>
        <time>2017-01-12T10:00:14Z</time>
      </trkpt>
      <trkpt lat="46.04765" lon="4.57959">
        <ele>348</ele>
        <time>2017-01-12T10:00:15Z</time>
      </trkpt>
      <trkpt lat="46.0477" lon="4.57949">
        <ele>347</ele>
        <time>2017-01-12T10:00:22Z</time>
      </trkpt>
      <trkpt lat="46.04771" lon="4.57948">
        <ele>347</ele>
        <time>2017-01-12T10:00:23Z</time>
      </trkpt>
      <trkpt lat="46.04775" lon="4.57937">
        <ele>347</ele>
        <time>2017-01-12T10:00:29Z</time>
      </trkpt>
      <trkpt lat="46.04775" lon="4.57935">
        <ele>347</ele>
        <time>2017-01-12T10:00:30Z</time>
      </trkpt>
      <trkpt lat="46.04771" lon="4.57925">
        <ele>347</ele>
        <time>2017-01-12T10:00:37Z</time>
      </trkpt>
      <trkpt lat="46.0477" lon="4.57924">
        <ele>347</ele>
        <time>2017-01-12T10:00:38Z</time>
      </trkpt>
      <trkpt lat="46.04763" lon="4.57915">
        <ele>345</ele>
        <time>2017-01-12T10:00:45Z</time>
      </trkpt>
      <trkpt lat="46.04762" lon="4.57914">
        <ele>345</ele>
        <time>2017-01-12T10:00:46Z</time>
      </trkpt>
      <trkpt lat="46.04755" lon="4.57908">
        <ele>345</ele>
        <time>2017-01-12T10:00:52Z</time>
      </trkpt>
      <trkpt lat="46.04754" lon="4.57907">
        <ele>345</ele>
        <time>2017-01-12T10:00:53Z</time>
      </trkpt>
      <trkpt lat="46.04748" lon="4.579">
        <ele>347</ele>
        <time>2017-01-12T10:00:59Z</time>
      </trkpt>
      <trkpt lat="46.04746" lon="4.579">
        <ele>347</ele>
        <time>2017-01-12T10:01:00Z</time>
      </trkpt>
      <trkpt lat="46.0474" lon="4.57894">
        <ele>347</ele>
        <time>2017-01-12T10:01:06Z</time>
      </trkpt>
      <trkpt lat="46.04738" lon="4.57893">
        <ele>347</ele>
        <time>2017-01-12T10:01:07Z</time>
      </trkpt>
      <trkpt lat="46.04731" lon="4.57888">
        <ele>347</ele>
        <time>2017-01-12T10:01:13Z</time>
      </trkpt>
      <trkpt lat="46.0473" lon="4.57887">
        <ele>347</ele>
        <time>2017-01-12T10:01:14Z</time>
      </trkpt>
      <trkpt lat="46.04723" lon="4.57882">
        <ele>347</ele>
        <time>2017-01-12T10:01:20Z</time>
      </trkpt>
      <trkpt lat="46.04722" lon="4.57881">
        <ele>347</ele>
        <time>2017-01-12T10:01:21Z</time>
      </trkpt>
      <trkpt lat="46.04715" lon="4.57874">
        <ele>347</ele>
        <time>2017-01-12T10:01:28Z</time>
      </trkpt>
      <trkpt lat="46.04714" lon="4.57873">
        <ele>347</ele>
        <time>2017-01-12T10:01:29Z</time>
      </trkpt>
      <trkpt lat="46.04713" lon="4.57861">
        <ele>347</ele>
        <time>2017-01-12T10:01:37Z</time>
      </trkpt>
      <trkpt lat="46.04713" lon="4.57859">
        <ele>347</ele>
        <time>2017-01-12T10:01:38Z</time>
      </trkpt>
      <trkpt lat="46.04718" lon="4.5785">
        <ele>346</ele>
        <time>2017-01-12T10:01:45Z</time>
      </trkpt>
      <trkpt lat="46.04719" lon="4.57849">
        <ele>346</ele>
        <time>2017-01-12T10:01:46Z</time>
      </trkpt>
      <trkpt lat="46.04727" lon="4.57842">
        <ele>346</ele>
        <time>2017-01-12T10:01:55Z</time>
      </trkpt>
      <trkpt lat="46.04728" lon="4.57842">
        <ele>345</ele>
        <time>2017-01-12T10:01:56Z</time>
      </trkpt>
      <trkpt lat="46.04735" lon="4.57837">
        <ele>345</ele>
        <time>2017-01-12T10:02:05Z</time>
      </trkpt>
      <trkpt lat="46.04736" lon="4.57836">
        <ele>344</ele>
        <time>2017-01-12T10:02:06Z</time>
      </trkpt>
      <trkpt lat="46.04745" lon="4.57833">
        <ele>343</ele>
        <time>2017-01-12T10:02:12Z</time>
      </trkpt>
      <trkpt lat="46.04746" lon="4.57833">
        <ele>343</ele>
        <time>2017-01-12T10:02:13Z</time>
      </trkpt>
      <trkpt lat="46.04754" lon="4.5783">
        <ele>342</ele>
        <time>2017-01-12T10:02:19Z</time>
      </trkpt>
      <trkpt lat="46.04755" lon="4.57829">
        <ele>342</ele>
        <time>2017-01-12T10:02:20Z</time>
      </trkpt>
      <trkpt lat="46.04762" lon="4.57827">
        <ele>342</ele>
        <time>2017-01-12T10:02:27Z</time>
      </trkpt>
      <trkpt lat="46.04763" lon="4.57827">
        <ele>342</ele>
        <time>2017-01-12T10:02:28Z</time>
      </trkpt>
      <trkpt lat="46.04771" lon="4.57824">
        <ele>342</ele>
        <time>2017-01-12T10:02:34Z</time>
      </trkpt>
      <trkpt lat="46.04772" lon="4.57823">
        <ele>342</ele>
        <time>2017-01-12T10:02:35Z</time>
      </trkpt>
      <trkpt lat="46.0478" lon="4.57823">
        <ele>342</ele>
        <time>2017-01-12T10:02:42Z</time>
      </trkpt>
      <trkpt lat="46.04781" lon="4.57823">
        <ele>342</ele>
        <time>2017-01-12T10:02:43Z</time>
      </trkpt>
      <trkpt lat="46.04789" lon="4.57824">
        <ele>342</ele>
        <time>2017-01-12T10:02:51Z</time>
      </trkpt>
      <trkpt lat="46.04791" lon="4.57824">
        <ele>342</ele>
        <time>2017-01-12T10:02:52Z</time>
      </trkpt>
      <trkpt lat="46.04799" lon="4.57821">
        <ele>341</ele>
        <time>2017-01-12T10:03:00Z</time>
      </trkpt>
      <trkpt lat="46.048" lon="4.57821">
        <ele>341</ele>
        <time>2017-01-12T10:03:01Z</time>
      </trkpt>
      <trkpt lat="46.04808" lon="4.57817">
        <ele>341</ele>
        <time>2017-01-12T10:03:08Z</time>
      </trkpt>
      <trkpt lat="46.04809" lon="4.57816">
        <ele>341</ele>
        <time>2017-01-12T10:03:09Z</time>
      </trkpt>
      <trkpt lat="46.04817" lon="4.57812">
        <ele>341</ele>
        <time>2017-01-12T10:03:16Z</time>
      </trkpt>
      <trkpt lat="46.04818" lon="4.57811">
        <ele>341</ele>
        <time>2017-01-12T10:03:17Z</time>
      </trkpt>
      <trkpt lat="46.04825" lon="4.57807">
        <ele>341</ele>
        <time>2017-01-12T10:03:23Z</time>
      </trkpt>
      <trkpt lat="46.04827" lon="4.57806">
        <ele>341</ele>
        <time>2017-01-12T10:03:24Z</time>
      </trkpt>
      <trkpt lat="46.04835" lon="4.578">
        <ele>340</ele>
        <time>2017-01-12T10:03:31Z</time>
      </trkpt>
      <trkpt lat="46.04835" lon="4.578">
        <ele>340</ele>
        <time>2017-01-12T10:03:32Z</time>
      </trkpt>
      <trkpt lat="46.04843" lon="4.57796">
        <ele>340</ele>
        <time>2017-01-12T10:03:41Z</time>
      </trkpt>
      <trkpt lat="46.04844" lon="4.57795">
        <ele>340</ele>
        <time>2017-01-12T10:03:42Z</time>
      </trkpt>
      <trkpt lat="46.04852" lon="4.57793">
        <ele>341</ele>
        <time>2017-01-12T10:03:49Z</time>
      </trkpt>
      <trkpt lat="46.04853" lon="4.57793">
        <ele>341</ele>
        <time>2017-01-12T10:03:50Z</time>
      </trkpt>
      <trkpt lat="46.04861" lon="4.57794">
        <ele>341</ele>
        <time>2017-01-12T10:03:56Z</time>
      </trkpt>
      <trkpt lat="46.04862" lon="4.57795">
        <ele>341</ele>
        <time>2017-01-12T10:03:57Z</time>
      </trkpt>
      <trkpt lat="46.04869" lon="4.57802">
        <ele>341</ele>
        <time>2017-01-12T10:04:03Z</time>
      </trkpt>
      <trkpt lat="46.0487" lon="4.57804">
        <ele>341</ele>
        <time>2017-01-12T10:04:04Z</time>
      </trkpt>
      <trkpt lat="46.04875" lon="4.57812">
        <ele>341</ele>
        <time>2017-01-12T10:04:10Z</time>
      </trkpt>
      <trkpt lat="46.04876" lon="4.57813">
        <ele>341</ele>
        <time>2017-01-12T10:04:11Z</time>
      </trkpt>
      <trkpt lat="46.04883" lon="4.57819">
        <ele>340</ele>
        <time>2017-01-12T10:04:17Z</time>
      </trkpt>
      <trkpt lat="46.04884" lon="4.5782">
        <ele>340</ele>
        <time>2017-01-12T10:04:18Z</time>
      </trkpt>
      <trkpt lat="46.04891" lon="4.57826">
        <ele>340</ele>
        <time>2017-01-12T10:04:25Z</time>
      </trkpt>
      <trkpt lat="46.04892" lon="4.57827">
        <ele>340</ele>
        <time>2017-01-12T10:04:26Z</time>
      </trkpt>
      <trkpt lat="46.049" lon="4.5783">
        <ele>340</ele>
        <time>2017-01-12T10:04:33Z</time>
      </trkpt>
      <trkpt lat="46.04901" lon="4.57831">
        <ele>340</ele>
        <time>2017-01-12T10:04:34Z</time>
      </trkpt>
      <trkpt lat="46.0491" lon="4.57833">
        <ele>339</ele>
        <time>2017-01-12T10:04:41Z</time>
      </trkpt>
      <trkpt lat="46.04911" lon="4.57833">
        <ele>339</ele>
        <time>2017-01-12T10:04:42Z</time>
      </trkpt>
      <trkpt lat="46.0492" lon="4.57836">
        <ele>339</ele>
        <time>2017-01-12T10:04:49Z</time>
      </trkpt>
      <trkpt lat="46.04921" lon="4.57836">
        <ele>339</ele>
        <time>2017-01-12T10:04:50Z</time>
      </trkpt>
      <trkpt lat="46.04929" lon="4.5784">
        <ele>340</ele>
        <time>2017-01-12T10:04:57Z</time>
      </trkpt>
      <trkpt lat="46.0493" lon="4.5784">
        <ele>340</ele>
        <time>2017-01-12T10:04:58Z</time>
      </trkpt>
      <trkpt lat="46.04938" lon="4.57843">
        <ele>341</ele>
        <time>2017-01-12T10:05:04Z</time>
      </trkpt>
      <trkpt lat="46.04939" lon="4.57844">
        <ele>341</ele>
        <time>2017-01-12T10:05:05Z</time>
      </trkpt>
      <trkpt lat="46.04947" lon="4.57849">
        <ele>341</ele>
        <time>2017-01-12T10:05:12Z</time>
      </trkpt>
      <trkpt lat="46.04948" lon="4.5785">
        <ele>342</ele>
        <time>2017-01-12T10:05:13Z</time>
      </trkpt>
      <trkpt lat="46.04955" lon="4.57855">
        <ele>342</ele>
        <time>2017-01-12T10:05:20Z</time>
      </trkpt>
      <trkpt lat="46.04956" lon="4.57856">
        <ele>342</ele>
        <time>2017-01-12T10:05:21Z</time>
      </trkpt>
      <trkpt lat="46.04963" lon="4.57862">
        <ele>343</ele>
        <time>2017-01-12T10:05:28Z</time>
      </trkpt>
      <trkpt lat="46.04964" lon="4.57863">
        <ele>343</ele>
        <time>2017-01-12T10:05:29Z</time>
      </trkpt>
      <trkpt lat="46.04971" lon="4.57869">
        <ele>343</ele>
        <time>2017-01-12T10:05:36Z</time>
      </trkpt>
      <trkpt lat="46.04972" lon="4.5787">
        <ele>343</ele>
        <time>2017-01-12T10:05:37Z</time>
      </trkpt>
      <trkpt lat="46.0498" lon="4.57877">
        <ele>343</ele>
        <time>2017-01-12T10:05:44Z</time>
      </trkpt>
      <trkpt lat="46.04981" lon="4.57878">
        <ele>343</ele>
        <time>2017-01-12T10:05:45Z</time>
      </trkpt>
      <trkpt lat="46.04987" lon="4.57886">
        <ele>343</ele>
        <time>2017-01-12T10:05:53Z</time>
      </trkpt>
      <trkpt lat="46.04988" lon="4.57887">
        <ele>343</ele>
        <time>2017-01-12T10:05:54Z</time>
      </trkpt>
      <trkpt lat="46.04996" lon="4.57891">
        <ele>343</ele>
        <time>2017-01-12T10:06:04Z</time>
      </trkpt>
      <trkpt lat="46.04997" lon="4.57891">
        <ele>343</ele>
        <time>2017-01-12T10:06:05Z</time>
      </trkpt>
      <trkpt lat="46.05003" lon="4.57881">
        <ele>354</ele>
        <time>2017-01-12T10:06:16Z</time>
      </trkpt>
      <trkpt lat="46.05004" lon="4.57881">
        <ele>354</ele>
        <time>2017-01-12T10:06:17Z</time>
      </trkpt>
      <trkpt lat="46.05008" lon="4.5787">
        <ele>355</ele>
        <time>2017-01-12T10:06:26Z</time>
      </trkpt>
      <trkpt lat="46.05008" lon="4.57869">
        <ele>355</ele>
        <time>2017-01-12T10:06:27Z</time>
      </trkpt>
      <trkpt lat="46.05012" lon="4.57859">
        <ele>356</ele>
        <time>2017-01-12T10:06:37Z</time>
      </trkpt>
      <trkpt lat="46.05013" lon="4.57858">
        <ele>356</ele>
        <time>2017-01-12T10:06:38Z</time>
      </trkpt>
      <trkpt lat="46.05016" lon="4.57846">
        <ele>356</ele>
        <time>2017-01-12T10:06:46Z</time>
      </trkpt>
      <trkpt lat="46.05016" lon="4.57844">
        <ele>356</ele>
        <time>2017-01-12T10:06:47Z</time>
      </trkpt>
      <trkpt lat="46.05017" lon="4.57832">
        <ele>360</ele>
        <time>2017-01-12T10:06:55Z</time>
      </trkpt>
      <trkpt lat="46.05017" lon="4.57831">
        <ele>360</ele>
        <time>2017-01-12T10:06:56Z</time>
      </trkpt>
      <trkpt lat="46.05015" lon="4.57818">
        <ele>361</ele>
        <time>2017-01-12T10:07:07Z</time>
      </trkpt>
      <trkpt lat="46.05014" lon="4.57817">
        <ele>361</ele>
        <time>2017-01-12T10:07:08Z</time>
      </trkpt>
      <trkpt lat="46.05013" lon="4.57805">
        <ele>363</ele>
        <time>2017-01-12T10:07:17Z</time>
      </trkpt>
      <trkpt lat="46.05012" lon="4.57803">
        <ele>363</ele>
        <time>2017-01-12T10:07:18Z</time>
      </trkpt>
      <trkpt lat="46.05009" lon="4.57791">
        <ele>364</ele>
        <time>2017-01-12T10:07:29Z</time>
      </trkpt>
      <trkpt lat="46.05009" lon="4.5779">
        <ele>364</ele>
        <time>2017-01-12T10:07:30Z</time>
      </trkpt>
      <trkpt lat="46.05008" lon="4.57778">
        <ele>364</ele>
        <time>2017-01-12T10:07:41Z</time>
      </trkpt>
      <trkpt lat="46.05008" lon="4.57777">
        <ele>364</ele>
        <time>2017-01-12T10:07:42Z</time>
      </trkpt>
      <trkpt lat="46.05004" lon="4.57766">
        <ele>364</ele>
        <time>2017-01-12T10:07:52Z</time>
      </trkpt>
      <trkpt lat="46.05003" lon="4.57765">
        <ele>364</ele>
        <time>2017-01-12T10:07:53Z</time>
      </trkpt>
      <trkpt lat="46.05001" lon="4.57753">
        <ele>363</ele>
        <time>2017-01-12T10:08:03Z</time>
      </trkpt>
      <trkpt lat="46.05001" lon="4.57752">
        <ele>362</ele>
        <time>2017-01-12T10:08:04Z</time>
      </trkpt>
      <trkpt lat="46.04999" lon="4.5774">
        <ele>362</ele>
        <time>2017-01-12T10:08:13Z</time>
      </trkpt>
      <trkpt lat="46.04999" lon="4.57739">
        <ele>362</ele>
        <time>2017-01-12T10:08:14Z</time>
      </trkpt>
      <trkpt lat="46.04997" lon="4.57726">
        <ele>363</ele>
        <time>2017-01-12T10:08:23Z</time>
      </trkpt>
      <trkpt lat="46.04997" lon="4.57725">
        <ele>363</ele>
        <time>2017-01-12T10:08:24Z</time>
      </trkpt>
      <trkpt lat="46.04994" lon="4.57713">
        <ele>363</ele>
        <time>2017-01-12T10:08:33Z</time>
      </trkpt>
      <trkpt lat="46.04994" lon="4.57712">
        <ele>363</ele>
        <time>2017-01-12T10:08:34Z</time>
      </trkpt>
      <trkpt lat="46.0499" lon="4.57702">
        <ele>364</ele>
        <time>2017-01-12T10:08:42Z</time>
      </trkpt>
      <trkpt lat="46.04989" lon="4.577">
        <ele>364</ele>
        <time>2017-01-12T10:08:43Z</time>
      </trkpt>
      <trkpt lat="46.04984" lon="4.5769">
        <ele>365</ele>
        <time>2017-01-12T10:08:51Z</time>
      </trkpt>
      <trkpt lat="46.04983" lon="4.57689">
        <ele>365</ele>
        <time>2017-01-12T10:08:52Z</time>
      </trkpt>
      <trkpt lat="46.04977" lon="4.57681">
        <ele>365</ele>
        <time>2017-01-12T10:09:00Z</time>
      </trkpt>
      <trkpt lat="46.04976" lon="4.57681">
        <ele>365</ele>
        <time>2017-01-12T10:09:01Z</time>
      </trkpt>
      <trkpt lat="46.04967" lon="4.57679">
        <ele>364</ele>
        <time>2017-01-12T10:09:08Z</time>
      </trkpt>
      <trkpt lat="46.04966" lon="4.57679">
        <ele>364</ele>
        <time>2017-01-12T10:09:09Z</time>
      </trkpt>
      <trkpt lat="46.04957" lon="4.57677">
        <ele>364</ele>
        <time>2017-01-12T10:09:17Z</time>
      </trkpt>
      <trkpt lat="46.04956" lon="4.57677">
        <ele>364</ele>
        <time>2017-01-12T10:09:18Z</time>
      </trkpt>
      <trkpt lat="46.04948" lon="4.57673">
        <ele>363</ele>
        <time>2017-01-12T10:09:25Z</time>
      </trkpt>
      <trkpt lat="46.04947" lon="4.57672">
        <ele>363</ele>
        <time>2017-01-12T10:09:26Z</time>
      </trkpt>
      <trkpt lat="46.0494" lon="4.57665">
        <ele>369</ele>
        <time>2017-01-12T10:09:33Z</time>
      </trkpt>
      <trkpt lat="46.04939" lon="4.57663">
        <ele>369</ele>
        <time>2017-01-12T10:09:34Z</time>
      </trkpt>
      <trkpt lat="46.04933" lon="4.57655">
        <ele>369</ele>
        <time>2017-01-12T10:09:41Z</time>
      </trkpt>
      <trkpt lat="46.04932" lon="4.57654">
        <ele>369</ele>
        <time>2017-01-12T10:09:42Z</time>
      </trkpt>
      <trkpt lat="46.04935" lon="4.57642">
        <ele>370</ele>
        <time>2017-01-12T10:09:52Z</time>
      </trkpt>
      <trkpt lat="46.04935" lon="4.57641">
        <ele>371</ele>
        <time>2017-01-12T10:09:53Z</time>
      </trkpt>
      <trkpt lat="46.04934" lon="4.57629">
        <ele>372</ele>
        <time>2017-01-12T10:10:01Z</time>
      </trkpt>
      <trkpt lat="46.04933" lon="4.57627">
        <ele>372</ele>
        <time>2017-01-12T10:10:02Z</time>
      </trkpt>
      <trkpt lat="46.04934" lon="4.57615">
        <ele>373</ele>
        <time>2017-01-12T10:10:10Z</time>
      </trkpt>
      <trkpt lat="46.04934" lon="4.57613">
        <ele>373</ele>
        <time>2017-01-12T10:10:11Z</time>
      </trkpt>
      <trkpt lat="46.04934" lon="4.576">
        <ele>373</ele>
        <time>2017-01-12T10:10:25Z</time>
      </trkpt>
      <trkpt lat="46.04933" lon="4.576">
        <ele>373</ele>
        <time>2017-01-12T10:10:26Z</time>
      </trkpt>
      <trkpt lat="46.04934" lon="4.57588">
        <ele>373</ele>
        <time>2017-01-12T10:10:36Z</time>
      </trkpt>
      <trkpt lat="46.04934" lon="4.57587">
        <ele>373</ele>
        <time>2017-01-12T10:10:37Z</time>
      </trkpt>
      <trkpt lat="46.04936" lon="4.57575">
        <ele>379</ele>
        <time>2017-01-12T10:10:45Z</time>
      </trkpt>
      <trkpt lat="46.04936" lon="4.57573">
        <ele>379</ele>
        <time>2017-01-12T10:10:46Z</time>
      </trkpt>
      <trkpt lat="46.04937" lon="4.57562">
        <ele>381</ele>
        <time>2017-01-12T10:10:55Z</time>
      </trkpt>
      <trkpt lat="46.04937" lon="4.5756">
        <ele>381</ele>
        <time>2017-01-12T10:10:56Z</time>
      </trkpt>
      <trkpt lat="46.04937" lon="4.57548">
        <ele>382</ele>
        <time>2017-01-12T10:11:05Z</time>
      </trkpt>
      <trkpt lat="46.04936" lon="4.57547">
        <ele>382</ele>
        <time>2017-01-12T10:11:06Z</time>
      </trkpt>
      <trkpt lat="46.04936" lon="4.57535">
        <ele>383</ele>
        <time>2017-01-12T10:11:16Z</time>
      </trkpt>
      <trkpt lat="46.04935" lon="4.57533">
        <ele>383</ele>
        <time>2017-01-12T10:11:17Z</time>
      </trkpt>
      <trkpt lat="46.04934" lon="4.57521">
        <ele>383</ele>
        <time>2017-01-12T10:11:28Z</time>
      </trkpt>
      <trkpt lat="46.04934" lon="4.57519">
        <ele>383</ele>
        <time>2017-01-12T10:11:29Z</time>
      </trkpt>
      <trkpt lat="46.04934" lon="4.57507">
        <ele>383</ele>
        <time>2017-01-12T10:11:39Z</time>
      </trkpt>
      <trkpt lat="46.04935" lon="4.57506">
        <ele>383</ele>
        <time>2017-01-12T10:11:40Z</time>
      </trkpt>
      <trkpt lat="46.04937" lon="4.57494">
        <ele>389</ele>
        <time>2017-01-12T10:11:50Z</time>
      </trkpt>
      <trkpt lat="46.04937" lon="4.57493">
        <ele>389</ele>
        <time>2017-01-12T10:11:51Z</time>
      </trkpt>
      <trkpt lat="46.04938" lon="4.5748">
        <ele>390</ele>
        <time>2017-01-12T10:12:04Z</time>
      </trkpt>
      <trkpt lat="46.04938" lon="4.57479">
        <ele>391</ele>
        <time>2017-01-12T10:12:05Z</time>
      </trkpt>
      <trkpt lat="46.04941" lon="4.57468">
        <ele>392</ele>
        <time>2017-01-12T10:12:18Z</time>
      </trkpt>
      <trkpt lat="46.04942" lon="4.57467">
        <ele>392</ele>
        <time>2017-01-12T10:12:19Z</time>
      </trkpt>
      <trkpt lat="46.04946" lon="4.57457">
        <ele>394</ele>
        <time>2017-01-12T10:12:30Z</time>
      </trkpt>
      <trkpt lat="46.04947" lon="4.57456">
        <ele>394</ele>
        <time>2017-01-12T10:12:31Z</time>
      </trkpt>
      <trkpt lat="46.0495" lon="4.57445">
        <ele>395</ele>
        <time>2017-01-12T10:12:43Z</time>
      </trkpt>
      <trkpt lat="46.0495" lon="4.57443">
        <ele>395</ele>
        <time>2017-01-12T10:12:44Z</time>
      </trkpt>
      <trkpt lat="46.04953" lon="4.57431">
        <ele>395</ele>
        <time>2017-01-12T10:12:54Z</time>
      </trkpt>
      <trkpt lat="46.04953" lon="4.5743">
        <ele>395</ele>
        <time>2017-01-12T10:12:55Z</time>
      </trkpt>
      <trkpt lat="46.04956" lon="4.57418">
        <ele>396</ele>
        <time>2017-01-12T10:13:05Z</time>
      </trkpt>
      <trkpt lat="46.04956" lon="4.57417">
        <ele>396</ele>
        <time>2017-01-12T10:13:06Z</time>
      </trkpt>
      <trkpt lat="46.0496" lon="4.57407">
        <ele>400</ele>
        <time>2017-01-12T10:13:16Z</time>
      </trkpt>
      <trkpt lat="46.0496" lon="4.57406">
        <ele>400</ele>
        <time>2017-01-12T10:13:17Z</time>
      </trkpt>
      <trkpt lat="46.04966" lon="4.57396">
        <ele>401</ele>
        <time>2017-01-12T10:13:28Z</time>
      </trkpt>
      <trkpt lat="46.04966" lon="4.57395">
        <ele>401</ele>
        <time>2017-01-12T10:13:29Z</time>
      </trkpt>
      <trkpt lat="46.0497" lon="4.57385">
        <ele>401</ele>
        <time>2017-01-12T10:13:39Z</time>
      </trkpt>
      <trkpt lat="46.04971" lon="4.57384">
        <ele>401</ele>
        <time>2017-01-12T10:13:40Z</time>
      </trkpt>
      <trkpt lat="46.04976" lon="4.57374">
        <ele>402</ele>
        <time>2017-01-12T10:13:51Z</time>
      </trkpt>
      <trkpt lat="46.04977" lon="4.57373">
        <ele>402</ele>
        <time>2017-01-12T10:13:52Z</time>
      </trkpt>
      <trkpt lat="46.04983" lon="4.57366">
        <ele>403</ele>
        <time>2017-01-12T10:14:03Z</time>
      </trkpt>
      <trkpt lat="46.04984" lon="4.57365">
        <ele>403</ele>
        <time>2017-01-12T10:14:04Z</time>
      </trkpt>
      <trkpt lat="46.04989" lon="4.57355">
        <ele>404</ele>
        <time>2017-01-12T10:14:20Z</time>
      </trkpt>
      <trkpt lat="46.04989" lon="4.57354">
        <ele>404</ele>
        <time>2017-01-12T10:14:21Z</time>
      </trkpt>
      <trkpt lat="46.04994" lon="4.57346">
        <ele>406</ele>
        <time>2017-01-12T10:14:34Z</time>
      </trkpt>
      <trkpt lat="46.04995" lon="4.57345">
        <ele>407</ele>
        <time>2017-01-12T10:14:35Z</time>
      </trkpt>
      <trkpt lat="46.05002" lon="4.57336">
        <ele>412</ele>
        <time>2017-01-12T10:14:44Z</time>
      </trkpt>
      <trkpt lat="46.05002" lon="4.57335">
        <ele>412</ele>
        <time>2017-01-12T10:14:45Z</time>
      </trkpt>
      <trkpt lat="46.05008" lon="4.57326">
        <ele>414</ele>
        <time>2017-01-12T10:14:56Z</time>
      </trkpt>
      <trkpt lat="46.05009" lon="4.57325">
        <ele>414</ele>
        <time>2017-01-12T10:14:57Z</time>
      </trkpt>
      <trkpt lat="46.05013" lon="4.57315">
        <ele>416</ele>
        <time>2017-01-12T10:15:06Z</time>
      </trkpt>
      <trkpt lat="46.05014" lon="4.57314">
        <ele>416</ele>
        <time>2017-01-12T10:15:07Z</time>
      </trkpt>
      <trkpt lat="46.05021" lon="4.57306">
        <ele>417</ele>
        <time>2017-01-12T10:15:16Z</time>
      </trkpt>
      <trkpt lat="46.05021" lon="4.57305">
        <ele>417</ele>
        <time>2017-01-12T10:15:17Z</time>
      </trkpt>
      <trkpt lat="46.0503" lon="4.573">
        <ele>418</ele>
        <time>2017-01-12T10:15:28Z</time>
      </trkpt>
      <trkpt lat="46.0503" lon="4.573">
        <ele>418</ele>
        <time>2017-01-12T10:15:29Z</time>
      </trkpt>
      <trkpt lat="46.05038" lon="4.57295">
        <ele>419</ele>
        <time>2017-01-12T10:15:39Z</time>
      </trkpt>
      <trkpt lat="46.05039" lon="4.57295">
        <ele>420</ele>
        <time>2017-01-12T10:15:40Z</time>
      </trkpt>
      <trkpt lat="46.05045" lon="4.57287">
        <ele>420</ele>
        <time>2017-01-12T10:15:50Z</time>
      </trkpt>
      <trkpt lat="46.05046" lon="4.57286">
        <ele>420</ele>
        <time>2017-01-12T10:15:51Z</time>
      </trkpt>
      <trkpt lat="46.05053" lon="4.57279">
        <ele>421</ele>
        <time>2017-01-12T10:16:02Z</time>
      </trkpt>
      <trkpt lat="46.05054" lon="4.57278">
        <ele>421</ele>
        <time>2017-01-12T10:16:03Z</time>
      </trkpt>
      <trkpt lat="46.0506" lon="4.57269">
        <ele>422</ele>
        <time>2017-01-12T10:20:15Z</time>
      </trkpt>
      <trkpt lat="46.0506" lon="4.57268">
        <ele>422</ele>
        <time>2017-01-12T10:20:16Z</time>
      </trkpt>
      <trkpt lat="46.05064" lon="4.57256">
        <ele>423</ele>
        <time>2017-01-12T10:20:25Z</time>
      </trkpt>
      <trkpt lat="46.05064" lon="4.57255">
        <ele>423</ele>
        <time>2017-01-12T10:20:26Z</time>
      </trkpt>
      <trkpt lat="46.0507" lon="4.57246">
        <ele>423</ele>
        <time>2017-01-12T10:20:33Z</time>
      </trkpt>
      <trkpt lat="46.05071" lon="4.57245">
        <ele>423</ele>
        <time>2017-01-12T10:20:34Z</time>
      </trkpt>
      <trkpt lat="46.05075" lon="4.57235">
        <ele>422</ele>
        <time>2017-01-12T10:20:42Z</time>
      </trkpt>
      <trkpt lat="46.05076" lon="4.57234">
        <ele>422</ele>
        <time>2017-01-12T10:20:43Z</time>
      </trkpt>
      <trkpt lat="46.05081" lon="4.57225">
        <ele>421</ele>
        <time>2017-01-12T10:20:50Z</time>
      </trkpt>
      <trkpt lat="46.05082" lon="4.57224">
        <ele>421</ele>
        <time>2017-01-12T10:20:51Z</time>
      </trkpt>
      <trkpt lat="46.05086" lon="4.57213">
        <ele>435</ele>
        <time>2017-01-12T10:20:59Z</time>
      </trkpt>
      <trkpt lat="46.05087" lon="4.57211">
        <ele>435</ele>
        <time>2017-01-12T10:21:00Z</time>
      </trkpt>
      <trkpt lat="46.05092" lon="4.57203">
        <ele>435</ele>
        <time>2017-01-12T10:21:06Z</time>
      </trkpt>
      <trkpt lat="46.05092" lon="4.57201">
        <ele>435</ele>
        <time>2017-01-12T10:21:07Z</time>
      </trkpt>
      <trkpt lat="46.05095" lon="4.5719">
        <ele>434</ele>
        <time>2017-01-12T10:21:14Z</time>
      </trkpt>
      <trkpt lat="46.05095" lon="4.57188">
        <ele>434</ele>
        <time>2017-01-12T10:21:15Z</time>
      </trkpt>
      <trkpt lat="46.051" lon="4.57178">
        <ele>433</ele>
        <time>2017-01-12T10:21:23Z</time>
      </trkpt>
      <trkpt lat="46.051" lon="4.57176">
        <ele>433</ele>
        <time>2017-01-12T10:21:24Z</time>
      </trkpt>
      <trkpt lat="46.05103" lon="4.57165">
        <ele>434</ele>
        <time>2017-01-12T10:21:31Z</time>
      </trkpt>
      <trkpt lat="46.05103" lon="4.57163">
        <ele>434</ele>
        <time>2017-01-12T10:21:32Z</time>
      </trkpt>
      <trkpt lat="46.05104" lon="4.57152">
        <ele>435</ele>
        <time>2017-01-12T10:21:40Z</time>
      </trkpt>
      <trkpt lat="46.05104" lon="4.5715">
        <ele>435</ele>
        <time>2017-01-12T10:21:41Z</time>
      </trkpt>
      <trkpt lat="46.05105" lon="4.57137">
        <ele>437</ele>
        <time>2017-01-12T10:21:50Z</time>
      </trkpt>
      <trkpt lat="46.05105" lon="4.57136">
        <ele>437</ele>
        <time>2017-01-12T10:21:51Z</time>
      </trkpt>
      <trkpt lat="46.05103" lon="4.57125">
        <ele>437</ele>
        <time>2017-01-12T10:21:59Z</time>
      </trkpt>
      <trkpt lat="46.05103" lon="4.57123">
        <ele>438</ele>
        <time>2017-01-12T10:22:00Z</time>
      </trkpt>
      <trkpt lat="46.05103" lon="4.57111">
        <ele>438</ele>
        <time>2017-01-12T10:22:08Z</time>
      </trkpt>
      <trkpt lat="46.05103" lon="4.57109">
        <ele>438</ele>
        <time>2017-01-12T10:22:09Z</time>
      </trkpt>
      <trkpt lat="46.05102" lon="4.57096">
        <ele>437</ele>
        <time>2017-01-12T10:22:18Z</time>
      </trkpt>
      <trkpt lat="46.05101" lon="4.57095">
        <ele>437</ele>
        <time>2017-01-12T10:22:19Z</time>
      </trkpt>
      <trkpt lat="46.05101" lon="4.57082">
        <ele>438</ele>
        <time>2017-01-12T10:22:29Z</time>
      </trkpt>
      <trkpt lat="46.051" lon="4.57081">
        <ele>438</ele>
        <time>2017-01-12T10:22:30Z</time>
      </trkpt>
      <trkpt lat="46.05101" lon="4.57068">
        <ele>440</ele>
        <time>2017-01-12T10:22:39Z</time>
      </trkpt>
      <trkpt lat="46.05101" lon="4.57067">
        <ele>440</ele>
        <time>2017-01-12T10:22:40Z</time>
      </trkpt>
      <trkpt lat="46.05101" lon="4.57054">
        <ele>441</ele>
        <time>2017-01-12T10:22:51Z</time>
      </trkpt>
      <trkpt lat="46.05101" lon="4.57053">
        <ele>441</ele>
        <time>2017-01-12T10:22:52Z</time>
      </trkpt>
      <trkpt lat="46.05101" lon="4.5704">
        <ele>442</ele>
        <time>2017-01-12T10:23:03Z</time>
      </trkpt>
      <trkpt lat="46.05101" lon="4.57039">
        <ele>442</ele>
        <time>2017-01-12T10:23:04Z</time>
      </trkpt>
      <trkpt lat="46.05103" lon="4.57027">
        <ele>443</ele>
        <time>2017-01-12T10:23:14Z</time>
      </trkpt>
      <trkpt lat="46.05104" lon="4.57025">
        <ele>443</ele>
        <time>2017-01-12T10:23:15Z</time>
      </trkpt>
      <trkpt lat="46.05105" lon="4.57014">
        <ele>442</ele>
        <time>2017-01-12T10:23:23Z</time>
      </trkpt>
      <trkpt lat="46.05106" lon="4.57012">
        <ele>443</ele>
        <time>2017-01-12T10:23:24Z</time>
      </trkpt>
      <trkpt lat="46.05112" lon="4.57004">
        <ele>443</ele>
        <time>2017-01-12T10:23:32Z</time>
      </trkpt>
      <trkpt lat="46.05112" lon="4.57003">
        <ele>444</ele>
        <time>2017-01-12T10:23:33Z</time>
      </trkpt>
      <trkpt lat="46.05119" lon="4.56996">
        <ele>447</ele>
        <time>2017-01-12T10:23:44Z</time>
      </trkpt>
      <trkpt lat="46.0512" lon="4.56996">
        <ele>447</ele>
        <time>2017-01-12T10:23:45Z</time>
      </trkpt>
      <trkpt lat="46.05126" lon="4.56988">
        <ele>448</ele>
        <time>2017-01-12T10:23:56Z</time>
      </trkpt>
      <trkpt lat="46.05127" lon="4.56987">
        <ele>448</ele>
        <time>2017-01-12T10:23:57Z</time>
      </trkpt>
      <trkpt lat="46.05133" lon="4.56979">
        <ele>449</ele>
        <time>2017-01-12T10:24:08Z</time>
      </trkpt>
      <trkpt lat="46.05134" lon="4.56979">
        <ele>449</ele>
        <time>2017-01-12T10:24:09Z</time>
      </trkpt>
      <trkpt lat="46.05141" lon="4.56971">
        <ele>450</ele>
        <time>2017-01-12T10:24:19Z</time>
      </trkpt>
      <trkpt lat="46.05141" lon="4.5697">
        <ele>450</ele>
        <time>2017-01-12T10:24:20Z</time>
      </trkpt>
      <trkpt lat="46.05147" lon="4.56961">
        <ele>450</ele>
        <time>2017-01-12T10:24:29Z</time>
      </trkpt>
      <trkpt lat="46.05147" lon="4.5696">
        <ele>450</ele>
        <time>2017-01-12T10:24:30Z</time>
      </trkpt>
      <trkpt lat="46.05153" lon="4.56951">
        <ele>451</ele>
        <time>2017-01-12T10:24:40Z</time>
      </trkpt>
      <trkpt lat="46.05153" lon="4.5695">
        <ele>451</ele>
        <time>2017-01-12T10:24:41Z</time>
      </trkpt>
      <trkpt lat="46.05157" lon="4.56939">
        <ele>452</ele>
        <time>2017-01-12T10:24:51Z</time>
      </trkpt>
      <trkpt lat="46.05157" lon="4.56938">
        <ele>452</ele>
        <time>2017-01-12T10:24:52Z</time>
      </trkpt>
      <trkpt lat="46.0516" lon="4.56926">
        <ele>454</ele>
        <time>2017-01-12T10:25:00Z</time>
      </trkpt>
      <trkpt lat="46.05161" lon="4.56925">
        <ele>455</ele>
        <time>2017-01-12T10:25:01Z</time>
      </trkpt>
      <trkpt lat="46.05164" lon="4.56914">
        <ele>457</ele>
        <time>2017-01-12T10:25:08Z</time>
      </trkpt>
      <trkpt lat="46.05164" lon="4.56912">
        <ele>457</ele>
        <time>2017-01-12T10:25:09Z</time>
      </trkpt>
      <trkpt lat="46.05165" lon="4.569">
        <ele>455</ele>
        <time>2017-01-12T10:25:17Z</time>
      </trkpt>
      <trkpt lat="46.05165" lon="4.56898">
        <ele>454</ele>
        <time>2017-01-12T10:25:18Z</time>
      </trkpt>
      <trkpt lat="46.05167" lon="4.56887">
        <ele>461</ele>
        <time>2017-01-12T10:25:26Z</time>
      </trkpt>
      <trkpt lat="46.05168" lon="4.56886">
        <ele>461</ele>
        <time>2017-01-12T10:25:27Z</time>
      </trkpt>
      <trkpt lat="46.0517" lon="4.56874">
        <ele>461</ele>
        <time>2017-01-12T10:25:36Z</time>
      </trkpt>
      <trkpt lat="46.0517" lon="4.56873">
        <ele>461</ele>
        <time>2017-01-12T10:25:37Z</time>
      </trkpt>
      <trkpt lat="46.05173" lon="4.56862">
        <ele>461</ele>
        <time>2017-01-12T10:25:48Z</time>
      </trkpt>
      <trkpt lat="46.05174" lon="4.5686">
        <ele>461</ele>
        <time>2017-01-12T10:25:49Z</time>
      </trkpt>
      <trkpt lat="46.05173" lon="4.56849">
        <ele>461</ele>
        <time>2017-01-12T10:25:58Z</time>
      </trkpt>
      <trkpt lat="46.05174" lon="4.56847">
        <ele>461</ele>
        <time>2017-01-12T10:25:59Z</time>
      </trkpt>
      <trkpt lat="46.05173" lon="4.56835">
        <ele>461</ele>
        <time>2017-01-12T10:26:07Z</time>
      </trkpt>
      <trkpt lat="46.05173" lon="4.56834">
        <ele>461</ele>
        <time>2017-01-12T10:26:08Z</time>
      </trkpt>
      <trkpt lat="46.05175" lon="4.56822">
        <ele>463</ele>
        <time>2017-01-12T10:26:17Z</time>
      </trkpt>
      <trkpt lat="46.05175" lon="4.56821">
        <ele>463</ele>
        <time>2017-01-12T10:26:18Z</time>
      </trkpt>
      <trkpt lat="46.05174" lon="4.56809">
        <ele>464</ele>
        <time>2017-01-12T10:26:26Z</time>
      </trkpt>
      <trkpt lat="46.05174" lon="4.56808">
        <ele>464</ele>
        <time>2017-01-12T10:26:27Z</time>
      </trkpt>
      <trkpt lat="46.05173" lon="4.56795">
        <ele>465</ele>
        <time>2017-01-12T10:26:35Z</time>
      </trkpt>
      <trkpt lat="46.05173" lon="4.56794">
        <ele>465</ele>
        <time>2017-01-12T10:26:36Z</time>
      </trkpt>
      <trkpt lat="46.05174" lon="4.56782">
        <ele>466</ele>
        <time>2017-01-12T10:26:44Z</time>
      </trkpt>
      <trkpt lat="46.05174" lon="4.5678">
        <ele>466</ele>
        <time>2017-01-12T10:26:45Z</time>
      </trkpt>
      <trkpt lat="46.05174" lon="4.56769">
        <ele>467</ele>
        <time>2017-01-12T10:26:53Z</time>
      </trkpt>
      <trkpt lat="46.05175" lon="4.56767">
        <ele>467</ele>
        <time>2017-01-12T10:26:54Z</time>
      </trkpt>
      <trkpt lat="46.05177" lon="4.56755">
        <ele>467</ele>
        <time>2017-01-12T10:27:03Z</time>
      </trkpt>
      <trkpt lat="46.05178" lon="4.56754">
        <ele>467</ele>
        <time>2017-01-12T10:27:04Z</time>
      </trkpt>
      <trkpt lat="46.05184" lon="4.56745">
        <ele>469</ele>
        <time>2017-01-12T10:27:12Z</time>
      </trkpt>
      <trkpt lat="46.05184" lon="4.56744">
        <ele>469</ele>
        <time>2017-01-12T10:27:13Z</time>
      </trkpt>
      <trkpt lat="46.05188" lon="4.56733">
        <ele>469</ele>
        <time>2017-01-12T10:27:21Z</time>
      </trkpt>
      <trkpt lat="46.05188" lon="4.56731">
        <ele>469</ele>
        <time>2017-01-12T10:27:22Z</time>
      </trkpt>
      <trkpt lat="46.05185" lon="4.56721">
        <ele>469</ele>
        <time>2017-01-12T10:27:29Z</time>
      </trkpt>
      <trkpt lat="46.05185" lon="4.56719">
        <ele>469</ele>
        <time>2017-01-12T10:27:30Z</time>
      </trkpt>
      <trkpt lat="46.05182" lon="4.56708">
        <ele>470</ele>
        <time>2017-01-12T10:27:38Z</time>
      </trkpt>
      <trkpt lat="46.05182" lon="4.56706">
        <ele>470</ele>
        <time>2017-01-12T10:27:39Z</time>
      </trkpt>
      <trkpt lat="46.0518" lon="4.56694">
        <ele>470</ele>
        <time>2017-01-12T10:27:48Z</time>
      </trkpt>
      <trkpt lat="46.0518" lon="4.56693">
        <ele>470</ele>
        <time>2017-01-12T10:27:49Z</time>
      </trkpt>
      <trkpt lat="46.05176" lon="4.56682">
        <ele>471</ele>
        <time>2017-01-12T10:27:57Z</time>
      </trkpt>
      <trkpt lat="46.05175" lon="4.56681">
        <ele>472</ele>
        <time>2017-01-12T10:27:58Z</time>
      </trkpt>
      <trkpt lat="46.05172" lon="4.56669">
        <ele>473</ele>
        <time>2017-01-12T10:28:05Z</time>
      </trkpt>
      <trkpt lat="46.05171" lon="4.56667">
        <ele>473</ele>
        <time>2017-01-12T10:28:06Z</time>
      </trkpt>
      <trkpt lat="46.05166" lon="4.56658">
        <ele>473</ele>
        <time>2017-01-12T10:28:13Z</time>
      </trkpt>
      <trkpt lat="46.05165" lon="4.56657">
        <ele>473</ele>
        <time>2017-01-12T10:28:14Z</time>
      </trkpt>
      <trkpt lat="46.05161" lon="4.56647">
        <ele>472</ele>
        <time>2017-01-12T10:28:21Z</time>
      </trkpt>
      <trkpt lat="46.0516" lon="4.56645">
        <ele>472</ele>
        <time>2017-01-12T10:28:22Z</time>
      </trkpt>
      <trkpt lat="46.05155" lon="4.56636">
        <ele>472</ele>
        <time>2017-01-12T10:28:29Z</time>
      </trkpt>
      <trkpt lat="46.05155" lon="4.56635">
        <ele>472</ele>
        <time>2017-01-12T10:28:30Z</time>
      </trkpt>
      <trkpt lat="46.05149" lon="4.56625">
        <ele>472</ele>
        <time>2017-01-12T10:28:39Z</time>
      </trkpt>
      <trkpt lat="46.05149" lon="4.56624">
        <ele>472</ele>
        <time>2017-01-12T10:28:40Z</time>
      </trkpt>
      <trkpt lat="46.05144" lon="4.56614">
        <ele>472</ele>
        <time>2017-01-12T10:28:48Z</time>
      </trkpt>
      <trkpt lat="46.05143" lon="4.56613">
        <ele>472</ele>
        <time>2017-01-12T10:28:49Z</time>
      </trkpt>
      <trkpt lat="46.05139" lon="4.56603">
        <ele>472</ele>
        <time>2017-01-12T10:28:56Z</time>
      </trkpt>
      <trkpt lat="46.05138" lon="4.56601">
        <ele>472</ele>
        <time>2017-01-12T10:28:57Z</time>
      </trkpt>
      <trkpt lat="46.05133" lon="4.56592">
        <ele>472</ele>
        <time>2017-01-12T10:29:04Z</time>
      </trkpt>
      <trkpt lat="46.05132" lon="4.56591">
        <ele>472</ele>
        <time>2017-01-12T10:29:05Z</time>
      </trkpt>
      <trkpt lat="46.05127" lon="4.5658">
        <ele>474</ele>
        <time>2017-01-12T10:29:13Z</time>
      </trkpt>
      <trkpt lat="46.05126" lon="4.56579">
        <ele>474</ele>
        <time>2017-01-12T10:29:14Z</time>
      </trkpt>
      <trkpt lat="46.0512" lon="4.56571">
        <ele>474</ele>
        <time>2017-01-12T10:29:21Z</time>
      </trkpt>
      <trkpt lat="46.05119" lon="4.5657">
        <ele>474</ele>
        <time>2017-01-12T10:29:22Z</time>
      </trkpt>
      <trkpt lat="46.05116" lon="4.56559">
        <ele>475</ele>
        <time>2017-01-12T10:29:30Z</time>
      </trkpt>
      <trkpt lat="46.05116" lon="4.56557">
        <ele>475</ele>
        <time>2017-01-12T10:29:31Z</time>
      </trkpt>
      <trkpt lat="46.05114" lon="4.56545">
        <ele>475</ele>
        <time>2017-01-12T10:29:39Z</time>
      </trkpt>
      <trkpt lat="46.05114" lon="4.56543">
        <ele>475</ele>
        <time>2017-01-12T10:29:40Z</time>
      </trkpt>
      <trkpt lat="46.0511" lon="4.56531">
        <ele>476</ele>
        <time>2017-01-12T10:29:49Z</time>
      </trkpt>
      <trkpt lat="46.0511" lon="4.5653">
        <ele>476</ele>
        <time>2017-01-12T10:29:50Z</time>
      </trkpt>
      <trkpt lat="46.05108" lon="4.56518">
        <ele>476</ele>
        <time>2017-01-12T10:29:58Z</time>
      </trkpt>
      <trkpt lat="46.05108" lon="4.56517">
        <ele>477</ele>
        <time>2017-01-12T10:29:59Z</time>
      </trkpt>
      <trkpt lat="46.05105" lon="4.56506">
        <ele>477</ele>
        <time>2017-01-12T10:30:08Z</time>
      </trkpt>
      <trkpt lat="46.05105" lon="4.56504">
        <ele>477</ele>
        <time>2017-01-12T10:30:09Z</time>
      </trkpt>
      <trkpt lat="46.05104" lon="4.56492">
        <ele>479</ele>
        <time>2017-01-12T10:30:17Z</time>
      </trkpt>
      <trkpt lat="46.05104" lon="4.56491">
        <ele>479</ele>
        <time>2017-01-12T10:30:18Z</time>
      </trkpt>
      <trkpt lat="46.05099" lon="4.56481">
        <ele>479</ele>
        <time>2017-01-12T10:30:27Z</time>
      </trkpt>
      <trkpt lat="46.05099" lon="4.5648">
        <ele>479</ele>
        <time>2017-01-12T10:30:28Z</time>
      </trkpt>
      <trkpt lat="46.05097" lon="4.56468">
        <ele>479</ele>
        <time>2017-01-12T10:30:38Z</time>
      </trkpt>
      <trkpt lat="46.05097" lon="4.56467">
        <ele>479</ele>
        <time>2017-01-12T10:30:39Z</time>
      </trkpt>
      <trkpt lat="46.05093" lon="4.56456">
        <ele>480</ele>
        <time>2017-01-12T10:30:49Z</time>
      </trkpt>
      <trkpt lat="46.05092" lon="4.56454">
        <ele>480</ele>
        <time>2017-01-12T10:30:50Z</time>
      </trkpt>
      <trkpt lat="46.05087" lon="4.56444">
        <ele>481</ele>
        <time>2017-01-12T10:30:58Z</time>
      </trkpt>
      <trkpt lat="46.05087" lon="4.56443">
        <ele>481</ele>
        <time>2017-01-12T10:30:59Z</time>
      </trkpt>
      <trkpt lat="46.05082" lon="4.56433">
        <ele>484</ele>
        <time>2017-01-12T10:31:07Z</time>
      </trkpt>
      <trkpt lat="46.05082" lon="4.56432">
        <ele>484</ele>
        <time>2017-01-12T10:31:08Z</time>
      </trkpt>
      <trkpt lat="46.05078" lon="4.56421">
        <ele>485</ele>
        <time>2017-01-12T10:31:15Z</time>
      </trkpt>
      <trkpt lat="46.05077" lon="4.5642">
        <ele>485</ele>
        <time>2017-01-12T10:31:16Z</time>
      </trkpt>
      <trkpt lat="46.05075" lon="4.56408">
        <ele>488</ele>
        <time>2017-01-12T10:31:24Z</time>
      </trkpt>
      <trkpt lat="46.05074" lon="4.56407">
        <ele>488</ele>
        <time>2017-01-12T10:31:25Z</time>
      </trkpt>
      <trkpt lat="46.05073" lon="4.56395">
        <ele>489</ele>
        <time>2017-01-12T10:31:34Z</time>
      </trkpt>
      <trkpt lat="46.05073" lon="4.56394">
        <ele>489</ele>
        <time>2017-01-12T10:31:35Z</time>
      </trkpt>
      <trkpt lat="46.05071" lon="4.56381">
        <ele>490</ele>
        <time>2017-01-12T10:31:45Z</time>
      </trkpt>
      <trkpt lat="46.05071" lon="4.5638">
        <ele>490</ele>
        <time>2017-01-12T10:31:46Z</time>
      </trkpt>
      <trkpt lat="46.05071" lon="4.56368">
        <ele>491</ele>
        <time>2017-01-12T10:31:55Z</time>
      </trkpt>
      <trkpt lat="46.0507" lon="4.56367">
        <ele>491</ele>
        <time>2017-01-12T10:31:56Z</time>
      </trkpt>
      <trkpt lat="46.05067" lon="4.56355">
        <ele>491</ele>
        <time>2017-01-12T10:32:05Z</time>
      </trkpt>
      <trkpt lat="46.05067" lon="4.56353">
        <ele>491</ele>
        <time>2017-01-12T10:32:06Z</time>
      </trkpt>
      <trkpt lat="46.05062" lon="4.56342">
        <ele>491</ele>
        <time>2017-01-12T10:32:15Z</time>
      </trkpt>
      <trkpt lat="46.05062" lon="4.56341">
        <ele>491</ele>
        <time>2017-01-12T10:32:16Z</time>
      </trkpt>
      <trkpt lat="46.0506" lon="4.56329">
        <ele>495</ele>
        <time>2017-01-12T10:32:25Z</time>
      </trkpt>
      <trkpt lat="46.0506" lon="4.56328">
        <ele>495</ele>
        <time>2017-01-12T10:32:26Z</time>
      </trkpt>
      <trkpt lat="46.05058" lon="4.56316">
        <ele>496</ele>
        <time>2017-01-12T10:32:35Z</time>
      </trkpt>
      <trkpt lat="46.05058" lon="4.56315">
        <ele>496</ele>
        <time>2017-01-12T10:32:36Z</time>
      </trkpt>
      <trkpt lat="46.05053" lon="4.56304">
        <ele>497</ele>
        <time>2017-01-12T10:32:44Z</time>
      </trkpt>
      <trkpt lat="46.05053" lon="4.56303">
        <ele>497</ele>
        <time>2017-01-12T10:32:45Z</time>
      </trkpt>
      <trkpt lat="46.05049" lon="4.56292">
        <ele>497</ele>
        <time>2017-01-12T10:32:54Z</time>
      </trkpt>
      <trkpt lat="46.05049" lon="4.5629">
        <ele>497</ele>
        <time>2017-01-12T10:32:55Z</time>
      </trkpt>
      <trkpt lat="46.05045" lon="4.56279">
        <ele>498</ele>
        <time>2017-01-12T10:33:03Z</time>
      </trkpt>
      <trkpt lat="46.05045" lon="4.56277">
        <ele>498</ele>
        <time>2017-01-12T10:33:04Z</time>
      </trkpt>
      <trkpt lat="46.05041" lon="4.56266">
        <ele>499</ele>
        <time>2017-01-12T10:33:12Z</time>
      </trkpt>
      <trkpt lat="46.0504" lon="4.56265">
        <ele>499</ele>
        <time>2017-01-12T10:33:13Z</time>
      </trkpt>
      <trkpt lat="46.05037" lon="4.56253">
        <ele>500</ele>
        <time>2017-01-12T10:33:23Z</time>
      </trkpt>
      <trkpt lat="46.05036" lon="4.56252">
        <ele>500</ele>
        <time>2017-01-12T10:33:24Z</time>
      </trkpt>
      <trkpt lat="46.05034" lon="4.56241">
        <ele>501</ele>
        <time>2017-01-12T10:33:33Z</time>
      </trkpt>
      <trkpt lat="46.05034" lon="4.5624">
        <ele>501</ele>
        <time>2017-01-12T10:33:34Z</time>
      </trkpt>
      <trkpt lat="46.05033" lon="4.56228">
        <ele>501</ele>
        <time>2017-01-12T10:33:41Z</time>
      </trkpt>
      <trkpt lat="46.05033" lon="4.56227">
        <ele>501</ele>
        <time>2017-01-12T10:33:42Z</time>
      </trkpt>
      <trkpt lat="46.05032" lon="4.56214">
        <ele>500</ele>
        <time>2017-01-12T10:33:49Z</time>
      </trkpt>
      <trkpt lat="46.05032" lon="4.56213">
        <ele>500</ele>
        <time>2017-01-12T10:33:50Z</time>
      </trkpt>
      <trkpt lat="46.05031" lon="4.56201">
        <ele>500</ele>
        <time>2017-01-12T10:33:57Z</time>
      </trkpt>
      <trkpt lat="46.05031" lon="4.562">
        <ele>500</ele>
        <time>2017-01-12T10:33:58Z</time>
      </trkpt>
      <trkpt lat="46.05029" lon="4.56188">
        <ele>501</ele>
        <time>2017-01-12T10:34:06Z</time>
      </trkpt>
      <trkpt lat="46.05029" lon="4.56187">
        <ele>501</ele>
        <time>2017-01-12T10:34:07Z</time>
      </trkpt>
      <trkpt lat="46.05026" lon="4.56175">
        <ele>502</ele>
        <time>2017-01-12T10:34:16Z</time>
      </trkpt>
      <trkpt lat="46.05026" lon="4.56173">
        <ele>502</ele>
        <time>2017-01-12T10:34:17Z</time>
      </trkpt>
      <trkpt lat="46.05024" lon="4.56162">
        <ele>503</ele>
        <time>2017-01-12T10:34:26Z</time>
      </trkpt>
      <trkpt lat="46.05023" lon="4.56161">
        <ele>503</ele>
        <time>2017-01-12T10:34:27Z</time>
      </trkpt>
      <trkpt lat="46.0502" lon="4.56148">
        <ele>503</ele>
        <time>2017-01-12T10:34:36Z</time>
      </trkpt>
      <trkpt lat="46.0502" lon="4.56147">
        <ele>503</ele>
        <time>2017-01-12T10:34:37Z</time>
      </trkpt>
      <trkpt lat="46.05017" lon="4.56136">
        <ele>503</ele>
        <time>2017-01-12T10:34:45Z</time>
      </trkpt>
      <trkpt lat="46.05016" lon="4.56135">
        <ele>503</ele>
        <time>2017-01-12T10:34:46Z</time>
      </trkpt>
      <trkpt lat="46.05012" lon="4.56123">
        <ele>503</ele>
        <time>2017-01-12T10:34:55Z</time>
      </trkpt>
      <trkpt lat="46.05012" lon="4.56122">
        <ele>503</ele>
        <time>2017-01-12T10:34:56Z</time>
      </trkpt>
      <trkpt lat="46.0501" lon="4.5611">
        <ele>504</ele>
        <time>2017-01-12T10:35:05Z</time>
      </trkpt>
      <trkpt lat="46.0501" lon="4.56108">
        <ele>504</ele>
        <time>2017-01-12T10:35:06Z</time>
      </trkpt>
      <trkpt lat="46.05008" lon="4.56097">
        <ele>506</ele>
        <time>2017-01-12T10:35:13Z</time>
      </trkpt>
      <trkpt lat="46.05008" lon="4.56095">
        <ele>507</ele>
        <time>2017-01-12T10:35:14Z</time>
      </trkpt>
      <trkpt lat="46.05008" lon="4.56083">
        <ele>509</ele>
        <time>2017-01-12T10:35:21Z</time>
      </trkpt>
      <trkpt lat="46.05008" lon="4.56082">
        <ele>509</ele>
        <time>2017-01-12T10:35:22Z</time>
      </trkpt>
      <trkpt lat="46.05006" lon="4.5607">
        <ele>508</ele>
        <time>2017-01-12T10:35:30Z</time>
      </trkpt>
      <trkpt lat="46.05006" lon="4.56068">
        <ele>508</ele>
        <time>2017-01-12T10:35:31Z</time>
      </trkpt>
      <trkpt lat="46.05006" lon="4.56056">
        <ele>507</ele>
        <time>2017-01-12T10:35:39Z</time>
      </trkpt>
      <trkpt lat="46.05006" lon="4.56055">
        <ele>507</ele>
        <time>2017-01-12T10:35:40Z</time>
      </trkpt>
      <trkpt lat="46.05005" lon="4.56042">
        <ele>507</ele>
        <time>2017-01-12T10:35:49Z</time>
      </trkpt>
      <trkpt lat="46.05005" lon="4.56041">
        <ele>507</ele>
        <time>2017-01-12T10:35:50Z</time>
      </trkpt>
      <trkpt lat="46.05004" lon="4.56028">
        <ele>509</ele>
        <time>2017-01-12T10:35:59Z</time>
      </trkpt>
      <trkpt lat="46.05004" lon="4.56027">
        <ele>509</ele>
        <time>2017-01-12T10:36:00Z</time>
      </trkpt>
      <trkpt lat="46.05003" lon="4.56015">
        <ele>512</ele>
        <time>2017-01-12T10:36:10Z</time>
      </trkpt>
      <trkpt lat="46.05002" lon="4.56013">
        <ele>512</ele>
        <time>2017-01-12T10:36:11Z</time>
      </trkpt>
      <trkpt lat="46.05002" lon="4.56001">
        <ele>517</ele>
        <time>2017-01-12T10:36:22Z</time>
      </trkpt>
      <trkpt lat="46.05001" lon="4.56">
        <ele>518</ele>
        <time>2017-01-12T10:36:23Z</time>
      </trkpt>
      <trkpt lat="46.04996" lon="4.5599">
        <ele>518</ele>
        <time>2017-01-12T10:36:34Z</time>
      </trkpt>
      <trkpt lat="46.04995" lon="4.55989">
        <ele>518</ele>
        <time>2017-01-12T10:36:35Z</time>
      </trkpt>
      <trkpt lat="46.04994" lon="4.55976">
        <ele>519</ele>
        <time>2017-01-12T10:36:46Z</time>
      </trkpt>
      <trkpt lat="46.04994" lon="4.55975">
        <ele>519</ele>
        <time>2017-01-12T10:36:47Z</time>
      </trkpt>
      <trkpt lat="46.04995" lon="4.55962">
        <ele>519</ele>
        <time>2017-01-12T10:36:57Z</time>
      </trkpt>
      <trkpt lat="46.04995" lon="4.55961">
        <ele>520</ele>
        <time>2017-01-12T10:36:58Z</time>
      </trkpt>
      <trkpt lat="46.04996" lon="4.55949">
        <ele>521</ele>
        <time>2017-01-12T10:37:08Z</time>
      </trkpt>
      <trkpt lat="46.04997" lon="4.55948">
        <ele>521</ele>
        <time>2017-01-12T10:37:09Z</time>
      </trkpt>
      <trkpt lat="46.04999" lon="4.55936">
        <ele>523</ele>
        <time>2017-01-12T10:37:20Z</time>
      </trkpt>
      <trkpt lat="46.04999" lon="4.55935">
        <ele>523</ele>
        <time>2017-01-12T10:37:21Z</time>
      </trkpt>
      <trkpt lat="46.04997" lon="4.55923">
        <ele>526</ele>
        <time>2017-01-12T10:37:34Z</time>
      </trkpt>
      <trkpt lat="46.04997" lon="4.55922">
        <ele>527</ele>
        <time>2017-01-12T10:37:35Z</time>
      </trkpt>
      <trkpt lat="46.05" lon="4.55911">
        <ele>528</ele>
        <time>2017-01-12T10:37:46Z</time>
      </trkpt>
      <trkpt lat="46.05001" lon="4.5591">
        <ele>528</ele>
        <time>2017-01-12T10:37:47Z</time>
      </trkpt>
      <trkpt lat="46.05006" lon="4.559">
        <ele>527</ele>
        <time>2017-01-12T10:37:57Z</time>
      </trkpt>
      <trkpt lat="46.05006" lon="4.55899">
        <ele>527</ele>
        <time>2017-01-12T10:37:58Z</time>
      </trkpt>
      <trkpt lat="46.05009" lon="4.55888">
        <ele>527</ele>
        <time>2017-01-12T10:38:07Z</time>
      </trkpt>
      <trkpt lat="46.05009" lon="4.55886">
        <ele>527</ele>
        <time>2017-01-12T10:38:08Z</time>
      </trkpt>
      <trkpt lat="46.05012" lon="4.55875">
        <ele>528</ele>
        <time>2017-01-12T10:38:18Z</time>
      </trkpt>
      <trkpt lat="46.05012" lon="4.55873">
        <ele>528</ele>
        <time>2017-01-12T10:38:19Z</time>
      </trkpt>
      <trkpt lat="46.05013" lon="4.55861">
        <ele>529</ele>
        <time>2017-01-12T10:38:29Z</time>
      </trkpt>
      <trkpt lat="46.05014" lon="4.5586">
        <ele>529</ele>
        <time>2017-01-12T10:38:30Z</time>
      </trkpt>
      <trkpt lat="46.05015" lon="4.55847">
        <ele>531</ele>
        <time>2017-01-12T10:38:41Z</time>
      </trkpt>
      <trkpt lat="46.05015" lon="4.55846">
        <ele>531</ele>
        <time>2017-01-12T10:38:42Z</time>
      </trkpt>
      <trkpt lat="46.05017" lon="4.55833">
        <ele>538</ele>
        <time>2017-01-12T10:38:53Z</time>
      </trkpt>
      <trkpt lat="46.05017" lon="4.55832">
        <ele>538</ele>
        <time>2017-01-12T10:38:54Z</time>
      </trkpt>
      <trkpt lat="46.05019" lon="4.55821">
        <ele>539</ele>
        <time>2017-01-12T10:39:06Z</time>
      </trkpt>
      <trkpt lat="46.05019" lon="4.5582">
        <ele>539</ele>
        <time>2017-01-12T10:39:07Z</time>
      </trkpt>
      <trkpt lat="46.0502" lon="4.55808">
        <ele>540</ele>
        <time>2017-01-12T10:39:18Z</time>
      </trkpt>
      <trkpt lat="46.0502" lon="4.55807">
        <ele>540</ele>
        <time>2017-01-12T10:39:19Z</time>
      </trkpt>
      <trkpt lat="46.05022" lon="4.55795">
        <ele>541</ele>
        <time>2017-01-12T10:39:31Z</time>
      </trkpt>
      <trkpt lat="46.05022" lon="4.55794">
        <ele>541</ele>
        <time>2017-01-12T10:39:32Z</time>
      </trkpt>
      <trkpt lat="46.05021" lon="4.55781">
        <ele>542</ele>
        <time>2017-01-12T10:39:44Z</time>
      </trkpt>
      <trkpt lat="46.05021" lon="4.55781">
        <ele>542</ele>
        <time>2017-01-12T10:39:45Z</time>
      </trkpt>
      <trkpt lat="46.05024" lon="4.55769">
        <ele>543</ele>
        <time>2017-01-12T10:39:58Z</time>
      </trkpt>
      <trkpt lat="46.05024" lon="4.55768">
        <ele>543</ele>
        <time>2017-01-12T10:39:59Z</time>
      </trkpt>
      <trkpt lat="46.05026" lon="4.55756">
        <ele>544</ele>
        <time>2017-01-12T10:40:10Z</time>
      </trkpt>
      <trkpt lat="46.05026" lon="4.55755">
        <ele>544</ele>
        <time>2017-01-12T10:40:11Z</time>
      </trkpt>
      <trkpt lat="46.05029" lon="4.55743">
        <ele>552</ele>
        <time>2017-01-12T10:40:25Z</time>
      </trkpt>
      <trkpt lat="46.0503" lon="4.55742">
        <ele>552</ele>
        <time>2017-01-12T10:40:26Z</time>
      </trkpt>
      <trkpt lat="46.05032" lon="4.5573">
        <ele>553</ele>
        <time>2017-01-12T10:40:38Z</time>
      </trkpt>
      <trkpt lat="46.05032" lon="4.55729">
        <ele>553</ele>
        <time>2017-01-12T10:40:39Z</time>
      </trkpt>
      <trkpt lat="46.0503" lon="4.55717">
        <ele>554</ele>
        <time>2017-01-12T10:40:50Z</time>
      </trkpt>
      <trkpt lat="46.0503" lon="4.55716">
        <ele>554</ele>
        <time>2017-01-12T10:40:51Z</time>
      </trkpt>
      <trkpt lat="46.05029" lon="4.55704">
        <ele>555</ele>
        <time>2017-01-12T10:41:02Z</time>
      </trkpt>
      <trkpt lat="46.05029" lon="4.55702">
        <ele>555</ele>
        <time>2017-01-12T10:41:03Z</time>
      </trkpt>
      <trkpt lat="46.05029" lon="4.5569">
        <ele>556</ele>
        <time>2017-01-12T10:41:13Z</time>
      </trkpt>
      <trkpt lat="46.05029" lon="4.55689">
        <ele>556</ele>
        <time>2017-01-12T10:41:14Z</time>
      </trkpt>
      <trkpt lat="46.05026" lon="4.55676">
        <ele>556</ele>
        <time>2017-01-12T10:41:24Z</time>
      </trkpt>
      <trkpt lat="46.05025" lon="4.55675">
        <ele>556</ele>
        <time>2017-01-12T10:41:25Z</time>
      </trkpt>
      <trkpt lat="46.05023" lon="4.55664">
        <ele>561</ele>
        <time>2017-01-12T10:41:34Z</time>
      </trkpt>
      <trkpt lat="46.05022" lon="4.55663">
        <ele>561</ele>
        <time>2017-01-12T10:41:35Z</time>
      </trkpt>
      <trkpt lat="46.05019" lon="4.55651">
        <ele>562</ele>
        <time>2017-01-12T10:41:44Z</time>
      </trkpt>
      <trkpt lat="46.05019" lon="4.5565">
        <ele>562</ele>
        <time>2017-01-12T10:41:45Z</time>
      </trkpt>
      <trkpt lat="46.05016" lon="4.55638">
        <ele>563</ele>
        <time>2017-01-12T10:41:53Z</time>
      </trkpt>
      <trkpt lat="46.05016" lon="4.55636">
        <ele>563</ele>
        <time>2017-01-12T10:41:54Z</time>
      </trkpt>
      <trkpt lat="46.05014" lon="4.55624">
        <ele>563</ele>
        <time>2017-01-12T10:42:03Z</time>
      </trkpt>
      <trkpt lat="46.05013" lon="4.55623">
        <ele>564</ele>
        <time>2017-01-12T10:42:04Z</time>
      </trkpt>
      <trkpt lat="46.05011" lon="4.55611">
        <ele>564</ele>
        <time>2017-01-12T10:42:14Z</time>
      </trkpt>
      <trkpt lat="46.05011" lon="4.5561">
        <ele>564</ele>
        <time>2017-01-12T10:42:15Z</time>
      </trkpt>
      <trkpt lat="46.05008" lon="4.55599">
        <ele>565</ele>
        <time>2017-01-12T10:42:24Z</time>
      </trkpt>
      <trkpt lat="46.05008" lon="4.55598">
        <ele>565</ele>
        <time>2017-01-12T10:42:25Z</time>
      </trkpt>
      <trkpt lat="46.05006" lon="4.55585">
        <ele>566</ele>
        <time>2017-01-12T10:42:34Z</time>
      </trkpt>
      <trkpt lat="46.05006" lon="4.55584">
        <ele>566</ele>
        <time>2017-01-12T10:42:35Z</time>
      </trkpt>
      <trkpt lat="46.05006" lon="4.55572">
        <ele>568</ele>
        <time>2017-01-12T10:42:44Z</time>
      </trkpt>
      <trkpt lat="46.05006" lon="4.55571">
        <ele>568</ele>
        <time>2017-01-12T10:42:45Z</time>
      </trkpt>
      <trkpt lat="46.05003" lon="4.55559">
        <ele>568</ele>
        <time>2017-01-12T10:42:54Z</time>
      </trkpt>
      <trkpt lat="46.05003" lon="4.55558">
        <ele>568</ele>
        <time>2017-01-12T10:42:55Z</time>
      </trkpt>
      <trkpt lat="46.05001" lon="4.55546">
        <ele>569</ele>
        <time>2017-01-12T10:43:04Z</time>
      </trkpt>
      <trkpt lat="46.05001" lon="4.55544">
        <ele>569</ele>
        <time>2017-01-12T10:43:05Z</time>
      </trkpt>
      <trkpt lat="46.04997" lon="4.55533">
        <ele>565</ele>
        <time>2017-01-12T10:43:13Z</time>
      </trkpt>
      <trkpt lat="46.04996" lon="4.55532">
        <ele>565</ele>
        <time>2017-01-12T10:43:14Z</time>
      </trkpt>
      <trkpt lat="46.04992" lon="4.5552">
        <ele>567</ele>
        <time>2017-01-12T10:43:23Z</time>
      </trkpt>
      <trkpt lat="46.04992" lon="4.55519">
        <ele>567</ele>
        <time>2017-01-12T10:43:24Z</time>
      </trkpt>
      <trkpt lat="46.04987" lon="4.55508">
        <ele>568</ele>
        <time>2017-01-12T10:43:33Z</time>
      </trkpt>
      <trkpt lat="46.04987" lon="4.55507">
        <ele>568</ele>
        <time>2017-01-12T10:43:34Z</time>
      </trkpt>
      <trkpt lat="46.04985" lon="4.55495">
        <ele>571</ele>
        <time>2017-01-12T10:43:44Z</time>
      </trkpt>
      <trkpt lat="46.04985" lon="4.55493">
        <ele>571</ele>
        <time>2017-01-12T10:43:45Z</time>
      </trkpt>
      <trkpt lat="46.04982" lon="4.55481">
        <ele>571</ele>
        <time>2017-01-12T10:43:54Z</time>
      </trkpt>
      <trkpt lat="46.04982" lon="4.55479">
        <ele>571</ele>
        <time>2017-01-12T10:43:55Z</time>
      </trkpt>
      <trkpt lat="46.04981" lon="4.55467">
        <ele>571</ele>
        <time>2017-01-12T10:44:05Z</time>
      </trkpt>
      <trkpt lat="46.04981" lon="4.55466">
        <ele>571</ele>
        <time>2017-01-12T10:44:06Z</time>
      </trkpt>
      <trkpt lat="46.04978" lon="4.55455">
        <ele>571</ele>
        <time>2017-01-12T10:44:15Z</time>
      </trkpt>
      <trkpt lat="46.04978" lon="4.55454">
        <ele>571</ele>
        <time>2017-01-12T10:44:16Z</time>
      </trkpt>
      <trkpt lat="46.04975" lon="4.55442">
        <ele>571</ele>
        <time>2017-01-12T10:44:26Z</time>
      </trkpt>
      <trkpt lat="46.04975" lon="4.5544">
        <ele>571</ele>
        <time>2017-01-12T10:44:27Z</time>
      </trkpt>
      <trkpt lat="46.04974" lon="4.55428">
        <ele>572</ele>
        <time>2017-01-12T10:44:36Z</time>
      </trkpt>
      <trkpt lat="46.04974" lon="4.55426">
        <ele>572</ele>
        <time>2017-01-12T10:44:37Z</time>
      </trkpt>
      <trkpt lat="46.04975" lon="4.55414">
        <ele>577</ele>
        <time>2017-01-12T10:44:45Z</time>
      </trkpt>
      <trkpt lat="46.04975" lon="4.55413">
        <ele>577</ele>
        <time>2017-01-12T10:44:46Z</time>
      </trkpt>
      <trkpt lat="46.04973" lon="4.554">
        <ele>577</ele>
        <time>2017-01-12T10:44:56Z</time>
      </trkpt>
      <trkpt lat="46.04972" lon="4.55399">
        <ele>577</ele>
        <time>2017-01-12T10:44:57Z</time>
      </trkpt>
      <trkpt lat="46.0497" lon="4.55387">
        <ele>577</ele>
        <time>2017-01-12T10:45:07Z</time>
      </trkpt>
      <trkpt lat="46.0497" lon="4.55385">
        <ele>577</ele>
        <time>2017-01-12T10:45:08Z</time>
      </trkpt>
      <trkpt lat="46.0497" lon="4.55373">
        <ele>578</ele>
        <time>2017-01-12T10:45:17Z</time>
      </trkpt>
      <trkpt lat="46.04971" lon="4.55372">
        <ele>578</ele>
        <time>2017-01-12T10:45:18Z</time>
      </trkpt>
      <trkpt lat="46.04978" lon="4.55367">
        <ele>579</ele>
        <time>2017-01-12T10:50:32Z</time>
      </trkpt>
      <trkpt lat="46.04979" lon="4.55366">
        <ele>579</ele>
        <time>2017-01-12T10:50:33Z</time>
      </trkpt>
      <trkpt lat="46.04985" lon="4.55357">
        <ele>579</ele>
        <time>2017-01-12T10:50:41Z</time>
      </trkpt>
      <trkpt lat="46.04985" lon="4.55356">
        <ele>580</ele>
        <time>2017-01-12T10:50:42Z</time>
      </trkpt>
      <trkpt lat="46.04988" lon="4.55345">
        <ele>581</ele>
        <time>2017-01-12T10:50:49Z</time>
      </trkpt>
      <trkpt lat="46.04988" lon="4.55343">
        <ele>581</ele>
        <time>2017-01-12T10:50:50Z</time>
      </trkpt>
      <trkpt lat="46.04991" lon="4.55331">
        <ele>584</ele>
        <time>2017-01-12T10:50:57Z</time>
      </trkpt>
      <trkpt lat="46.04992" lon="4.5533">
        <ele>584</ele>
        <time>2017-01-12T10:50:58Z</time>
      </trkpt>
      <trkpt lat="46.04995" lon="4.55318">
        <ele>584</ele>
        <time>2017-01-12T10:51:06Z</time>
      </trkpt>
      <trkpt lat="46.04996" lon="4.55317">
        <ele>584</ele>
        <time>2017-01-12T10:51:07Z</time>
      </trkpt>
      <trkpt lat="46.04996" lon="4.55305">
        <ele>584</ele>
        <time>2017-01-12T10:51:14Z</time>
      </trkpt>
      <trkpt lat="46.04997" lon="4.55304">
        <ele>584</ele>
        <time>2017-01-12T10:51:15Z</time>
      </trkpt>
      <trkpt lat="46.04998" lon="4.55292">
        <ele>585</ele>
        <time>2017-01-12T10:51:22Z</time>
      </trkpt>
      <trkpt lat="46.04998" lon="4.55291">
        <ele>585</ele>
        <time>2017-01-12T10:51:23Z</time>
      </trkpt>
      <trkpt lat="46.04999" lon="4.55279">
        <ele>585</ele>
        <time>2017-01-12T10:51:29Z</time>
      </trkpt>
      <trkpt lat="46.04999" lon="4.55277">
        <ele>585</ele>
        <time>2017-01-12T10:51:30Z</time>
      </trkpt>
      <trkpt lat="46.05" lon="4.55266">
        <ele>586</ele>
        <time>2017-01-12T10:51:36Z</time>
      </trkpt>
      <trkpt lat="46.05" lon="4.55264">
        <ele>586</ele>
        <time>2017-01-12T10:51:37Z</time>
      </trkpt>
      <trkpt lat="46.05001" lon="4.55252">
        <ele>586</ele>
        <time>2017-01-12T10:51:43Z</time>
      </trkpt>
      <trkpt lat="46.05001" lon="4.5525">
        <ele>586</ele>
        <time>2017-01-12T10:51:44Z</time>
      </trkpt>
      <trkpt lat="46.05002" lon="4.55238">
        <ele>582</ele>
        <time>2017-01-12T10:51:51Z</time>
      </trkpt>
      <trkpt lat="46.05002" lon="4.55236">
        <ele>582</ele>
        <time>2017-01-12T10:51:52Z</time>
      </trkpt>
      <trkpt lat="46.05001" lon="4.55224">
        <ele>579</ele>
        <time>2017-01-12T10:52:00Z</time>
      </trkpt>
      <trkpt lat="46.05001" lon="4.55223">
        <ele>579</ele>
        <time>2017-01-12T10:52:01Z</time>
      </trkpt>
      <trkpt lat="46.04999" lon="4.55212">
        <ele>587</ele>
        <time>2017-01-12T10:52:08Z</time>
      </trkpt>
      <trkpt lat="46.04998" lon="4.5521">
        <ele>587</ele>
        <time>2017-01-12T10:52:09Z</time>
      </trkpt>
      <trkpt lat="46.04999" lon="4.55198">
        <ele>587</ele>
        <time>2017-01-12T10:52:15Z</time>
      </trkpt>
      <trkpt lat="46.04999" lon="4.55196">
        <ele>587</ele>
        <time>2017-01-12T10:52:16Z</time>
      </trkpt>
      <trkpt lat="46.04998" lon="4.55184">
        <ele>587</ele>
        <time>2017-01-12T10:52:23Z</time>
      </trkpt>
      <trkpt lat="46.04998" lon="4.55183">
        <ele>587</ele>
        <time>2017-01-12T10:52:24Z</time>
      </trkpt>
      <trkpt lat="46.04997" lon="4.55171">
        <ele>586</ele>
        <time>2017-01-12T10:52:31Z</time>
      </trkpt>
      <trkpt lat="46.04997" lon="4.55169">
        <ele>586</ele>
        <time>2017-01-12T10:52:32Z</time>
      </trkpt>
      <trkpt lat="46.04994" lon="4.55157">
        <ele>587</ele>
        <time>2017-01-12T10:52:39Z</time>
      </trkpt>
      <trkpt lat="46.04994" lon="4.55155">
        <ele>587</ele>
        <time>2017-01-12T10:52:40Z</time>
      </trkpt>
      <trkpt lat="46.04994" lon="4.55143">
        <ele>588</ele>
        <time>2017-01-12T10:52:47Z</time>
      </trkpt>
      <trkpt lat="46.04994" lon="4.55141">
        <ele>588</ele>
        <time>2017-01-12T10:52:48Z</time>
      </trkpt>
      <trkpt lat="46.04993" lon="4.55129">
        <ele>588</ele>
        <time>2017-01-12T10:52:55Z</time>
      </trkpt>
      <trkpt lat="46.04993" lon="4.55127">
        <ele>588</ele>
        <time>2017-01-12T10:52:56Z</time>
      </trkpt>
      <trkpt lat="46.04991" lon="4.55115">
        <ele>588</ele>
        <time>2017-01-12T10:53:04Z</time>
      </trkpt>
      <trkpt lat="46.04991" lon="4.55113">
        <ele>587</ele>
        <time>2017-01-12T10:53:05Z</time>
      </trkpt>
      <trkpt lat="46.04989" lon="4.551">
        <ele>586</ele>
        <time>2017-01-12T10:53:12Z</time>
      </trkpt>
      <trkpt lat="46.04989" lon="4.55098">
        <ele>586</ele>
        <time>2017-01-12T10:53:13Z</time>
      </trkpt>
      <trkpt lat="46.04988" lon="4.55086">
        <ele>585</ele>
        <time>2017-01-12T10:53:20Z</time>
      </trkpt>
      <trkpt lat="46.04988" lon="4.55084">
        <ele>585</ele>
        <time>2017-01-12T10:53:21Z</time>
      </trkpt>
      <trkpt lat="46.04986" lon="4.55073">
        <ele>586</ele>
        <time>2017-01-12T10:53:28Z</time>
      </trkpt>
      <trkpt lat="46.04986" lon="4.55071">
        <ele>587</ele>
        <time>2017-01-12T10:53:29Z</time>
      </trkpt>
      <trkpt lat="46.04986" lon="4.55059">
        <ele>588</ele>
        <time>2017-01-12T10:53:37Z</time>
      </trkpt>
      <trkpt lat="46.04986" lon="4.55057">
        <ele>588</ele>
        <time>2017-01-12T10:53:38Z</time>
      </trkpt>
      <trkpt lat="46.04986" lon="4.55045">
        <ele>588</ele>
        <time>2017-01-12T10:53:46Z</time>
      </trkpt>
      <trkpt lat="46.04986" lon="4.55043">
        <ele>588</ele>
        <time>2017-01-12T10:53:47Z</time>
      </trkpt>
      <trkpt lat="46.04986" lon="4.55031">
        <ele>588</ele>
        <time>2017-01-12T10:53:54Z</time>
      </trkpt>
      <trkpt lat="46.04986" lon="4.55029">
        <ele>587</ele>
        <time>2017-01-12T10:53:55Z</time>
      </trkpt>
      <trkpt lat="46.04986" lon="4.55018">
        <ele>586</ele>
        <time>2017-01-12T10:54:02Z</time>
      </trkpt>
      <trkpt lat="46.04987" lon="4.55016">
        <ele>586</ele>
        <time>2017-01-12T10:54:03Z</time>
      </trkpt>
      <trkpt lat="46.04989" lon="4.55004">
        <ele>583</ele>
        <time>2017-01-12T10:54:10Z</time>
      </trkpt>
      <trkpt lat="46.0499" lon="4.55002">
        <ele>583</ele>
        <time>2017-01-12T10:54:11Z</time>
      </trkpt>
      <trkpt lat="46.04993" lon="4.54991">
        <ele>585</ele>
        <time>2017-01-12T10:54:17Z</time>
      </trkpt>
      <trkpt lat="46.04994" lon="4.5499">
        <ele>586</ele>
        <time>2017-01-12T10:54:18Z</time>
      </trkpt>
      <trkpt lat="46.04997" lon="4.54979">
        <ele>589</ele>
        <time>2017-01-12T10:54:24Z</time>
      </trkpt>
      <trkpt lat="46.04998" lon="4.54977">
        <ele>589</ele>
        <time>2017-01-12T10:54:25Z</time>
      </trkpt>
      <trkpt lat="46.05003" lon="4.54968">
        <ele>575</ele>
        <time>2017-01-12T10:54:31Z</time>
      </trkpt>
      <trkpt lat="46.05004" lon="4.54966">
        <ele>575</ele>
        <time>2017-01-12T10:54:32Z</time>
      </trkpt>
      <trkpt lat="46.05008" lon="4.54957">
        <ele>576</ele>
        <time>2017-01-12T10:54:38Z</time>
      </trkpt>
      <trkpt lat="46.05009" lon="4.54955">
        <ele>576</ele>
        <time>2017-01-12T10:54:39Z</time>
      </trkpt>
      <trkpt lat="46.05015" lon="4.54947">
        <ele>576</ele>
        <time>2017-01-12T10:54:45Z</time>
      </trkpt>
      <trkpt lat="46.05016" lon="4.54945">
        <ele>577</ele>
        <time>2017-01-12T10:54:46Z</time>
      </trkpt>
      <trkpt lat="46.0502" lon="4.54935">
        <ele>577</ele>
        <time>2017-01-12T10:54:53Z</time>
      </trkpt>
      <trkpt lat="46.05021" lon="4.54934">
        <ele>578</ele>
        <time>2017-01-12T10:54:54Z</time>
      </trkpt>
      <trkpt lat="46.05026" lon="4.54923">
        <ele>577</ele>
        <time>2017-01-12T10:55:09Z</time>
      </trkpt>
      <trkpt lat="46.05026" lon="4.54923">
        <ele>577</ele>
        <time>2017-01-12T10:55:10Z</time>
      </trkpt>
      <trkpt lat="46.05034" lon="4.54917">
        <ele>576</ele>
        <time>2017-01-12T10:55:26Z</time>
      </trkpt>
      <trkpt lat="46.05036" lon="4.54916">
        <ele>583</ele>
        <time>2017-01-12T10:55:27Z</time>
      </trkpt>
      <trkpt lat="46.05043" lon="4.54912">
        <ele>581</ele>
        <time>2017-01-12T10:55:30Z</time>
      </trkpt>
      <trkpt lat="46.05046" lon="4.5491">
        <ele>581</ele>
        <time>2017-01-12T10:55:31Z</time>
      </trkpt>
      <trkpt lat="46.05052" lon="4.54906">
        <ele>579</ele>
        <time>2017-01-12T10:55:34Z</time>
      </trkpt>
      <trkpt lat="46.05054" lon="4.54905">
        <ele>579</ele>
        <time>2017-01-12T10:55:35Z</time>
      </trkpt>
      <trkpt lat="46.05061" lon="4.54899">
        <ele>578</ele>
        <time>2017-01-12T10:55:39Z</time>
      </trkpt>
      <trkpt lat="46.05062" lon="4.54898">
        <ele>578</ele>
        <time>2017-01-12T10:55:40Z</time>
      </trkpt>
      <trkpt lat="46.0507" lon="4.54893">
        <ele>577</ele>
        <time>2017-01-12T10:55:46Z</time>
      </trkpt>
      <trkpt lat="46.05071" lon="4.54891">
        <ele>577</ele>
        <time>2017-01-12T10:55:47Z</time>
      </trkpt>
      <trkpt lat="46.05075" lon="4.5488">
        <ele>579</ele>
        <time>2017-01-12T10:55:58Z</time>
      </trkpt>
      <trkpt lat="46.05076" lon="4.54878">
        <ele>579</ele>
        <time>2017-01-12T10:55:59Z</time>
      </trkpt>
      <trkpt lat="46.05081" lon="4.54867">
        <ele>579</ele>
        <time>2017-01-12T10:56:07Z</time>
      </trkpt>
      <trkpt lat="46.05081" lon="4.54866">
        <ele>579</ele>
        <time>2017-01-12T10:56:08Z</time>
      </trkpt>
      <trkpt lat="46.05085" lon="4.54857">
        <ele>565</ele>
        <time>2017-01-12T10:56:14Z</time>
      </trkpt>
      <trkpt lat="46.05086" lon="4.54854">
        <ele>566</ele>
        <time>2017-01-12T10:56:15Z</time>
      </trkpt>
      <trkpt lat="46.0509" lon="4.54844">
        <ele>568</ele>
        <time>2017-01-12T10:56:19Z</time>
      </trkpt>
      <trkpt lat="46.05091" lon="4.54842">
        <ele>569</ele>
        <time>2017-01-12T10:56:20Z</time>
      </trkpt>
      <trkpt lat="46.05093" lon="4.54831">
        <ele>570</ele>
        <time>2017-01-12T10:56:26Z</time>
      </trkpt>
      <trkpt lat="46.05094" lon="4.54829">
        <ele>569</ele>
        <time>2017-01-12T10:56:27Z</time>
      </trkpt>
      <trkpt lat="46.05098" lon="4.54818">
        <ele>566</ele>
        <time>2017-01-12T10:56:33Z</time>
      </trkpt>
      <trkpt lat="46.05098" lon="4.54816">
        <ele>566</ele>
        <time>2017-01-12T10:56:34Z</time>
      </trkpt>
      <trkpt lat="46.05099" lon="4.54805">
        <ele>564</ele>
        <time>2017-01-12T10:56:40Z</time>
      </trkpt>
      <trkpt lat="46.05099" lon="4.54803">
        <ele>564</ele>
        <time>2017-01-12T10:56:41Z</time>
      </trkpt>
      <trkpt lat="46.05099" lon="4.54791">
        <ele>563</ele>
        <time>2017-01-12T10:56:48Z</time>
      </trkpt>
      <trkpt lat="46.05099" lon="4.54789">
        <ele>563</ele>
        <time>2017-01-12T10:56:49Z</time>
      </trkpt>
      <trkpt lat="46.05101" lon="4.54777">
        <ele>564</ele>
        <time>2017-01-12T10:56:56Z</time>
      </trkpt>
      <trkpt lat="46.05102" lon="4.54776">
        <ele>564</ele>
        <time>2017-01-12T10:56:57Z</time>
      </trkpt>
      <trkpt lat="46.051" lon="4.54764">
        <ele>566</ele>
        <time>2017-01-12T10:57:05Z</time>
      </trkpt>
      <trkpt lat="46.051" lon="4.54762">
        <ele>566</ele>
        <time>2017-01-12T10:57:06Z</time>
      </trkpt>
      <trkpt lat="46.05104" lon="4.54751">
        <ele>566</ele>
        <time>2017-01-12T10:57:13Z</time>
      </trkpt>
      <trkpt lat="46.05104" lon="4.54749">
        <ele>564</ele>
        <time>2017-01-12T10:57:14Z</time>
      </trkpt>
      <trkpt lat="46.05108" lon="4.5474">
        <ele>562</ele>
        <time>2017-01-12T10:57:20Z</time>
      </trkpt>
      <trkpt lat="46.05109" lon="4.54737">
        <ele>561</ele>
        <time>2017-01-12T10:57:21Z</time>
      </trkpt>
      <trkpt lat="46.05107" lon="4.54726">
        <ele>561</ele>
        <time>2017-01-12T10:57:26Z</time>
      </trkpt>
      <trkpt lat="46.05106" lon="4.54723">
        <ele>561</ele>
        <time>2017-01-12T10:57:27Z</time>
      </trkpt>
      <trkpt lat="46.05104" lon="4.54712">
        <ele>560</ele>
        <time>2017-01-12T10:57:32Z</time>
      </trkpt>
      <trkpt lat="46.05104" lon="4.5471">
        <ele>560</ele>
        <time>2017-01-12T10:57:33Z</time>
      </trkpt>
      <trkpt lat="46.05101" lon="4.54699">
        <ele>561</ele>
        <time>2017-01-12T10:57:38Z</time>
      </trkpt>
      <trkpt lat="46.051" lon="4.54697">
        <ele>561</ele>
        <time>2017-01-12T10:57:39Z</time>
      </trkpt>
      <trkpt lat="46.05099" lon="4.54685">
        <ele>563</ele>
        <time>2017-01-12T10:57:45Z</time>
      </trkpt>
      <trkpt lat="46.05099" lon="4.54682">
        <ele>563</ele>
        <time>2017-01-12T10:57:46Z</time>
      </trkpt>
      <trkpt lat="46.05098" lon="4.54671">
        <ele>566</ele>
        <time>2017-01-12T10:57:53Z</time>
      </trkpt>
      <trkpt lat="46.05097" lon="4.54669">
        <ele>566</ele>
        <time>2017-01-12T10:57:54Z</time>
      </trkpt>
      <trkpt lat="46.05095" lon="4.54657">
        <ele>566</ele>
        <time>2017-01-12T10:58:01Z</time>
      </trkpt>
      <trkpt lat="46.05094" lon="4.54655">
        <ele>566</ele>
        <time>2017-01-12T10:58:02Z</time>
      </trkpt>
      <trkpt lat="46.05092" lon="4.54644">
        <ele>564</ele>
        <time>2017-01-12T10:58:09Z</time>
      </trkpt>
      <trkpt lat="46.05092" lon="4.54642">
        <ele>564</ele>
        <time>2017-01-12T10:58:10Z</time>
      </trkpt>
      <trkpt lat="46.05092" lon="4.5463">
        <ele>562</ele>
        <time>2017-01-12T10:58:16Z</time>
      </trkpt>
      <trkpt lat="46.05092" lon="4.54628">
        <ele>562</ele>
        <time>2017-01-12T10:58:17Z</time>
      </trkpt>
      <trkpt lat="46.05091" lon="4.54616">
        <ele>562</ele>
        <time>2017-01-12T10:58:22Z</time>
      </trkpt>
      <trkpt lat="46.05091" lon="4.54614">
        <ele>562</ele>
        <time>2017-01-12T10:58:23Z</time>
      </trkpt>
      <trkpt lat="46.05091" lon="4.54602">
        <ele>564</ele>
        <time>2017-01-12T10:58:29Z</time>
      </trkpt>
      <trkpt lat="46.05091" lon="4.546">
        <ele>564</ele>
        <time>2017-01-12T10:58:30Z</time>
      </trkpt>
      <trkpt lat="46.05088" lon="4.54588">
        <ele>567</ele>
        <time>2017-01-12T10:58:36Z</time>
      </trkpt>
      <trkpt lat="46.05088" lon="4.54586">
        <ele>567</ele>
        <time>2017-01-12T10:58:37Z</time>
      </trkpt>
      <trkpt lat="46.05086" lon="4.54574">
        <ele>568</ele>
        <time>2017-01-12T10:58:44Z</time>
      </trkpt>
      <trkpt lat="46.05085" lon="4.54573">
        <ele>567</ele>
        <time>2017-01-12T10:58:45Z</time>
      </trkpt>
      <trkpt lat="46.05082" lon="4.54561">
        <ele>582</ele>
        <time>2017-01-12T10:58:53Z</time>
      </trkpt>
      <trkpt lat="46.05081" lon="4.5456">
        <ele>583</ele>
        <time>2017-01-12T10:58:54Z</time>
      </trkpt>
      <trkpt lat="46.05077" lon="4.54549">
        <ele>585</ele>
        <time>2017-01-12T10:59:01Z</time>
      </trkpt>
      <trkpt lat="46.05077" lon="4.54547">
        <ele>585</ele>
        <time>2017-01-12T10:59:02Z</time>
      </trkpt>
      <trkpt lat="46.05075" lon="4.54535">
        <ele>585</ele>
        <time>2017-01-12T10:59:08Z</time>
      </trkpt>
      <trkpt lat="46.05075" lon="4.54533">
        <ele>585</ele>
        <time>2017-01-12T10:59:09Z</time>
      </trkpt>
      <trkpt lat="46.05076" lon="4.54521">
        <ele>582</ele>
        <time>2017-01-12T10:59:16Z</time>
      </trkpt>
      <trkpt lat="46.05076" lon="4.5452">
        <ele>582</ele>
        <time>2017-01-12T10:59:17Z</time>
      </trkpt>
      <trkpt lat="46.05078" lon="4.54507">
        <ele>576</ele>
        <time>2017-01-12T10:59:26Z</time>
      </trkpt>
      <trkpt lat="46.05078" lon="4.54505">
        <ele>576</ele>
        <time>2017-01-12T10:59:27Z</time>
      </trkpt>
      <trkpt lat="46.05079" lon="4.54493">
        <ele>575</ele>
        <time>2017-01-12T10:59:35Z</time>
      </trkpt>
      <trkpt lat="46.05078" lon="4.54491">
        <ele>575</ele>
        <time>2017-01-12T10:59:36Z</time>
      </trkpt>
      <trkpt lat="46.05079" lon="4.5448">
        <ele>579</ele>
        <time>2017-01-12T10:59:43Z</time>
      </trkpt>
      <trkpt lat="46.05079" lon="4.54478">
        <ele>580</ele>
        <time>2017-01-12T10:59:44Z</time>
      </trkpt>
      <trkpt lat="46.05079" lon="4.54467">
        <ele>581</ele>
        <time>2017-01-12T10:59:50Z</time>
      </trkpt>
      <trkpt lat="46.05079" lon="4.54465">
        <ele>581</ele>
        <time>2017-01-12T10:59:51Z</time>
      </trkpt>
      <trkpt lat="46.05081" lon="4.54453">
        <ele>581</ele>
        <time>2017-01-12T11:00:01Z</time>
      </trkpt>
      <trkpt lat="46.05082" lon="4.54452">
        <ele>581</ele>
        <time>2017-01-12T11:00:02Z</time>
      </trkpt>
      <trkpt lat="46.05088" lon="4.54444">
        <ele>571</ele>
        <time>2017-01-12T11:00:23Z</time>
      </trkpt>
      <trkpt lat="46.05089" lon="4.54444">
        <ele>571</ele>
        <time>2017-01-12T11:00:24Z</time>
      </trkpt>
      <trkpt lat="46.05097" lon="4.54444">
        <ele>571</ele>
        <time>2017-01-12T11:00:32Z</time>
      </trkpt>
      <trkpt lat="46.05099" lon="4.54444">
        <ele>571</ele>
        <time>2017-01-12T11:00:33Z</time>
      </trkpt>
      <trkpt lat="46.05107" lon="4.54445">
        <ele>572</ele>
        <time>2017-01-12T11:00:38Z</time>
      </trkpt>
      <trkpt lat="46.05108" lon="4.54445">
        <ele>572</ele>
        <time>2017-01-12T11:00:39Z</time>
      </trkpt>
      <trkpt lat="46.05115" lon="4.54451">
        <ele>572</ele>
        <time>2017-01-12T11:00:48Z</time>
      </trkpt>
      <trkpt lat="46.05116" lon="4.54451">
        <ele>572</ele>
        <time>2017-01-12T11:00:49Z</time>
      </trkpt>
      <trkpt lat="46.05124" lon="4.54455">
        <ele>572</ele>
        <time>2017-01-12T11:00:58Z</time>
      </trkpt>
      <trkpt lat="46.05125" lon="4.54456">
        <ele>572</ele>
        <time>2017-01-12T11:00:59Z</time>
      </trkpt>
      <trkpt lat="46.05132" lon="4.54463">
        <ele>572</ele>
        <time>2017-01-12T11:01:12Z</time>
      </trkpt>
      <trkpt lat="46.05133" lon="4.54463">
        <ele>572</ele>
        <time>2017-01-12T11:01:13Z</time>
      </trkpt>
      <trkpt lat="46.05139" lon="4.54471">
        <ele>571</ele>
        <time>2017-01-12T11:01:22Z</time>
      </trkpt>
      <trkpt lat="46.0514" lon="4.54472">
        <ele>571</ele>
        <time>2017-01-12T11:01:23Z</time>
      </trkpt>
      <trkpt lat="46.05146" lon="4.54479">
        <ele>570</ele>
        <time>2017-01-12T11:01:31Z</time>
      </trkpt>
      <trkpt lat="46.05147" lon="4.5448">
        <ele>570</ele>
        <time>2017-01-12T11:01:32Z</time>
      </trkpt>
      <trkpt lat="46.05155" lon="4.54488">
        <ele>569</ele>
        <time>2017-01-12T11:01:40Z</time>
      </trkpt>
      <trkpt lat="46.05156" lon="4.54489">
        <ele>568</ele>
        <time>2017-01-12T11:01:41Z</time>
      </trkpt>
      <trkpt lat="46.05162" lon="4.54495">
        <ele>567</ele>
        <time>2017-01-12T11:01:47Z</time>
      </trkpt>
      <trkpt lat="46.05163" lon="4.54497">
        <ele>566</ele>
        <time>2017-01-12T11:01:48Z</time>
      </trkpt>
      <trkpt lat="46.05169" lon="4.54504">
        <ele>565</ele>
        <time>2017-01-12T11:01:54Z</time>
      </trkpt>
      <trkpt lat="46.0517" lon="4.54505">
        <ele>565</ele>
        <time>2017-01-12T11:01:55Z</time>
      </trkpt>
      <trkpt lat="46.05177" lon="4.54513">
        <ele>565</ele>
        <time>2017-01-12T11:02:00Z</time>
      </trkpt>
      <trkpt lat="46.05178" lon="4.54514">
        <ele>565</ele>
        <time>2017-01-12T11:02:01Z</time>
      </trkpt>
      <trkpt lat="46.05184" lon="4.54522">
        <ele>564</ele>
        <time>2017-01-12T11:02:07Z</time>
      </trkpt>
      <trkpt lat="46.05186" lon="4.54523">
        <ele>565</ele>
        <time>2017-01-12T11:02:08Z</time>
      </trkpt>
      <trkpt lat="46.05193" lon="4.54526">
        <ele>565</ele>
        <time>2017-01-12T11:02:14Z</time>
      </trkpt>
      <trkpt lat="46.05195" lon="4.54527">
        <ele>565</ele>
        <time>2017-01-12T11:02:15Z</time>
      </trkpt>
      <trkpt lat="46.05203" lon="4.5453">
        <ele>565</ele>
        <time>2017-01-12T11:02:21Z</time>
      </trkpt>
      <trkpt lat="46.05204" lon="4.5453">
        <ele>565</ele>
        <time>2017-01-12T11:02:22Z</time>
      </trkpt>
      <trkpt lat="46.05212" lon="4.54533">
        <ele>566</ele>
        <time>2017-01-12T11:02:28Z</time>
      </trkpt>
      <trkpt lat="46.05213" lon="4.54533">
        <ele>566</ele>
        <time>2017-01-12T11:02:29Z</time>
      </trkpt>
      <trkpt lat="46.05222" lon="4.54536">
        <ele>567</ele>
        <time>2017-01-12T11:02:37Z</time>
      </trkpt>
      <trkpt lat="46.05222" lon="4.54536">
        <ele>567</ele>
        <time>2017-01-12T11:02:38Z</time>
      </trkpt>
      <trkpt lat="46.05231" lon="4.54536">
        <ele>567</ele>
        <time>2017-01-12T11:02:46Z</time>
      </trkpt>
      <trkpt lat="46.05232" lon="4.54535">
        <ele>568</ele>
        <time>2017-01-12T11:02:47Z</time>
      </trkpt>
      <trkpt lat="46.0524" lon="4.54534">
        <ele>569</ele>
        <time>2017-01-12T11:02:54Z</time>
      </trkpt>
      <trkpt lat="46.05241" lon="4.54534">
        <ele>569</ele>
        <time>2017-01-12T11:02:55Z</time>
      </trkpt>
      <trkpt lat="46.05249" lon="4.54533">
        <ele>569</ele>
        <time>2017-01-12T11:03:02Z</time>
      </trkpt>
      <trkpt lat="46.0525" lon="4.54533">
        <ele>581</ele>
        <time>2017-01-12T11:03:03Z</time>
      </trkpt>
      <trkpt lat="46.05258" lon="4.54534">
        <ele>582</ele>
        <time>2017-01-12T11:03:12Z</time>
      </trkpt>
      <trkpt lat="46.05259" lon="4.54534">
        <ele>582</ele>
        <time>2017-01-12T11:03:13Z</time>
      </trkpt>
      <trkpt lat="46.05266" lon="4.54543">
        <ele>581</ele>
        <time>2017-01-12T11:03:21Z</time>
      </trkpt>
      <trkpt lat="46.05266" lon="4.54544">
        <ele>581</ele>
        <time>2017-01-12T11:03:22Z</time>
      </trkpt>
      <trkpt lat="46.0527" lon="4.54554">
        <ele>580</ele>
        <time>2017-01-12T11:03:31Z</time>
      </trkpt>
      <trkpt lat="46.05271" lon="4.54555">
        <ele>579</ele>
        <time>2017-01-12T11:03:32Z</time>
      </trkpt>
      <trkpt lat="46.05274" lon="4.54567">
        <ele>578</ele>
        <time>2017-01-12T11:03:39Z</time>
      </trkpt>
      <trkpt lat="46.05275" lon="4.54568">
        <ele>578</ele>
        <time>2017-01-12T11:03:40Z</time>
      </trkpt>
      <trkpt lat="46.05278" lon="4.5458">
        <ele>578</ele>
        <time>2017-01-12T11:03:46Z</time>
      </trkpt>
      <trkpt lat="46.05279" lon="4.54582">
        <ele>578</ele>
        <time>2017-01-12T11:03:47Z</time>
      </trkpt>
      <trkpt lat="46.05282" lon="4.54593">
        <ele>568</ele>
        <time>2017-01-12T11:03:53Z</time>
      </trkpt>
      <trkpt lat="46.05282" lon="4.54595">
        <ele>568</ele>
        <time>2017-01-12T11:03:54Z</time>
      </trkpt>
      <trkpt lat="46.05286" lon="4.54606">
        <ele>568</ele>
        <time>2017-01-12T11:04:00Z</time>
      </trkpt>
      <trkpt lat="46.05287" lon="4.54608">
        <ele>568</ele>
        <time>2017-01-12T11:04:01Z</time>
      </trkpt>
      <trkpt lat="46.0529" lon="4.54619">
        <ele>567</ele>
        <time>2017-01-12T11:04:07Z</time>
      </trkpt>
      <trkpt lat="46.05291" lon="4.54621">
        <ele>567</ele>
        <time>2017-01-12T11:04:08Z</time>
      </trkpt>
      <trkpt lat="46.05293" lon="4.54632">
        <ele>566</ele>
        <time>2017-01-12T11:04:13Z</time>
      </trkpt>
      <trkpt lat="46.05294" lon="4.54634">
        <ele>566</ele>
        <time>2017-01-12T11:04:14Z</time>
      </trkpt>
      <trkpt lat="46.05298" lon="4.54645">
        <ele>566</ele>
        <time>2017-01-12T11:04:20Z</time>
      </trkpt>
      <trkpt lat="46.05298" lon="4.54647">
        <ele>566</ele>
        <time>2017-01-12T11:04:21Z</time>
      </trkpt>
      <trkpt lat="46.053" lon="4.54658">
        <ele>566</ele>
        <time>2017-01-12T11:04:27Z</time>
      </trkpt>
      <trkpt lat="46.053" lon="4.5466">
        <ele>566</ele>
        <time>2017-01-12T11:04:28Z</time>
      </trkpt>
      <trkpt lat="46.05302" lon="4.54671">
        <ele>555</ele>
        <time>2017-01-12T11:04:34Z</time>
      </trkpt>
      <trkpt lat="46.05302" lon="4.54673">
        <ele>555</ele>
        <time>2017-01-12T11:04:35Z</time>
      </trkpt>
      <trkpt lat="46.05306" lon="4.54683">
        <ele>555</ele>
        <time>2017-01-12T11:04:41Z</time>
      </trkpt>
      <trkpt lat="46.05306" lon="4.54685">
        <ele>555</ele>
        <time>2017-01-12T11:04:42Z</time>
      </trkpt>
      <trkpt lat="46.0531" lon="4.54694">
        <ele>555</ele>
        <time>2017-01-12T11:04:48Z</time>
      </trkpt>
      <trkpt lat="46.05311" lon="4.54696">
        <ele>554</ele>
        <time>2017-01-12T11:04:49Z</time>
      </trkpt>
      <trkpt lat="46.05315" lon="4.54705">
        <ele>554</ele>
        <time>2017-01-12T11:04:54Z</time>
      </trkpt>
      <trkpt lat="46.05316" lon="4.54707">
        <ele>553</ele>
        <time>2017-01-12T11:04:55Z</time>
      </trkpt>
      <trkpt lat="46.05322" lon="4.54717">
        <ele>553</ele>
        <time>2017-01-12T11:05:01Z</time>
      </trkpt>
      <trkpt lat="46.05323" lon="4.54719">
        <ele>553</ele>
        <time>2017-01-12T11:05:02Z</time>
      </trkpt>
      <trkpt lat="46.05328" lon="4.54728">
        <ele>553</ele>
        <time>2017-01-12T11:05:08Z</time>
      </trkpt>
      <trkpt lat="46.05329" lon="4.5473">
        <ele>553</ele>
        <time>2017-01-12T11:05:09Z</time>
      </trkpt>
      <trkpt lat="46.05333" lon="4.54739">
        <ele>562</ele>
        <time>2017-01-12T11:05:15Z</time>
      </trkpt>
      <trkpt lat="46.05334" lon="4.54741">
        <ele>561</ele>
        <time>2017-01-12T11:05:16Z</time>
      </trkpt>
      <trkpt lat="46.05338" lon="4.54751">
        <ele>555</ele>
        <time>2017-01-12T11:05:22Z</time>
      </trkpt>
      <trkpt lat="46.05339" lon="4.54753">
        <ele>555</ele>
        <time>2017-01-12T11:05:23Z</time>
      </trkpt>
      <trkpt lat="46.05345" lon="4.54762">
        <ele>555</ele>
        <time>2017-01-12T11:05:30Z</time>
      </trkpt>
      <trkpt lat="46.05345" lon="4.54763">
        <ele>555</ele>
        <time>2017-01-12T11:05:31Z</time>
      </trkpt>
      <trkpt lat="46.05349" lon="4.54773">
        <ele>554</ele>
        <time>2017-01-12T11:05:39Z</time>
      </trkpt>
      <trkpt lat="46.0535" lon="4.54775">
        <ele>554</ele>
        <time>2017-01-12T11:05:40Z</time>
      </trkpt>
      <trkpt lat="46.05357" lon="4.54781">
        <ele>554</ele>
        <time>2017-01-12T11:05:46Z</time>
      </trkpt>
      <trkpt lat="46.05358" lon="4.54782">
        <ele>554</ele>
        <time>2017-01-12T11:05:47Z</time>
      </trkpt>
      <trkpt lat="46.05366" lon="4.54786">
        <ele>554</ele>
        <time>2017-01-12T11:05:53Z</time>
      </trkpt>
      <trkpt lat="46.05368" lon="4.54786">
        <ele>554</ele>
        <time>2017-01-12T11:05:54Z</time>
      </trkpt>
      <trkpt lat="46.05376" lon="4.54788">
        <ele>555</ele>
        <time>2017-01-12T11:06:00Z</time>
      </trkpt>
      <trkpt lat="46.05377" lon="4.54788">
        <ele>555</ele>
        <time>2017-01-12T11:06:01Z</time>
      </trkpt>
      <trkpt lat="46.05385" lon="4.54791">
        <ele>556</ele>
        <time>2017-01-12T11:06:07Z</time>
      </trkpt>
      <trkpt lat="46.05387" lon="4.54792">
        <ele>556</ele>
        <time>2017-01-12T11:06:08Z</time>
      </trkpt>
      <trkpt lat="46.05394" lon="4.54797">
        <ele>556</ele>
        <time>2017-01-12T11:06:14Z</time>
      </trkpt>
      <trkpt lat="46.05395" lon="4.54799">
        <ele>556</ele>
        <time>2017-01-12T11:06:15Z</time>
      </trkpt>
      <trkpt lat="46.05401" lon="4.54808">
        <ele>555</ele>
        <time>2017-01-12T11:06:23Z</time>
      </trkpt>
      <trkpt lat="46.05401" lon="4.5481">
        <ele>555</ele>
        <time>2017-01-12T11:06:24Z</time>
      </trkpt>
      <trkpt lat="46.05404" lon="4.5482">
        <ele>555</ele>
        <time>2017-01-12T11:06:33Z</time>
      </trkpt>
      <trkpt lat="46.05405" lon="4.54822">
        <ele>555</ele>
        <time>2017-01-12T11:06:34Z</time>
      </trkpt>
      <trkpt lat="46.05405" lon="4.54834">
        <ele>551</ele>
        <time>2017-01-12T11:06:42Z</time>
      </trkpt>
      <trkpt lat="46.05405" lon="4.54835">
        <ele>551</ele>
        <time>2017-01-12T11:06:43Z</time>
      </trkpt>
      <trkpt lat="46.05405" lon="4.54847">
        <ele>550</ele>
        <time>2017-01-12T11:06:50Z</time>
      </trkpt>
      <trkpt lat="46.05405" lon="4.54848">
        <ele>549</ele>
        <time>2017-01-12T11:06:51Z</time>
      </trkpt>
      <trkpt lat="46.05402" lon="4.5486">
        <ele>548</ele>
        <time>2017-01-12T11:06:58Z</time>
      </trkpt>
      <trkpt lat="46.05402" lon="4.54861">
        <ele>548</ele>
        <time>2017-01-12T11:06:59Z</time>
      </trkpt>
      <trkpt lat="46.05399" lon="4.54872">
        <ele>547</ele>
        <time>2017-01-12T11:07:06Z</time>
      </trkpt>
      <trkpt lat="46.05398" lon="4.54873">
        <ele>547</ele>
        <time>2017-01-12T11:07:07Z</time>
      </trkpt>
      <trkpt lat="46.05394" lon="4.54884">
        <ele>546</ele>
        <time>2017-01-12T11:07:14Z</time>
      </trkpt>
      <trkpt lat="46.05393" lon="4.54885">
        <ele>546</ele>
        <time>2017-01-12T11:07:15Z</time>
      </trkpt>
      <trkpt lat="46.05387" lon="4.54894">
        <ele>546</ele>
        <time>2017-01-12T11:07:23Z</time>
      </trkpt>
      <trkpt lat="46.05387" lon="4.54895">
        <ele>546</ele>
        <time>2017-01-12T11:07:24Z</time>
      </trkpt>
      <trkpt lat="46.05385" lon="4.54906">
        <ele>545</ele>
        <time>2017-01-12T11:07:31Z</time>
      </trkpt>
      <trkpt lat="46.05384" lon="4.54908">
        <ele>545</ele>
        <time>2017-01-12T11:07:32Z</time>
      </trkpt>
      <trkpt lat="46.0538" lon="4.54919">
        <ele>541</ele>
        <time>2017-01-12T11:07:40Z</time>
      </trkpt>
      <trkpt lat="46.0538" lon="4.54921">
        <ele>541</ele>
        <time>2017-01-12T11:07:41Z</time>
      </trkpt>
      <trkpt lat="46.0538" lon="4.54932">
        <ele>540</ele>
        <time>2017-01-12T11:07:47Z</time>
      </trkpt>
      <trkpt lat="46.0538" lon="4.54934">
        <ele>540</ele>
        <time>2017-01-12T11:07:48Z</time>
      </trkpt>
      <trkpt lat="46.05381" lon="4.54946">
        <ele>540</ele>
        <time>2017-01-12T11:07:54Z</time>
      </trkpt>
      <trkpt lat="46.05381" lon="4.54948">
        <ele>540</ele>
        <time>2017-01-12T11:07:55Z</time>
      </trkpt>
      <trkpt lat="46.0538" lon="4.5496">
        <ele>539</ele>
        <time>2017-01-12T11:08:04Z</time>
      </trkpt>
      <trkpt lat="46.0538" lon="4.54961">
        <ele>539</ele>
        <time>2017-01-12T11:08:05Z</time>
      </trkpt>
      <trkpt lat="46.0538" lon="4.54973">
        <ele>539</ele>
        <time>2017-01-12T11:08:15Z</time>
      </trkpt>
      <trkpt lat="46.0538" lon="4.54974">
        <ele>539</ele>
        <time>2017-01-12T11:08:16Z</time>
      </trkpt>
      <trkpt lat="46.05381" lon="4.54987">
        <ele>539</ele>
        <time>2017-01-12T11:08:23Z</time>
      </trkpt>
      <trkpt lat="46.05381" lon="4.54989">
        <ele>539</ele>
        <time>2017-01-12T11:08:24Z</time>
      </trkpt>
      <trkpt lat="46.05382" lon="4.55001">
        <ele>533</ele>
        <time>2017-01-12T11:08:31Z</time>
      </trkpt>
      <trkpt lat="46.05383" lon="4.55002">
        <ele>533</ele>
        <time>2017-01-12T11:08:32Z</time>
      </trkpt>
      <trkpt lat="46.05383" lon="4.55015">
        <ele>532</ele>
        <time>2017-01-12T11:08:41Z</time>
      </trkpt>
      <trkpt lat="46.05383" lon="4.55016">
        <ele>532</ele>
        <time>2017-01-12T11:08:42Z</time>
      </trkpt>
      <trkpt lat="46.05375" lon="4.55013">
        <ele>530</ele>
        <time>2017-01-12T11:08:56Z</time>
      </trkpt>
      <trkpt lat="46.05374" lon="4.55012">
        <ele>530</ele>
        <time>2017-01-12T11:08:57Z</time>
      </trkpt>
      <trkpt lat="46.05368" lon="4.55003">
        <ele>528</ele>
        <time>2017-01-12T11:09:05Z</time>
      </trkpt>
      <trkpt lat="46.05368" lon="4.55002">
        <ele>528</ele>
        <time>2017-01-12T11:09:06Z</time>
      </trkpt>
      <trkpt lat="46.05362" lon="4.54993">
        <ele>533</ele>
        <time>2017-01-12T11:09:14Z</time>
      </trkpt>
      <trkpt lat="46.05362" lon="4.54991">
        <ele>533</ele>
        <time>2017-01-12T11:09:15Z</time>
      </trkpt>
      <trkpt lat="46.05358" lon="4.5498">
        <ele>533</ele>
        <time>2017-01-12T11:09:24Z</time>
      </trkpt>
      <trkpt lat="46.05358" lon="4.54979">
        <ele>533</ele>
        <time>2017-01-12T11:09:25Z</time>
      </trkpt>
      <trkpt lat="46.05355" lon="4.54968">
        <ele>534</ele>
        <time>2017-01-12T11:09:35Z</time>
      </trkpt>
      <trkpt lat="46.05355" lon="4.54967">
        <ele>534</ele>
        <time>2017-01-12T11:09:36Z</time>
      </trkpt>
      <trkpt lat="46.05347" lon="4.54971">
        <ele>532</ele>
        <time>2017-01-12T11:09:49Z</time>
      </trkpt>
      <trkpt lat="46.05347" lon="4.54973">
        <ele>532</ele>
        <time>2017-01-12T11:09:50Z</time>
      </trkpt>
      <trkpt lat="46.05346" lon="4.54985">
        <ele>529</ele>
        <time>2017-01-12T11:09:59Z</time>
      </trkpt>
      <trkpt lat="46.05346" lon="4.54986">
        <ele>529</ele>
        <time>2017-01-12T11:10:00Z</time>
      </trkpt>
      <trkpt lat="46.05343" lon="4.54997">
        <ele>525</ele>
        <time>2017-01-12T11:10:10Z</time>
      </trkpt>
      <trkpt lat="46.05343" lon="4.54999">
        <ele>525</ele>
        <time>2017-01-12T11:10:11Z</time>
      </trkpt>
      <trkpt lat="46.0534" lon="4.5501">
        <ele>522</ele>
        <time>2017-01-12T11:10:20Z</time>
      </trkpt>
      <trkpt lat="46.0534" lon="4.55011">
        <ele>522</ele>
        <time>2017-01-12T11:10:21Z</time>
      </trkpt>
      <trkpt lat="46.05341" lon="4.55023">
        <ele>523</ele>
        <time>2017-01-12T11:10:30Z</time>
      </trkpt>
      <trkpt lat="46.05341" lon="4.55024">
        <ele>523</ele>
        <time>2017-01-12T11:10:31Z</time>
      </trkpt>
      <trkpt lat="46.05341" lon="4.55037">
        <ele>523</ele>
        <time>2017-01-12T11:10:39Z</time>
      </trkpt>
      <trkpt lat="46.05342" lon="4.55038">
        <ele>523</ele>
        <time>2017-01-12T11:10:40Z</time>
      </trkpt>
      <trkpt lat="46.05341" lon="4.55051">
        <ele>522</ele>
        <time>2017-01-12T11:10:48Z</time>
      </trkpt>
      <trkpt lat="46.05341" lon="4.55052">
        <ele>522</ele>
        <time>2017-01-12T11:10:49Z</time>
      </trkpt>
      <trkpt lat="46.0534" lon="4.55065">
        <ele>519</ele>
        <time>2017-01-12T11:11:00Z</time>
      </trkpt>
      <trkpt lat="46.0534" lon="4.55066">
        <ele>519</ele>
        <time>2017-01-12T11:11:01Z</time>
      </trkpt>
      <trkpt lat="46.05338" lon="4.55078">
        <ele>514</ele>
        <time>2017-01-12T11:11:13Z</time>
      </trkpt>
      <trkpt lat="46.05338" lon="4.55079">
        <ele>513</ele>
        <time>2017-01-12T11:11:14Z</time>
      </trkpt>
      <trkpt lat="46.05335" lon="4.5509">
        <ele>510</ele>
        <time>2017-01-12T11:11:27Z</time>
      </trkpt>
      <trkpt lat="46.05335" lon="4.55092">
        <ele>510</ele>
        <time>2017-01-12T11:11:28Z</time>
      </trkpt>
      <trkpt lat="46.05336" lon="4.55104">
        <ele>509</ele>
        <time>2017-01-12T11:11:36Z</time>
      </trkpt>
      <trkpt lat="46.05336" lon="4.55106">
        <ele>509</ele>
        <time>2017-01-12T11:11:37Z</time>
      </trkpt>
      <trkpt lat="46.05339" lon="4.55117">
        <ele>508</ele>
        <time>2017-01-12T11:11:45Z</time>
      </trkpt>
      <trkpt lat="46.05339" lon="4.55118">
        <ele>508</ele>
        <time>2017-01-12T11:11:46Z</time>
      </trkpt>
      <trkpt lat="46.05342" lon="4.55129">
        <ele>507</ele>
        <time>2017-01-12T11:11:55Z</time>
      </trkpt>
      <trkpt lat="46.05342" lon="4.55131">
        <ele>506</ele>
        <time>2017-01-12T11:11:56Z</time>
      </trkpt>
      <trkpt lat="46.05346" lon="4.55141">
        <ele>504</ele>
        <time>2017-01-12T11:12:03Z</time>
      </trkpt>
      <trkpt lat="46.05346" lon="4.55142">
        <ele>504</ele>
        <time>2017-01-12T11:12:04Z</time>
      </trkpt>
      <trkpt lat="46.05349" lon="4.55154">
        <ele>502</ele>
        <time>2017-01-12T11:12:12Z</time>
      </trkpt>
      <trkpt lat="46.05349" lon="4.55155">
        <ele>501</ele>
        <time>2017-01-12T11:12:13Z</time>
      </trkpt>
      <trkpt lat="46.05351" lon="4.55168">
        <ele>491</ele>
        <time>2017-01-12T11:12:22Z</time>
      </trkpt>
      <trkpt lat="46.05351" lon="4.55169">
        <ele>491</ele>
        <time>2017-01-12T11:12:23Z</time>
      </trkpt>
      <trkpt lat="46.05351" lon="4.55181">
        <ele>490</ele>
        <time>2017-01-12T11:12:31Z</time>
      </trkpt>
      <trkpt lat="46.05351" lon="4.55182">
        <ele>490</ele>
        <time>2017-01-12T11:12:32Z</time>
      </trkpt>
      <trkpt lat="46.05354" lon="4.55193">
        <ele>490</ele>
        <time>2017-01-12T11:12:39Z</time>
      </trkpt>
      <trkpt lat="46.05354" lon="4.55195">
        <ele>490</ele>
        <time>2017-01-12T11:12:40Z</time>
      </trkpt>
      <trkpt lat="46.05358" lon="4.55205">
        <ele>489</ele>
        <time>2017-01-12T11:12:48Z</time>
      </trkpt>
      <trkpt lat="46.05358" lon="4.55206">
        <ele>489</ele>
        <time>2017-01-12T11:12:49Z</time>
      </trkpt>
      <trkpt lat="46.05365" lon="4.55213">
        <ele>489</ele>
        <time>2017-01-12T11:12:56Z</time>
      </trkpt>
      <trkpt lat="46.05366" lon="4.55214">
        <ele>489</ele>
        <time>2017-01-12T11:12:57Z</time>
      </trkpt>
      <trkpt lat="46.05373" lon="4.5522">
        <ele>489</ele>
        <time>2017-01-12T11:13:04Z</time>
      </trkpt>
      <trkpt lat="46.05374" lon="4.55221">
        <ele>489</ele>
        <time>2017-01-12T11:13:05Z</time>
      </trkpt>
      <trkpt lat="46.05381" lon="4.55229">
        <ele>489</ele>
        <time>2017-01-12T11:13:12Z</time>
      </trkpt>
      <trkpt lat="46.05382" lon="4.5523">
        <ele>490</ele>
        <time>2017-01-12T11:13:13Z</time>
      </trkpt>
      <trkpt lat="46.05387" lon="4.55238">
        <ele>490</ele>
        <time>2017-01-12T11:13:19Z</time>
      </trkpt>
      <trkpt lat="46.05388" lon="4.55239">
        <ele>490</ele>
        <time>2017-01-12T11:13:20Z</time>
      </trkpt>
      <trkpt lat="46.05393" lon="4.55247">
        <ele>490</ele>
        <time>2017-01-12T11:13:26Z</time>
      </trkpt>
      <trkpt lat="46.05394" lon="4.55249">
        <ele>490</ele>
        <time>2017-01-12T11:13:27Z</time>
      </trkpt>
      <trkpt lat="46.054" lon="4.55257">
        <ele>480</ele>
        <time>2017-01-12T11:13:33Z</time>
      </trkpt>
      <trkpt lat="46.05401" lon="4.55258">
        <ele>480</ele>
        <time>2017-01-12T11:13:34Z</time>
      </trkpt>
      <trkpt lat="46.05408" lon="4.55265">
        <ele>481</ele>
        <time>2017-01-12T11:13:41Z</time>
      </trkpt>
      <trkpt lat="46.05409" lon="4.55265">
        <ele>481</ele>
        <time>2017-01-12T11:13:42Z</time>
      </trkpt>
      <trkpt lat="46.05416" lon="4.5527">
        <ele>480</ele>
        <time>2017-01-12T11:13:50Z</time>
      </trkpt>
      <trkpt lat="46.05417" lon="4.55271">
        <ele>489</ele>
        <time>2017-01-12T11:13:51Z</time>
      </trkpt>
      <trkpt lat="46.05425" lon="4.55275">
        <ele>489</ele>
        <time>2017-01-12T11:13:59Z</time>
      </trkpt>
      <trkpt lat="46.05426" lon="4.55276">
        <ele>489</ele>
        <time>2017-01-12T11:14:00Z</time>
      </trkpt>
      <trkpt lat="46.05433" lon="4.55281">
        <ele>488</ele>
        <time>2017-01-12T11:14:06Z</time>
      </trkpt>
      <trkpt lat="46.05434" lon="4.55282">
        <ele>488</ele>
        <time>2017-01-12T11:14:07Z</time>
      </trkpt>
      <trkpt lat="46.05442" lon="4.55289">
        <ele>487</ele>
        <time>2017-01-12T11:14:14Z</time>
      </trkpt>
      <trkpt lat="46.05443" lon="4.55289">
        <ele>487</ele>
        <time>2017-01-12T11:14:15Z</time>
      </trkpt>
      <trkpt lat="46.05449" lon="4.55297">
        <ele>487</ele>
        <time>2017-01-12T11:14:23Z</time>
      </trkpt>
      <trkpt lat="46.05449" lon="4.55298">
        <ele>487</ele>
        <time>2017-01-12T11:14:24Z</time>
      </trkpt>
      <trkpt lat="46.05452" lon="4.5531">
        <ele>485</ele>
        <time>2017-01-12T11:14:34Z</time>
      </trkpt>
      <trkpt lat="46.05453" lon="4.55311">
        <ele>485</ele>
        <time>2017-01-12T11:14:35Z</time>
      </trkpt>
      <trkpt lat="46.05455" lon="4.55323">
        <ele>484</ele>
        <time>2017-01-12T11:14:43Z</time>
      </trkpt>
      <trkpt lat="46.05455" lon="4.55325">
        <ele>484</ele>
        <time>2017-01-12T11:14:44Z</time>
      </trkpt>
      <trkpt lat="46.05457" lon="4.55336">
        <ele>468</ele>
        <time>2017-01-12T11:14:52Z</time>
      </trkpt>
      <trkpt lat="46.05457" lon="4.55337">
        <ele>468</ele>
        <time>2017-01-12T11:14:53Z</time>
      </trkpt>
      <trkpt lat="46.0546" lon="4.55348">
        <ele>468</ele>
        <time>2017-01-12T11:15:00Z</time>
      </trkpt>
      <trkpt lat="46.0546" lon="4.5535">
        <ele>468</ele>
        <time>2017-01-12T11:15:01Z</time>
      </trkpt>
      <trkpt lat="46.05461" lon="4.55362">
        <ele>467</ele>
        <time>2017-01-12T11:15:08Z</time>
      </trkpt>
      <trkpt lat="46.05461" lon="4.55363">
        <ele>466</ele>
        <time>2017-01-12T11:15:09Z</time>
      </trkpt>
      <trkpt lat="46.05462" lon="4.55375">
        <ele>465</ele>
        <time>2017-01-12T11:15:16Z</time>
      </trkpt>
      <trkpt lat="46.05462" lon="4.55376">
        <ele>465</ele>
        <time>2017-01-12T11:15:17Z</time>
      </trkpt>
      <trkpt lat="46.05467" lon="4.55386">
        <ele>464</ele>
        <time>2017-01-12T11:15:24Z</time>
      </trkpt>
      <trkpt lat="46.05468" lon="4.55387">
        <ele>464</ele>
        <time>2017-01-12T11:15:25Z</time>
      </trkpt>
      <trkpt lat="46.05473" lon="4.55396">
        <ele>464</ele>
        <time>2017-01-12T11:15:31Z</time>
      </trkpt>
      <trkpt lat="46.05474" lon="4.55397">
        <ele>464</ele>
        <time>2017-01-12T11:15:32Z</time>
      </trkpt>
      <trkpt lat="46.0548" lon="4.55405">
        <ele>463</ele>
        <time>2017-01-12T11:15:38Z</time>
      </trkpt>
      <trkpt lat="46.05481" lon="4.55407">
        <ele>463</ele>
        <time>2017-01-12T11:15:39Z</time>
      </trkpt>
      <trkpt lat="46.05485" lon="4.55418">
        <ele>456</ele>
        <time>2017-01-12T11:15:45Z</time>
      </trkpt>
      <trkpt lat="46.05486" lon="4.55419">
        <ele>456</ele>
        <time>2017-01-12T11:15:46Z</time>
      </trkpt>
      <trkpt lat="46.05491" lon="4.55428">
        <ele>456</ele>
        <time>2017-01-12T11:15:52Z</time>
      </trkpt>
      <trkpt lat="46.05492" lon="4.55429">
        <ele>456</ele>
        <time>2017-01-12T11:15:53Z</time>
      </trkpt>
      <trkpt lat="46.05499" lon="4.55437">
        <ele>455</ele>
        <time>2017-01-12T11:16:00Z</time>
      </trkpt>
      <trkpt lat="46.055" lon="4.55438">
        <ele>461</ele>
        <time>2017-01-12T11:16:01Z</time>
      </trkpt>
      <trkpt lat="46.05506" lon="4.55448">
        <ele>460</ele>
        <time>2017-01-12T11:16:08Z</time>
      </trkpt>
      <trkpt lat="46.05506" lon="4.55449">
        <ele>460</ele>
        <time>2017-01-12T11:16:09Z</time>
      </trkpt>
      <trkpt lat="46.05509" lon="4.5546">
        <ele>458</ele>
        <time>2017-01-12T11:16:16Z</time>
      </trkpt>
      <trkpt lat="46.0551" lon="4.55461">
        <ele>458</ele>
        <time>2017-01-12T11:16:17Z</time>
      </trkpt>
      <trkpt lat="46.05514" lon="4.55472">
        <ele>456</ele>
        <time>2017-01-12T11:16:26Z</time>
      </trkpt>
      <trkpt lat="46.05514" lon="4.55473">
        <ele>456</ele>
        <time>2017-01-12T11:16:27Z</time>
      </trkpt>
      <trkpt lat="46.05517" lon="4.55484">
        <ele>453</ele>
        <time>2017-01-12T11:16:35Z</time>
      </trkpt>
      <trkpt lat="46.05517" lon="4.55485">
        <ele>453</ele>
        <time>2017-01-12T11:16:36Z</time>
      </trkpt>
      <trkpt lat="46.0552" lon="4.55497">
        <ele>452</ele>
        <time>2017-01-12T11:16:45Z</time>
      </trkpt>
      <trkpt lat="46.0552" lon="4.55498">
        <ele>452</ele>
        <time>2017-01-12T11:16:46Z</time>
      </trkpt>
      <trkpt lat="46.05526" lon="4.55507">
        <ele>443</ele>
        <time>2017-01-12T11:16:53Z</time>
      </trkpt>
      <trkpt lat="46.05527" lon="4.55508">
        <ele>443</ele>
        <time>2017-01-12T11:16:54Z</time>
      </trkpt>
      <trkpt lat="46.05532" lon="4.55519">
        <ele>443</ele>
        <time>2017-01-12T11:17:02Z</time>
      </trkpt>
      <trkpt lat="46.05532" lon="4.5552">
        <ele>443</ele>
        <time>2017-01-12T11:17:03Z</time>
      </trkpt>
      <trkpt lat="46.05537" lon="4.5553">
        <ele>442</ele>
        <time>2017-01-12T11:17:13Z</time>
      </trkpt>
      <trkpt lat="46.05537" lon="4.55531">
        <ele>442</ele>
        <time>2017-01-12T11:17:14Z</time>
      </trkpt>
      <trkpt lat="46.05542" lon="4.55542">
        <ele>442</ele>
        <time>2017-01-12T11:17:25Z</time>
      </trkpt>
      <trkpt lat="46.05542" lon="4.55543">
        <ele>442</ele>
        <time>2017-01-12T11:17:26Z</time>
      </trkpt>
      <trkpt lat="46.05547" lon="4.55552">
        <ele>441</ele>
        <time>2017-01-12T11:17:34Z</time>
      </trkpt>
      <trkpt lat="46.05548" lon="4.55553">
        <ele>441</ele>
        <time>2017-01-12T11:17:35Z</time>
      </trkpt>
      <trkpt lat="46.05555" lon="4.55561">
        <ele>441</ele>
        <time>2017-01-12T11:17:43Z</time>
      </trkpt>
      <trkpt lat="46.05556" lon="4.55562">
        <ele>441</ele>
        <time>2017-01-12T11:17:44Z</time>
      </trkpt>
      <trkpt lat="46.05562" lon="4.55571">
        <ele>440</ele>
        <time>2017-01-12T11:18:18Z</time>
      </trkpt>
      <trkpt lat="46.05563" lon="4.5557">
        <ele>440</ele>
        <time>2017-01-12T11:18:19Z</time>
      </trkpt>
      <trkpt lat="46.05571" lon="4.55574">
        <ele>440</ele>
        <time>2017-01-12T11:18:31Z</time>
      </trkpt>
      <trkpt lat="46.05572" lon="4.55574">
        <ele>440</ele>
        <time>2017-01-12T11:18:32Z</time>
      </trkpt>
      <trkpt lat="46.05581" lon="4.55576">
        <ele>439</ele>
        <time>2017-01-12T11:18:40Z</time>
      </trkpt>
      <trkpt lat="46.05582" lon="4.55575">
        <ele>439</ele>
        <time>2017-01-12T11:18:41Z</time>
      </trkpt>
      <trkpt lat="46.05589" lon="4.55574">
        <ele>442</ele>
        <time>2017-01-12T11:18:48Z</time>
      </trkpt>
      <trkpt lat="46.05591" lon="4.55573">
        <ele>443</ele>
        <time>2017-01-12T11:18:49Z</time>
      </trkpt>
      <trkpt lat="46.05598" lon="4.55569">
        <ele>445</ele>
        <time>2017-01-12T11:18:55Z</time>
      </trkpt>
      <trkpt lat="46.056" lon="4.55568">
        <ele>445</ele>
        <time>2017-01-12T11:18:56Z</time>
      </trkpt>
      <trkpt lat="46.05606" lon="4.55561">
        <ele>447</ele>
        <time>2017-01-12T11:19:03Z</time>
      </trkpt>
      <trkpt lat="46.05607" lon="4.5556">
        <ele>447</ele>
        <time>2017-01-12T11:19:04Z</time>
      </trkpt>
      <trkpt lat="46.05614" lon="4.55555">
        <ele>448</ele>
        <time>2017-01-12T11:19:11Z</time>
      </trkpt>
      <trkpt lat="46.05615" lon="4.55554">
        <ele>448</ele>
        <time>2017-01-12T11:19:12Z</time>
      </trkpt>
      <trkpt lat="46.05624" lon="4.55553">
        <ele>449</ele>
        <time>2017-01-12T11:19:19Z</time>
      </trkpt>
      <trkpt lat="46.05625" lon="4.55553">
        <ele>448</ele>
        <time>2017-01-12T11:19:20Z</time>
      </trkpt>
      <trkpt lat="46.05633" lon="4.55553">
        <ele>449</ele>
        <time>2017-01-12T11:19:28Z</time>
      </trkpt>
      <trkpt lat="46.05634" lon="4.55552">
        <ele>449</ele>
        <time>2017-01-12T11:19:29Z</time>
      </trkpt>
      <trkpt lat="46.05643" lon="4.5555">
        <ele>449</ele>
        <time>2017-01-12T11:19:38Z</time>
      </trkpt>
      <trkpt lat="46.05644" lon="4.5555">
        <ele>449</ele>
        <time>2017-01-12T11:19:39Z</time>
      </trkpt>
      <trkpt lat="46.05652" lon="4.55547">
        <ele>449</ele>
        <time>2017-01-12T11:19:47Z</time>
      </trkpt>
      <trkpt lat="46.05653" lon="4.55547">
        <ele>449</ele>
        <time>2017-01-12T11:19:48Z</time>
      </trkpt>
      <trkpt lat="46.05661" lon="4.55547">
        <ele>449</ele>
        <time>2017-01-12T11:19:55Z</time>
      </trkpt>
      <trkpt lat="46.05663" lon="4.55547">
        <ele>449</ele>
        <time>2017-01-12T11:19:56Z</time>
      </trkpt>
      <trkpt lat="46.05671" lon="4.55545">
        <ele>450</ele>
        <time>2017-01-12T11:20:04Z</time>
      </trkpt>
      <trkpt lat="46.05672" lon="4.55544">
        <ele>450</ele>
        <time>2017-01-12T11:20:05Z</time>
      </trkpt>
      <trkpt lat="46.0568" lon="4.55542">
        <ele>450</ele>
        <time>2017-01-12T11:20:13Z</time>
      </trkpt>
      <trkpt lat="46.05681" lon="4.55542">
        <ele>450</ele>
        <time>2017-01-12T11:20:14Z</time>
      </trkpt>
      <trkpt lat="46.05688" lon="4.55534">
        <ele>451</ele>
        <time>2017-01-12T11:20:22Z</time>
      </trkpt>
      <trkpt lat="46.05689" lon="4.55534">
        <ele>451</ele>
        <time>2017-01-12T11:20:23Z</time>
      </trkpt>
      <trkpt lat="46.05697" lon="4.55534">
        <ele>451</ele>
        <time>2017-01-12T11:20:31Z</time>
      </trkpt>
      <trkpt lat="46.05698" lon="4.55535">
        <ele>451</ele>
        <time>2017-01-12T11:20:32Z</time>
      </trkpt>
      <trkpt lat="46.05706" lon="4.55537">
        <ele>450</ele>
        <time>2017-01-12T11:20:40Z</time>
      </trkpt>
      <trkpt lat="46.05707" lon="4.55537">
        <ele>450</ele>
        <time>2017-01-12T11:20:41Z</time>
      </trkpt>
      <trkpt lat="46.05713" lon="4.55545">
        <ele>450</ele>
        <time>2017-01-12T11:20:49Z</time>
      </trkpt>
      <trkpt lat="46.05714" lon="4.55546">
        <ele>450</ele>
        <time>2017-01-12T11:20:50Z</time>
      </trkpt>
      <trkpt lat="46.0572" lon="4.55555">
        <ele>449</ele>
        <time>2017-01-12T11:20:58Z</time>
      </trkpt>
      <trkpt lat="46.05721" lon="4.55556">
        <ele>449</ele>
        <time>2017-01-12T11:20:59Z</time>
      </trkpt>
      <trkpt lat="46.05725" lon="4.55566">
        <ele>448</ele>
        <time>2017-01-12T11:21:06Z</time>
      </trkpt>
      <trkpt lat="46.05725" lon="4.55567">
        <ele>448</ele>
        <time>2017-01-12T11:21:07Z</time>
      </trkpt>
      <trkpt lat="46.05726" lon="4.5558">
        <ele>447</ele>
        <time>2017-01-12T11:21:17Z</time>
      </trkpt>
      <trkpt lat="46.05726" lon="4.55581">
        <ele>447</ele>
        <time>2017-01-12T11:21:18Z</time>
      </trkpt>
      <trkpt lat="46.05728" lon="4.55593">
        <ele>441</ele>
        <time>2017-01-12T11:21:26Z</time>
      </trkpt>
      <trkpt lat="46.05729" lon="4.55595">
        <ele>441</ele>
        <time>2017-01-12T11:21:27Z</time>
      </trkpt>
      <trkpt lat="46.05731" lon="4.55606">
        <ele>441</ele>
        <time>2017-01-12T11:21:34Z</time>
      </trkpt>
      <trkpt lat="46.05732" lon="4.55608">
        <ele>441</ele>
        <time>2017-01-12T11:21:35Z</time>
      </trkpt>
      <trkpt lat="46.05736" lon="4.55619">
        <ele>440</ele>
        <time>2017-01-12T11:21:42Z</time>
      </trkpt>
      <trkpt lat="46.05736" lon="4.5562">
        <ele>440</ele>
        <time>2017-01-12T11:21:43Z</time>
      </trkpt>
      <trkpt lat="46.05738" lon="4.55633">
        <ele>439</ele>
        <time>2017-01-12T11:21:51Z</time>
      </trkpt>
      <trkpt lat="46.05738" lon="4.55634">
        <ele>439</ele>
        <time>2017-01-12T11:21:52Z</time>
      </trkpt>
      <trkpt lat="46.05741" lon="4.55646">
        <ele>439</ele>
        <time>2017-01-12T11:21:59Z</time>
      </trkpt>
      <trkpt lat="46.05742" lon="4.55647">
        <ele>439</ele>
        <time>2017-01-12T11:22:00Z</time>
      </trkpt>
      <trkpt lat="46.05743" lon="4.55658">
        <ele>438</ele>
        <time>2017-01-12T11:22:07Z</time>
      </trkpt>
      <trkpt lat="46.05743" lon="4.5566">
        <ele>438</ele>
        <time>2017-01-12T11:22:08Z</time>
      </trkpt>
      <trkpt lat="46.05744" lon="4.55672">
        <ele>435</ele>
        <time>2017-01-12T11:22:16Z</time>
      </trkpt>
      <trkpt lat="46.05744" lon="4.55674">
        <ele>435</ele>
        <time>2017-01-12T11:22:17Z</time>
      </trkpt>
      <trkpt lat="46.05746" lon="4.55686">
        <ele>433</ele>
        <time>2017-01-12T11:22:24Z</time>
      </trkpt>
      <trkpt lat="46.05746" lon="4.55687">
        <ele>433</ele>
        <time>2017-01-12T11:22:25Z</time>
      </trkpt>
      <trkpt lat="46.05747" lon="4.557">
        <ele>431</ele>
        <time>2017-01-12T11:22:33Z</time>
      </trkpt>
      <trkpt lat="46.05747" lon="4.55702">
        <ele>431</ele>
        <time>2017-01-12T11:22:34Z</time>
      </trkpt>
      <trkpt lat="46.05749" lon="4.55714">
        <ele>429</ele>
        <time>2017-01-12T11:22:42Z</time>
      </trkpt>
      <trkpt lat="46.05749" lon="4.55716">
        <ele>429</ele>
        <time>2017-01-12T11:22:43Z</time>
      </trkpt>
      <trkpt lat="46.05749" lon="4.55728">
        <ele>428</ele>
        <time>2017-01-12T11:22:51Z</time>
      </trkpt>
      <trkpt lat="46.05748" lon="4.5573">
        <ele>428</ele>
        <time>2017-01-12T11:22:52Z</time>
      </trkpt>
      <trkpt lat="46.05747" lon="4.55742">
        <ele>427</ele>
        <time>2017-01-12T11:23:01Z</time>
      </trkpt>
      <trkpt lat="46.05747" lon="4.55744">
        <ele>427</ele>
        <time>2017-01-12T11:23:02Z</time>
      </trkpt>
      <trkpt lat="46.05749" lon="4.55755">
        <ele>424</ele>
        <time>2017-01-12T11:23:10Z</time>
      </trkpt>
      <trkpt lat="46.05749" lon="4.55757">
        <ele>424</ele>
        <time>2017-01-12T11:23:11Z</time>
      </trkpt>
      <trkpt lat="46.05752" lon="4.55767">
        <ele>421</ele>
        <time>2017-01-12T11:23:18Z</time>
      </trkpt>
      <trkpt lat="46.05753" lon="4.55768">
        <ele>421</ele>
        <time>2017-01-12T11:23:19Z</time>
      </trkpt>
      <trkpt lat="46.05752" lon="4.5578">
        <ele>419</ele>
        <time>2017-01-12T11:23:28Z</time>
      </trkpt>
      <trkpt lat="46.05753" lon="4.55782">
        <ele>419</ele>
        <time>2017-01-12T11:23:29Z</time>
      </trkpt>
      <trkpt lat="46.05754" lon="4.55794">
        <ele>417</ele>
        <time>2017-01-12T11:23:37Z</time>
      </trkpt>
      <trkpt lat="46.05754" lon="4.55795">
        <ele>417</ele>
        <time>2017-01-12T11:23:38Z</time>
      </trkpt>
      <trkpt lat="46.05754" lon="4.55808">
        <ele>416</ele>
        <time>2017-01-12T11:23:47Z</time>
      </trkpt>
      <trkpt lat="46.05754" lon="4.55809">
        <ele>416</ele>
        <time>2017-01-12T11:23:48Z</time>
      </trkpt>
      <trkpt lat="46.05755" lon="4.5582">
        <ele>415</ele>
        <time>2017-01-12T11:23:55Z</time>
      </trkpt>
      <trkpt lat="46.05755" lon="4.55822">
        <ele>414</ele>
        <time>2017-01-12T11:23:56Z</time>
      </trkpt>
      <trkpt lat="46.05755" lon="4.55834">
        <ele>411</ele>
        <time>2017-01-12T11:24:03Z</time>
      </trkpt>
      <trkpt lat="46.05755" lon="4.55836">
        <ele>411</ele>
        <time>2017-01-12T11:24:04Z</time>
      </trkpt>
      <trkpt lat="46.05756" lon="4.55848">
        <ele>409</ele>
        <time>2017-01-12T11:24:11Z</time>
      </trkpt>
      <trkpt lat="46.05756" lon="4.5585">
        <ele>409</ele>
        <time>2017-01-12T11:24:12Z</time>
      </trkpt>
      <trkpt lat="46.05757" lon="4.55862">
        <ele>407</ele>
        <time>2017-01-12T11:24:19Z</time>
      </trkpt>
      <trkpt lat="46.05757" lon="4.55863">
        <ele>407</ele>
        <time>2017-01-12T11:24:20Z</time>
      </trkpt>
      <trkpt lat="46.05759" lon="4.55875">
        <ele>405</ele>
        <time>2017-01-12T11:24:27Z</time>
      </trkpt>
      <trkpt lat="46.05759" lon="4.55877">
        <ele>405</ele>
        <time>2017-01-12T11:24:28Z</time>
      </trkpt>
      <trkpt lat="46.05762" lon="4.55888">
        <ele>404</ele>
        <time>2017-01-12T11:24:35Z</time>
      </trkpt>
      <trkpt lat="46.05762" lon="4.5589">
        <ele>404</ele>
        <time>2017-01-12T11:24:36Z</time>
      </trkpt>
      <trkpt lat="46.05765" lon="4.55901">
        <ele>403</ele>
        <time>2017-01-12T11:24:43Z</time>
      </trkpt>
      <trkpt lat="46.05766" lon="4.55903">
        <ele>403</ele>
        <time>2017-01-12T11:24:44Z</time>
      </trkpt>
      <trkpt lat="46.05769" lon="4.55914">
        <ele>402</ele>
        <time>2017-01-12T11:24:51Z</time>
      </trkpt>
      <trkpt lat="46.05769" lon="4.55916">
        <ele>402</ele>
        <time>2017-01-12T11:24:52Z</time>
      </trkpt>
      <trkpt lat="46.05771" lon="4.55927">
        <ele>398</ele>
        <time>2017-01-12T11:24:59Z</time>
      </trkpt>
      <trkpt lat="46.05771" lon="4.55928">
        <ele>398</ele>
        <time>2017-01-12T11:25:00Z</time>
      </trkpt>
      <trkpt lat="46.05775" lon="4.55939">
        <ele>398</ele>
        <time>2017-01-12T11:25:08Z</time>
      </trkpt>
      <trkpt lat="46.05776" lon="4.55941">
        <ele>398</ele>
        <time>2017-01-12T11:25:09Z</time>
      </trkpt>
      <trkpt lat="46.05778" lon="4.55953">
        <ele>397</ele>
        <time>2017-01-12T11:25:16Z</time>
      </trkpt>
      <trkpt lat="46.05778" lon="4.55955">
        <ele>397</ele>
        <time>2017-01-12T11:25:17Z</time>
      </trkpt>
      <trkpt lat="46.05778" lon="4.55967">
        <ele>397</ele>
        <time>2017-01-12T11:25:24Z</time>
      </trkpt>
      <trkpt lat="46.05778" lon="4.55969">
        <ele>397</ele>
        <time>2017-01-12T11:25:25Z</time>
      </trkpt>
      <trkpt lat="46.05778" lon="4.5598">
        <ele>396</ele>
        <time>2017-01-12T11:25:31Z</time>
      </trkpt>
      <trkpt lat="46.05778" lon="4.55982">
        <ele>396</ele>
        <time>2017-01-12T11:25:32Z</time>
      </trkpt>
      <trkpt lat="46.05777" lon="4.55995">
        <ele>396</ele>
        <time>2017-01-12T11:25:39Z</time>
      </trkpt>
      <trkpt lat="46.05776" lon="4.55996">
        <ele>396</ele>
        <time>2017-01-12T11:25:40Z</time>
      </trkpt>
      <trkpt lat="46.05773" lon="4.56008">
        <ele>393</ele>
        <time>2017-01-12T11:25:47Z</time>
      </trkpt>
      <trkpt lat="46.05773" lon="4.56009">
        <ele>393</ele>
        <time>2017-01-12T11:25:48Z</time>
      </trkpt>
      <trkpt lat="46.0577" lon="4.56022">
        <ele>393</ele>
        <time>2017-01-12T11:25:56Z</time>
      </trkpt>
      <trkpt lat="46.0577" lon="4.56023">
        <ele>393</ele>
        <time>2017-01-12T11:25:57Z</time>
      </trkpt>
      <trkpt lat="46.05769" lon="4.56035">
        <ele>392</ele>
        <time>2017-01-12T11:26:04Z</time>
      </trkpt>
      <trkpt lat="46.05769" lon="4.56037">
        <ele>392</ele>
        <time>2017-01-12T11:26:05Z</time>
      </trkpt>
      <trkpt lat="46.05769" lon="4.56049">
        <ele>392</ele>
        <time>2017-01-12T11:26:12Z</time>
      </trkpt>
      <trkpt lat="46.05769" lon="4.56051">
        <ele>392</ele>
        <time>2017-01-12T11:26:13Z</time>
      </trkpt>
      <trkpt lat="46.05769" lon="4.56063">
        <ele>392</ele>
        <time>2017-01-12T11:26:20Z</time>
      </trkpt>
      <trkpt lat="46.05769" lon="4.56065">
        <ele>392</ele>
        <time>2017-01-12T11:26:21Z</time>
      </trkpt>
      <trkpt lat="46.05767" lon="4.56077">
        <ele>391</ele>
        <time>2017-01-12T11:26:28Z</time>
      </trkpt>
      <trkpt lat="46.05766" lon="4.56078">
        <ele>391</ele>
        <time>2017-01-12T11:26:29Z</time>
      </trkpt>
      <trkpt lat="46.05765" lon="4.5609">
        <ele>390</ele>
        <time>2017-01-12T11:26:37Z</time>
      </trkpt>
      <trkpt lat="46.05765" lon="4.56092">
        <ele>390</ele>
        <time>2017-01-12T11:26:38Z</time>
      </trkpt>
      <trkpt lat="46.05764" lon="4.56103">
        <ele>389</ele>
        <time>2017-01-12T11:26:45Z</time>
      </trkpt>
      <trkpt lat="46.05764" lon="4.56105">
        <ele>389</ele>
        <time>2017-01-12T11:26:46Z</time>
      </trkpt>
      <trkpt lat="46.05762" lon="4.56117">
        <ele>389</ele>
        <time>2017-01-12T11:26:53Z</time>
      </trkpt>
      <trkpt lat="46.05762" lon="4.56118">
        <ele>389</ele>
        <time>2017-01-12T11:26:54Z</time>
      </trkpt>
      <trkpt lat="46.05761" lon="4.5613">
        <ele>388</ele>
        <time>2017-01-12T11:27:01Z</time>
      </trkpt>
      <trkpt lat="46.05761" lon="4.56132">
        <ele>388</ele>
        <time>2017-01-12T11:27:02Z</time>
      </trkpt>
      <trkpt lat="46.0576" lon="4.56143">
        <ele>388</ele>
        <time>2017-01-12T11:27:11Z</time>
      </trkpt>
      <trkpt lat="46.05759" lon="4.56145">
        <ele>388</ele>
        <time>2017-01-12T11:27:12Z</time>
      </trkpt>
      <trkpt lat="46.0576" lon="4.56157">
        <ele>387</ele>
        <time>2017-01-12T11:27:24Z</time>
      </trkpt>
      <trkpt lat="46.05759" lon="4.56158">
        <ele>387</ele>
        <time>2017-01-12T11:27:25Z</time>
      </trkpt>
      <trkpt lat="46.05756" lon="4.56169">
        <ele>387</ele>
        <time>2017-01-12T11:27:35Z</time>
      </trkpt>
      <trkpt lat="46.05756" lon="4.5617">
        <ele>386</ele>
        <time>2017-01-12T11:27:36Z</time>
      </trkpt>
      <trkpt lat="46.05756" lon="4.56182">
        <ele>386</ele>
        <time>2017-01-12T11:27:44Z</time>
      </trkpt>
      <trkpt lat="46.05756" lon="4.56183">
        <ele>386</ele>
        <time>2017-01-12T11:27:45Z</time>
      </trkpt>
      <trkpt lat="46.05753" lon="4.56194">
        <ele>385</ele>
        <time>2017-01-12T11:27:52Z</time>
      </trkpt>
      <trkpt lat="46.05752" lon="4.56195">
        <ele>385</ele>
        <time>2017-01-12T11:27:53Z</time>
      </trkpt>
      <trkpt lat="46.05748" lon="4.56206">
        <ele>390</ele>
        <time>2017-01-12T11:28:00Z</time>
      </trkpt>
      <trkpt lat="46.05748" lon="4.56208">
        <ele>390</ele>
        <time>2017-01-12T11:28:01Z</time>
      </trkpt>
      <trkpt lat="46.05746" lon="4.56219">
        <ele>389</ele>
        <time>2017-01-12T11:28:07Z</time>
      </trkpt>
      <trkpt lat="46.05745" lon="4.56221">
        <ele>389</ele>
        <time>2017-01-12T11:28:08Z</time>
      </trkpt>
      <trkpt lat="46.05744" lon="4.56231">
        <ele>387</ele>
        <time>2017-01-12T11:28:14Z</time>
      </trkpt>
      <trkpt lat="46.05743" lon="4.56233">
        <ele>387</ele>
        <time>2017-01-12T11:28:15Z</time>
      </trkpt>
      <trkpt lat="46.05746" lon="4.56244">
        <ele>384</ele>
        <time>2017-01-12T11:28:20Z</time>
      </trkpt>
      <trkpt lat="46.05746" lon="4.56246">
        <ele>383</ele>
        <time>2017-01-12T11:28:21Z</time>
      </trkpt>
      <trkpt lat="46.05748" lon="4.56258">
        <ele>382</ele>
        <time>2017-01-12T11:28:27Z</time>
      </trkpt>
      <trkpt lat="46.05747" lon="4.56261">
        <ele>382</ele>
        <time>2017-01-12T11:28:28Z</time>
      </trkpt>
      <trkpt lat="46.05745" lon="4.56272">
        <ele>383</ele>
        <time>2017-01-12T11:28:34Z</time>
      </trkpt>
      <trkpt lat="46.05745" lon="4.56273">
        <ele>383</ele>
        <time>2017-01-12T11:28:35Z</time>
      </trkpt>
      <trkpt lat="46.05741" lon="4.56283">
        <ele>383</ele>
        <time>2017-01-12T11:28:41Z</time>
      </trkpt>
      <trkpt lat="46.05741" lon="4.56285">
        <ele>383</ele>
        <time>2017-01-12T11:28:42Z</time>
      </trkpt>
      <trkpt lat="46.05737" lon="4.56296">
        <ele>383</ele>
        <time>2017-01-12T11:28:48Z</time>
      </trkpt>
      <trkpt lat="46.05737" lon="4.56297">
        <ele>383</ele>
        <time>2017-01-12T11:28:49Z</time>
      </trkpt>
      <trkpt lat="46.05733" lon="4.56309">
        <ele>383</ele>
        <time>2017-01-12T11:28:55Z</time>
      </trkpt>
      <trkpt lat="46.05732" lon="4.56311">
        <ele>383</ele>
        <time>2017-01-12T11:28:56Z</time>
      </trkpt>
      <trkpt lat="46.05728" lon="4.56322">
        <ele>382</ele>
        <time>2017-01-12T11:29:02Z</time>
      </trkpt>
      <trkpt lat="46.05727" lon="4.56323">
        <ele>382</ele>
        <time>2017-01-12T11:29:03Z</time>
      </trkpt>
      <trkpt lat="46.05723" lon="4.56334">
        <ele>379</ele>
        <time>2017-01-12T11:29:09Z</time>
      </trkpt>
      <trkpt lat="46.05723" lon="4.56335">
        <ele>379</ele>
        <time>2017-01-12T11:29:10Z</time>
      </trkpt>
      <trkpt lat="46.05719" lon="4.56346">
        <ele>379</ele>
        <time>2017-01-12T11:29:16Z</time>
      </trkpt>
      <trkpt lat="46.05718" lon="4.56347">
        <ele>379</ele>
        <time>2017-01-12T11:29:17Z</time>
      </trkpt>
      <trkpt lat="46.05715" lon="4.56357">
        <ele>379</ele>
        <time>2017-01-12T11:29:23Z</time>
      </trkpt>
      <trkpt lat="46.05714" lon="4.56359">
        <ele>379</ele>
        <time>2017-01-12T11:29:24Z</time>
      </trkpt>
      <trkpt lat="46.0571" lon="4.56369">
        <ele>379</ele>
        <time>2017-01-12T11:29:30Z</time>
      </trkpt>
      <trkpt lat="46.05709" lon="4.5637">
        <ele>379</ele>
        <time>2017-01-12T11:29:31Z</time>
      </trkpt>
      <trkpt lat="46.05708" lon="4.56382">
        <ele>379</ele>
        <time>2017-01-12T11:29:37Z</time>
      </trkpt>
      <trkpt lat="46.05708" lon="4.56384">
        <ele>379</ele>
        <time>2017-01-12T11:29:38Z</time>
      </trkpt>
      <trkpt lat="46.0571" lon="4.56394">
        <ele>379</ele>
        <time>2017-01-12T11:29:43Z</time>
      </trkpt>
      <trkpt lat="46.05711" lon="4.56396">
        <ele>379</ele>
        <time>2017-01-12T11:29:44Z</time>
      </trkpt>
      <trkpt lat="46.05714" lon="4.56408">
        <ele>378</ele>
        <time>2017-01-12T11:29:50Z</time>
      </trkpt>
      <trkpt lat="46.05714" lon="4.5641">
        <ele>378</ele>
        <time>2017-01-12T11:29:51Z</time>
      </trkpt>
      <trkpt lat="46.05718" lon="4.5642">
        <ele>378</ele>
        <time>2017-01-12T11:29:57Z</time>
      </trkpt>
      <trkpt lat="46.05718" lon="4.56422">
        <ele>378</ele>
        <time>2017-01-12T11:29:58Z</time>
      </trkpt>
      <trkpt lat="46.05723" lon="4.56433">
        <ele>378</ele>
        <time>2017-01-12T11:30:04Z</time>
      </trkpt>
      <trkpt lat="46.05723" lon="4.56435">
        <ele>378</ele>
        <time>2017-01-12T11:30:05Z</time>
      </trkpt>
      <trkpt lat="46.05728" lon="4.56446">
        <ele>378</ele>
        <time>2017-01-12T11:30:11Z</time>
      </trkpt>
      <trkpt lat="46.05729" lon="4.56447">
        <ele>377</ele>
        <time>2017-01-12T11:30:12Z</time>
      </trkpt>
      <trkpt lat="46.05734" lon="4.56457">
        <ele>377</ele>
        <time>2017-01-12T11:30:17Z</time>
      </trkpt>
      <trkpt lat="46.05735" lon="4.56458">
        <ele>377</ele>
        <time>2017-01-12T11:30:18Z</time>
      </trkpt>
      <trkpt lat="46.05741" lon="4.56468">
        <ele>377</ele>
        <time>2017-01-12T11:30:24Z</time>
      </trkpt>
      <trkpt lat="46.05741" lon="4.5647">
        <ele>376</ele>
        <time>2017-01-12T11:30:25Z</time>
      </trkpt>
      <trkpt lat="46.05747" lon="4.56479">
        <ele>376</ele>
        <time>2017-01-12T11:30:31Z</time>
      </trkpt>
      <trkpt lat="46.05747" lon="4.5648">
        <ele>375</ele>
        <time>2017-01-12T11:30:32Z</time>
      </trkpt>
      <trkpt lat="46.05754" lon="4.56489">
        <ele>376</ele>
        <time>2017-01-12T11:30:39Z</time>
      </trkpt>
      <trkpt lat="46.05754" lon="4.5649">
        <ele>376</ele>
        <time>2017-01-12T11:30:40Z</time>
      </trkpt>
      <trkpt lat="46.0576" lon="4.565">
        <ele>374</ele>
        <time>2017-01-12T11:30:47Z</time>
      </trkpt>
      <trkpt lat="46.0576" lon="4.56501">
        <ele>374</ele>
        <time>2017-01-12T11:30:48Z</time>
      </trkpt>
      <trkpt lat="46.05766" lon="4.56509">
        <ele>376</ele>
        <time>2017-01-12T11:30:54Z</time>
      </trkpt>
      <trkpt lat="46.05767" lon="4.56511">
        <ele>376</ele>
        <time>2017-01-12T11:30:55Z</time>
      </trkpt>
      <trkpt lat="46.05773" lon="4.56517">
        <ele>377</ele>
        <time>2017-01-12T11:31:00Z</time>
      </trkpt>
      <trkpt lat="46.05775" lon="4.56518">
        <ele>377</ele>
        <time>2017-01-12T11:31:01Z</time>
      </trkpt>
      <trkpt lat="46.0578" lon="4.56527">
        <ele>377</ele>
        <time>2017-01-12T11:31:06Z</time>
      </trkpt>
      <trkpt lat="46.05782" lon="4.56529">
        <ele>378</ele>
        <time>2017-01-12T11:31:07Z</time>
      </trkpt>
      <trkpt lat="46.05788" lon="4.56537">
        <ele>378</ele>
        <time>2017-01-12T11:31:12Z</time>
      </trkpt>
      <trkpt lat="46.05789" lon="4.56538">
        <ele>378</ele>
        <time>2017-01-12T11:31:13Z</time>
      </trkpt>
      <trkpt lat="46.05794" lon="4.56546">
        <ele>378</ele>
        <time>2017-01-12T11:31:18Z</time>
      </trkpt>
      <trkpt lat="46.05796" lon="4.56548">
        <ele>378</ele>
        <time>2017-01-12T11:31:19Z</time>
      </trkpt>
      <trkpt lat="46.05801" lon="4.56558">
        <ele>378</ele>
        <time>2017-01-12T11:31:25Z</time>
      </trkpt>
      <trkpt lat="46.05802" lon="4.5656">
        <ele>378</ele>
        <time>2017-01-12T11:31:26Z</time>
      </trkpt>
      <trkpt lat="46.05806" lon="4.56569">
        <ele>378</ele>
        <time>2017-01-12T11:31:32Z</time>
      </trkpt>
      <trkpt lat="46.05807" lon="4.56571">
        <ele>378</ele>
        <time>2017-01-12T11:31:33Z</time>
      </trkpt>
      <trkpt lat="46.0581" lon="4.56582">
        <ele>378</ele>
        <time>2017-01-12T11:31:40Z</time>
      </trkpt>
      <trkpt lat="46.0581" lon="4.56584">
        <ele>376</ele>
        <time>2017-01-12T11:31:41Z</time>
      </trkpt>
      <trkpt lat="46.05813" lon="4.56594">
        <ele>376</ele>
        <time>2017-01-12T11:31:47Z</time>
      </trkpt>
      <trkpt lat="46.05814" lon="4.56596">
        <ele>376</ele>
        <time>2017-01-12T11:31:48Z</time>
      </trkpt>
      <trkpt lat="46.05817" lon="4.56607">
        <ele>375</ele>
        <time>2017-01-12T11:31:54Z</time>
      </trkpt>
      <trkpt lat="46.05818" lon="4.56609">
        <ele>375</ele>
        <time>2017-01-12T11:31:55Z</time>
      </trkpt>
      <trkpt lat="46.05821" lon="4.5662">
        <ele>374</ele>
        <time>2017-01-12T11:32:01Z</time>
      </trkpt>
      <trkpt lat="46.05821" lon="4.56622">
        <ele>374</ele>
        <time>2017-01-12T11:32:02Z</time>
      </trkpt>
      <trkpt lat="46.05824" lon="4.56634">
        <ele>373</ele>
        <time>2017-01-12T11:32:09Z</time>
      </trkpt>
      <trkpt lat="46.05824" lon="4.56636">
        <ele>373</ele>
        <time>2017-01-12T11:32:10Z</time>
      </trkpt>
      <trkpt lat="46.05827" lon="4.56647">
        <ele>372</ele>
        <time>2017-01-12T11:32:16Z</time>
      </trkpt>
      <trkpt lat="46.05828" lon="4.56648">
        <ele>371</ele>
        <time>2017-01-12T11:32:17Z</time>
      </trkpt>
      <trkpt lat="46.05831" lon="4.56659">
        <ele>369</ele>
        <time>2017-01-12T11:32:23Z</time>
      </trkpt>
      <trkpt lat="46.05832" lon="4.56661">
        <ele>369</ele>
        <time>2017-01-12T11:32:24Z</time>
      </trkpt>
      <trkpt lat="46.05835" lon="4.56673">
        <ele>368</ele>
        <time>2017-01-12T11:32:30Z</time>
      </trkpt>
      <trkpt lat="46.05835" lon="4.56675">
        <ele>368</ele>
        <time>2017-01-12T11:32:31Z</time>
      </trkpt>
      <trkpt lat="46.05838" lon="4.56686">
        <ele>368</ele>
        <time>2017-01-12T11:32:37Z</time>
      </trkpt>
      <trkpt lat="46.05839" lon="4.56688">
        <ele>368</ele>
        <time>2017-01-12T11:32:38Z</time>
      </trkpt>
      <trkpt lat="46.05841" lon="4.56699">
        <ele>368</ele>
        <time>2017-01-12T11:32:44Z</time>
      </trkpt>
      <trkpt lat="46.05841" lon="4.56701">
        <ele>368</ele>
        <time>2017-01-12T11:32:45Z</time>
      </trkpt>
      <trkpt lat="46.05843" lon="4.56712">
        <ele>368</ele>
        <time>2017-01-12T11:32:51Z</time>
      </trkpt>
      <trkpt lat="46.05844" lon="4.56714">
        <ele>368</ele>
        <time>2017-01-12T11:32:52Z</time>
      </trkpt>
      <trkpt lat="46.05846" lon="4.56725">
        <ele>367</ele>
        <time>2017-01-12T11:32:58Z</time>
      </trkpt>
      <trkpt lat="46.05846" lon="4.56727">
        <ele>367</ele>
        <time>2017-01-12T11:32:59Z</time>
      </trkpt>
      <trkpt lat="46.05847" lon="4.5674">
        <ele>366</ele>
        <time>2017-01-12T11:33:06Z</time>
      </trkpt>
      <trkpt lat="46.05847" lon="4.56741">
        <ele>366</ele>
        <time>2017-01-12T11:33:07Z</time>
      </trkpt>
      <trkpt lat="46.05847" lon="4.56753">
        <ele>364</ele>
        <time>2017-01-12T11:33:13Z</time>
      </trkpt>
      <trkpt lat="46.05847" lon="4.56755">
        <ele>364</ele>
        <time>2017-01-12T11:33:14Z</time>
      </trkpt>
      <trkpt lat="46.05847" lon="4.56768">
        <ele>364</ele>
        <time>2017-01-12T11:33:21Z</time>
      </trkpt>
      <trkpt lat="46.05847" lon="4.5677">
        <ele>364</ele>
        <time>2017-01-12T11:33:22Z</time>
      </trkpt>
      <trkpt lat="46.0585" lon="4.56782">
        <ele>363</ele>
        <time>2017-01-12T11:33:40Z</time>
      </trkpt>
      <trkpt lat="46.0585" lon="4.56782">
        <ele>363</ele>
        <time>2017-01-12T11:33:41Z</time>
      </trkpt>
      <trkpt lat="46.05846" lon="4.56793">
        <ele>363</ele>
        <time>2017-01-12T11:34:20Z</time>
      </trkpt>
      <trkpt lat="46.05846" lon="4.56794">
        <ele>363</ele>
        <time>2017-01-12T11:34:21Z</time>
      </trkpt>
      <trkpt lat="46.05844" lon="4.56806">
        <ele>362</ele>
        <time>2017-01-12T11:34:30Z</time>
      </trkpt>
      <trkpt lat="46.05844" lon="4.56808">
        <ele>362</ele>
        <time>2017-01-12T11:34:31Z</time>
      </trkpt>
      <trkpt lat="46.05843" lon="4.5682">
        <ele>361</ele>
        <time>2017-01-12T11:34:40Z</time>
      </trkpt>
      <trkpt lat="46.05843" lon="4.56822">
        <ele>361</ele>
        <time>2017-01-12T11:34:41Z</time>
      </trkpt>
      <trkpt lat="46.05843" lon="4.56834">
        <ele>359</ele>
        <time>2017-01-12T11:34:50Z</time>
      </trkpt>
      <trkpt lat="46.05843" lon="4.56835">
        <ele>359</ele>
        <time>2017-01-12T11:34:51Z</time>
      </trkpt>
      <trkpt lat="46.05844" lon="4.56847">
        <ele>360</ele>
        <time>2017-01-12T11:34:59Z</time>
      </trkpt>
      <trkpt lat="46.05844" lon="4.56848">
        <ele>360</ele>
        <time>2017-01-12T11:35:00Z</time>
      </trkpt>
      <trkpt lat="46.0584" lon="4.56857">
        <ele>360</ele>
        <time>2017-01-12T11:35:08Z</time>
      </trkpt>
      <trkpt lat="46.05839" lon="4.56859">
        <ele>360</ele>
        <time>2017-01-12T11:35:09Z</time>
      </trkpt>
      <trkpt lat="46.05834" lon="4.56869">
        <ele>360</ele>
        <time>2017-01-12T11:35:15Z</time>
      </trkpt>
      <trkpt lat="46.05834" lon="4.5687">
        <ele>360</ele>
        <time>2017-01-12T11:35:16Z</time>
      </trkpt>
      <trkpt lat="46.05829" lon="4.5688">
        <ele>364</ele>
        <time>2017-01-12T11:35:24Z</time>
      </trkpt>
      <trkpt lat="46.05828" lon="4.56881">
        <ele>364</ele>
        <time>2017-01-12T11:35:25Z</time>
      </trkpt>
      <trkpt lat="46.05822" lon="4.56889">
        <ele>364</ele>
        <time>2017-01-12T11:35:33Z</time>
      </trkpt>
      <trkpt lat="46.05821" lon="4.5689">
        <ele>364</ele>
        <time>2017-01-12T11:35:34Z</time>
      </trkpt>
      <trkpt lat="46.05814" lon="4.56899">
        <ele>364</ele>
        <time>2017-01-12T11:35:44Z</time>
      </trkpt>
      <trkpt lat="46.05814" lon="4.569">
        <ele>364</ele>
        <time>2017-01-12T11:35:45Z</time>
      </trkpt>
      <trkpt lat="46.05811" lon="4.56911">
        <ele>364</ele>
        <time>2017-01-12T11:35:55Z</time>
      </trkpt>
      <trkpt lat="46.05811" lon="4.56912">
        <ele>364</ele>
        <time>2017-01-12T11:35:56Z</time>
      </trkpt>
      <trkpt lat="46.05808" lon="4.56923">
        <ele>362</ele>
        <time>2017-01-12T11:36:06Z</time>
      </trkpt>
      <trkpt lat="46.05807" lon="4.56924">
        <ele>362</ele>
        <time>2017-01-12T11:36:07Z</time>
      </trkpt>
      <trkpt lat="46.05803" lon="4.56935">
        <ele>363</ele>
        <time>2017-01-12T11:36:16Z</time>
      </trkpt>
      <trkpt lat="46.05802" lon="4.56936">
        <ele>363</ele>
        <time>2017-01-12T11:36:17Z</time>
      </trkpt>
      <trkpt lat="46.05797" lon="4.56945">
        <ele>363</ele>
        <time>2017-01-12T11:36:24Z</time>
      </trkpt>
      <trkpt lat="46.05797" lon="4.56947">
        <ele>363</ele>
        <time>2017-01-12T11:36:25Z</time>
      </trkpt>
      <trkpt lat="46.05796" lon="4.56958">
        <ele>363</ele>
        <time>2017-01-12T11:36:31Z</time>
      </trkpt>
      <trkpt lat="46.05795" lon="4.5696">
        <ele>363</ele>
        <time>2017-01-12T11:36:32Z</time>
      </trkpt>
      <trkpt lat="46.05791" lon="4.5697">
        <ele>363</ele>
        <time>2017-01-12T11:36:40Z</time>
      </trkpt>
      <trkpt lat="46.0579" lon="4.56971">
        <ele>363</ele>
        <time>2017-01-12T11:36:41Z</time>
      </trkpt>
      <trkpt lat="46.05783" lon="4.56978">
        <ele>363</ele>
        <time>2017-01-12T11:36:50Z</time>
      </trkpt>
      <trkpt lat="46.05782" lon="4.56979">
        <ele>363</ele>
        <time>2017-01-12T11:36:51Z</time>
      </trkpt>
      <trkpt lat="46.05774" lon="4.56983">
        <ele>364</ele>
        <time>2017-01-12T11:37:04Z</time>
      </trkpt>
      <trkpt lat="46.05773" lon="4.56983">
        <ele>364</ele>
        <time>2017-01-12T11:37:05Z</time>
      </trkpt>
      <trkpt lat="46.05772" lon="4.56996">
        <ele>364</ele>
        <time>2017-01-12T11:37:21Z</time>
      </trkpt>
      <trkpt lat="46.05772" lon="4.56996">
        <ele>364</ele>
        <time>2017-01-12T11:37:22Z</time>
      </trkpt>
      <trkpt lat="46.05778" lon="4.57004">
        <ele>362</ele>
        <time>2017-01-12T11:37:31Z</time>
      </trkpt>
      <trkpt lat="46.05779" lon="4.57005">
        <ele>362</ele>
        <time>2017-01-12T11:37:32Z</time>
      </trkpt>
      <trkpt lat="46.05785" lon="4.57012">
        <ele>362</ele>
        <time>2017-01-12T11:37:39Z</time>
      </trkpt>
      <trkpt lat="46.05786" lon="4.57013">
        <ele>362</ele>
        <time>2017-01-12T11:37:40Z</time>
      </trkpt>
      <trkpt lat="46.05791" lon="4.57022">
        <ele>361</ele>
        <time>2017-01-12T11:37:49Z</time>
      </trkpt>
      <trkpt lat="46.05791" lon="4.57023">
        <ele>361</ele>
        <time>2017-01-12T11:37:50Z</time>
      </trkpt>
      <trkpt lat="46.05796" lon="4.57034">
        <ele>361</ele>
        <time>2017-01-12T11:37:58Z</time>
      </trkpt>
      <trkpt lat="46.05796" lon="4.57035">
        <ele>361</ele>
        <time>2017-01-12T11:37:59Z</time>
      </trkpt>
      <trkpt lat="46.05798" lon="4.57047">
        <ele>361</ele>
        <time>2017-01-12T11:38:07Z</time>
      </trkpt>
      <trkpt lat="46.05797" lon="4.57049">
        <ele>361</ele>
        <time>2017-01-12T11:38:08Z</time>
      </trkpt>
      <trkpt lat="46.05796" lon="4.57061">
        <ele>361</ele>
        <time>2017-01-12T11:38:17Z</time>
      </trkpt>
      <trkpt lat="46.05796" lon="4.57063">
        <ele>361</ele>
        <time>2017-01-12T11:38:18Z</time>
      </trkpt>
      <trkpt lat="46.05794" lon="4.57074">
        <ele>361</ele>
        <time>2017-01-12T11:38:26Z</time>
      </trkpt>
      <trkpt lat="46.05794" lon="4.57075">
        <ele>361</ele>
        <time>2017-01-12T11:38:27Z</time>
      </trkpt>
      <trkpt lat="46.0579" lon="4.57087">
        <ele>365</ele>
        <time>2017-01-12T11:38:38Z</time>
      </trkpt>
      <trkpt lat="46.0579" lon="4.57088">
        <ele>365</ele>
        <time>2017-01-12T11:38:39Z</time>
      </trkpt>
      <trkpt lat="46.05788" lon="4.571">
        <ele>365</ele>
        <time>2017-01-12T11:38:48Z</time>
      </trkpt>
      <trkpt lat="46.05788" lon="4.57102">
        <ele>366</ele>
        <time>2017-01-12T11:38:49Z</time>
      </trkpt>
      <trkpt lat="46.05787" lon="4.57114">
        <ele>366</ele>
        <time>2017-01-12T11:38:59Z</time>
      </trkpt>
      <trkpt lat="46.05787" lon="4.57115">
        <ele>366</ele>
        <time>2017-01-12T11:39:00Z</time>
      </trkpt>
      <trkpt lat="46.05785" lon="4.57128">
        <ele>367</ele>
        <time>2017-01-12T11:39:10Z</time>
      </trkpt>
      <trkpt lat="46.05785" lon="4.57129">
        <ele>367</ele>
        <time>2017-01-12T11:39:11Z</time>
      </trkpt>
      <trkpt lat="46.05783" lon="4.57141">
        <ele>368</ele>
        <time>2017-01-12T11:39:22Z</time>
      </trkpt>
      <trkpt lat="46.05783" lon="4.57142">
        <ele>368</ele>
        <time>2017-01-12T11:39:23Z</time>
      </trkpt>
      <trkpt lat="46.05781" lon="4.57154">
        <ele>370</ele>
        <time>2017-01-12T11:39:36Z</time>
      </trkpt>
      <trkpt lat="46.05781" lon="4.57155">
        <ele>370</ele>
        <time>2017-01-12T11:39:37Z</time>
      </trkpt>
      <trkpt lat="46.05781" lon="4.57167">
        <ele>378</ele>
        <time>2017-01-12T11:39:49Z</time>
      </trkpt>
      <trkpt lat="46.05781" lon="4.57168">
        <ele>378</ele>
        <time>2017-01-12T11:39:50Z</time>
      </trkpt>
      <trkpt lat="46.05781" lon="4.5718">
        <ele>378</ele>
        <time>2017-01-12T11:40:05Z</time>
      </trkpt>
      <trkpt lat="46.05781" lon="4.57181">
        <ele>378</ele>
        <time>2017-01-12T11:40:06Z</time>
      </trkpt>
      <trkpt lat="46.05781" lon="4.57193">
        <ele>379</ele>
        <time>2017-01-12T11:40:22Z</time>
      </trkpt>
      <trkpt lat="46.05781" lon="4.57194">
        <ele>379</ele>
        <time>2017-01-12T11:40:23Z</time>
      </trkpt>
      <trkpt lat="46.05785" lon="4.57205">
        <ele>379</ele>
        <time>2017-01-12T11:40:39Z</time>
      </trkpt>
      <trkpt lat="46.05785" lon="4.57206">
        <ele>379</ele>
        <time>2017-01-12T11:40:40Z</time>
      </trkpt>
      <trkpt lat="46.05786" lon="4.57218">
        <ele>381</ele>
        <time>2017-01-12T11:40:53Z</time>
      </trkpt>
      <trkpt lat="46.05786" lon="4.57219">
        <ele>381</ele>
        <time>2017-01-12T11:40:54Z</time>
      </trkpt>
      <trkpt lat="46.05789" lon="4.5723">
        <ele>381</ele>
        <time>2017-01-12T11:41:08Z</time>
      </trkpt>
      <trkpt lat="46.05789" lon="4.57231">
        <ele>381</ele>
        <time>2017-01-12T11:41:09Z</time>
      </trkpt>
      <trkpt lat="46.0579" lon="4.57244">
        <ele>382</ele>
        <time>2017-01-12T11:41:25Z</time>
      </trkpt>
      <trkpt lat="46.05791" lon="4.57245">
        <ele>382</ele>
        <time>2017-01-12T11:41:26Z</time>
      </trkpt>
      <trkpt lat="46.05792" lon="4.57257">
        <ele>393</ele>
        <time>2017-01-12T11:41:45Z</time>
      </trkpt>
      <trkpt lat="46.05792" lon="4.57258">
        <ele>393</ele>
        <time>2017-01-12T11:41:46Z</time>
      </trkpt>
      <trkpt lat="46.05792" lon="4.57271">
        <ele>394</ele>
        <time>2017-01-12T11:42:02Z</time>
      </trkpt>
      <trkpt lat="46.05792" lon="4.57272">
        <ele>394</ele>
        <time>2017-01-12T11:42:03Z</time>
      </trkpt>
      <trkpt lat="46.05793" lon="4.57284">
        <ele>395</ele>
        <time>2017-01-12T11:42:15Z</time>
      </trkpt>
      <trkpt lat="46.05793" lon="4.57285">
        <ele>395</ele>
        <time>2017-01-12T11:42:16Z</time>
      </trkpt>
      <trkpt lat="46.05793" lon="4.57297">
        <ele>396</ele>
        <time>2017-01-12T11:42:29Z</time>
      </trkpt>
      <trkpt lat="46.05793" lon="4.57298">
        <ele>396</ele>
        <time>2017-01-12T11:42:30Z</time>
      </trkpt>
      <trkpt lat="46.05797" lon="4.57309">
        <ele>396</ele>
        <time>2017-01-12T11:42:43Z</time>
      </trkpt>
      <trkpt lat="46.05797" lon="4.5731">
        <ele>396</ele>
        <time>2017-01-12T11:42:44Z</time>
      </trkpt>
      <trkpt lat="46.05801" lon="4.57322">
        <ele>396</ele>
        <time>2017-01-12T11:42:59Z</time>
      </trkpt>
      <trkpt lat="46.05802" lon="4.57323">
        <ele>396</ele>
        <time>2017-01-12T11:43:00Z</time>
      </trkpt>
      <trkpt lat="46.05801" lon="4.57335">
        <ele>406</ele>
        <time>2017-01-12T11:43:10Z</time>
      </trkpt>
      <trkpt lat="46.05801" lon="4.57336">
        <ele>406</ele>
        <time>2017-01-12T11:43:11Z</time>
      </trkpt>
      <trkpt lat="46.05803" lon="4.57348">
        <ele>406</ele>
        <time>2017-01-12T11:43:27Z</time>
      </trkpt>
      <trkpt lat="46.05804" lon="4.57349">
        <ele>406</ele>
        <time>2017-01-12T11:43:28Z</time>
      </trkpt>
      <trkpt lat="46.05806" lon="4.57361">
        <ele>407</ele>
        <time>2017-01-12T11:43:43Z</time>
      </trkpt>
      <trkpt lat="46.05806" lon="4.57362">
        <ele>407</ele>
        <time>2017-01-12T11:43:44Z</time>
      </trkpt>
      <trkpt lat="46.05808" lon="4.57374">
        <ele>408</ele>
        <time>2017-01-12T11:43:54Z</time>
      </trkpt>
      <trkpt lat="46.05808" lon="4.57375">
        <ele>408</ele>
        <time>2017-01-12T11:43:55Z</time>
      </trkpt>
      <trkpt lat="46.05809" lon="4.57388">
        <ele>409</ele>
        <time>2017-01-12T11:44:07Z</time>
      </trkpt>
      <trkpt lat="46.05808" lon="4.57388">
        <ele>409</ele>
        <time>2017-01-12T11:44:08Z</time>
      </trkpt>
      <trkpt lat="46.05808" lon="4.574">
        <ele>409</ele>
        <time>2017-01-12T11:44:20Z</time>
      </trkpt>
      <trkpt lat="46.05807" lon="4.57401">
        <ele>409</ele>
        <time>2017-01-12T11:44:21Z</time>
      </trkpt>
      <trkpt lat="46.05809" lon="4.57413">
        <ele>409</ele>
        <time>2017-01-12T11:44:31Z</time>
      </trkpt>
      <trkpt lat="46.05809" lon="4.57414">
        <ele>409</ele>
        <time>2017-01-12T11:44:32Z</time>
      </trkpt>
      <trkpt lat="46.0581" lon="4.57427">
        <ele>412</ele>
        <time>2017-01-12T11:44:44Z</time>
      </trkpt>
      <trkpt lat="46.0581" lon="4.57427">
        <ele>412</ele>
        <time>2017-01-12T11:44:45Z</time>
      </trkpt>
      <trkpt lat="46.05809" lon="4.5744">
        <ele>414</ele>
        <time>2017-01-12T11:44:55Z</time>
      </trkpt>
      <trkpt lat="46.05809" lon="4.5744">
        <ele>414</ele>
        <time>2017-01-12T11:44:56Z</time>
      </trkpt>
      <trkpt lat="46.05807" lon="4.57452">
        <ele>415</ele>
        <time>2017-01-12T11:45:07Z</time>
      </trkpt>
      <trkpt lat="46.05806" lon="4.57453">
        <ele>415</ele>
        <time>2017-01-12T11:45:08Z</time>
      </trkpt>
      <trkpt lat="46.05799" lon="4.57459">
        <ele>417</ele>
        <time>2017-01-12T11:45:16Z</time>
      </trkpt>
      <trkpt lat="46.05798" lon="4.57459">
        <ele>417</ele>
        <time>2017-01-12T11:45:17Z</time>
      </trkpt>
      <trkpt lat="46.05794" lon="4.57469">
        <ele>418</ele>
        <time>2017-01-12T11:45:26Z</time>
      </trkpt>
      <trkpt lat="46.05793" lon="4.57471">
        <ele>418</ele>
        <time>2017-01-12T11:45:27Z</time>
      </trkpt>
      <trkpt lat="46.05788" lon="4.5748">
        <ele>419</ele>
        <time>2017-01-12T11:45:36Z</time>
      </trkpt>
      <trkpt lat="46.05787" lon="4.57482">
        <ele>419</ele>
        <time>2017-01-12T11:45:37Z</time>
      </trkpt>
      <trkpt lat="46.05784" lon="4.57493">
        <ele>420</ele>
        <time>2017-01-12T11:45:45Z</time>
      </trkpt>
      <trkpt lat="46.05784" lon="4.57494">
        <ele>420</ele>
        <time>2017-01-12T11:45:46Z</time>
      </trkpt>
      <trkpt lat="46.0578" lon="4.57506">
        <ele>418</ele>
        <time>2017-01-12T11:45:56Z</time>
      </trkpt>
      <trkpt lat="46.0578" lon="4.57507">
        <ele>418</ele>
        <time>2017-01-12T11:45:57Z</time>
      </trkpt>
      <trkpt lat="46.05776" lon="4.57518">
        <ele>418</ele>
        <time>2017-01-12T11:46:05Z</time>
      </trkpt>
      <trkpt lat="46.05776" lon="4.57519">
        <ele>418</ele>
        <time>2017-01-12T11:46:06Z</time>
      </trkpt>
      <trkpt lat="46.05771" lon="4.57529">
        <ele>417</ele>
        <time>2017-01-12T11:47:12Z</time>
      </trkpt>
      <trkpt lat="46.05771" lon="4.5753">
        <ele>417</ele>
        <time>2017-01-12T11:47:13Z</time>
      </trkpt>
      <trkpt lat="46.05764" lon="4.57537">
        <ele>417</ele>
        <time>2017-01-12T11:47:29Z</time>
      </trkpt>
      <trkpt lat="46.05763" lon="4.57538">
        <ele>417</ele>
        <time>2017-01-12T11:47:30Z</time>
      </trkpt>
      <trkpt lat="46.05755" lon="4.5754">
        <ele>418</ele>
        <time>2017-01-12T11:47:42Z</time>
      </trkpt>
      <trkpt lat="46.05754" lon="4.5754">
        <ele>418</ele>
        <time>2017-01-12T11:47:43Z</time>
      </trkpt>
      <trkpt lat="46.05746" lon="4.57543">
        <ele>430</ele>
        <time>2017-01-12T11:47:51Z</time>
      </trkpt>
      <trkpt lat="46.05745" lon="4.57544">
        <ele>430</ele>
        <time>2017-01-12T11:47:52Z</time>
      </trkpt>
      <trkpt lat="46.05737" lon="4.57547">
        <ele>430</ele>
        <time>2017-01-12T11:48:00Z</time>
      </trkpt>
      <trkpt lat="46.05736" lon="4.57547">
        <ele>430</ele>
        <time>2017-01-12T11:48:01Z</time>
      </trkpt>
      <trkpt lat="46.05727" lon="4.57549">
        <ele>430</ele>
        <time>2017-01-12T11:48:10Z</time>
      </trkpt>
      <trkpt lat="46.05727" lon="4.5755">
        <ele>430</ele>
        <time>2017-01-12T11:48:11Z</time>
      </trkpt>
      <trkpt lat="46.05718" lon="4.5755">
        <ele>431</ele>
        <time>2017-01-12T11:48:20Z</time>
      </trkpt>
      <trkpt lat="46.05717" lon="4.5755">
        <ele>431</ele>
        <time>2017-01-12T11:48:21Z</time>
      </trkpt>
      <trkpt lat="46.05709" lon="4.57553">
        <ele>432</ele>
        <time>2017-01-12T11:48:29Z</time>
      </trkpt>
      <trkpt lat="46.05708" lon="4.57554">
        <ele>432</ele>
        <time>2017-01-12T11:48:30Z</time>
      </trkpt>
      <trkpt lat="46.057" lon="4.57557">
        <ele>432</ele>
        <time>2017-01-12T11:48:37Z</time>
      </trkpt>
      <trkpt lat="46.05699" lon="4.57558">
        <ele>432</ele>
        <time>2017-01-12T11:48:38Z</time>
      </trkpt>
      <trkpt lat="46.05691" lon="4.57562">
        <ele>432</ele>
        <time>2017-01-12T11:48:47Z</time>
      </trkpt>
      <trkpt lat="46.0569" lon="4.57562">
        <ele>432</ele>
        <time>2017-01-12T11:48:48Z</time>
      </trkpt>
      <trkpt lat="46.05682" lon="4.57568">
        <ele>432</ele>
        <time>2017-01-12T11:48:56Z</time>
      </trkpt>
      <trkpt lat="46.05682" lon="4.5757">
        <ele>432</ele>
        <time>2017-01-12T11:48:57Z</time>
      </trkpt>
      <trkpt lat="46.05675" lon="4.57577">
        <ele>432</ele>
        <time>2017-01-12T11:49:05Z</time>
      </trkpt>
      <trkpt lat="46.05674" lon="4.57578">
        <ele>432</ele>
        <time>2017-01-12T11:49:06Z</time>
      </trkpt>
      <trkpt lat="46.05667" lon="4.57585">
        <ele>433</ele>
        <time>2017-01-12T11:49:13Z</time>
      </trkpt>
      <trkpt lat="46.05666" lon="4.57586">
        <ele>433</ele>
        <time>2017-01-12T11:49:14Z</time>
      </trkpt>
      <trkpt lat="46.0566" lon="4.57594">
        <ele>436</ele>
        <time>2017-01-12T11:49:21Z</time>
      </trkpt>
      <trkpt lat="46.05659" lon="4.57595">
        <ele>437</ele>
        <time>2017-01-12T11:49:22Z</time>
      </trkpt>
      <trkpt lat="46.05655" lon="4.57605">
        <ele>438</ele>
        <time>2017-01-12T11:49:29Z</time>
      </trkpt>
      <trkpt lat="46.05655" lon="4.57607">
        <ele>439</ele>
        <time>2017-01-12T11:49:30Z</time>
      </trkpt>
      <trkpt lat="46.05655" lon="4.57618">
        <ele>440</ele>
        <time>2017-01-12T11:49:38Z</time>
      </trkpt>
      <trkpt lat="46.05655" lon="4.5762">
        <ele>440</ele>
        <time>2017-01-12T11:49:39Z</time>
      </trkpt>
      <trkpt lat="46.05656" lon="4.57632">
        <ele>440</ele>
        <time>2017-01-12T11:49:48Z</time>
      </trkpt>
      <trkpt lat="46.05656" lon="4.57633">
        <ele>440</ele>
        <time>2017-01-12T11:49:49Z</time>
      </trkpt>
      <trkpt lat="46.05659" lon="4.57644">
        <ele>439</ele>
        <time>2017-01-12T11:49:57Z</time>
      </trkpt>
      <trkpt lat="46.0566" lon="4.57646">
        <ele>439</ele>
        <time>2017-01-12T11:49:58Z</time>
      </trkpt>
      <trkpt lat="46.05661" lon="4.57657">
        <ele>437</ele>
        <time>2017-01-12T11:50:05Z</time>
      </trkpt>
      <trkpt lat="46.05662" lon="4.57658">
        <ele>437</ele>
        <time>2017-01-12T11:50:06Z</time>
      </trkpt>
      <trkpt lat="46.05664" lon="4.5767">
        <ele>437</ele>
        <time>2017-01-12T11:50:14Z</time>
      </trkpt>
      <trkpt lat="46.05665" lon="4.57672">
        <ele>437</ele>
        <time>2017-01-12T11:50:15Z</time>
      </trkpt>
      <trkpt lat="46.05668" lon="4.57682">
        <ele>433</ele>
        <time>2017-01-12T11:50:23Z</time>
      </trkpt>
      <trkpt lat="46.05668" lon="4.57684">
        <ele>433</ele>
        <time>2017-01-12T11:50:24Z</time>
      </trkpt>
      <trkpt lat="46.05673" lon="4.57694">
        <ele>433</ele>
        <time>2017-01-12T11:50:34Z</time>
      </trkpt>
      <trkpt lat="46.05673" lon="4.57696">
        <ele>433</ele>
        <time>2017-01-12T11:50:35Z</time>
      </trkpt>
      <trkpt lat="46.05674" lon="4.57709">
        <ele>433</ele>
        <time>2017-01-12T11:50:45Z</time>
      </trkpt>
      <trkpt lat="46.05674" lon="4.5771">
        <ele>434</ele>
        <time>2017-01-12T11:50:46Z</time>
      </trkpt>
      <trkpt lat="46.05676" lon="4.57722">
        <ele>435</ele>
        <time>2017-01-12T11:50:56Z</time>
      </trkpt>
      <trkpt lat="46.05677" lon="4.57723">
        <ele>435</ele>
        <time>2017-01-12T11:50:57Z</time>
      </trkpt>
      <trkpt lat="46.05682" lon="4.57733">
        <ele>436</ele>
        <time>2017-01-12T11:51:05Z</time>
      </trkpt>
      <trkpt lat="46.05682" lon="4.57734">
        <ele>436</ele>
        <time>2017-01-12T11:51:06Z</time>
      </trkpt>
      <trkpt lat="46.05687" lon="4.57745">
        <ele>437</ele>
        <time>2017-01-12T11:51:13Z</time>
      </trkpt>
      <trkpt lat="46.05687" lon="4.57746">
        <ele>437</ele>
        <time>2017-01-12T11:51:14Z</time>
      </trkpt>
      <trkpt lat="46.05693" lon="4.57756">
        <ele>441</ele>
        <time>2017-01-12T11:51:22Z</time>
      </trkpt>
      <trkpt lat="46.05693" lon="4.57757">
        <ele>441</ele>
        <time>2017-01-12T11:51:23Z</time>
      </trkpt>
      <trkpt lat="46.05699" lon="4.57766">
        <ele>440</ele>
        <time>2017-01-12T11:51:32Z</time>
      </trkpt>
      <trkpt lat="46.057" lon="4.57767">
        <ele>440</ele>
        <time>2017-01-12T11:51:33Z</time>
      </trkpt>
      <trkpt lat="46.05706" lon="4.57777">
        <ele>440</ele>
        <time>2017-01-12T11:51:39Z</time>
      </trkpt>
      <trkpt lat="46.05707" lon="4.57779">
        <ele>440</ele>
        <time>2017-01-12T11:51:40Z</time>
      </trkpt>
      <trkpt lat="46.05711" lon="4.57789">
        <ele>440</ele>
        <time>2017-01-12T11:51:50Z</time>
      </trkpt>
      <trkpt lat="46.05712" lon="4.57791">
        <ele>440</ele>
        <time>2017-01-12T11:51:51Z</time>
      </trkpt>
      <trkpt lat="46.05716" lon="4.57801">
        <ele>440</ele>
        <time>2017-01-12T11:51:57Z</time>
      </trkpt>
      <trkpt lat="46.05718" lon="4.57804">
        <ele>440</ele>
        <time>2017-01-12T11:51:58Z</time>
      </trkpt>
      <trkpt lat="46.05724" lon="4.57812">
        <ele>439</ele>
        <time>2017-01-12T11:52:04Z</time>
      </trkpt>
      <trkpt lat="46.05725" lon="4.57813">
        <ele>439</ele>
        <time>2017-01-12T11:52:05Z</time>
      </trkpt>
      <trkpt lat="46.05732" lon="4.57819">
        <ele>438</ele>
        <time>2017-01-12T11:52:12Z</time>
      </trkpt>
      <trkpt lat="46.05733" lon="4.5782">
        <ele>438</ele>
        <time>2017-01-12T11:52:13Z</time>
      </trkpt>
      <trkpt lat="46.05739" lon="4.57828">
        <ele>437</ele>
        <time>2017-01-12T11:52:19Z</time>
      </trkpt>
      <trkpt lat="46.0574" lon="4.57829">
        <ele>436</ele>
        <time>2017-01-12T11:52:20Z</time>
      </trkpt>
      <trkpt lat="46.05747" lon="4.57837">
        <ele>437</ele>
        <time>2017-01-12T11:52:26Z</time>
      </trkpt>
      <trkpt lat="46.05748" lon="4.57838">
        <ele>437</ele>
        <time>2017-01-12T11:52:27Z</time>
      </trkpt>
      <trkpt lat="46.05752" lon="4.57848">
        <ele>434</ele>
        <time>2017-01-12T11:52:34Z</time>
      </trkpt>
      <trkpt lat="46.05753" lon="4.5785">
        <ele>434</ele>
        <time>2017-01-12T11:52:35Z</time>
      </trkpt>
      <trkpt lat="46.05756" lon="4.57861">
        <ele>434</ele>
        <time>2017-01-12T11:52:43Z</time>
      </trkpt>
      <trkpt lat="46.05756" lon="4.57863">
        <ele>434</ele>
        <time>2017-01-12T11:52:44Z</time>
      </trkpt>
      <trkpt lat="46.05761" lon="4.57872">
        <ele>435</ele>
        <time>2017-01-12T11:52:51Z</time>
      </trkpt>
      <trkpt lat="46.05762" lon="4.57873">
        <ele>435</ele>
        <time>2017-01-12T11:52:52Z</time>
      </trkpt>
      <trkpt lat="46.05765" lon="4.57884">
        <ele>436</ele>
        <time>2017-01-12T11:52:59Z</time>
      </trkpt>
      <trkpt lat="46.05765" lon="4.57886">
        <ele>436</ele>
        <time>2017-01-12T11:53:00Z</time>
      </trkpt>
      <trkpt lat="46.05767" lon="4.57897">
        <ele>437</ele>
        <time>2017-01-12T11:53:07Z</time>
      </trkpt>
      <trkpt lat="46.05768" lon="4.57899">
        <ele>437</ele>
        <time>2017-01-12T11:53:08Z</time>
      </trkpt>
      <trkpt lat="46.05773" lon="4.57907">
        <ele>437</ele>
        <time>2017-01-12T11:53:15Z</time>
      </trkpt>
      <trkpt lat="46.05774" lon="4.57908">
        <ele>437</ele>
        <time>2017-01-12T11:53:16Z</time>
      </trkpt>
      <trkpt lat="46.05777" lon="4.5792">
        <ele>438</ele>
        <time>2017-01-12T11:53:24Z</time>
      </trkpt>
      <trkpt lat="46.05777" lon="4.57921">
        <ele>438</ele>
        <time>2017-01-12T11:53:25Z</time>
      </trkpt>
      <trkpt lat="46.05779" lon="4.57933">
        <ele>437</ele>
        <time>2017-01-12T11:54:04Z</time>
      </trkpt>
      <trkpt lat="46.05779" lon="4.57934">
        <ele>437</ele>
        <time>2017-01-12T11:54:05Z</time>
      </trkpt>
      <trkpt lat="46.05782" lon="4.57945">
        <ele>436</ele>
        <time>2017-01-12T11:54:14Z</time>
      </trkpt>
      <trkpt lat="46.05782" lon="4.57947">
        <ele>436</ele>
        <time>2017-01-12T11:54:15Z</time>
      </trkpt>
      <trkpt lat="46.05788" lon="4.57956">
        <ele>435</ele>
        <time>2017-01-12T11:54:24Z</time>
      </trkpt>
      <trkpt lat="46.05789" lon="4.57957">
        <ele>435</ele>
        <time>2017-01-12T11:54:25Z</time>
      </trkpt>
      <trkpt lat="46.05794" lon="4.57967">
        <ele>435</ele>
        <time>2017-01-12T11:54:35Z</time>
      </trkpt>
      <trkpt lat="46.05795" lon="4.57968">
        <ele>434</ele>
        <time>2017-01-12T11:54:36Z</time>
      </trkpt>
      <trkpt lat="46.0579" lon="4.57978">
        <ele>435</ele>
        <time>2017-01-12T11:54:44Z</time>
      </trkpt>
      <trkpt lat="46.05789" lon="4.57979">
        <ele>435</ele>
        <time>2017-01-12T11:54:45Z</time>
      </trkpt>
      <trkpt lat="46.05782" lon="4.57985">
        <ele>435</ele>
        <time>2017-01-12T11:54:52Z</time>
      </trkpt>
      <trkpt lat="46.05781" lon="4.57986">
        <ele>435</ele>
        <time>2017-01-12T11:54:53Z</time>
      </trkpt>
      <trkpt lat="46.05774" lon="4.57995">
        <ele>436</ele>
        <time>2017-01-12T11:55:00Z</time>
      </trkpt>
      <trkpt lat="46.05773" lon="4.57996">
        <ele>436</ele>
        <time>2017-01-12T11:55:01Z</time>
      </trkpt>
      <trkpt lat="46.05767" lon="4.58003">
        <ele>432</ele>
        <time>2017-01-12T11:55:07Z</time>
      </trkpt>
      <trkpt lat="46.05766" lon="4.58004">
        <ele>432</ele>
        <time>2017-01-12T11:55:08Z</time>
      </trkpt>
      <trkpt lat="46.0576" lon="4.58011">
        <ele>432</ele>
        <time>2017-01-12T11:55:14Z</time>
      </trkpt>
      <trkpt lat="46.05758" lon="4.58012">
        <ele>432</ele>
        <time>2017-01-12T11:55:15Z</time>
      </trkpt>
      <trkpt lat="46.05752" lon="4.58018">
        <ele>431</ele>
        <time>2017-01-12T11:55:21Z</time>
      </trkpt>
      <trkpt lat="46.05751" lon="4.58019">
        <ele>431</ele>
        <time>2017-01-12T11:55:22Z</time>
      </trkpt>
      <trkpt lat="46.05744" lon="4.58028">
        <ele>436</ele>
        <time>2017-01-12T11:55:29Z</time>
      </trkpt>
      <trkpt lat="46.05743" lon="4.58029">
        <ele>436</ele>
        <time>2017-01-12T11:55:30Z</time>
      </trkpt>
      <trkpt lat="46.05737" lon="4.58038">
        <ele>435</ele>
        <time>2017-01-12T11:55:37Z</time>
      </trkpt>
      <trkpt lat="46.05736" lon="4.58039">
        <ele>435</ele>
        <time>2017-01-12T11:55:38Z</time>
      </trkpt>
      <trkpt lat="46.05729" lon="4.58046">
        <ele>434</ele>
        <time>2017-01-12T11:55:45Z</time>
      </trkpt>
      <trkpt lat="46.05728" lon="4.58047">
        <ele>434</ele>
        <time>2017-01-12T11:55:46Z</time>
      </trkpt>
      <trkpt lat="46.05721" lon="4.58054">
        <ele>434</ele>
        <time>2017-01-12T11:55:53Z</time>
      </trkpt>
      <trkpt lat="46.0572" lon="4.58055">
        <ele>434</ele>
        <time>2017-01-12T11:55:54Z</time>
      </trkpt>
      <trkpt lat="46.05713" lon="4.58062">
        <ele>434</ele>
        <time>2017-01-12T11:56:01Z</time>
      </trkpt>
      <trkpt lat="46.05712" lon="4.58063">
        <ele>434</ele>
        <time>2017-01-12T11:56:02Z</time>
      </trkpt>
      <trkpt lat="46.05705" lon="4.58068">
        <ele>434</ele>
        <time>2017-01-12T11:56:09Z</time>
      </trkpt>
      <trkpt lat="46.05704" lon="4.58068">
        <ele>434</ele>
        <time>2017-01-12T11:56:10Z</time>
      </trkpt>
      <trkpt lat="46.05696" lon="4.58075">
        <ele>434</ele>
        <time>2017-01-12T11:56:17Z</time>
      </trkpt>
      <trkpt lat="46.05696" lon="4.58075">
        <ele>434</ele>
        <time>2017-01-12T11:56:18Z</time>
      </trkpt>
      <trkpt lat="46.05689" lon="4.58081">
        <ele>434</ele>
        <time>2017-01-12T11:56:24Z</time>
      </trkpt>
      <trkpt lat="46.05687" lon="4.58082">
        <ele>434</ele>
        <time>2017-01-12T11:56:25Z</time>
      </trkpt>
      <trkpt lat="46.05679" lon="4.58085">
        <ele>427</ele>
        <time>2017-01-12T11:56:32Z</time>
      </trkpt>
      <trkpt lat="46.05678" lon="4.58085">
        <ele>427</ele>
        <time>2017-01-12T11:56:33Z</time>
      </trkpt>
      <trkpt lat="46.05669" lon="4.58086">
        <ele>430</ele>
        <time>2017-01-12T11:56:41Z</time>
      </trkpt>
      <trkpt lat="46.05668" lon="4.58086">
        <ele>430</ele>
        <time>2017-01-12T11:56:42Z</time>
      </trkpt>
      <trkpt lat="46.0566" lon="4.58089">
        <ele>433</ele>
        <time>2017-01-12T11:56:49Z</time>
      </trkpt>
      <trkpt lat="46.05659" lon="4.58089">
        <ele>434</ele>
        <time>2017-01-12T11:56:50Z</time>
      </trkpt>
      <trkpt lat="46.05651" lon="4.58094">
        <ele>435</ele>
        <time>2017-01-12T11:56:57Z</time>
      </trkpt>
      <trkpt lat="46.0565" lon="4.58095">
        <ele>435</ele>
        <time>2017-01-12T11:56:58Z</time>
      </trkpt>
      <trkpt lat="46.05642" lon="4.58101">
        <ele>436</ele>
        <time>2017-01-12T11:57:05Z</time>
      </trkpt>
      <trkpt lat="46.05641" lon="4.58101">
        <ele>436</ele>
        <time>2017-01-12T11:57:06Z</time>
      </trkpt>
      <trkpt lat="46.05636" lon="4.5811">
        <ele>437</ele>
        <time>2017-01-12T11:57:13Z</time>
      </trkpt>
      <trkpt lat="46.05635" lon="4.58111">
        <ele>437</ele>
        <time>2017-01-12T11:57:14Z</time>
      </trkpt>
      <trkpt lat="46.0563" lon="4.58122">
        <ele>436</ele>
        <time>2017-01-12T11:57:21Z</time>
      </trkpt>
      <trkpt lat="46.0563" lon="4.58124">
        <ele>436</ele>
        <time>2017-01-12T11:57:22Z</time>
      </trkpt>
      <trkpt lat="46.05626" lon="4.58134">
        <ele>436</ele>
        <time>2017-01-12T11:57:29Z</time>
      </trkpt>
      <trkpt lat="46.05625" lon="4.58136">
        <ele>436</ele>
        <time>2017-01-12T11:57:30Z</time>
      </trkpt>
      <trkpt lat="46.05622" lon="4.58148">
        <ele>436</ele>
        <time>2017-01-12T11:57:38Z</time>
      </trkpt>
      <trkpt lat="46.05621" lon="4.58149">
        <ele>436</ele>
        <time>2017-01-12T11:57:39Z</time>
      </trkpt>
      <trkpt lat="46.05617" lon="4.5816">
        <ele>436</ele>
        <time>2017-01-12T11:57:48Z</time>
      </trkpt>
      <trkpt lat="46.05616" lon="4.58162">
        <ele>436</ele>
        <time>2017-01-12T11:57:49Z</time>
      </trkpt>
      <trkpt lat="46.05613" lon="4.58173">
        <ele>429</ele>
        <time>2017-01-12T11:57:57Z</time>
      </trkpt>
      <trkpt lat="46.05613" lon="4.58175">
        <ele>429</ele>
        <time>2017-01-12T11:57:58Z</time>
      </trkpt>
      <trkpt lat="46.05607" lon="4.58185">
        <ele>430</ele>
        <time>2017-01-12T11:58:06Z</time>
      </trkpt>
      <trkpt lat="46.05606" lon="4.58186">
        <ele>430</ele>
        <time>2017-01-12T11:58:07Z</time>
      </trkpt>
      <trkpt lat="46.05602" lon="4.58196">
        <ele>429</ele>
        <time>2017-01-12T11:58:16Z</time>
      </trkpt>
      <trkpt lat="46.05602" lon="4.58197">
        <ele>429</ele>
        <time>2017-01-12T11:58:17Z</time>
      </trkpt>
      <trkpt lat="46.05596" lon="4.58206">
        <ele>429</ele>
        <time>2017-01-12T11:58:26Z</time>
      </trkpt>
      <trkpt lat="46.05596" lon="4.58207">
        <ele>429</ele>
        <time>2017-01-12T11:58:27Z</time>
      </trkpt>
      <trkpt lat="46.05589" lon="4.58215">
        <ele>429</ele>
        <time>2017-01-12T11:58:35Z</time>
      </trkpt>
      <trkpt lat="46.05589" lon="4.58217">
        <ele>429</ele>
        <time>2017-01-12T11:58:36Z</time>
      </trkpt>
      <trkpt lat="46.05583" lon="4.58225">
        <ele>436</ele>
        <time>2017-01-12T11:58:44Z</time>
      </trkpt>
      <trkpt lat="46.05582" lon="4.58227">
        <ele>435</ele>
        <time>2017-01-12T11:58:45Z</time>
      </trkpt>
      <trkpt lat="46.05577" lon="4.58235">
        <ele>435</ele>
        <time>2017-01-12T11:58:52Z</time>
      </trkpt>
      <trkpt lat="46.05576" lon="4.58237">
        <ele>435</ele>
        <time>2017-01-12T11:58:53Z</time>
      </trkpt>
      <trkpt lat="46.05572" lon="4.58246">
        <ele>435</ele>
        <time>2017-01-12T11:59:01Z</time>
      </trkpt>
      <trkpt lat="46.05571" lon="4.58247">
        <ele>435</ele>
        <time>2017-01-12T11:59:02Z</time>
      </trkpt>
      <trkpt lat="46.05566" lon="4.58258">
        <ele>433</ele>
        <time>2017-01-12T11:59:15Z</time>
      </trkpt>
      <trkpt lat="46.05566" lon="4.58258">
        <ele>433</ele>
        <time>2017-01-12T11:59:16Z</time>
      </trkpt>
      <trkpt lat="46.05567" lon="4.58271">
        <ele>433</ele>
        <time>2017-01-12T11:59:49Z</time>
      </trkpt>
      <trkpt lat="46.05567" lon="4.58273">
        <ele>433</ele>
        <time>2017-01-12T11:59:50Z</time>
      </trkpt>
      <trkpt lat="46.05568" lon="4.58284">
        <ele>432</ele>
        <time>2017-01-12T11:59:57Z</time>
      </trkpt>
      <trkpt lat="46.05568" lon="4.58286">
        <ele>432</ele>
        <time>2017-01-12T11:59:58Z</time>
      </trkpt>
      <trkpt lat="46.0557" lon="4.58297">
        <ele>432</ele>
        <time>2017-01-12T12:00:05Z</time>
      </trkpt>
      <trkpt lat="46.0557" lon="4.58298">
        <ele>432</ele>
        <time>2017-01-12T12:00:06Z</time>
      </trkpt>
      <trkpt lat="46.05573" lon="4.5831">
        <ele>432</ele>
        <time>2017-01-12T12:00:13Z</time>
      </trkpt>
      <trkpt lat="46.05573" lon="4.58312">
        <ele>432</ele>
        <time>2017-01-12T12:00:14Z</time>
      </trkpt>
      <trkpt lat="46.05576" lon="4.58323">
        <ele>432</ele>
        <time>2017-01-12T12:00:21Z</time>
      </trkpt>
      <trkpt lat="46.05576" lon="4.58325">
        <ele>432</ele>
        <time>2017-01-12T12:00:22Z</time>
      </trkpt>
      <trkpt lat="46.05578" lon="4.58336">
        <ele>431</ele>
        <time>2017-01-12T12:00:28Z</time>
      </trkpt>
      <trkpt lat="46.05578" lon="4.58338">
        <ele>431</ele>
        <time>2017-01-12T12:00:29Z</time>
      </trkpt>
      <trkpt lat="46.05579" lon="4.58349">
        <ele>430</ele>
        <time>2017-01-12T12:00:35Z</time>
      </trkpt>
      <trkpt lat="46.0558" lon="4.58351">
        <ele>430</ele>
        <time>2017-01-12T12:00:36Z</time>
      </trkpt>
      <trkpt lat="46.05581" lon="4.58362">
        <ele>429</ele>
        <time>2017-01-12T12:00:43Z</time>
      </trkpt>
      <trkpt lat="46.05581" lon="4.58363">
        <ele>429</ele>
        <time>2017-01-12T12:00:44Z</time>
      </trkpt>
      <trkpt lat="46.05581" lon="4.58376">
        <ele>428</ele>
        <time>2017-01-12T12:00:52Z</time>
      </trkpt>
      <trkpt lat="46.05581" lon="4.58378">
        <ele>428</ele>
        <time>2017-01-12T12:00:53Z</time>
      </trkpt>
      <trkpt lat="46.05583" lon="4.5839">
        <ele>428</ele>
        <time>2017-01-12T12:01:01Z</time>
      </trkpt>
      <trkpt lat="46.05584" lon="4.58392">
        <ele>424</ele>
        <time>2017-01-12T12:01:02Z</time>
      </trkpt>
      <trkpt lat="46.05585" lon="4.58403">
        <ele>425</ele>
        <time>2017-01-12T12:01:09Z</time>
      </trkpt>
      <trkpt lat="46.05586" lon="4.58405">
        <ele>425</ele>
        <time>2017-01-12T12:01:10Z</time>
      </trkpt>
      <trkpt lat="46.05587" lon="4.58416">
        <ele>427</ele>
        <time>2017-01-12T12:01:17Z</time>
      </trkpt>
      <trkpt lat="46.05587" lon="4.58418">
        <ele>427</ele>
        <time>2017-01-12T12:01:18Z</time>
      </trkpt>
      <trkpt lat="46.05587" lon="4.5843">
        <ele>424</ele>
        <time>2017-01-12T12:01:25Z</time>
      </trkpt>
      <trkpt lat="46.05587" lon="4.58431">
        <ele>423</ele>
        <time>2017-01-12T12:01:26Z</time>
      </trkpt>
      <trkpt lat="46.05589" lon="4.58442">
        <ele>422</ele>
        <time>2017-01-12T12:01:32Z</time>
      </trkpt>
      <trkpt lat="46.0559" lon="4.58444">
        <ele>421</ele>
        <time>2017-01-12T12:01:33Z</time>
      </trkpt>
      <trkpt lat="46.05592" lon="4.58455">
        <ele>420</ele>
        <time>2017-01-12T12:01:39Z</time>
      </trkpt>
      <trkpt lat="46.05593" lon="4.58456">
        <ele>420</ele>
        <time>2017-01-12T12:01:40Z</time>
      </trkpt>
      <trkpt lat="46.05596" lon="4.58467">
        <ele>420</ele>
        <time>2017-01-12T12:01:46Z</time>
      </trkpt>
      <trkpt lat="46.05596" lon="4.58468">
        <ele>420</ele>
        <time>2017-01-12T12:01:47Z</time>
      </trkpt>
      <trkpt lat="46.05599" lon="4.58479">
        <ele>419</ele>
        <time>2017-01-12T12:01:54Z</time>
      </trkpt>
      <trkpt lat="46.056" lon="4.58481">
        <ele>419</ele>
        <time>2017-01-12T12:01:55Z</time>
      </trkpt>
      <trkpt lat="46.05603" lon="4.58491">
        <ele>419</ele>
        <time>2017-01-12T12:02:01Z</time>
      </trkpt>
      <trkpt lat="46.05603" lon="4.58493">
        <ele>419</ele>
        <time>2017-01-12T12:02:02Z</time>
      </trkpt>
      <trkpt lat="46.05606" lon="4.58505">
        <ele>417</ele>
        <time>2017-01-12T12:02:08Z</time>
      </trkpt>
      <trkpt lat="46.05606" lon="4.58507">
        <ele>417</ele>
        <time>2017-01-12T12:02:09Z</time>
      </trkpt>
      <trkpt lat="46.0561" lon="4.58518">
        <ele>416</ele>
        <time>2017-01-12T12:02:16Z</time>
      </trkpt>
      <trkpt lat="46.05611" lon="4.58519">
        <ele>416</ele>
        <time>2017-01-12T12:02:17Z</time>
      </trkpt>
      <trkpt lat="46.05615" lon="4.5853">
        <ele>416</ele>
        <time>2017-01-12T12:02:24Z</time>
      </trkpt>
      <trkpt lat="46.05615" lon="4.58531">
        <ele>416</ele>
        <time>2017-01-12T12:02:25Z</time>
      </trkpt>
      <trkpt lat="46.05621" lon="4.5854">
        <ele>415</ele>
        <time>2017-01-12T12:02:32Z</time>
      </trkpt>
      <trkpt lat="46.05622" lon="4.58542">
        <ele>415</ele>
        <time>2017-01-12T12:02:33Z</time>
      </trkpt>
      <trkpt lat="46.05627" lon="4.58551">
        <ele>415</ele>
        <time>2017-01-12T12:02:39Z</time>
      </trkpt>
      <trkpt lat="46.05628" lon="4.58552">
        <ele>415</ele>
        <time>2017-01-12T12:02:40Z</time>
      </trkpt>
      <trkpt lat="46.05633" lon="4.58562">
        <ele>415</ele>
        <time>2017-01-12T12:02:46Z</time>
      </trkpt>
      <trkpt lat="46.05633" lon="4.58563">
        <ele>415</ele>
        <time>2017-01-12T12:02:47Z</time>
      </trkpt>
      <trkpt lat="46.05635" lon="4.58575">
        <ele>415</ele>
        <time>2017-01-12T12:02:54Z</time>
      </trkpt>
      <trkpt lat="46.05636" lon="4.58577">
        <ele>415</ele>
        <time>2017-01-12T12:02:55Z</time>
      </trkpt>
      <trkpt lat="46.05636" lon="4.5859">
        <ele>412</ele>
        <time>2017-01-12T12:03:02Z</time>
      </trkpt>
      <trkpt lat="46.05636" lon="4.58591">
        <ele>412</ele>
        <time>2017-01-12T12:03:03Z</time>
      </trkpt>
      <trkpt lat="46.05637" lon="4.58603">
        <ele>412</ele>
        <time>2017-01-12T12:03:10Z</time>
      </trkpt>
      <trkpt lat="46.05637" lon="4.58605">
        <ele>412</ele>
        <time>2017-01-12T12:03:11Z</time>
      </trkpt>
      <trkpt lat="46.05639" lon="4.58615">
        <ele>412</ele>
        <time>2017-01-12T12:03:17Z</time>
      </trkpt>
      <trkpt lat="46.05639" lon="4.58617">
        <ele>412</ele>
        <time>2017-01-12T12:03:18Z</time>
      </trkpt>
      <trkpt lat="46.05641" lon="4.58629">
        <ele>411</ele>
        <time>2017-01-12T12:03:24Z</time>
      </trkpt>
      <trkpt lat="46.05641" lon="4.58631">
        <ele>411</ele>
        <time>2017-01-12T12:03:25Z</time>
      </trkpt>
      <trkpt lat="46.05643" lon="4.58643">
        <ele>411</ele>
        <time>2017-01-12T12:03:32Z</time>
      </trkpt>
      <trkpt lat="46.05643" lon="4.58645">
        <ele>411</ele>
        <time>2017-01-12T12:03:33Z</time>
      </trkpt>
      <trkpt lat="46.05645" lon="4.58657">
        <ele>412</ele>
        <time>2017-01-12T12:03:40Z</time>
      </trkpt>
      <trkpt lat="46.05645" lon="4.58659">
        <ele>412</ele>
        <time>2017-01-12T12:03:41Z</time>
      </trkpt>
      <trkpt lat="46.05646" lon="4.58672">
        <ele>408</ele>
        <time>2017-01-12T12:03:48Z</time>
      </trkpt>
      <trkpt lat="46.05646" lon="4.58674">
        <ele>408</ele>
        <time>2017-01-12T12:03:49Z</time>
      </trkpt>
      <trkpt lat="46.05647" lon="4.58685">
        <ele>408</ele>
        <time>2017-01-12T12:03:55Z</time>
      </trkpt>
      <trkpt lat="46.05647" lon="4.58686">
        <ele>407</ele>
        <time>2017-01-12T12:03:56Z</time>
      </trkpt>
      <trkpt lat="46.05649" lon="4.58698">
        <ele>407</ele>
        <time>2017-01-12T12:04:03Z</time>
      </trkpt>
      <trkpt lat="46.0565" lon="4.587">
        <ele>407</ele>
        <time>2017-01-12T12:04:04Z</time>
      </trkpt>
      <trkpt lat="46.05653" lon="4.58711">
        <ele>406</ele>
        <time>2017-01-12T12:04:12Z</time>
      </trkpt>
      <trkpt lat="46.05653" lon="4.58713">
        <ele>406</ele>
        <time>2017-01-12T12:04:13Z</time>
      </trkpt>
      <trkpt lat="46.05652" lon="4.58725">
        <ele>406</ele>
        <time>2017-01-12T12:04:20Z</time>
      </trkpt>
      <trkpt lat="46.05652" lon="4.58726">
        <ele>406</ele>
        <time>2017-01-12T12:04:21Z</time>
      </trkpt>
      <trkpt lat="46.05654" lon="4.58737">
        <ele>407</ele>
        <time>2017-01-12T12:04:27Z</time>
      </trkpt>
      <trkpt lat="46.05654" lon="4.58739">
        <ele>407</ele>
        <time>2017-01-12T12:04:28Z</time>
      </trkpt>
      <trkpt lat="46.05656" lon="4.58751">
        <ele>406</ele>
        <time>2017-01-12T12:04:35Z</time>
      </trkpt>
      <trkpt lat="46.05656" lon="4.58753">
        <ele>406</ele>
        <time>2017-01-12T12:04:36Z</time>
      </trkpt>
      <trkpt lat="46.05657" lon="4.58764">
        <ele>404</ele>
        <time>2017-01-12T12:04:42Z</time>
      </trkpt>
      <trkpt lat="46.05658" lon="4.58766">
        <ele>403</ele>
        <time>2017-01-12T12:04:43Z</time>
      </trkpt>
      <trkpt lat="46.05659" lon="4.58778">
        <ele>401</ele>
        <time>2017-01-12T12:04:50Z</time>
      </trkpt>
      <trkpt lat="46.05659" lon="4.5878">
        <ele>400</ele>
        <time>2017-01-12T12:04:51Z</time>
      </trkpt>
      <trkpt lat="46.0566" lon="4.58791">
        <ele>399</ele>
        <time>2017-01-12T12:04:57Z</time>
      </trkpt>
      <trkpt lat="46.0566" lon="4.58793">
        <ele>399</ele>
        <time>2017-01-12T12:04:58Z</time>
      </trkpt>
      <trkpt lat="46.05661" lon="4.58806">
        <ele>399</ele>
        <time>2017-01-12T12:05:05Z</time>
      </trkpt>
      <trkpt lat="46.05661" lon="4.58808">
        <ele>399</ele>
        <time>2017-01-12T12:05:06Z</time>
      </trkpt>
      <trkpt lat="46.05664" lon="4.5882">
        <ele>399</ele>
        <time>2017-01-12T12:05:13Z</time>
      </trkpt>
      <trkpt lat="46.05664" lon="4.58821">
        <ele>400</ele>
        <time>2017-01-12T12:05:14Z</time>
      </trkpt>
      <trkpt lat="46.05666" lon="4.58832">
        <ele>402</ele>
        <time>2017-01-12T12:05:20Z</time>
      </trkpt>
      <trkpt lat="46.05667" lon="4.58834">
        <ele>402</ele>
        <time>2017-01-12T12:05:21Z</time>
      </trkpt>
      <trkpt lat="46.05669" lon="4.58846">
        <ele>399</ele>
        <time>2017-01-12T12:05:27Z</time>
      </trkpt>
      <trkpt lat="46.05669" lon="4.58848">
        <ele>399</ele>
        <time>2017-01-12T12:05:28Z</time>
      </trkpt>
      <trkpt lat="46.05671" lon="4.58858">
        <ele>398</ele>
        <time>2017-01-12T12:05:34Z</time>
      </trkpt>
      <trkpt lat="46.05672" lon="4.5886">
        <ele>397</ele>
        <time>2017-01-12T12:05:35Z</time>
      </trkpt>
      <trkpt lat="46.05676" lon="4.58872">
        <ele>397</ele>
        <time>2017-01-12T12:05:42Z</time>
      </trkpt>
      <trkpt lat="46.05676" lon="4.58873">
        <ele>396</ele>
        <time>2017-01-12T12:05:43Z</time>
      </trkpt>
      <trkpt lat="46.0568" lon="4.58883">
        <ele>396</ele>
        <time>2017-01-12T12:05:50Z</time>
      </trkpt>
      <trkpt lat="46.05681" lon="4.58885">
        <ele>396</ele>
        <time>2017-01-12T12:05:51Z</time>
      </trkpt>
      <trkpt lat="46.05684" lon="4.58896">
        <ele>395</ele>
        <time>2017-01-12T12:05:58Z</time>
      </trkpt>
      <trkpt lat="46.05685" lon="4.58898">
        <ele>395</ele>
        <time>2017-01-12T12:05:59Z</time>
      </trkpt>
      <trkpt lat="46.05689" lon="4.58909">
        <ele>395</ele>
        <time>2017-01-12T12:06:06Z</time>
      </trkpt>
      <trkpt lat="46.0569" lon="4.5891">
        <ele>395</ele>
        <time>2017-01-12T12:06:07Z</time>
      </trkpt>
      <trkpt lat="46.05695" lon="4.5892">
        <ele>394</ele>
        <time>2017-01-12T12:06:13Z</time>
      </trkpt>
      <trkpt lat="46.05695" lon="4.58921">
        <ele>394</ele>
        <time>2017-01-12T12:06:14Z</time>
      </trkpt>
      <trkpt lat="46.057" lon="4.5893">
        <ele>394</ele>
        <time>2017-01-12T12:06:20Z</time>
      </trkpt>
      <trkpt lat="46.05701" lon="4.58932">
        <ele>394</ele>
        <time>2017-01-12T12:06:21Z</time>
      </trkpt>
      <trkpt lat="46.05698" lon="4.58944">
        <ele>394</ele>
        <time>2017-01-12T12:06:30Z</time>
      </trkpt>
      <trkpt lat="46.05697" lon="4.58945">
        <ele>394</ele>
        <time>2017-01-12T12:06:31Z</time>
      </trkpt>
      <trkpt lat="46.05692" lon="4.58954">
        <ele>393</ele>
        <time>2017-01-12T12:06:38Z</time>
      </trkpt>
      <trkpt lat="46.05691" lon="4.58955">
        <ele>393</ele>
        <time>2017-01-12T12:06:39Z</time>
      </trkpt>
      <trkpt lat="46.05684" lon="4.58964">
        <ele>393</ele>
        <time>2017-01-12T12:06:46Z</time>
      </trkpt>
      <trkpt lat="46.05683" lon="4.58965">
        <ele>393</ele>
        <time>2017-01-12T12:06:47Z</time>
      </trkpt>
      <trkpt lat="46.05678" lon="4.58975">
        <ele>393</ele>
        <time>2017-01-12T12:06:54Z</time>
      </trkpt>
      <trkpt lat="46.05678" lon="4.58977">
        <ele>392</ele>
        <time>2017-01-12T12:06:55Z</time>
      </trkpt>
      <trkpt lat="46.05672" lon="4.58986">
        <ele>392</ele>
        <time>2017-01-12T12:07:02Z</time>
      </trkpt>
      <trkpt lat="46.05672" lon="4.58988">
        <ele>392</ele>
        <time>2017-01-12T12:07:03Z</time>
      </trkpt>
      <trkpt lat="46.05669" lon="4.58999">
        <ele>390</ele>
        <time>2017-01-12T12:07:10Z</time>
      </trkpt>
      <trkpt lat="46.05668" lon="4.59001">
        <ele>390</ele>
        <time>2017-01-12T12:07:11Z</time>
      </trkpt>
      <trkpt lat="46.05665" lon="4.59013">
        <ele>385</ele>
        <time>2017-01-12T12:07:18Z</time>
      </trkpt>
      <trkpt lat="46.05665" lon="4.59015">
        <ele>384</ele>
        <time>2017-01-12T12:07:19Z</time>
      </trkpt>
      <trkpt lat="46.05664" lon="4.59027">
        <ele>382</ele>
        <time>2017-01-12T12:07:26Z</time>
      </trkpt>
      <trkpt lat="46.05663" lon="4.59029">
        <ele>381</ele>
        <time>2017-01-12T12:07:27Z</time>
      </trkpt>
      <trkpt lat="46.05664" lon="4.59041">
        <ele>380</ele>
        <time>2017-01-12T12:07:34Z</time>
      </trkpt>
      <trkpt lat="46.05664" lon="4.59043">
        <ele>380</ele>
        <time>2017-01-12T12:07:35Z</time>
      </trkpt>
      <trkpt lat="46.05664" lon="4.59055">
        <ele>380</ele>
        <time>2017-01-12T12:07:42Z</time>
      </trkpt>
      <trkpt lat="46.05663" lon="4.59057">
        <ele>380</ele>
        <time>2017-01-12T12:07:43Z</time>
      </trkpt>
      <trkpt lat="46.05662" lon="4.59069">
        <ele>381</ele>
        <time>2017-01-12T12:07:50Z</time>
      </trkpt>
      <trkpt lat="46.05662" lon="4.59071">
        <ele>382</ele>
        <time>2017-01-12T12:07:51Z</time>
      </trkpt>
      <trkpt lat="46.05662" lon="4.59082">
        <ele>383</ele>
        <time>2017-01-12T12:07:58Z</time>
      </trkpt>
      <trkpt lat="46.05662" lon="4.59084">
        <ele>383</ele>
        <time>2017-01-12T12:07:59Z</time>
      </trkpt>
      <trkpt lat="46.05661" lon="4.59096">
        <ele>380</ele>
        <time>2017-01-12T12:08:06Z</time>
      </trkpt>
      <trkpt lat="46.05661" lon="4.59098">
        <ele>379</ele>
        <time>2017-01-12T12:08:07Z</time>
      </trkpt>
      <trkpt lat="46.0566" lon="4.5911">
        <ele>377</ele>
        <time>2017-01-12T12:08:14Z</time>
      </trkpt>
      <trkpt lat="46.0566" lon="4.59112">
        <ele>377</ele>
        <time>2017-01-12T12:08:15Z</time>
      </trkpt>
      <trkpt lat="46.05658" lon="4.59123">
        <ele>376</ele>
        <time>2017-01-12T12:08:22Z</time>
      </trkpt>
      <trkpt lat="46.05658" lon="4.59125">
        <ele>376</ele>
        <time>2017-01-12T12:08:23Z</time>
      </trkpt>
      <trkpt lat="46.05659" lon="4.59137">
        <ele>376</ele>
        <time>2017-01-12T12:08:31Z</time>
      </trkpt>
      <trkpt lat="46.05659" lon="4.59138">
        <ele>376</ele>
        <time>2017-01-12T12:08:32Z</time>
      </trkpt>
      <trkpt lat="46.05657" lon="4.5915">
        <ele>376</ele>
        <time>2017-01-12T12:08:41Z</time>
      </trkpt>
      <trkpt lat="46.05657" lon="4.59152">
        <ele>376</ele>
        <time>2017-01-12T12:08:42Z</time>
      </trkpt>
      <trkpt lat="46.05656" lon="4.59163">
        <ele>377</ele>
        <time>2017-01-12T12:08:49Z</time>
      </trkpt>
      <trkpt lat="46.05655" lon="4.59164">
        <ele>377</ele>
        <time>2017-01-12T12:08:50Z</time>
      </trkpt>
      <trkpt lat="46.05653" lon="4.59176">
        <ele>373</ele>
        <time>2017-01-12T12:08:59Z</time>
      </trkpt>
      <trkpt lat="46.05653" lon="4.59178">
        <ele>373</ele>
        <time>2017-01-12T12:09:00Z</time>
      </trkpt>
      <trkpt lat="46.05644" lon="4.59177">
        <ele>371</ele>
        <time>2017-01-12T12:09:20Z</time>
      </trkpt>
      <trkpt lat="46.05644" lon="4.59175">
        <ele>371</ele>
        <time>2017-01-12T12:09:21Z</time>
      </trkpt>
      <trkpt lat="46.05635" lon="4.59173">
        <ele>370</ele>
        <time>2017-01-12T12:09:43Z</time>
      </trkpt>
      <trkpt lat="46.05634" lon="4.59174">
        <ele>370</ele>
        <time>2017-01-12T12:09:44Z</time>
      </trkpt>
      <trkpt lat="46.05627" lon="4.59169">
        <ele>368</ele>
        <time>2017-01-12T12:09:55Z</time>
      </trkpt>
      <trkpt lat="46.05626" lon="4.59169">
        <ele>368</ele>
        <time>2017-01-12T12:09:56Z</time>
      </trkpt>
      <trkpt lat="46.05617" lon="4.59173">
        <ele>367</ele>
        <time>2017-01-12T12:10:05Z</time>
      </trkpt>
      <trkpt lat="46.05616" lon="4.59174">
        <ele>366</ele>
        <time>2017-01-12T12:10:06Z</time>
      </trkpt>
      <trkpt lat="46.05614" lon="4.59186">
        <ele>366</ele>
        <time>2017-01-12T12:10:13Z</time>
      </trkpt>
      <trkpt lat="46.05614" lon="4.59187">
        <ele>366</ele>
        <time>2017-01-12T12:10:14Z</time>
      </trkpt>
      <trkpt lat="46.05617" lon="4.59199">
        <ele>366</ele>
        <time>2017-01-12T12:10:21Z</time>
      </trkpt>
      <trkpt lat="46.05617" lon="4.59201">
        <ele>366</ele>
        <time>2017-01-12T12:10:22Z</time>
      </trkpt>
      <trkpt lat="46.0562" lon="4.59212">
        <ele>366</ele>
        <time>2017-01-12T12:10:29Z</time>
      </trkpt>
      <trkpt lat="46.0562" lon="4.59213">
        <ele>366</ele>
        <time>2017-01-12T12:10:30Z</time>
      </trkpt>
      <trkpt lat="46.05622" lon="4.59225">
        <ele>366</ele>
        <time>2017-01-12T12:10:41Z</time>
      </trkpt>
      <trkpt lat="46.05622" lon="4.59227">
        <ele>366</ele>
        <time>2017-01-12T12:10:42Z</time>
      </trkpt>
      <trkpt lat="46.05622" lon="4.5924">
        <ele>365</ele>
        <time>2017-01-12T12:10:52Z</time>
      </trkpt>
      <trkpt lat="46.05621" lon="4.5924">
        <ele>365</ele>
        <time>2017-01-12T12:10:53Z</time>
      </trkpt>
      <trkpt lat="46.05613" lon="4.59241">
        <ele>364</ele>
        <time>2017-01-12T12:11:00Z</time>
      </trkpt>
      <trkpt lat="46.05612" lon="4.59241">
        <ele>363</ele>
        <time>2017-01-12T12:11:01Z</time>
      </trkpt>
      <trkpt lat="46.05605" lon="4.59247">
        <ele>362</ele>
        <time>2017-01-12T12:11:07Z</time>
      </trkpt>
      <trkpt lat="46.05604" lon="4.59248">
        <ele>361</ele>
        <time>2017-01-12T12:11:08Z</time>
      </trkpt>
      <trkpt lat="46.05604" lon="4.59261">
        <ele>358</ele>
        <time>2017-01-12T12:11:17Z</time>
      </trkpt>
      <trkpt lat="46.05605" lon="4.59262">
        <ele>358</ele>
        <time>2017-01-12T12:11:18Z</time>
      </trkpt>
      <trkpt lat="46.05607" lon="4.59275">
        <ele>358</ele>
        <time>2017-01-12T12:11:26Z</time>
      </trkpt>
      <trkpt lat="46.05607" lon="4.59277">
        <ele>358</ele>
        <time>2017-01-12T12:11:27Z</time>
      </trkpt>
      <trkpt lat="46.05608" lon="4.59288">
        <ele>358</ele>
        <time>2017-01-12T12:11:34Z</time>
      </trkpt>
      <trkpt lat="46.05609" lon="4.59289">
        <ele>358</ele>
        <time>2017-01-12T12:11:35Z</time>
      </trkpt>
      <trkpt lat="46.05609" lon="4.59302">
        <ele>357</ele>
        <time>2017-01-12T12:11:44Z</time>
      </trkpt>
      <trkpt lat="46.05609" lon="4.59303">
        <ele>357</ele>
        <time>2017-01-12T12:11:45Z</time>
      </trkpt>
      <trkpt lat="46.05602" lon="4.59297">
        <ele>357</ele>
        <time>2017-01-12T12:14:15Z</time>
      </trkpt>
      <trkpt lat="46.05601" lon="4.59296">
        <ele>357</ele>
        <time>2017-01-12T12:14:16Z</time>
      </trkpt>
      <trkpt lat="46.05599" lon="4.59283">
        <ele>357</ele>
        <time>2017-01-12T12:14:26Z</time>
      </trkpt>
      <trkpt lat="46.05599" lon="4.59282">
        <ele>357</ele>
        <time>2017-01-12T12:14:27Z</time>
      </trkpt>
      <trkpt lat="46.05596" lon="4.59271">
        <ele>357</ele>
        <time>2017-01-12T12:14:37Z</time>
      </trkpt>
      <trkpt lat="46.05595" lon="4.5927">
        <ele>357</ele>
        <time>2017-01-12T12:14:38Z</time>
      </trkpt>
      <trkpt lat="46.05593" lon="4.59259">
        <ele>356</ele>
        <time>2017-01-12T12:14:47Z</time>
      </trkpt>
      <trkpt lat="46.05593" lon="4.59257">
        <ele>356</ele>
        <time>2017-01-12T12:14:48Z</time>
      </trkpt>
      <trkpt lat="46.05593" lon="4.5927">
        <ele>357</ele>
        <time>2017-01-12T12:50:47Z</time>
      </trkpt>
      <trkpt lat="46.05593" lon="4.59271">
        <ele>357</ele>
        <time>2017-01-12T12:50:48Z</time>
      </trkpt>
      <trkpt lat="46.05596" lon="4.59282">
        <ele>357</ele>
        <time>2017-01-12T12:50:56Z</time>
      </trkpt>
      <trkpt lat="46.05596" lon="4.59283">
        <ele>357</ele>
        <time>2017-01-12T12:50:57Z</time>
      </trkpt>
      <trkpt lat="46.05597" lon="4.59296">
        <ele>356</ele>
        <time>2017-01-12T12:51:07Z</time>
      </trkpt>
      <trkpt lat="46.05597" lon="4.59297">
        <ele>356</ele>
        <time>2017-01-12T12:51:08Z</time>
      </trkpt>
      <trkpt lat="46.05598" lon="4.59308">
        <ele>355</ele>
        <time>2017-01-12T12:51:16Z</time>
      </trkpt>
      <trkpt lat="46.05598" lon="4.5931">
        <ele>355</ele>
        <time>2017-01-12T12:51:17Z</time>
      </trkpt>
      <trkpt lat="46.056" lon="4.59322">
        <ele>353</ele>
        <time>2017-01-12T12:51:24Z</time>
      </trkpt>
      <trkpt lat="46.056" lon="4.59324">
        <ele>353</ele>
        <time>2017-01-12T12:51:25Z</time>
      </trkpt>
      <trkpt lat="46.05602" lon="4.59336">
        <ele>349</ele>
        <time>2017-01-12T12:51:31Z</time>
      </trkpt>
      <trkpt lat="46.05603" lon="4.59338">
        <ele>349</ele>
        <time>2017-01-12T12:51:32Z</time>
      </trkpt>
      <trkpt lat="46.05603" lon="4.5935">
        <ele>350</ele>
        <time>2017-01-12T12:51:39Z</time>
      </trkpt>
      <trkpt lat="46.05603" lon="4.59352">
        <ele>350</ele>
        <time>2017-01-12T12:51:40Z</time>
      </trkpt>
      <trkpt lat="46.05606" lon="4.59364">
        <ele>350</ele>
        <time>2017-01-12T12:51:47Z</time>
      </trkpt>
      <trkpt lat="46.05606" lon="4.59366">
        <ele>350</ele>
        <time>2017-01-12T12:51:48Z</time>
      </trkpt>
      <trkpt lat="46.05607" lon="4.59378">
        <ele>350</ele>
        <time>2017-01-12T12:51:54Z</time>
      </trkpt>
      <trkpt lat="46.05608" lon="4.5938">
        <ele>350</ele>
        <time>2017-01-12T12:51:55Z</time>
      </trkpt>
      <trkpt lat="46.05609" lon="4.59393">
        <ele>349</ele>
        <time>2017-01-12T12:52:01Z</time>
      </trkpt>
      <trkpt lat="46.05609" lon="4.59395">
        <ele>349</ele>
        <time>2017-01-12T12:52:02Z</time>
      </trkpt>
      <trkpt lat="46.05609" lon="4.59408">
        <ele>348</ele>
        <time>2017-01-12T12:52:15Z</time>
      </trkpt>
      <trkpt lat="46.05609" lon="4.59408">
        <ele>348</ele>
        <time>2017-01-12T12:52:16Z</time>
      </trkpt>
      <trkpt lat="46.05617" lon="4.59414">
        <ele>349</ele>
        <time>2017-01-12T12:52:25Z</time>
      </trkpt>
      <trkpt lat="46.05618" lon="4.59415">
        <ele>349</ele>
        <time>2017-01-12T12:52:26Z</time>
      </trkpt>
      <trkpt lat="46.05626" lon="4.59421">
        <ele>347</ele>
        <time>2017-01-12T12:52:33Z</time>
      </trkpt>
      <trkpt lat="46.05627" lon="4.59421">
        <ele>347</ele>
        <time>2017-01-12T12:52:34Z</time>
      </trkpt>
      <trkpt lat="46.05635" lon="4.59425">
        <ele>349</ele>
        <time>2017-01-12T12:52:41Z</time>
      </trkpt>
      <trkpt lat="46.05636" lon="4.59425">
        <ele>349</ele>
        <time>2017-01-12T12:52:42Z</time>
      </trkpt>
      <trkpt lat="46.05641" lon="4.59435">
        <ele>349</ele>
        <time>2017-01-12T12:52:54Z</time>
      </trkpt>
      <trkpt lat="46.05641" lon="4.59437">
        <ele>349</ele>
        <time>2017-01-12T12:52:55Z</time>
      </trkpt>
      <trkpt lat="46.05642" lon="4.59425">
        <ele>350</ele>
        <time>2017-01-12T12:53:26Z</time>
      </trkpt>
      <trkpt lat="46.05642" lon="4.59423">
        <ele>350</ele>
        <time>2017-01-12T12:53:27Z</time>
      </trkpt>
      <trkpt lat="46.05649" lon="4.59427">
        <ele>351</ele>
        <time>2017-01-12T12:53:58Z</time>
      </trkpt>
      <trkpt lat="46.0565" lon="4.59429">
        <ele>351</ele>
        <time>2017-01-12T12:53:59Z</time>
      </trkpt>
      <trkpt lat="46.05652" lon="4.59441">
        <ele>350</ele>
        <time>2017-01-12T12:54:05Z</time>
      </trkpt>
      <trkpt lat="46.05652" lon="4.59442">
        <ele>350</ele>
        <time>2017-01-12T12:54:06Z</time>
      </trkpt>
      <trkpt lat="46.05653" lon="4.59454">
        <ele>349</ele>
        <time>2017-01-12T12:54:14Z</time>
      </trkpt>
      <trkpt lat="46.05653" lon="4.59456">
        <ele>349</ele>
        <time>2017-01-12T12:54:15Z</time>
      </trkpt>
      <trkpt lat="46.05652" lon="4.59467">
        <ele>349</ele>
        <time>2017-01-12T12:54:22Z</time>
      </trkpt>
      <trkpt lat="46.05652" lon="4.59469">
        <ele>349</ele>
        <time>2017-01-12T12:54:23Z</time>
      </trkpt>
      <trkpt lat="46.05654" lon="4.59481">
        <ele>350</ele>
        <time>2017-01-12T12:54:31Z</time>
      </trkpt>
      <trkpt lat="46.05655" lon="4.59483">
        <ele>350</ele>
        <time>2017-01-12T12:54:32Z</time>
      </trkpt>
      <trkpt lat="46.05661" lon="4.59491">
        <ele>352</ele>
        <time>2017-01-12T12:54:39Z</time>
      </trkpt>
      <trkpt lat="46.05661" lon="4.59492">
        <ele>352</ele>
        <time>2017-01-12T12:54:40Z</time>
      </trkpt>
      <trkpt lat="46.05669" lon="4.59498">
        <ele>356</ele>
        <time>2017-01-12T12:54:49Z</time>
      </trkpt>
      <trkpt lat="46.0567" lon="4.59498">
        <ele>356</ele>
        <time>2017-01-12T12:54:50Z</time>
      </trkpt>
      <trkpt lat="46.05677" lon="4.59504">
        <ele>356</ele>
        <time>2017-01-12T12:55:01Z</time>
      </trkpt>
      <trkpt lat="46.05678" lon="4.59504">
        <ele>357</ele>
        <time>2017-01-12T12:55:02Z</time>
      </trkpt>
      <trkpt lat="46.05684" lon="4.59512">
        <ele>357</ele>
        <time>2017-01-12T12:55:11Z</time>
      </trkpt>
      <trkpt lat="46.05685" lon="4.59513">
        <ele>357</ele>
        <time>2017-01-12T12:55:12Z</time>
      </trkpt>
      <trkpt lat="46.05691" lon="4.59521">
        <ele>358</ele>
        <time>2017-01-12T12:55:20Z</time>
      </trkpt>
      <trkpt lat="46.05692" lon="4.59522">
        <ele>358</ele>
        <time>2017-01-12T12:55:21Z</time>
      </trkpt>
      <trkpt lat="46.05698" lon="4.5953">
        <ele>358</ele>
        <time>2017-01-12T12:55:29Z</time>
      </trkpt>
      <trkpt lat="46.05698" lon="4.59531">
        <ele>358</ele>
        <time>2017-01-12T12:55:30Z</time>
      </trkpt>
      <trkpt lat="46.05705" lon="4.59539">
        <ele>358</ele>
        <time>2017-01-12T12:55:38Z</time>
      </trkpt>
      <trkpt lat="46.05706" lon="4.5954">
        <ele>358</ele>
        <time>2017-01-12T12:55:39Z</time>
      </trkpt>
      <trkpt lat="46.05713" lon="4.59547">
        <ele>359</ele>
        <time>2017-01-12T12:55:47Z</time>
      </trkpt>
      <trkpt lat="46.05714" lon="4.59548">
        <ele>359</ele>
        <time>2017-01-12T12:55:48Z</time>
      </trkpt>
      <trkpt lat="46.05721" lon="4.59555">
        <ele>359</ele>
        <time>2017-01-12T12:55:56Z</time>
      </trkpt>
      <trkpt lat="46.05722" lon="4.59555">
        <ele>359</ele>
        <time>2017-01-12T12:55:57Z</time>
      </trkpt>
      <trkpt lat="46.0573" lon="4.59559">
        <ele>359</ele>
        <time>2017-01-12T12:56:05Z</time>
      </trkpt>
      <trkpt lat="46.0573" lon="4.5956">
        <ele>359</ele>
        <time>2017-01-12T12:56:06Z</time>
      </trkpt>
      <trkpt lat="46.05739" lon="4.59561">
        <ele>360</ele>
        <time>2017-01-12T12:56:21Z</time>
      </trkpt>
      <trkpt lat="46.0574" lon="4.59561">
        <ele>360</ele>
        <time>2017-01-12T12:56:22Z</time>
      </trkpt>
      <trkpt lat="46.05747" lon="4.59568">
        <ele>360</ele>
        <time>2017-01-12T12:56:34Z</time>
      </trkpt>
      <trkpt lat="46.05747" lon="4.59568">
        <ele>360</ele>
        <time>2017-01-12T12:56:35Z</time>
      </trkpt>
      <trkpt lat="46.05754" lon="4.59575">
        <ele>364</ele>
        <time>2017-01-12T12:56:43Z</time>
      </trkpt>
      <trkpt lat="46.05755" lon="4.59576">
        <ele>364</ele>
        <time>2017-01-12T12:56:44Z</time>
      </trkpt>
      <trkpt lat="46.05763" lon="4.59578">
        <ele>365</ele>
        <time>2017-01-12T12:56:52Z</time>
      </trkpt>
      <trkpt lat="46.05764" lon="4.59578">
        <ele>365</ele>
        <time>2017-01-12T12:56:53Z</time>
      </trkpt>
      <trkpt lat="46.05773" lon="4.59579">
        <ele>366</ele>
        <time>2017-01-12T12:57:05Z</time>
      </trkpt>
      <trkpt lat="46.05773" lon="4.5958">
        <ele>366</ele>
        <time>2017-01-12T12:57:06Z</time>
      </trkpt>
      <trkpt lat="46.05778" lon="4.59589">
        <ele>360</ele>
        <time>2017-01-12T12:57:13Z</time>
      </trkpt>
      <trkpt lat="46.05779" lon="4.5959">
        <ele>360</ele>
        <time>2017-01-12T12:57:14Z</time>
      </trkpt>
      <trkpt lat="46.05785" lon="4.59599">
        <ele>360</ele>
        <time>2017-01-12T12:57:21Z</time>
      </trkpt>
      <trkpt lat="46.05786" lon="4.596">
        <ele>360</ele>
        <time>2017-01-12T12:57:22Z</time>
      </trkpt>
      <trkpt lat="46.05792" lon="4.5961">
        <ele>360</ele>
        <time>2017-01-12T12:57:30Z</time>
      </trkpt>
      <trkpt lat="46.05792" lon="4.5961">
        <ele>360</ele>
        <time>2017-01-12T12:57:31Z</time>
      </trkpt>
      <trkpt lat="46.05799" lon="4.59619">
        <ele>360</ele>
        <time>2017-01-12T12:57:39Z</time>
      </trkpt>
      <trkpt lat="46.058" lon="4.5962">
        <ele>360</ele>
        <time>2017-01-12T12:57:40Z</time>
      </trkpt>
      <trkpt lat="46.05806" lon="4.59629">
        <ele>360</ele>
        <time>2017-01-12T12:57:47Z</time>
      </trkpt>
      <trkpt lat="46.05806" lon="4.5963">
        <ele>360</ele>
        <time>2017-01-12T12:57:48Z</time>
      </trkpt>
      <trkpt lat="46.05811" lon="4.5964">
        <ele>359</ele>
        <time>2017-01-12T12:57:55Z</time>
      </trkpt>
      <trkpt lat="46.05812" lon="4.59641">
        <ele>359</ele>
        <time>2017-01-12T12:57:56Z</time>
      </trkpt>
      <trkpt lat="46.05817" lon="4.59651">
        <ele>360</ele>
        <time>2017-01-12T12:58:04Z</time>
      </trkpt>
      <trkpt lat="46.05818" lon="4.59652">
        <ele>360</ele>
        <time>2017-01-12T12:58:05Z</time>
      </trkpt>
      <trkpt lat="46.05825" lon="4.59659">
        <ele>361</ele>
        <time>2017-01-12T12:58:12Z</time>
      </trkpt>
      <trkpt lat="46.05826" lon="4.59659">
        <ele>361</ele>
        <time>2017-01-12T12:58:13Z</time>
      </trkpt>
      <trkpt lat="46.05834" lon="4.59657">
        <ele>361</ele>
        <time>2017-01-12T12:58:21Z</time>
      </trkpt>
      <trkpt lat="46.05835" lon="4.59657">
        <ele>361</ele>
        <time>2017-01-12T12:58:22Z</time>
      </trkpt>
      <trkpt lat="46.05844" lon="4.59654">
        <ele>361</ele>
        <time>2017-01-12T12:58:32Z</time>
      </trkpt>
      <trkpt lat="46.05845" lon="4.59654">
        <ele>361</ele>
        <time>2017-01-12T12:58:33Z</time>
      </trkpt>
      <trkpt lat="46.05854" lon="4.59657">
        <ele>360</ele>
        <time>2017-01-12T12:59:04Z</time>
      </trkpt>
      <trkpt lat="46.05854" lon="4.59658">
        <ele>360</ele>
        <time>2017-01-12T12:59:05Z</time>
      </trkpt>
      <trkpt lat="46.05857" lon="4.59669">
        <ele>358</ele>
        <time>2017-01-12T12:59:25Z</time>
      </trkpt>
      <trkpt lat="46.05857" lon="4.59671">
        <ele>358</ele>
        <time>2017-01-12T12:59:26Z</time>
      </trkpt>
      <trkpt lat="46.05859" lon="4.59682">
        <ele>358</ele>
        <time>2017-01-12T12:59:33Z</time>
      </trkpt>
      <trkpt lat="46.0586" lon="4.59684">
        <ele>358</ele>
        <time>2017-01-12T12:59:34Z</time>
      </trkpt>
      <trkpt lat="46.05862" lon="4.59695">
        <ele>357</ele>
        <time>2017-01-12T12:59:41Z</time>
      </trkpt>
      <trkpt lat="46.05862" lon="4.59696">
        <ele>357</ele>
        <time>2017-01-12T12:59:42Z</time>
      </trkpt>
      <trkpt lat="46.05864" lon="4.59707">
        <ele>357</ele>
        <time>2017-01-12T12:59:48Z</time>
      </trkpt>
      <trkpt lat="46.05864" lon="4.59709">
        <ele>357</ele>
        <time>2017-01-12T12:59:49Z</time>
      </trkpt>
      <trkpt lat="46.05864" lon="4.59721">
        <ele>356</ele>
        <time>2017-01-12T12:59:56Z</time>
      </trkpt>
      <trkpt lat="46.05864" lon="4.59723">
        <ele>356</ele>
        <time>2017-01-12T12:59:57Z</time>
      </trkpt>
      <trkpt lat="46.05866" lon="4.59734">
        <ele>356</ele>
        <time>2017-01-12T13:00:04Z</time>
      </trkpt>
      <trkpt lat="46.05866" lon="4.59736">
        <ele>356</ele>
        <time>2017-01-12T13:00:05Z</time>
      </trkpt>
      <trkpt lat="46.0587" lon="4.59746">
        <ele>356</ele>
        <time>2017-01-12T13:00:11Z</time>
      </trkpt>
      <trkpt lat="46.0587" lon="4.59748">
        <ele>356</ele>
        <time>2017-01-12T13:00:12Z</time>
      </trkpt>
      <trkpt lat="46.05874" lon="4.59759">
        <ele>353</ele>
        <time>2017-01-12T13:00:19Z</time>
      </trkpt>
      <trkpt lat="46.05874" lon="4.5976">
        <ele>353</ele>
        <time>2017-01-12T13:00:20Z</time>
      </trkpt>
      <trkpt lat="46.05876" lon="4.59771">
        <ele>353</ele>
        <time>2017-01-12T13:00:27Z</time>
      </trkpt>
      <trkpt lat="46.05876" lon="4.59773">
        <ele>353</ele>
        <time>2017-01-12T13:00:28Z</time>
      </trkpt>
      <trkpt lat="46.05878" lon="4.59785">
        <ele>353</ele>
        <time>2017-01-12T13:00:35Z</time>
      </trkpt>
      <trkpt lat="46.05878" lon="4.59787">
        <ele>353</ele>
        <time>2017-01-12T13:00:36Z</time>
      </trkpt>
      <trkpt lat="46.05879" lon="4.59799">
        <ele>352</ele>
        <time>2017-01-12T13:00:44Z</time>
      </trkpt>
      <trkpt lat="46.05879" lon="4.59801">
        <ele>352</ele>
        <time>2017-01-12T13:00:45Z</time>
      </trkpt>
      <trkpt lat="46.05878" lon="4.59812">
        <ele>352</ele>
        <time>2017-01-12T13:00:51Z</time>
      </trkpt>
      <trkpt lat="46.05878" lon="4.59814">
        <ele>352</ele>
        <time>2017-01-12T13:00:52Z</time>
      </trkpt>
      <trkpt lat="46.0588" lon="4.59826">
        <ele>352</ele>
        <time>2017-01-12T13:00:59Z</time>
      </trkpt>
      <trkpt lat="46.0588" lon="4.59828">
        <ele>352</ele>
        <time>2017-01-12T13:01:00Z</time>
      </trkpt>
      <trkpt lat="46.05881" lon="4.59839">
        <ele>348</ele>
        <time>2017-01-12T13:01:07Z</time>
      </trkpt>
      <trkpt lat="46.05881" lon="4.59841">
        <ele>348</ele>
        <time>2017-01-12T13:01:08Z</time>
      </trkpt>
      <trkpt lat="46.05883" lon="4.59852">
        <ele>348</ele>
        <time>2017-01-12T13:01:14Z</time>
      </trkpt>
      <trkpt lat="46.05883" lon="4.59854">
        <ele>348</ele>
        <time>2017-01-12T13:01:15Z</time>
      </trkpt>
      <trkpt lat="46.05883" lon="4.59867">
        <ele>347</ele>
        <time>2017-01-12T13:01:22Z</time>
      </trkpt>
      <trkpt lat="46.05883" lon="4.59868">
        <ele>347</ele>
        <time>2017-01-12T13:01:23Z</time>
      </trkpt>
      <trkpt lat="46.05885" lon="4.59879">
        <ele>347</ele>
        <time>2017-01-12T13:01:29Z</time>
      </trkpt>
      <trkpt lat="46.05885" lon="4.59881">
        <ele>347</ele>
        <time>2017-01-12T13:01:30Z</time>
      </trkpt>
      <trkpt lat="46.05888" lon="4.59891">
        <ele>346</ele>
        <time>2017-01-12T13:01:36Z</time>
      </trkpt>
      <trkpt lat="46.05888" lon="4.59893">
        <ele>346</ele>
        <time>2017-01-12T13:01:37Z</time>
      </trkpt>
      <trkpt lat="46.05888" lon="4.59905">
        <ele>346</ele>
        <time>2017-01-12T13:01:44Z</time>
      </trkpt>
      <trkpt lat="46.05888" lon="4.59907">
        <ele>346</ele>
        <time>2017-01-12T13:01:45Z</time>
      </trkpt>
      <trkpt lat="46.05889" lon="4.5992">
        <ele>341</ele>
        <time>2017-01-12T13:01:53Z</time>
      </trkpt>
      <trkpt lat="46.05889" lon="4.59921">
        <ele>341</ele>
        <time>2017-01-12T13:01:54Z</time>
      </trkpt>
      <trkpt lat="46.05891" lon="4.59933">
        <ele>341</ele>
        <time>2017-01-12T13:02:01Z</time>
      </trkpt>
      <trkpt lat="46.0589" lon="4.59935">
        <ele>341</ele>
        <time>2017-01-12T13:02:02Z</time>
      </trkpt>
      <trkpt lat="46.0589" lon="4.59947">
        <ele>340</ele>
        <time>2017-01-12T13:02:10Z</time>
      </trkpt>
      <trkpt lat="46.05889" lon="4.59949">
        <ele>340</ele>
        <time>2017-01-12T13:02:11Z</time>
      </trkpt>
      <trkpt lat="46.05891" lon="4.5996">
        <ele>339</ele>
        <time>2017-01-12T13:02:19Z</time>
      </trkpt>
      <trkpt lat="46.05891" lon="4.59962">
        <ele>339</ele>
        <time>2017-01-12T13:02:20Z</time>
      </trkpt>
      <trkpt lat="46.05892" lon="4.59974">
        <ele>338</ele>
        <time>2017-01-12T13:02:28Z</time>
      </trkpt>
      <trkpt lat="46.05892" lon="4.59975">
        <ele>338</ele>
        <time>2017-01-12T13:02:29Z</time>
      </trkpt>
      <trkpt lat="46.05891" lon="4.59987">
        <ele>338</ele>
        <time>2017-01-12T13:02:37Z</time>
      </trkpt>
      <trkpt lat="46.05891" lon="4.59988">
        <ele>338</ele>
        <time>2017-01-12T13:02:38Z</time>
      </trkpt>
      <trkpt lat="46.05895" lon="4.59999">
        <ele>338</ele>
        <time>2017-01-12T13:02:45Z</time>
      </trkpt>
      <trkpt lat="46.05895" lon="4.6">
        <ele>333</ele>
        <time>2017-01-12T13:02:46Z</time>
      </trkpt>
      <trkpt lat="46.05897" lon="4.60012">
        <ele>332</ele>
        <time>2017-01-12T13:02:54Z</time>
      </trkpt>
      <trkpt lat="46.05897" lon="4.60013">
        <ele>332</ele>
        <time>2017-01-12T13:02:55Z</time>
      </trkpt>
      <trkpt lat="46.05901" lon="4.60025">
        <ele>331</ele>
        <time>2017-01-12T13:03:03Z</time>
      </trkpt>
      <trkpt lat="46.05902" lon="4.60026">
        <ele>331</ele>
        <time>2017-01-12T13:03:04Z</time>
      </trkpt>
      <trkpt lat="46.05903" lon="4.60037">
        <ele>330</ele>
        <time>2017-01-12T13:03:12Z</time>
      </trkpt>
      <trkpt lat="46.05903" lon="4.60039">
        <ele>330</ele>
        <time>2017-01-12T13:03:13Z</time>
      </trkpt>
      <trkpt lat="46.05906" lon="4.6005">
        <ele>329</ele>
        <time>2017-01-12T13:03:21Z</time>
      </trkpt>
      <trkpt lat="46.05906" lon="4.60052">
        <ele>329</ele>
        <time>2017-01-12T13:03:22Z</time>
      </trkpt>
      <trkpt lat="46.0591" lon="4.60062">
        <ele>328</ele>
        <time>2017-01-12T13:03:29Z</time>
      </trkpt>
      <trkpt lat="46.0591" lon="4.60064">
        <ele>328</ele>
        <time>2017-01-12T13:03:30Z</time>
      </trkpt>
      <trkpt lat="46.05911" lon="4.60076">
        <ele>327</ele>
        <time>2017-01-12T13:03:39Z</time>
      </trkpt>
      <trkpt lat="46.05911" lon="4.60077">
        <ele>327</ele>
        <time>2017-01-12T13:03:40Z</time>
      </trkpt>
      <trkpt lat="46.05913" lon="4.60089">
        <ele>325</ele>
        <time>2017-01-12T13:03:49Z</time>
      </trkpt>
      <trkpt lat="46.05913" lon="4.6009">
        <ele>324</ele>
        <time>2017-01-12T13:03:50Z</time>
      </trkpt>
      <trkpt lat="46.05914" lon="4.60102">
        <ele>322</ele>
        <time>2017-01-12T13:03:59Z</time>
      </trkpt>
      <trkpt lat="46.05914" lon="4.60104">
        <ele>322</ele>
        <time>2017-01-12T13:04:00Z</time>
      </trkpt>
      <trkpt lat="46.05917" lon="4.60116">
        <ele>317</ele>
        <time>2017-01-12T13:04:08Z</time>
      </trkpt>
      <trkpt lat="46.05917" lon="4.60117">
        <ele>317</ele>
        <time>2017-01-12T13:04:09Z</time>
      </trkpt>
      <trkpt lat="46.0592" lon="4.60128">
        <ele>316</ele>
        <time>2017-01-12T13:04:17Z</time>
      </trkpt>
      <trkpt lat="46.0592" lon="4.6013">
        <ele>316</ele>
        <time>2017-01-12T13:04:18Z</time>
      </trkpt>
      <trkpt lat="46.05923" lon="4.60142">
        <ele>315</ele>
        <time>2017-01-12T13:04:27Z</time>
      </trkpt>
      <trkpt lat="46.05923" lon="4.60143">
        <ele>315</ele>
        <time>2017-01-12T13:04:28Z</time>
      </trkpt>
      <trkpt lat="46.05923" lon="4.60155">
        <ele>315</ele>
        <time>2017-01-12T13:04:36Z</time>
      </trkpt>
      <trkpt lat="46.05924" lon="4.60156">
        <ele>315</ele>
        <time>2017-01-12T13:04:37Z</time>
      </trkpt>
      <trkpt lat="46.05928" lon="4.60167">
        <ele>312</ele>
        <time>2017-01-12T13:04:45Z</time>
      </trkpt>
      <trkpt lat="46.05929" lon="4.60169">
        <ele>312</ele>
        <time>2017-01-12T13:04:46Z</time>
      </trkpt>
      <trkpt lat="46.05933" lon="4.6018">
        <ele>310</ele>
        <time>2017-01-12T13:04:54Z</time>
      </trkpt>
      <trkpt lat="46.05933" lon="4.60182">
        <ele>309</ele>
        <time>2017-01-12T13:04:55Z</time>
      </trkpt>
      <trkpt lat="46.05937" lon="4.60193">
        <ele>308</ele>
        <time>2017-01-12T13:05:03Z</time>
      </trkpt>
      <trkpt lat="46.05937" lon="4.60194">
        <ele>308</ele>
        <time>2017-01-12T13:05:04Z</time>
      </trkpt>
      <trkpt lat="46.05939" lon="4.60206">
        <ele>307</ele>
        <time>2017-01-12T13:05:18Z</time>
      </trkpt>
      <trkpt lat="46.0594" lon="4.60207">
        <ele>307</ele>
        <time>2017-01-12T13:05:19Z</time>
      </trkpt>
      <trkpt lat="46.05942" lon="4.60218">
        <ele>306</ele>
        <time>2017-01-12T13:05:26Z</time>
      </trkpt>
      <trkpt lat="46.05942" lon="4.6022">
        <ele>306</ele>
        <time>2017-01-12T13:05:27Z</time>
      </trkpt>
      <trkpt lat="46.05939" lon="4.60231">
        <ele>306</ele>
        <time>2017-01-12T13:05:35Z</time>
      </trkpt>
      <trkpt lat="46.05938" lon="4.60232">
        <ele>306</ele>
        <time>2017-01-12T13:05:36Z</time>
      </trkpt>
      <trkpt lat="46.05933" lon="4.60242">
        <ele>306</ele>
        <time>2017-01-12T13:05:44Z</time>
      </trkpt>
      <trkpt lat="46.05932" lon="4.60243">
        <ele>306</ele>
        <time>2017-01-12T13:05:45Z</time>
      </trkpt>
      <trkpt lat="46.05928" lon="4.60255">
        <ele>304</ele>
        <time>2017-01-12T13:05:53Z</time>
      </trkpt>
      <trkpt lat="46.05928" lon="4.60256">
        <ele>304</ele>
        <time>2017-01-12T13:05:54Z</time>
      </trkpt>
      <trkpt lat="46.05923" lon="4.60266">
        <ele>302</ele>
        <time>2017-01-12T13:06:03Z</time>
      </trkpt>
      <trkpt lat="46.05922" lon="4.60267">
        <ele>302</ele>
        <time>2017-01-12T13:06:04Z</time>
      </trkpt>
      <trkpt lat="46.05914" lon="4.60271">
        <ele>303</ele>
        <time>2017-01-12T13:06:14Z</time>
      </trkpt>
      <trkpt lat="46.05913" lon="4.60272">
        <ele>303</ele>
        <time>2017-01-12T13:06:15Z</time>
      </trkpt>
      <trkpt lat="46.05911" lon="4.60283">
        <ele>301</ele>
        <time>2017-01-12T13:06:51Z</time>
      </trkpt>
      <trkpt lat="46.05911" lon="4.60284">
        <ele>301</ele>
        <time>2017-01-12T13:06:52Z</time>
      </trkpt>
      <trkpt lat="46.05909" lon="4.60296">
        <ele>300</ele>
        <time>2017-01-12T13:06:59Z</time>
      </trkpt>
      <trkpt lat="46.05909" lon="4.60297">
        <ele>300</ele>
        <time>2017-01-12T13:07:00Z</time>
      </trkpt>
      <trkpt lat="46.05908" lon="4.60309">
        <ele>299</ele>
        <time>2017-01-12T13:07:07Z</time>
      </trkpt>
      <trkpt lat="46.05908" lon="4.60311">
        <ele>299</ele>
        <time>2017-01-12T13:07:08Z</time>
      </trkpt>
      <trkpt lat="46.05908" lon="4.60324">
        <ele>299</ele>
        <time>2017-01-12T13:07:16Z</time>
      </trkpt>
      <trkpt lat="46.05908" lon="4.60325">
        <ele>299</ele>
        <time>2017-01-12T13:07:17Z</time>
      </trkpt>
      <trkpt lat="46.05908" lon="4.60337">
        <ele>296</ele>
        <time>2017-01-12T13:07:24Z</time>
      </trkpt>
      <trkpt lat="46.05908" lon="4.60339">
        <ele>296</ele>
        <time>2017-01-12T13:07:25Z</time>
      </trkpt>
      <trkpt lat="46.05909" lon="4.60352">
        <ele>294</ele>
        <time>2017-01-12T13:07:32Z</time>
      </trkpt>
      <trkpt lat="46.05909" lon="4.60354">
        <ele>294</ele>
        <time>2017-01-12T13:07:33Z</time>
      </trkpt>
      <trkpt lat="46.05909" lon="4.60366">
        <ele>293</ele>
        <time>2017-01-12T13:07:40Z</time>
      </trkpt>
      <trkpt lat="46.05909" lon="4.60368">
        <ele>293</ele>
        <time>2017-01-12T13:07:41Z</time>
      </trkpt>
      <trkpt lat="46.05906" lon="4.6038">
        <ele>292</ele>
        <time>2017-01-12T13:07:47Z</time>
      </trkpt>
      <trkpt lat="46.05906" lon="4.60382">
        <ele>291</ele>
        <time>2017-01-12T13:07:48Z</time>
      </trkpt>
      <trkpt lat="46.05903" lon="4.60393">
        <ele>291</ele>
        <time>2017-01-12T13:07:54Z</time>
      </trkpt>
      <trkpt lat="46.05903" lon="4.60395">
        <ele>291</ele>
        <time>2017-01-12T13:07:55Z</time>
      </trkpt>
      <trkpt lat="46.059" lon="4.60407">
        <ele>290</ele>
        <time>2017-01-12T13:08:02Z</time>
      </trkpt>
      <trkpt lat="46.05899" lon="4.60408">
        <ele>290</ele>
        <time>2017-01-12T13:08:03Z</time>
      </trkpt>
      <trkpt lat="46.05895" lon="4.60418">
        <ele>286</ele>
        <time>2017-01-12T13:08:10Z</time>
      </trkpt>
      <trkpt lat="46.05895" lon="4.60419">
        <ele>286</ele>
        <time>2017-01-12T13:08:11Z</time>
      </trkpt>
      <trkpt lat="46.05889" lon="4.60427">
        <ele>285</ele>
        <time>2017-01-12T13:08:18Z</time>
      </trkpt>
      <trkpt lat="46.05888" lon="4.60428">
        <ele>285</ele>
        <time>2017-01-12T13:08:19Z</time>
      </trkpt>
      <trkpt lat="46.0588" lon="4.60434">
        <ele>284</ele>
        <time>2017-01-12T13:08:27Z</time>
      </trkpt>
      <trkpt lat="46.05879" lon="4.60434">
        <ele>284</ele>
        <time>2017-01-12T13:08:28Z</time>
      </trkpt>
      <trkpt lat="46.05871" lon="4.60434">
        <ele>284</ele>
        <time>2017-01-12T13:08:37Z</time>
      </trkpt>
      <trkpt lat="46.0587" lon="4.60434">
        <ele>284</ele>
        <time>2017-01-12T13:08:38Z</time>
      </trkpt>
      <trkpt lat="46.05862" lon="4.60429">
        <ele>284</ele>
        <time>2017-01-12T13:08:46Z</time>
      </trkpt>
      <trkpt lat="46.05861" lon="4.60429">
        <ele>284</ele>
        <time>2017-01-12T13:08:47Z</time>
      </trkpt>
      <trkpt lat="46.05853" lon="4.60422">
        <ele>284</ele>
        <time>2017-01-12T13:08:54Z</time>
      </trkpt>
      <trkpt lat="46.05852" lon="4.60421">
        <ele>284</ele>
        <time>2017-01-12T13:08:55Z</time>
      </trkpt>
      <trkpt lat="46.05846" lon="4.60413">
        <ele>287</ele>
        <time>2017-01-12T13:09:03Z</time>
      </trkpt>
      <trkpt lat="46.05845" lon="4.60412">
        <ele>287</ele>
        <time>2017-01-12T13:09:04Z</time>
      </trkpt>
      <trkpt lat="46.05839" lon="4.60404">
        <ele>287</ele>
        <time>2017-01-12T13:09:14Z</time>
      </trkpt>
      <trkpt lat="46.05838" lon="4.60403">
        <ele>287</ele>
        <time>2017-01-12T13:09:15Z</time>
      </trkpt>
      <trkpt lat="46.05831" lon="4.60396">
        <ele>285</ele>
        <time>2017-01-12T13:09:25Z</time>
      </trkpt>
      <trkpt lat="46.0583" lon="4.60396">
        <ele>285</ele>
        <time>2017-01-12T13:09:26Z</time>
      </trkpt>
      <trkpt lat="46.05822" lon="4.60391">
        <ele>284</ele>
        <time>2017-01-12T13:09:34Z</time>
      </trkpt>
      <trkpt lat="46.05821" lon="4.6039">
        <ele>284</ele>
        <time>2017-01-12T13:09:35Z</time>
      </trkpt>
      <trkpt lat="46.05814" lon="4.60384">
        <ele>284</ele>
        <time>2017-01-12T13:09:42Z</time>
      </trkpt>
      <trkpt lat="46.05813" lon="4.60383">
        <ele>284</ele>
        <time>2017-01-12T13:09:43Z</time>
      </trkpt>
      <trkpt lat="46.05806" lon="4.60379">
        <ele>284</ele>
        <time>2017-01-12T13:09:50Z</time>
      </trkpt>
      <trkpt lat="46.05805" lon="4.60378">
        <ele>284</ele>
        <time>2017-01-12T13:09:51Z</time>
      </trkpt>
      <trkpt lat="46.05798" lon="4.6037">
        <ele>284</ele>
        <time>2017-01-12T13:09:58Z</time>
      </trkpt>
      <trkpt lat="46.05797" lon="4.60369">
        <ele>284</ele>
        <time>2017-01-12T13:09:59Z</time>
      </trkpt>
      <trkpt lat="46.0579" lon="4.60363">
        <ele>284</ele>
        <time>2017-01-12T13:10:06Z</time>
      </trkpt>
      <trkpt lat="46.05789" lon="4.60362">
        <ele>284</ele>
        <time>2017-01-12T13:10:07Z</time>
      </trkpt>
      <trkpt lat="46.05781" lon="4.60363">
        <ele>283</ele>
        <time>2017-01-12T13:10:14Z</time>
      </trkpt>
      <trkpt lat="46.0578" lon="4.60364">
        <ele>283</ele>
        <time>2017-01-12T13:10:15Z</time>
      </trkpt>
      <trkpt lat="46.05771" lon="4.60366">
        <ele>283</ele>
        <time>2017-01-12T13:10:22Z</time>
      </trkpt>
      <trkpt lat="46.05769" lon="4.60366">
        <ele>282</ele>
        <time>2017-01-12T13:10:23Z</time>
      </trkpt>
      <trkpt lat="46.05761" lon="4.60369">
        <ele>282</ele>
        <time>2017-01-12T13:10:30Z</time>
      </trkpt>
      <trkpt lat="46.05759" lon="4.6037">
        <ele>282</ele>
        <time>2017-01-12T13:10:31Z</time>
      </trkpt>
      <trkpt lat="46.05751" lon="4.60374">
        <ele>282</ele>
        <time>2017-01-12T13:10:38Z</time>
      </trkpt>
      <trkpt lat="46.0575" lon="4.60375">
        <ele>282</ele>
        <time>2017-01-12T13:10:39Z</time>
      </trkpt>
      <trkpt lat="46.05743" lon="4.6038">
        <ele>283</ele>
        <time>2017-01-12T13:10:46Z</time>
      </trkpt>
      <trkpt lat="46.05742" lon="4.6038">
        <ele>283</ele>
        <time>2017-01-12T13:10:47Z</time>
      </trkpt>
      <trkpt lat="46.05734" lon="4.60383">
        <ele>283</ele>
        <time>2017-01-12T13:10:54Z</time>
      </trkpt>
      <trkpt lat="46.05733" lon="4.60384">
        <ele>283</ele>
        <time>2017-01-12T13:10:55Z</time>
      </trkpt>
      <trkpt lat="46.05724" lon="4.60387">
        <ele>284</ele>
        <time>2017-01-12T13:11:03Z</time>
      </trkpt>
      <trkpt lat="46.05723" lon="4.60388">
        <ele>284</ele>
        <time>2017-01-12T13:11:04Z</time>
      </trkpt>
      <trkpt lat="46.05716" lon="4.60394">
        <ele>285</ele>
        <time>2017-01-12T13:11:11Z</time>
      </trkpt>
      <trkpt lat="46.05715" lon="4.60395">
        <ele>285</ele>
        <time>2017-01-12T13:11:12Z</time>
      </trkpt>
      <trkpt lat="46.05709" lon="4.60403">
        <ele>285</ele>
        <time>2017-01-12T13:11:19Z</time>
      </trkpt>
      <trkpt lat="46.05708" lon="4.60404">
        <ele>285</ele>
        <time>2017-01-12T13:11:20Z</time>
      </trkpt>
      <trkpt lat="46.05704" lon="4.60415">
        <ele>286</ele>
        <time>2017-01-12T13:11:28Z</time>
      </trkpt>
      <trkpt lat="46.05703" lon="4.60416">
        <ele>286</ele>
        <time>2017-01-12T13:11:29Z</time>
      </trkpt>
      <trkpt lat="46.057" lon="4.60427">
        <ele>287</ele>
        <time>2017-01-12T13:11:37Z</time>
      </trkpt>
      <trkpt lat="46.057" lon="4.60428">
        <ele>287</ele>
        <time>2017-01-12T13:11:38Z</time>
      </trkpt>
      <trkpt lat="46.05704" lon="4.60439">
        <ele>287</ele>
        <time>2017-01-12T13:11:49Z</time>
      </trkpt>
      <trkpt lat="46.05705" lon="4.6044">
        <ele>286</ele>
        <time>2017-01-12T13:11:50Z</time>
      </trkpt>
      <trkpt lat="46.05711" lon="4.60449">
        <ele>286</ele>
        <time>2017-01-12T13:11:59Z</time>
      </trkpt>
      <trkpt lat="46.05712" lon="4.6045">
        <ele>286</ele>
        <time>2017-01-12T13:12:00Z</time>
      </trkpt>
      <trkpt lat="46.05718" lon="4.6046">
        <ele>285</ele>
        <time>2017-01-12T13:12:07Z</time>
      </trkpt>
      <trkpt lat="46.05718" lon="4.60461">
        <ele>285</ele>
        <time>2017-01-12T13:12:08Z</time>
      </trkpt>
      <trkpt lat="46.05723" lon="4.60471">
        <ele>285</ele>
        <time>2017-01-12T13:12:15Z</time>
      </trkpt>
      <trkpt lat="46.05723" lon="4.60473">
        <ele>285</ele>
        <time>2017-01-12T13:12:16Z</time>
      </trkpt>
      <trkpt lat="46.05726" lon="4.60483">
        <ele>284</ele>
        <time>2017-01-12T13:12:23Z</time>
      </trkpt>
      <trkpt lat="46.05727" lon="4.60485">
        <ele>284</ele>
        <time>2017-01-12T13:12:24Z</time>
      </trkpt>
      <trkpt lat="46.05729" lon="4.60497">
        <ele>284</ele>
        <time>2017-01-12T13:12:32Z</time>
      </trkpt>
      <trkpt lat="46.05729" lon="4.60498">
        <ele>284</ele>
        <time>2017-01-12T13:12:33Z</time>
      </trkpt>
      <trkpt lat="46.0573" lon="4.6051">
        <ele>285</ele>
        <time>2017-01-12T13:12:41Z</time>
      </trkpt>
      <trkpt lat="46.05731" lon="4.60511">
        <ele>285</ele>
        <time>2017-01-12T13:12:42Z</time>
      </trkpt>
      <trkpt lat="46.0573" lon="4.60523">
        <ele>286</ele>
        <time>2017-01-12T13:12:49Z</time>
      </trkpt>
      <trkpt lat="46.0573" lon="4.60525">
        <ele>286</ele>
        <time>2017-01-12T13:12:50Z</time>
      </trkpt>
      <trkpt lat="46.05726" lon="4.60536">
        <ele>287</ele>
        <time>2017-01-12T13:12:57Z</time>
      </trkpt>
      <trkpt lat="46.05725" lon="4.60537">
        <ele>287</ele>
        <time>2017-01-12T13:12:58Z</time>
      </trkpt>
      <trkpt lat="46.0572" lon="4.60547">
        <ele>287</ele>
        <time>2017-01-12T13:13:06Z</time>
      </trkpt>
      <trkpt lat="46.0572" lon="4.60548">
        <ele>287</ele>
        <time>2017-01-12T13:13:07Z</time>
      </trkpt>
      <trkpt lat="46.05713" lon="4.60554">
        <ele>288</ele>
        <time>2017-01-12T13:13:15Z</time>
      </trkpt>
      <trkpt lat="46.05712" lon="4.60554">
        <ele>288</ele>
        <time>2017-01-12T13:13:16Z</time>
      </trkpt>
      <trkpt lat="46.05703" lon="4.60554">
        <ele>289</ele>
        <time>2017-01-12T13:13:24Z</time>
      </trkpt>
      <trkpt lat="46.05702" lon="4.60553">
        <ele>289</ele>
        <time>2017-01-12T13:13:25Z</time>
      </trkpt>
      <trkpt lat="46.05694" lon="4.6055">
        <ele>289</ele>
        <time>2017-01-12T13:13:33Z</time>
      </trkpt>
      <trkpt lat="46.05693" lon="4.60549">
        <ele>290</ele>
        <time>2017-01-12T13:13:34Z</time>
      </trkpt>
      <trkpt lat="46.05685" lon="4.60546">
        <ele>290</ele>
        <time>2017-01-12T13:13:42Z</time>
      </trkpt>
      <trkpt lat="46.05684" lon="4.60546">
        <ele>290</ele>
        <time>2017-01-12T13:13:43Z</time>
      </trkpt>
      <trkpt lat="46.05675" lon="4.60543">
        <ele>291</ele>
        <time>2017-01-12T13:13:51Z</time>
      </trkpt>
      <trkpt lat="46.05674" lon="4.60543">
        <ele>291</ele>
        <time>2017-01-12T13:13:52Z</time>
      </trkpt>
      <trkpt lat="46.05665" lon="4.60541">
        <ele>297</ele>
        <time>2017-01-12T13:14:00Z</time>
      </trkpt>
      <trkpt lat="46.05664" lon="4.60541">
        <ele>297</ele>
        <time>2017-01-12T13:14:01Z</time>
      </trkpt>
      <trkpt lat="46.05656" lon="4.6054">
        <ele>297</ele>
        <time>2017-01-12T13:14:09Z</time>
      </trkpt>
      <trkpt lat="46.05655" lon="4.60539">
        <ele>297</ele>
        <time>2017-01-12T13:14:10Z</time>
      </trkpt>
      <trkpt lat="46.05647" lon="4.60535">
        <ele>297</ele>
        <time>2017-01-12T13:14:19Z</time>
      </trkpt>
      <trkpt lat="46.05646" lon="4.60535">
        <ele>297</ele>
        <time>2017-01-12T13:14:20Z</time>
      </trkpt>
      <trkpt lat="46.05637" lon="4.60535">
        <ele>298</ele>
        <time>2017-01-12T13:14:29Z</time>
      </trkpt>
      <trkpt lat="46.05636" lon="4.60535">
        <ele>298</ele>
        <time>2017-01-12T13:14:30Z</time>
      </trkpt>
      <trkpt lat="46.05628" lon="4.60531">
        <ele>298</ele>
        <time>2017-01-12T13:14:38Z</time>
      </trkpt>
      <trkpt lat="46.05627" lon="4.6053">
        <ele>298</ele>
        <time>2017-01-12T13:14:39Z</time>
      </trkpt>
      <trkpt lat="46.05619" lon="4.60525">
        <ele>298</ele>
        <time>2017-01-12T13:14:47Z</time>
      </trkpt>
      <trkpt lat="46.05618" lon="4.60525">
        <ele>299</ele>
        <time>2017-01-12T13:14:48Z</time>
      </trkpt>
      <trkpt lat="46.0561" lon="4.6052">
        <ele>299</ele>
        <time>2017-01-12T13:14:55Z</time>
      </trkpt>
      <trkpt lat="46.05609" lon="4.6052">
        <ele>299</ele>
        <time>2017-01-12T13:14:56Z</time>
      </trkpt>
      <trkpt lat="46.05601" lon="4.60515">
        <ele>300</ele>
        <time>2017-01-12T13:15:03Z</time>
      </trkpt>
      <trkpt lat="46.056" lon="4.60514">
        <ele>300</ele>
        <time>2017-01-12T13:15:04Z</time>
      </trkpt>
      <trkpt lat="46.05592" lon="4.6051">
        <ele>301</ele>
        <time>2017-01-12T13:15:12Z</time>
      </trkpt>
      <trkpt lat="46.05591" lon="4.60509">
        <ele>301</ele>
        <time>2017-01-12T13:15:13Z</time>
      </trkpt>
      <trkpt lat="46.05584" lon="4.60503">
        <ele>302</ele>
        <time>2017-01-12T13:15:22Z</time>
      </trkpt>
      <trkpt lat="46.05583" lon="4.60503">
        <ele>303</ele>
        <time>2017-01-12T13:15:23Z</time>
      </trkpt>
      <trkpt lat="46.05575" lon="4.60498">
        <ele>304</ele>
        <time>2017-01-12T13:15:31Z</time>
      </trkpt>
      <trkpt lat="46.05574" lon="4.60498">
        <ele>304</ele>
        <time>2017-01-12T13:15:32Z</time>
      </trkpt>
      <trkpt lat="46.05566" lon="4.60493">
        <ele>304</ele>
        <time>2017-01-12T13:15:39Z</time>
      </trkpt>
      <trkpt lat="46.05565" lon="4.60492">
        <ele>304</ele>
        <time>2017-01-12T13:15:40Z</time>
      </trkpt>
      <trkpt lat="46.05558" lon="4.60488">
        <ele>305</ele>
        <time>2017-01-12T13:15:48Z</time>
      </trkpt>
      <trkpt lat="46.05557" lon="4.60488">
        <ele>305</ele>
        <time>2017-01-12T13:15:49Z</time>
      </trkpt>
      <trkpt lat="46.05548" lon="4.60483">
        <ele>305</ele>
        <time>2017-01-12T13:15:57Z</time>
      </trkpt>
      <trkpt lat="46.05548" lon="4.60482">
        <ele>305</ele>
        <time>2017-01-12T13:15:58Z</time>
      </trkpt>
      <trkpt lat="46.0554" lon="4.60474">
        <ele>305</ele>
        <time>2017-01-12T13:16:07Z</time>
      </trkpt>
      <trkpt lat="46.0554" lon="4.60473">
        <ele>305</ele>
        <time>2017-01-12T13:16:08Z</time>
      </trkpt>
      <trkpt lat="46.05533" lon="4.60465">
        <ele>306</ele>
        <time>2017-01-12T13:16:15Z</time>
      </trkpt>
      <trkpt lat="46.05532" lon="4.60464">
        <ele>306</ele>
        <time>2017-01-12T13:16:16Z</time>
      </trkpt>
      <trkpt lat="46.05525" lon="4.60459">
        <ele>306</ele>
        <time>2017-01-12T13:16:23Z</time>
      </trkpt>
      <trkpt lat="46.05524" lon="4.60458">
        <ele>306</ele>
        <time>2017-01-12T13:16:24Z</time>
      </trkpt>
      <trkpt lat="46.05517" lon="4.60452">
        <ele>307</ele>
        <time>2017-01-12T13:16:32Z</time>
      </trkpt>
      <trkpt lat="46.05516" lon="4.60451">
        <ele>307</ele>
        <time>2017-01-12T13:16:33Z</time>
      </trkpt>
      <trkpt lat="46.0551" lon="4.60443">
        <ele>307</ele>
        <time>2017-01-12T13:16:40Z</time>
      </trkpt>
      <trkpt lat="46.05509" lon="4.60442">
        <ele>307</ele>
        <time>2017-01-12T13:16:41Z</time>
      </trkpt>
      <trkpt lat="46.05503" lon="4.60433">
        <ele>308</ele>
        <time>2017-01-12T13:16:48Z</time>
      </trkpt>
      <trkpt lat="46.05502" lon="4.60432">
        <ele>309</ele>
        <time>2017-01-12T13:16:49Z</time>
      </trkpt>
      <trkpt lat="46.05494" lon="4.60425">
        <ele>311</ele>
        <time>2017-01-12T13:16:57Z</time>
      </trkpt>
      <trkpt lat="46.05493" lon="4.60425">
        <ele>311</ele>
        <time>2017-01-12T13:16:58Z</time>
      </trkpt>
      <trkpt lat="46.05485" lon="4.60419">
        <ele>311</ele>
        <time>2017-01-12T13:17:06Z</time>
      </trkpt>
      <trkpt lat="46.05484" lon="4.60418">
        <ele>311</ele>
        <time>2017-01-12T13:17:07Z</time>
      </trkpt>
      <trkpt lat="46.05479" lon="4.60407">
        <ele>314</ele>
        <time>2017-01-12T13:17:15Z</time>
      </trkpt>
      <trkpt lat="46.05479" lon="4.60406">
        <ele>314</ele>
        <time>2017-01-12T13:17:16Z</time>
      </trkpt>
      <trkpt lat="46.05472" lon="4.60398">
        <ele>314</ele>
        <time>2017-01-12T13:17:24Z</time>
      </trkpt>
      <trkpt lat="46.05471" lon="4.60397">
        <ele>314</ele>
        <time>2017-01-12T13:17:25Z</time>
      </trkpt>
      <trkpt lat="46.05463" lon="4.60392">
        <ele>315</ele>
        <time>2017-01-12T13:17:33Z</time>
      </trkpt>
      <trkpt lat="46.05462" lon="4.60391">
        <ele>315</ele>
        <time>2017-01-12T13:17:34Z</time>
      </trkpt>
      <trkpt lat="46.05455" lon="4.60383">
        <ele>315</ele>
        <time>2017-01-12T13:17:43Z</time>
      </trkpt>
      <trkpt lat="46.05455" lon="4.60382">
        <ele>315</ele>
        <time>2017-01-12T13:17:44Z</time>
      </trkpt>
      <trkpt lat="46.05448" lon="4.60374">
        <ele>316</ele>
        <time>2017-01-12T13:17:52Z</time>
      </trkpt>
      <trkpt lat="46.05447" lon="4.60374">
        <ele>316</ele>
        <time>2017-01-12T13:17:53Z</time>
      </trkpt>
      <trkpt lat="46.05439" lon="4.6037">
        <ele>316</ele>
        <time>2017-01-12T13:18:00Z</time>
      </trkpt>
      <trkpt lat="46.05439" lon="4.60369">
        <ele>317</ele>
        <time>2017-01-12T13:18:01Z</time>
      </trkpt>
      <trkpt lat="46.05431" lon="4.60362">
        <ele>317</ele>
        <time>2017-01-12T13:18:10Z</time>
      </trkpt>
      <trkpt lat="46.0543" lon="4.60361">
        <ele>317</ele>
        <time>2017-01-12T13:18:11Z</time>
      </trkpt>
      <trkpt lat="46.05422" lon="4.60358">
        <ele>318</ele>
        <time>2017-01-12T13:18:20Z</time>
      </trkpt>
      <trkpt lat="46.05421" lon="4.60357">
        <ele>318</ele>
        <time>2017-01-12T13:18:21Z</time>
      </trkpt>
      <trkpt lat="46.05414" lon="4.60352">
        <ele>321</ele>
        <time>2017-01-12T13:18:29Z</time>
      </trkpt>
      <trkpt lat="46.05413" lon="4.60351">
        <ele>321</ele>
        <time>2017-01-12T13:18:30Z</time>
      </trkpt>
      <trkpt lat="46.05406" lon="4.60345">
        <ele>321</ele>
        <time>2017-01-12T13:18:38Z</time>
      </trkpt>
      <trkpt lat="46.05405" lon="4.60344">
        <ele>321</ele>
        <time>2017-01-12T13:18:39Z</time>
      </trkpt>
      <trkpt lat="46.05397" lon="4.60342">
        <ele>321</ele>
        <time>2017-01-12T13:18:48Z</time>
      </trkpt>
      <trkpt lat="46.05395" lon="4.60341">
        <ele>321</ele>
        <time>2017-01-12T13:18:49Z</time>
      </trkpt>
      <trkpt lat="46.05388" lon="4.60334">
        <ele>322</ele>
        <time>2017-01-12T13:18:58Z</time>
      </trkpt>
      <trkpt lat="46.05387" lon="4.60333">
        <ele>324</ele>
        <time>2017-01-12T13:18:59Z</time>
      </trkpt>
      <trkpt lat="46.05379" lon="4.60329">
        <ele>325</ele>
        <time>2017-01-12T13:19:08Z</time>
      </trkpt>
      <trkpt lat="46.05378" lon="4.60329">
        <ele>325</ele>
        <time>2017-01-12T13:19:09Z</time>
      </trkpt>
      <trkpt lat="46.0537" lon="4.60327">
        <ele>325</ele>
        <time>2017-01-12T13:19:16Z</time>
      </trkpt>
      <trkpt lat="46.05369" lon="4.60326">
        <ele>325</ele>
        <time>2017-01-12T13:19:17Z</time>
      </trkpt>
      <trkpt lat="46.05361" lon="4.60319">
        <ele>325</ele>
        <time>2017-01-12T13:19:26Z</time>
      </trkpt>
      <trkpt lat="46.05361" lon="4.60318">
        <ele>326</ele>
        <time>2017-01-12T13:19:27Z</time>
      </trkpt>
      <trkpt lat="46.05352" lon="4.60314">
        <ele>326</ele>
        <time>2017-01-12T13:19:36Z</time>
      </trkpt>
      <trkpt lat="46.05352" lon="4.60313">
        <ele>326</ele>
        <time>2017-01-12T13:19:37Z</time>
      </trkpt>
      <trkpt lat="46.05343" lon="4.60309">
        <ele>326</ele>
        <time>2017-01-12T13:19:45Z</time>
      </trkpt>
      <trkpt lat="46.05342" lon="4.60308">
        <ele>326</ele>
        <time>2017-01-12T13:19:46Z</time>
      </trkpt>
      <trkpt lat="46.05334" lon="4.60307">
        <ele>326</ele>
        <time>2017-01-12T13:19:53Z</time>
      </trkpt>
      <trkpt lat="46.05333" lon="4.60306">
        <ele>329</ele>
        <time>2017-01-12T13:19:54Z</time>
      </trkpt>
      <trkpt lat="46.05326" lon="4.60301">
        <ele>329</ele>
        <time>2017-01-12T13:20:02Z</time>
      </trkpt>
      <trkpt lat="46.05325" lon="4.60301">
        <ele>329</ele>
        <time>2017-01-12T13:20:03Z</time>
      </trkpt>
      <trkpt lat="46.05316" lon="4.60296">
        <ele>329</ele>
        <time>2017-01-12T13:20:12Z</time>
      </trkpt>
      <trkpt lat="46.05315" lon="4.60296">
        <ele>329</ele>
        <time>2017-01-12T13:20:13Z</time>
      </trkpt>
      <trkpt lat="46.05308" lon="4.6029">
        <ele>330</ele>
        <time>2017-01-12T13:20:22Z</time>
      </trkpt>
      <trkpt lat="46.05307" lon="4.60289">
        <ele>330</ele>
        <time>2017-01-12T13:20:23Z</time>
      </trkpt>
      <trkpt lat="46.05299" lon="4.60284">
        <ele>330</ele>
        <time>2017-01-12T13:20:31Z</time>
      </trkpt>
      <trkpt lat="46.05298" lon="4.60283">
        <ele>330</ele>
        <time>2017-01-12T13:20:32Z</time>
      </trkpt>
      <trkpt lat="46.0529" lon="4.60278">
        <ele>331</ele>
        <time>2017-01-12T13:20:39Z</time>
      </trkpt>
      <trkpt lat="46.05289" lon="4.60277">
        <ele>331</ele>
        <time>2017-01-12T13:20:40Z</time>
      </trkpt>
      <trkpt lat="46.05282" lon="4.60269">
        <ele>332</ele>
        <time>2017-01-12T13:20:47Z</time>
      </trkpt>
      <trkpt lat="46.05282" lon="4.60267">
        <ele>332</ele>
        <time>2017-01-12T13:20:48Z</time>
      </trkpt>
      <trkpt lat="46.05275" lon="4.60261">
        <ele>332</ele>
        <time>2017-01-12T13:20:56Z</time>
      </trkpt>
      <trkpt lat="46.05274" lon="4.6026">
        <ele>333</ele>
        <time>2017-01-12T13:20:57Z</time>
      </trkpt>
      <trkpt lat="46.05266" lon="4.60253">
        <ele>334</ele>
        <time>2017-01-12T13:21:06Z</time>
      </trkpt>
      <trkpt lat="46.05265" lon="4.60252">
        <ele>334</ele>
        <time>2017-01-12T13:21:07Z</time>
      </trkpt>
      <trkpt lat="46.05259" lon="4.60245">
        <ele>337</ele>
        <time>2017-01-12T13:21:15Z</time>
      </trkpt>
      <trkpt lat="46.05258" lon="4.60244">
        <ele>337</ele>
        <time>2017-01-12T13:21:16Z</time>
      </trkpt>
      <trkpt lat="46.0525" lon="4.60239">
        <ele>337</ele>
        <time>2017-01-12T13:21:23Z</time>
      </trkpt>
      <trkpt lat="46.05249" lon="4.60238">
        <ele>339</ele>
        <time>2017-01-12T13:21:24Z</time>
      </trkpt>
      <trkpt lat="46.05243" lon="4.60229">
        <ele>340</ele>
        <time>2017-01-12T13:21:33Z</time>
      </trkpt>
      <trkpt lat="46.05242" lon="4.60228">
        <ele>340</ele>
        <time>2017-01-12T13:21:34Z</time>
      </trkpt>
      <trkpt lat="46.05235" lon="4.60221">
        <ele>341</ele>
        <time>2017-01-12T13:21:42Z</time>
      </trkpt>
      <trkpt lat="46.05234" lon="4.6022">
        <ele>341</ele>
        <time>2017-01-12T13:21:43Z</time>
      </trkpt>
      <trkpt lat="46.05228" lon="4.60211">
        <ele>342</ele>
        <time>2017-01-12T13:21:52Z</time>
      </trkpt>
      <trkpt lat="46.05228" lon="4.6021">
        <ele>342</ele>
        <time>2017-01-12T13:21:53Z</time>
      </trkpt>
      <trkpt lat="46.05221" lon="4.60205">
        <ele>342</ele>
        <time>2017-01-12T13:22:03Z</time>
      </trkpt>
      <trkpt lat="46.0522" lon="4.60204">
        <ele>342</ele>
        <time>2017-01-12T13:22:04Z</time>
      </trkpt>
      <trkpt lat="46.05212" lon="4.60197">
        <ele>343</ele>
        <time>2017-01-12T13:22:13Z</time>
      </trkpt>
      <trkpt lat="46.05212" lon="4.60196">
        <ele>343</ele>
        <time>2017-01-12T13:22:14Z</time>
      </trkpt>
      <trkpt lat="46.05205" lon="4.60191">
        <ele>343</ele>
        <time>2017-01-12T13:22:21Z</time>
      </trkpt>
      <trkpt lat="46.05204" lon="4.6019">
        <ele>344</ele>
        <time>2017-01-12T13:22:22Z</time>
      </trkpt>
      <trkpt lat="46.05196" lon="4.60183">
        <ele>344</ele>
        <time>2017-01-12T13:22:30Z</time>
      </trkpt>
      <trkpt lat="46.05196" lon="4.60182">
        <ele>344</ele>
        <time>2017-01-12T13:22:31Z</time>
      </trkpt>
      <trkpt lat="46.05188" lon="4.60175">
        <ele>345</ele>
        <time>2017-01-12T13:22:41Z</time>
      </trkpt>
      <trkpt lat="46.05188" lon="4.60174">
        <ele>346</ele>
        <time>2017-01-12T13:22:42Z</time>
      </trkpt>
      <trkpt lat="46.05181" lon="4.60168">
        <ele>347</ele>
        <time>2017-01-12T13:22:52Z</time>
      </trkpt>
      <trkpt lat="46.0518" lon="4.60168">
        <ele>347</ele>
        <time>2017-01-12T13:22:53Z</time>
      </trkpt>
      <trkpt lat="46.05173" lon="4.60162">
        <ele>349</ele>
        <time>2017-01-12T13:23:01Z</time>
      </trkpt>
      <trkpt lat="46.05172" lon="4.60162">
        <ele>349</ele>
        <time>2017-01-12T13:23:02Z</time>
      </trkpt>
      <trkpt lat="46.05164" lon="4.60155">
        <ele>352</ele>
        <time>2017-01-12T13:24:37Z</time>
      </trkpt>
      <trkpt lat="46.05163" lon="4.60154">
        <ele>352</ele>
        <time>2017-01-12T13:24:38Z</time>
      </trkpt>
      <trkpt lat="46.05155" lon="4.60147">
        <ele>352</ele>
        <time>2017-01-12T13:24:47Z</time>
      </trkpt>
      <trkpt lat="46.05154" lon="4.60146">
        <ele>353</ele>
        <time>2017-01-12T13:24:48Z</time>
      </trkpt>
      <trkpt lat="46.05149" lon="4.60138">
        <ele>353</ele>
        <time>2017-01-12T13:24:56Z</time>
      </trkpt>
      <trkpt lat="46.05148" lon="4.60137">
        <ele>353</ele>
        <time>2017-01-12T13:24:57Z</time>
      </trkpt>
      <trkpt lat="46.05141" lon="4.60131">
        <ele>354</ele>
        <time>2017-01-12T13:25:04Z</time>
      </trkpt>
      <trkpt lat="46.0514" lon="4.6013">
        <ele>354</ele>
        <time>2017-01-12T13:25:05Z</time>
      </trkpt>
      <trkpt lat="46.05135" lon="4.60119">
        <ele>355</ele>
        <time>2017-01-12T13:25:15Z</time>
      </trkpt>
      <trkpt lat="46.05134" lon="4.60119">
        <ele>355</ele>
        <time>2017-01-12T13:25:16Z</time>
      </trkpt>
      <trkpt lat="46.05128" lon="4.6011">
        <ele>355</ele>
        <time>2017-01-12T13:25:26Z</time>
      </trkpt>
      <trkpt lat="46.05127" lon="4.6011">
        <ele>355</ele>
        <time>2017-01-12T13:25:27Z</time>
      </trkpt>
      <trkpt lat="46.05123" lon="4.60099">
        <ele>356</ele>
        <time>2017-01-12T13:25:40Z</time>
      </trkpt>
      <trkpt lat="46.05123" lon="4.60097">
        <ele>356</ele>
        <time>2017-01-12T13:25:41Z</time>
      </trkpt>
      <trkpt lat="46.05122" lon="4.60085">
        <ele>357</ele>
        <time>2017-01-12T13:25:52Z</time>
      </trkpt>
      <trkpt lat="46.05122" lon="4.60084">
        <ele>357</ele>
        <time>2017-01-12T13:25:53Z</time>
      </trkpt>
      <trkpt lat="46.05119" lon="4.60072">
        <ele>363</ele>
        <time>2017-01-12T13:26:03Z</time>
      </trkpt>
      <trkpt lat="46.05119" lon="4.60071">
        <ele>363</ele>
        <time>2017-01-12T13:26:04Z</time>
      </trkpt>
      <trkpt lat="46.05117" lon="4.6006">
        <ele>364</ele>
        <time>2017-01-12T13:26:13Z</time>
      </trkpt>
      <trkpt lat="46.05117" lon="4.60058">
        <ele>364</ele>
        <time>2017-01-12T13:26:14Z</time>
      </trkpt>
      <trkpt lat="46.05114" lon="4.60047">
        <ele>365</ele>
        <time>2017-01-12T13:26:25Z</time>
      </trkpt>
      <trkpt lat="46.05114" lon="4.60046">
        <ele>365</ele>
        <time>2017-01-12T13:26:26Z</time>
      </trkpt>
      <trkpt lat="46.05112" lon="4.60034">
        <ele>366</ele>
        <time>2017-01-12T13:26:36Z</time>
      </trkpt>
      <trkpt lat="46.05111" lon="4.60033">
        <ele>366</ele>
        <time>2017-01-12T13:26:37Z</time>
      </trkpt>
      <trkpt lat="46.05108" lon="4.60021">
        <ele>367</ele>
        <time>2017-01-12T13:26:48Z</time>
      </trkpt>
      <trkpt lat="46.05108" lon="4.6002">
        <ele>367</ele>
        <time>2017-01-12T13:26:49Z</time>
      </trkpt>
      <trkpt lat="46.05105" lon="4.60007">
        <ele>369</ele>
        <time>2017-01-12T13:27:00Z</time>
      </trkpt>
      <trkpt lat="46.05105" lon="4.60007">
        <ele>369</ele>
        <time>2017-01-12T13:27:01Z</time>
      </trkpt>
      <trkpt lat="46.05103" lon="4.59994">
        <ele>373</ele>
        <time>2017-01-12T13:27:14Z</time>
      </trkpt>
      <trkpt lat="46.05103" lon="4.59993">
        <ele>373</ele>
        <time>2017-01-12T13:27:15Z</time>
      </trkpt>
      <trkpt lat="46.05099" lon="4.59982">
        <ele>374</ele>
        <time>2017-01-12T13:27:27Z</time>
      </trkpt>
      <trkpt lat="46.05099" lon="4.59981">
        <ele>373</ele>
        <time>2017-01-12T13:27:28Z</time>
      </trkpt>
      <trkpt lat="46.05098" lon="4.59969">
        <ele>374</ele>
        <time>2017-01-12T13:27:40Z</time>
      </trkpt>
      <trkpt lat="46.05098" lon="4.59968">
        <ele>374</ele>
        <time>2017-01-12T13:27:41Z</time>
      </trkpt>
      <trkpt lat="46.05096" lon="4.59955">
        <ele>374</ele>
        <time>2017-01-12T13:27:55Z</time>
      </trkpt>
      <trkpt lat="46.05096" lon="4.59954">
        <ele>374</ele>
        <time>2017-01-12T13:27:56Z</time>
      </trkpt>
      <trkpt lat="46.05092" lon="4.59943">
        <ele>376</ele>
        <time>2017-01-12T13:28:08Z</time>
      </trkpt>
      <trkpt lat="46.05092" lon="4.59942">
        <ele>376</ele>
        <time>2017-01-12T13:28:09Z</time>
      </trkpt>
      <trkpt lat="46.05089" lon="4.5993">
        <ele>379</ele>
        <time>2017-01-12T13:28:21Z</time>
      </trkpt>
      <trkpt lat="46.05088" lon="4.59929">
        <ele>379</ele>
        <time>2017-01-12T13:28:22Z</time>
      </trkpt>
      <trkpt lat="46.05086" lon="4.59917">
        <ele>384</ele>
        <time>2017-01-12T13:29:07Z</time>
      </trkpt>
      <trkpt lat="46.05086" lon="4.59916">
        <ele>384</ele>
        <time>2017-01-12T13:29:08Z</time>
      </trkpt>
      <trkpt lat="46.05084" lon="4.59903">
        <ele>380</ele>
        <time>2017-01-12T13:29:18Z</time>
      </trkpt>
      <trkpt lat="46.05083" lon="4.59902">
        <ele>379</ele>
        <time>2017-01-12T13:29:19Z</time>
      </trkpt>
      <trkpt lat="46.05081" lon="4.5989">
        <ele>386</ele>
        <time>2017-01-12T13:29:30Z</time>
      </trkpt>
      <trkpt lat="46.05081" lon="4.59889">
        <ele>386</ele>
        <time>2017-01-12T13:29:31Z</time>
      </trkpt>
      <trkpt lat="46.05077" lon="4.59878">
        <ele>386</ele>
        <time>2017-01-12T13:29:45Z</time>
      </trkpt>
      <trkpt lat="46.05077" lon="4.59877">
        <ele>386</ele>
        <time>2017-01-12T13:29:46Z</time>
      </trkpt>
      <trkpt lat="46.0507" lon="4.59868">
        <ele>386</ele>
        <time>2017-01-12T13:30:44Z</time>
      </trkpt>
      <trkpt lat="46.0507" lon="4.59868">
        <ele>386</ele>
        <time>2017-01-12T13:30:45Z</time>
      </trkpt>
      <trkpt lat="46.05062" lon="4.5986">
        <ele>386</ele>
        <time>2017-01-12T13:30:54Z</time>
      </trkpt>
      <trkpt lat="46.05062" lon="4.59859">
        <ele>386</ele>
        <time>2017-01-12T13:30:55Z</time>
      </trkpt>
      <trkpt lat="46.05054" lon="4.59854">
        <ele>386</ele>
        <time>2017-01-12T13:31:03Z</time>
      </trkpt>
      <trkpt lat="46.05053" lon="4.59853">
        <ele>386</ele>
        <time>2017-01-12T13:31:04Z</time>
      </trkpt>
      <trkpt lat="46.05046" lon="4.59846">
        <ele>386</ele>
        <time>2017-01-12T13:31:12Z</time>
      </trkpt>
      <trkpt lat="46.05046" lon="4.59846">
        <ele>387</ele>
        <time>2017-01-12T13:31:13Z</time>
      </trkpt>
      <trkpt lat="46.05038" lon="4.59841">
        <ele>387</ele>
        <time>2017-01-12T13:31:20Z</time>
      </trkpt>
      <trkpt lat="46.05037" lon="4.5984">
        <ele>387</ele>
        <time>2017-01-12T13:31:21Z</time>
      </trkpt>
      <trkpt lat="46.0503" lon="4.59834">
        <ele>388</ele>
        <time>2017-01-12T13:31:28Z</time>
      </trkpt>
      <trkpt lat="46.05029" lon="4.59833">
        <ele>383</ele>
        <time>2017-01-12T13:31:29Z</time>
      </trkpt>
      <trkpt lat="46.05022" lon="4.59826">
        <ele>384</ele>
        <time>2017-01-12T13:31:37Z</time>
      </trkpt>
      <trkpt lat="46.05021" lon="4.59825">
        <ele>384</ele>
        <time>2017-01-12T13:31:38Z</time>
      </trkpt>
      <trkpt lat="46.05013" lon="4.59821">
        <ele>385</ele>
        <time>2017-01-12T13:31:45Z</time>
      </trkpt>
      <trkpt lat="46.05012" lon="4.5982">
        <ele>385</ele>
        <time>2017-01-12T13:31:46Z</time>
      </trkpt>
      <trkpt lat="46.05005" lon="4.59814">
        <ele>385</ele>
        <time>2017-01-12T13:31:54Z</time>
      </trkpt>
      <trkpt lat="46.05004" lon="4.59812">
        <ele>385</ele>
        <time>2017-01-12T13:31:55Z</time>
      </trkpt>
      <trkpt lat="46.04999" lon="4.59801">
        <ele>389</ele>
        <time>2017-01-12T13:32:04Z</time>
      </trkpt>
      <trkpt lat="46.04999" lon="4.59801">
        <ele>389</ele>
        <time>2017-01-12T13:32:05Z</time>
      </trkpt>
      <trkpt lat="46.04991" lon="4.59795">
        <ele>388</ele>
        <time>2017-01-12T13:32:14Z</time>
      </trkpt>
      <trkpt lat="46.0499" lon="4.59795">
        <ele>388</ele>
        <time>2017-01-12T13:32:15Z</time>
      </trkpt>
      <trkpt lat="46.04983" lon="4.59786">
        <ele>388</ele>
        <time>2017-01-12T13:32:23Z</time>
      </trkpt>
      <trkpt lat="46.04982" lon="4.59785">
        <ele>388</ele>
        <time>2017-01-12T13:32:24Z</time>
      </trkpt>
      <trkpt lat="46.04976" lon="4.59777">
        <ele>388</ele>
        <time>2017-01-12T13:32:32Z</time>
      </trkpt>
      <trkpt lat="46.04975" lon="4.59776">
        <ele>388</ele>
        <time>2017-01-12T13:32:33Z</time>
      </trkpt>
      <trkpt lat="46.04968" lon="4.59768">
        <ele>388</ele>
        <time>2017-01-12T13:32:41Z</time>
      </trkpt>
      <trkpt lat="46.04967" lon="4.59767">
        <ele>388</ele>
        <time>2017-01-12T13:32:42Z</time>
      </trkpt>
      <trkpt lat="46.04962" lon="4.59758">
        <ele>388</ele>
        <time>2017-01-12T13:32:49Z</time>
      </trkpt>
      <trkpt lat="46.04961" lon="4.59757">
        <ele>388</ele>
        <time>2017-01-12T13:32:50Z</time>
      </trkpt>
      <trkpt lat="46.04954" lon="4.59749">
        <ele>385</ele>
        <time>2017-01-12T13:32:58Z</time>
      </trkpt>
      <trkpt lat="46.04953" lon="4.59748">
        <ele>385</ele>
        <time>2017-01-12T13:32:59Z</time>
      </trkpt>
      <trkpt lat="46.04946" lon="4.5974">
        <ele>385</ele>
        <time>2017-01-12T13:33:07Z</time>
      </trkpt>
      <trkpt lat="46.04945" lon="4.59739">
        <ele>385</ele>
        <time>2017-01-12T13:33:08Z</time>
      </trkpt>
      <trkpt lat="46.0494" lon="4.59729">
        <ele>385</ele>
        <time>2017-01-12T13:33:16Z</time>
      </trkpt>
      <trkpt lat="46.04939" lon="4.59728">
        <ele>385</ele>
        <time>2017-01-12T13:33:17Z</time>
      </trkpt>
      <trkpt lat="46.04932" lon="4.59721">
        <ele>385</ele>
        <time>2017-01-12T13:33:24Z</time>
      </trkpt>
      <trkpt lat="46.04931" lon="4.59721">
        <ele>385</ele>
        <time>2017-01-12T13:33:25Z</time>
      </trkpt>
      <trkpt lat="46.04923" lon="4.59715">
        <ele>385</ele>
        <time>2017-01-12T13:33:34Z</time>
      </trkpt>
      <trkpt lat="46.04923" lon="4.59715">
        <ele>385</ele>
        <time>2017-01-12T13:33:35Z</time>
      </trkpt>
      <trkpt lat="46.04918" lon="4.59724">
        <ele>386</ele>
        <time>2017-01-12T13:33:44Z</time>
      </trkpt>
      <trkpt lat="46.04917" lon="4.59725">
        <ele>387</ele>
        <time>2017-01-12T13:33:45Z</time>
      </trkpt>
      <trkpt lat="46.04911" lon="4.59734">
        <ele>394</ele>
        <time>2017-01-12T13:33:56Z</time>
      </trkpt>
      <trkpt lat="46.0491" lon="4.59734">
        <ele>394</ele>
        <time>2017-01-12T13:33:57Z</time>
      </trkpt>
      <trkpt lat="46.04903" lon="4.59742">
        <ele>394</ele>
        <time>2017-01-12T13:34:10Z</time>
      </trkpt>
      <trkpt lat="46.04903" lon="4.59743">
        <ele>394</ele>
        <time>2017-01-12T13:34:11Z</time>
      </trkpt>
      <trkpt lat="46.04895" lon="4.5975">
        <ele>392</ele>
        <time>2017-01-12T13:34:22Z</time>
      </trkpt>
      <trkpt lat="46.04895" lon="4.59751">
        <ele>392</ele>
        <time>2017-01-12T13:34:23Z</time>
      </trkpt>
      <trkpt lat="46.04887" lon="4.59744">
        <ele>396</ele>
        <time>2017-01-12T13:34:36Z</time>
      </trkpt>
      <trkpt lat="46.04887" lon="4.59743">
        <ele>396</ele>
        <time>2017-01-12T13:34:37Z</time>
      </trkpt>
      <trkpt lat="46.04881" lon="4.59734">
        <ele>396</ele>
        <time>2017-01-12T13:34:49Z</time>
      </trkpt>
      <trkpt lat="46.04881" lon="4.59733">
        <ele>396</ele>
        <time>2017-01-12T13:34:50Z</time>
      </trkpt>
      <trkpt lat="46.04875" lon="4.59723">
        <ele>397</ele>
        <time>2017-01-12T13:35:04Z</time>
      </trkpt>
      <trkpt lat="46.04875" lon="4.59722">
        <ele>397</ele>
        <time>2017-01-12T13:35:05Z</time>
      </trkpt>
      <trkpt lat="46.04869" lon="4.59714">
        <ele>398</ele>
        <time>2017-01-12T13:35:15Z</time>
      </trkpt>
      <trkpt lat="46.04869" lon="4.59713">
        <ele>398</ele>
        <time>2017-01-12T13:35:16Z</time>
      </trkpt>
      <trkpt lat="46.04862" lon="4.59704">
        <ele>399</ele>
        <time>2017-01-12T13:35:26Z</time>
      </trkpt>
      <trkpt lat="46.04862" lon="4.59703">
        <ele>399</ele>
        <time>2017-01-12T13:35:27Z</time>
      </trkpt>
      <trkpt lat="46.04856" lon="4.59694">
        <ele>401</ele>
        <time>2017-01-12T13:35:40Z</time>
      </trkpt>
      <trkpt lat="46.04856" lon="4.59693">
        <ele>401</ele>
        <time>2017-01-12T13:35:41Z</time>
      </trkpt>
      <trkpt lat="46.04848" lon="4.59686">
        <ele>403</ele>
        <time>2017-01-12T13:35:55Z</time>
      </trkpt>
      <trkpt lat="46.04848" lon="4.59685">
        <ele>403</ele>
        <time>2017-01-12T13:35:56Z</time>
      </trkpt>
      <trkpt lat="46.04839" lon="4.59683">
        <ele>405</ele>
        <time>2017-01-12T13:36:10Z</time>
      </trkpt>
      <trkpt lat="46.04839" lon="4.59684">
        <ele>405</ele>
        <time>2017-01-12T13:36:11Z</time>
      </trkpt>
      <trkpt lat="46.0483" lon="4.59683">
        <ele>410</ele>
        <time>2017-01-12T13:36:28Z</time>
      </trkpt>
      <trkpt lat="46.04829" lon="4.59683">
        <ele>410</ele>
        <time>2017-01-12T13:36:29Z</time>
      </trkpt>
      <trkpt lat="46.0482" lon="4.59682">
        <ele>409</ele>
        <time>2017-01-12T13:36:37Z</time>
      </trkpt>
      <trkpt lat="46.04819" lon="4.59682">
        <ele>409</ele>
        <time>2017-01-12T13:36:38Z</time>
      </trkpt>
      <trkpt lat="46.04811" lon="4.5968">
        <ele>409</ele>
        <time>2017-01-12T13:36:47Z</time>
      </trkpt>
      <trkpt lat="46.0481" lon="4.5968">
        <ele>409</ele>
        <time>2017-01-12T13:36:48Z</time>
      </trkpt>
      <trkpt lat="46.04801" lon="4.59679">
        <ele>409</ele>
        <time>2017-01-12T13:36:56Z</time>
      </trkpt>
      <trkpt lat="46.048" lon="4.59679">
        <ele>409</ele>
        <time>2017-01-12T13:36:57Z</time>
      </trkpt>
      <trkpt lat="46.04792" lon="4.59678">
        <ele>409</ele>
        <time>2017-01-12T13:37:06Z</time>
      </trkpt>
      <trkpt lat="46.04791" lon="4.59678">
        <ele>409</ele>
        <time>2017-01-12T13:37:07Z</time>
      </trkpt>
      <trkpt lat="46.04782" lon="4.59677">
        <ele>410</ele>
        <time>2017-01-12T13:37:14Z</time>
      </trkpt>
      <trkpt lat="46.04781" lon="4.59677">
        <ele>410</ele>
        <time>2017-01-12T13:37:15Z</time>
      </trkpt>
      <trkpt lat="46.04773" lon="4.59671">
        <ele>411</ele>
        <time>2017-01-12T13:37:24Z</time>
      </trkpt>
      <trkpt lat="46.04772" lon="4.5967">
        <ele>412</ele>
        <time>2017-01-12T13:37:25Z</time>
      </trkpt>
      <trkpt lat="46.04764" lon="4.59665">
        <ele>420</ele>
        <time>2017-01-12T13:37:34Z</time>
      </trkpt>
      <trkpt lat="46.04763" lon="4.59665">
        <ele>420</ele>
        <time>2017-01-12T13:37:35Z</time>
      </trkpt>
      <trkpt lat="46.04756" lon="4.59658">
        <ele>420</ele>
        <time>2017-01-12T13:37:45Z</time>
      </trkpt>
      <trkpt lat="46.04756" lon="4.59657">
        <ele>421</ele>
        <time>2017-01-12T13:37:46Z</time>
      </trkpt>
      <trkpt lat="46.04748" lon="4.59651">
        <ele>422</ele>
        <time>2017-01-12T13:38:01Z</time>
      </trkpt>
      <trkpt lat="46.04747" lon="4.59651">
        <ele>422</ele>
        <time>2017-01-12T13:38:02Z</time>
      </trkpt>
      <trkpt lat="46.0474" lon="4.59644">
        <ele>423</ele>
        <time>2017-01-12T13:38:15Z</time>
      </trkpt>
      <trkpt lat="46.0474" lon="4.59644">
        <ele>424</ele>
        <time>2017-01-12T13:38:16Z</time>
      </trkpt>
      <trkpt lat="46.04733" lon="4.59636">
        <ele>425</ele>
        <time>2017-01-12T13:38:28Z</time>
      </trkpt>
      <trkpt lat="46.04733" lon="4.59635">
        <ele>425</ele>
        <time>2017-01-12T13:38:29Z</time>
      </trkpt>
      <trkpt lat="46.04726" lon="4.59626">
        <ele>426</ele>
        <time>2017-01-12T13:38:41Z</time>
      </trkpt>
      <trkpt lat="46.04726" lon="4.59625">
        <ele>426</ele>
        <time>2017-01-12T13:38:42Z</time>
      </trkpt>
      <trkpt lat="46.04727" lon="4.59613">
        <ele>428</ele>
        <time>2017-01-12T13:39:00Z</time>
      </trkpt>
      <trkpt lat="46.04728" lon="4.59612">
        <ele>428</ele>
        <time>2017-01-12T13:39:01Z</time>
      </trkpt>
      <trkpt lat="46.04736" lon="4.5961">
        <ele>429</ele>
        <time>2017-01-12T13:39:12Z</time>
      </trkpt>
      <trkpt lat="46.04737" lon="4.5961">
        <ele>429</ele>
        <time>2017-01-12T13:39:13Z</time>
      </trkpt>
      <trkpt lat="46.04745" lon="4.59605">
        <ele>431</ele>
        <time>2017-01-12T13:39:22Z</time>
      </trkpt>
      <trkpt lat="46.04745" lon="4.59604">
        <ele>431</ele>
        <time>2017-01-12T13:39:23Z</time>
      </trkpt>
      <trkpt lat="46.04753" lon="4.59597">
        <ele>432</ele>
        <time>2017-01-12T13:39:32Z</time>
      </trkpt>
      <trkpt lat="46.04754" lon="4.59597">
        <ele>432</ele>
        <time>2017-01-12T13:39:33Z</time>
      </trkpt>
      <trkpt lat="46.04761" lon="4.5959">
        <ele>432</ele>
        <time>2017-01-12T13:39:44Z</time>
      </trkpt>
      <trkpt lat="46.04761" lon="4.59589">
        <ele>432</ele>
        <time>2017-01-12T13:39:45Z</time>
      </trkpt>
      <trkpt lat="46.04756" lon="4.59579">
        <ele>438</ele>
        <time>2017-01-12T13:40:00Z</time>
      </trkpt>
      <trkpt lat="46.04755" lon="4.59578">
        <ele>438</ele>
        <time>2017-01-12T13:40:01Z</time>
      </trkpt>
      <trkpt lat="46.04748" lon="4.59572">
        <ele>442</ele>
        <time>2017-01-12T13:40:10Z</time>
      </trkpt>
      <trkpt lat="46.04747" lon="4.5957">
        <ele>442</ele>
        <time>2017-01-12T13:40:11Z</time>
      </trkpt>
      <trkpt lat="46.04743" lon="4.59561">
        <ele>443</ele>
        <time>2017-01-12T13:40:20Z</time>
      </trkpt>
      <trkpt lat="46.04742" lon="4.5956">
        <ele>443</ele>
        <time>2017-01-12T13:40:21Z</time>
      </trkpt>
      <trkpt lat="46.04735" lon="4.59551">
        <ele>445</ele>
        <time>2017-01-12T13:40:31Z</time>
      </trkpt>
      <trkpt lat="46.04735" lon="4.5955">
        <ele>445</ele>
        <time>2017-01-12T13:40:32Z</time>
      </trkpt>
      <trkpt lat="46.04728" lon="4.59542">
        <ele>446</ele>
        <time>2017-01-12T13:40:42Z</time>
      </trkpt>
      <trkpt lat="46.04728" lon="4.59541">
        <ele>446</ele>
        <time>2017-01-12T13:40:43Z</time>
      </trkpt>
      <trkpt lat="46.04722" lon="4.59533">
        <ele>447</ele>
        <time>2017-01-12T13:40:52Z</time>
      </trkpt>
      <trkpt lat="46.04721" lon="4.59533">
        <ele>447</ele>
        <time>2017-01-12T13:40:53Z</time>
      </trkpt>
      <trkpt lat="46.04716" lon="4.59523">
        <ele>448</ele>
        <time>2017-01-12T13:41:05Z</time>
      </trkpt>
      <trkpt lat="46.04715" lon="4.59522">
        <ele>448</ele>
        <time>2017-01-12T13:41:06Z</time>
      </trkpt>
      <trkpt lat="46.04709" lon="4.59515">
        <ele>449</ele>
        <time>2017-01-12T13:41:17Z</time>
      </trkpt>
      <trkpt lat="46.04708" lon="4.59514">
        <ele>449</ele>
        <time>2017-01-12T13:41:18Z</time>
      </trkpt>
      <trkpt lat="46.04701" lon="4.59507">
        <ele>450</ele>
        <time>2017-01-12T13:41:30Z</time>
      </trkpt>
      <trkpt lat="46.047" lon="4.59507">
        <ele>450</ele>
        <time>2017-01-12T13:41:31Z</time>
      </trkpt>
      <trkpt lat="46.04693" lon="4.595">
        <ele>462</ele>
        <time>2017-01-12T13:41:43Z</time>
      </trkpt>
      <trkpt lat="46.04693" lon="4.59499">
        <ele>462</ele>
        <time>2017-01-12T13:41:44Z</time>
      </trkpt>
      <trkpt lat="46.04687" lon="4.59491">
        <ele>462</ele>
        <time>2017-01-12T13:41:54Z</time>
      </trkpt>
      <trkpt lat="46.04686" lon="4.5949">
        <ele>462</ele>
        <time>2017-01-12T13:41:55Z</time>
      </trkpt>
      <trkpt lat="46.04678" lon="4.59483">
        <ele>463</ele>
        <time>2017-01-12T13:42:08Z</time>
      </trkpt>
      <trkpt lat="46.04678" lon="4.59483">
        <ele>463</ele>
        <time>2017-01-12T13:42:09Z</time>
      </trkpt>
      <trkpt lat="46.0467" lon="4.59477">
        <ele>464</ele>
        <time>2017-01-12T13:42:21Z</time>
      </trkpt>
      <trkpt lat="46.04669" lon="4.59477">
        <ele>464</ele>
        <time>2017-01-12T13:42:22Z</time>
      </trkpt>
      <trkpt lat="46.04662" lon="4.5947">
        <ele>465</ele>
        <time>2017-01-12T13:42:32Z</time>
      </trkpt>
      <trkpt lat="46.04661" lon="4.5947">
        <ele>465</ele>
        <time>2017-01-12T13:42:33Z</time>
      </trkpt>
      <trkpt lat="46.04655" lon="4.59462">
        <ele>467</ele>
        <time>2017-01-12T13:42:45Z</time>
      </trkpt>
      <trkpt lat="46.04654" lon="4.59462">
        <ele>467</ele>
        <time>2017-01-12T13:42:46Z</time>
      </trkpt>
      <trkpt lat="46.04647" lon="4.59454">
        <ele>468</ele>
        <time>2017-01-12T13:42:59Z</time>
      </trkpt>
      <trkpt lat="46.04646" lon="4.59454">
        <ele>468</ele>
        <time>2017-01-12T13:43:00Z</time>
      </trkpt>
      <trkpt lat="46.04639" lon="4.59447">
        <ele>469</ele>
        <time>2017-01-12T13:43:12Z</time>
      </trkpt>
      <trkpt lat="46.04638" lon="4.59447">
        <ele>469</ele>
        <time>2017-01-12T13:43:13Z</time>
      </trkpt>
      <trkpt lat="46.0463" lon="4.59441">
        <ele>469</ele>
        <time>2017-01-12T13:43:24Z</time>
      </trkpt>
      <trkpt lat="46.0463" lon="4.59441">
        <ele>469</ele>
        <time>2017-01-12T13:43:25Z</time>
      </trkpt>
      <trkpt lat="46.04621" lon="4.59435">
        <ele>469</ele>
        <time>2017-01-12T13:43:35Z</time>
      </trkpt>
      <trkpt lat="46.04621" lon="4.59435">
        <ele>469</ele>
        <time>2017-01-12T13:43:36Z</time>
      </trkpt>
      <trkpt lat="46.04613" lon="4.59431">
        <ele>470</ele>
        <time>2017-01-12T13:43:44Z</time>
      </trkpt>
      <trkpt lat="46.04612" lon="4.5943">
        <ele>470</ele>
        <time>2017-01-12T13:43:45Z</time>
      </trkpt>
      <trkpt lat="46.04604" lon="4.59426">
        <ele>471</ele>
        <time>2017-01-12T13:43:54Z</time>
      </trkpt>
      <trkpt lat="46.04603" lon="4.59425">
        <ele>471</ele>
        <time>2017-01-12T13:43:55Z</time>
      </trkpt>
      <trkpt lat="46.04595" lon="4.59421">
        <ele>472</ele>
        <time>2017-01-12T13:44:04Z</time>
      </trkpt>
      <trkpt lat="46.04594" lon="4.5942">
        <ele>472</ele>
        <time>2017-01-12T13:44:05Z</time>
      </trkpt>
      <trkpt lat="46.04586" lon="4.59415">
        <ele>478</ele>
        <time>2017-01-12T13:44:15Z</time>
      </trkpt>
      <trkpt lat="46.04585" lon="4.59415">
        <ele>477</ele>
        <time>2017-01-12T13:44:16Z</time>
      </trkpt>
      <trkpt lat="46.04576" lon="4.59414">
        <ele>478</ele>
        <time>2017-01-12T13:44:24Z</time>
      </trkpt>
      <trkpt lat="46.04575" lon="4.59414">
        <ele>478</ele>
        <time>2017-01-12T13:44:25Z</time>
      </trkpt>
      <trkpt lat="46.04567" lon="4.5941">
        <ele>479</ele>
        <time>2017-01-12T13:44:33Z</time>
      </trkpt>
      <trkpt lat="46.04566" lon="4.59409">
        <ele>479</ele>
        <time>2017-01-12T13:44:34Z</time>
      </trkpt>
      <trkpt lat="46.04558" lon="4.59405">
        <ele>480</ele>
        <time>2017-01-12T13:44:42Z</time>
      </trkpt>
      <trkpt lat="46.04557" lon="4.59405">
        <ele>480</ele>
        <time>2017-01-12T13:44:43Z</time>
      </trkpt>
      <trkpt lat="46.04548" lon="4.59401">
        <ele>480</ele>
        <time>2017-01-12T13:44:51Z</time>
      </trkpt>
      <trkpt lat="46.04547" lon="4.59401">
        <ele>480</ele>
        <time>2017-01-12T13:44:52Z</time>
      </trkpt>
      <trkpt lat="46.0454" lon="4.59397">
        <ele>479</ele>
        <time>2017-01-12T13:45:00Z</time>
      </trkpt>
      <trkpt lat="46.04539" lon="4.59397">
        <ele>479</ele>
        <time>2017-01-12T13:45:01Z</time>
      </trkpt>
      <trkpt lat="46.04531" lon="4.59393">
        <ele>479</ele>
        <time>2017-01-12T13:45:09Z</time>
      </trkpt>
      <trkpt lat="46.0453" lon="4.59392">
        <ele>479</ele>
        <time>2017-01-12T13:45:10Z</time>
      </trkpt>
      <trkpt lat="46.04522" lon="4.59388">
        <ele>479</ele>
        <time>2017-01-12T13:45:18Z</time>
      </trkpt>
      <trkpt lat="46.04521" lon="4.59388">
        <ele>479</ele>
        <time>2017-01-12T13:45:19Z</time>
      </trkpt>
      <trkpt lat="46.04513" lon="4.59385">
        <ele>479</ele>
        <time>2017-01-12T13:45:27Z</time>
      </trkpt>
      <trkpt lat="46.04512" lon="4.59384">
        <ele>479</ele>
        <time>2017-01-12T13:45:28Z</time>
      </trkpt>
      <trkpt lat="46.04503" lon="4.59381">
        <ele>479</ele>
        <time>2017-01-12T13:45:36Z</time>
      </trkpt>
      <trkpt lat="46.04502" lon="4.5938">
        <ele>479</ele>
        <time>2017-01-12T13:45:37Z</time>
      </trkpt>
      <trkpt lat="46.04495" lon="4.59377">
        <ele>473</ele>
        <time>2017-01-12T13:45:45Z</time>
      </trkpt>
      <trkpt lat="46.04494" lon="4.59377">
        <ele>473</ele>
        <time>2017-01-12T13:45:46Z</time>
      </trkpt>
      <trkpt lat="46.04485" lon="4.59375">
        <ele>473</ele>
        <time>2017-01-12T13:45:54Z</time>
      </trkpt>
      <trkpt lat="46.04484" lon="4.59375">
        <ele>473</ele>
        <time>2017-01-12T13:45:55Z</time>
      </trkpt>
      <trkpt lat="46.04476" lon="4.59373">
        <ele>473</ele>
        <time>2017-01-12T13:46:03Z</time>
      </trkpt>
      <trkpt lat="46.04475" lon="4.59373">
        <ele>473</ele>
        <time>2017-01-12T13:46:04Z</time>
      </trkpt>
      <trkpt lat="46.04466" lon="4.59369">
        <ele>473</ele>
        <time>2017-01-12T13:46:12Z</time>
      </trkpt>
      <trkpt lat="46.04465" lon="4.59368">
        <ele>473</ele>
        <time>2017-01-12T13:46:13Z</time>
      </trkpt>
      <trkpt lat="46.04458" lon="4.59364">
        <ele>473</ele>
        <time>2017-01-12T13:46:20Z</time>
      </trkpt>
      <trkpt lat="46.04457" lon="4.59364">
        <ele>473</ele>
        <time>2017-01-12T13:46:21Z</time>
      </trkpt>
      <trkpt lat="46.04448" lon="4.5936">
        <ele>473</ele>
        <time>2017-01-12T13:46:29Z</time>
      </trkpt>
      <trkpt lat="46.04447" lon="4.59359">
        <ele>473</ele>
        <time>2017-01-12T13:46:30Z</time>
      </trkpt>
      <trkpt lat="46.04438" lon="4.59355">
        <ele>473</ele>
        <time>2017-01-12T13:46:38Z</time>
      </trkpt>
      <trkpt lat="46.04437" lon="4.59355">
        <ele>473</ele>
        <time>2017-01-12T13:46:39Z</time>
      </trkpt>
      <trkpt lat="46.0443" lon="4.5935">
        <ele>474</ele>
        <time>2017-01-12T13:46:46Z</time>
      </trkpt>
      <trkpt lat="46.04429" lon="4.5935">
        <ele>474</ele>
        <time>2017-01-12T13:46:47Z</time>
      </trkpt>
      <trkpt lat="46.04421" lon="4.59347">
        <ele>475</ele>
        <time>2017-01-12T13:46:54Z</time>
      </trkpt>
      <trkpt lat="46.0442" lon="4.59346">
        <ele>475</ele>
        <time>2017-01-12T13:46:55Z</time>
      </trkpt>
      <trkpt lat="46.04412" lon="4.59342">
        <ele>474</ele>
        <time>2017-01-12T13:47:03Z</time>
      </trkpt>
      <trkpt lat="46.04411" lon="4.59342">
        <ele>474</ele>
        <time>2017-01-12T13:47:04Z</time>
      </trkpt>
      <trkpt lat="46.04402" lon="4.59338">
        <ele>473</ele>
        <time>2017-01-12T13:47:14Z</time>
      </trkpt>
      <trkpt lat="46.04401" lon="4.59337">
        <ele>472</ele>
        <time>2017-01-12T13:47:15Z</time>
      </trkpt>
      <trkpt lat="46.04393" lon="4.59333">
        <ele>482</ele>
        <time>2017-01-12T13:47:23Z</time>
      </trkpt>
      <trkpt lat="46.04392" lon="4.59332">
        <ele>482</ele>
        <time>2017-01-12T13:47:24Z</time>
      </trkpt>
      <trkpt lat="46.04385" lon="4.59327">
        <ele>483</ele>
        <time>2017-01-12T13:47:32Z</time>
      </trkpt>
      <trkpt lat="46.04384" lon="4.59326">
        <ele>483</ele>
        <time>2017-01-12T13:47:33Z</time>
      </trkpt>
      <trkpt lat="46.04377" lon="4.5932">
        <ele>483</ele>
        <time>2017-01-12T13:47:41Z</time>
      </trkpt>
      <trkpt lat="46.04376" lon="4.59319">
        <ele>483</ele>
        <time>2017-01-12T13:47:42Z</time>
      </trkpt>
      <trkpt lat="46.04368" lon="4.59315">
        <ele>483</ele>
        <time>2017-01-12T13:47:49Z</time>
      </trkpt>
      <trkpt lat="46.04366" lon="4.59314">
        <ele>483</ele>
        <time>2017-01-12T13:47:50Z</time>
      </trkpt>
      <trkpt lat="46.04358" lon="4.5931">
        <ele>483</ele>
        <time>2017-01-12T13:47:57Z</time>
      </trkpt>
      <trkpt lat="46.04357" lon="4.59309">
        <ele>483</ele>
        <time>2017-01-12T13:47:58Z</time>
      </trkpt>
      <trkpt lat="46.04349" lon="4.59303">
        <ele>483</ele>
        <time>2017-01-12T13:48:06Z</time>
      </trkpt>
      <trkpt lat="46.04348" lon="4.59303">
        <ele>483</ele>
        <time>2017-01-12T13:48:07Z</time>
      </trkpt>
      <trkpt lat="46.0434" lon="4.593">
        <ele>484</ele>
        <time>2017-01-12T13:48:15Z</time>
      </trkpt>
      <trkpt lat="46.04339" lon="4.59299">
        <ele>484</ele>
        <time>2017-01-12T13:48:16Z</time>
      </trkpt>
      <trkpt lat="46.04331" lon="4.59297">
        <ele>485</ele>
        <time>2017-01-12T13:48:24Z</time>
      </trkpt>
      <trkpt lat="46.0433" lon="4.59297">
        <ele>485</ele>
        <time>2017-01-12T13:48:25Z</time>
      </trkpt>
      <trkpt lat="46.04322" lon="4.59295">
        <ele>486</ele>
        <time>2017-01-12T13:48:33Z</time>
      </trkpt>
      <trkpt lat="46.04321" lon="4.59294">
        <ele>486</ele>
        <time>2017-01-12T13:48:34Z</time>
      </trkpt>
      <trkpt lat="46.04312" lon="4.59291">
        <ele>487</ele>
        <time>2017-01-12T13:48:42Z</time>
      </trkpt>
      <trkpt lat="46.04311" lon="4.59291">
        <ele>487</ele>
        <time>2017-01-12T13:48:43Z</time>
      </trkpt>
      <trkpt lat="46.04303" lon="4.59292">
        <ele>488</ele>
        <time>2017-01-12T13:48:51Z</time>
      </trkpt>
      <trkpt lat="46.04302" lon="4.59292">
        <ele>488</ele>
        <time>2017-01-12T13:48:52Z</time>
      </trkpt>
      <trkpt lat="46.04293" lon="4.59291">
        <ele>489</ele>
        <time>2017-01-12T13:49:01Z</time>
      </trkpt>
      <trkpt lat="46.04292" lon="4.59291">
        <ele>489</ele>
        <time>2017-01-12T13:49:02Z</time>
      </trkpt>
      <trkpt lat="46.04284" lon="4.59291">
        <ele>489</ele>
        <time>2017-01-12T13:49:10Z</time>
      </trkpt>
      <trkpt lat="46.04283" lon="4.59291">
        <ele>489</ele>
        <time>2017-01-12T13:49:11Z</time>
      </trkpt>
      <trkpt lat="46.04274" lon="4.59292">
        <ele>490</ele>
        <time>2017-01-12T13:49:20Z</time>
      </trkpt>
      <trkpt lat="46.04273" lon="4.59292">
        <ele>490</ele>
        <time>2017-01-12T13:49:21Z</time>
      </trkpt>
      <trkpt lat="46.04266" lon="4.59301">
        <ele>489</ele>
        <time>2017-01-12T13:49:31Z</time>
      </trkpt>
      <trkpt lat="46.04266" lon="4.59302">
        <ele>489</ele>
        <time>2017-01-12T13:49:32Z</time>
      </trkpt>
      <trkpt lat="46.04263" lon="4.59314">
        <ele>488</ele>
        <time>2017-01-12T13:49:43Z</time>
      </trkpt>
      <trkpt lat="46.04263" lon="4.59315">
        <ele>488</ele>
        <time>2017-01-12T13:49:44Z</time>
      </trkpt>
      <trkpt lat="46.04263" lon="4.59327">
        <ele>488</ele>
        <time>2017-01-12T13:49:55Z</time>
      </trkpt>
      <trkpt lat="46.04263" lon="4.59329">
        <ele>488</ele>
        <time>2017-01-12T13:49:56Z</time>
      </trkpt>
      <trkpt lat="46.04263" lon="4.59341">
        <ele>484</ele>
        <time>2017-01-12T13:50:07Z</time>
      </trkpt>
      <trkpt lat="46.04263" lon="4.59342">
        <ele>484</ele>
        <time>2017-01-12T13:50:08Z</time>
      </trkpt>
      <trkpt lat="46.04261" lon="4.59354">
        <ele>484</ele>
        <time>2017-01-12T13:50:17Z</time>
      </trkpt>
      <trkpt lat="46.04262" lon="4.59355">
        <ele>484</ele>
        <time>2017-01-12T13:50:18Z</time>
      </trkpt>
      <trkpt lat="46.04262" lon="4.59368">
        <ele>483</ele>
        <time>2017-01-12T13:50:28Z</time>
      </trkpt>
      <trkpt lat="46.04262" lon="4.59369">
        <ele>483</ele>
        <time>2017-01-12T13:50:29Z</time>
      </trkpt>
      <trkpt lat="46.04261" lon="4.59382">
        <ele>484</ele>
        <time>2017-01-12T13:53:19Z</time>
      </trkpt>
      <trkpt lat="46.04261" lon="4.59382">
        <ele>484</ele>
        <time>2017-01-12T13:53:20Z</time>
      </trkpt>
      <trkpt lat="46.04252" lon="4.59381">
        <ele>485</ele>
        <time>2017-01-12T13:54:25Z</time>
      </trkpt>
      <trkpt lat="46.04251" lon="4.59381">
        <ele>485</ele>
        <time>2017-01-12T13:54:26Z</time>
      </trkpt>
      <trkpt lat="46.04245" lon="4.59373">
        <ele>503</ele>
        <time>2017-01-12T13:54:36Z</time>
      </trkpt>
      <trkpt lat="46.04244" lon="4.59372">
        <ele>503</ele>
        <time>2017-01-12T13:54:37Z</time>
      </trkpt>
      <trkpt lat="46.04235" lon="4.5937">
        <ele>504</ele>
        <time>2017-01-12T13:54:44Z</time>
      </trkpt>
      <trkpt lat="46.04234" lon="4.5937">
        <ele>504</ele>
        <time>2017-01-12T13:54:45Z</time>
      </trkpt>
      <trkpt lat="46.04226" lon="4.59365">
        <ele>505</ele>
        <time>2017-01-12T13:54:52Z</time>
      </trkpt>
      <trkpt lat="46.04225" lon="4.59364">
        <ele>505</ele>
        <time>2017-01-12T13:54:53Z</time>
      </trkpt>
      <trkpt lat="46.04218" lon="4.59358">
        <ele>506</ele>
        <time>2017-01-12T13:55:07Z</time>
      </trkpt>
      <trkpt lat="46.04217" lon="4.59358">
        <ele>506</ele>
        <time>2017-01-12T13:55:08Z</time>
      </trkpt>
      <trkpt lat="46.0421" lon="4.59352">
        <ele>507</ele>
        <time>2017-01-12T13:55:20Z</time>
      </trkpt>
      <trkpt lat="46.04209" lon="4.59352">
        <ele>507</ele>
        <time>2017-01-12T13:55:21Z</time>
      </trkpt>
      <trkpt lat="46.04201" lon="4.59346">
        <ele>509</ele>
        <time>2017-01-12T13:55:32Z</time>
      </trkpt>
      <trkpt lat="46.04201" lon="4.59346">
        <ele>509</ele>
        <time>2017-01-12T13:55:33Z</time>
      </trkpt>
      <trkpt lat="46.04192" lon="4.59343">
        <ele>511</ele>
        <time>2017-01-12T13:55:45Z</time>
      </trkpt>
      <trkpt lat="46.04191" lon="4.59343">
        <ele>511</ele>
        <time>2017-01-12T13:55:46Z</time>
      </trkpt>
      <trkpt lat="46.04182" lon="4.5934">
        <ele>513</ele>
        <time>2017-01-12T13:56:00Z</time>
      </trkpt>
      <trkpt lat="46.04182" lon="4.59339">
        <ele>513</ele>
        <time>2017-01-12T13:56:01Z</time>
      </trkpt>
      <trkpt lat="46.04174" lon="4.59334">
        <ele>516</ele>
        <time>2017-01-12T13:56:15Z</time>
      </trkpt>
      <trkpt lat="46.04173" lon="4.59334">
        <ele>516</ele>
        <time>2017-01-12T13:56:16Z</time>
      </trkpt>
      <trkpt lat="46.04165" lon="4.59328">
        <ele>521</ele>
        <time>2017-01-12T13:56:31Z</time>
      </trkpt>
      <trkpt lat="46.04165" lon="4.59328">
        <ele>521</ele>
        <time>2017-01-12T13:56:32Z</time>
      </trkpt>
      <trkpt lat="46.04157" lon="4.59325">
        <ele>524</ele>
        <time>2017-01-12T13:56:54Z</time>
      </trkpt>
      <trkpt lat="46.04156" lon="4.59324">
        <ele>525</ele>
        <time>2017-01-12T13:56:55Z</time>
      </trkpt>
      <trkpt lat="46.04147" lon="4.5932">
        <ele>528</ele>
        <time>2017-01-12T13:57:06Z</time>
      </trkpt>
      <trkpt lat="46.04147" lon="4.5932">
        <ele>528</ele>
        <time>2017-01-12T13:57:07Z</time>
      </trkpt>
      <trkpt lat="46.04139" lon="4.59314">
        <ele>530</ele>
        <time>2017-01-12T13:57:15Z</time>
      </trkpt>
      <trkpt lat="46.04138" lon="4.59314">
        <ele>531</ele>
        <time>2017-01-12T13:57:16Z</time>
      </trkpt>
      <trkpt lat="46.04137" lon="4.59301">
        <ele>531</ele>
        <time>2017-01-12T13:57:29Z</time>
      </trkpt>
      <trkpt lat="46.04137" lon="4.593">
        <ele>531</ele>
        <time>2017-01-12T13:57:30Z</time>
      </trkpt>
      <trkpt lat="46.04136" lon="4.59287">
        <ele>531</ele>
        <time>2017-01-12T13:57:41Z</time>
      </trkpt>
      <trkpt lat="46.04136" lon="4.59286">
        <ele>531</ele>
        <time>2017-01-12T13:57:42Z</time>
      </trkpt>
      <trkpt lat="46.04131" lon="4.59276">
        <ele>531</ele>
        <time>2017-01-12T13:57:51Z</time>
      </trkpt>
      <trkpt lat="46.0413" lon="4.59276">
        <ele>531</ele>
        <time>2017-01-12T13:57:52Z</time>
      </trkpt>
      <trkpt lat="46.04133" lon="4.59264">
        <ele>530</ele>
        <time>2017-01-12T13:58:02Z</time>
      </trkpt>
      <trkpt lat="46.04133" lon="4.59263">
        <ele>530</ele>
        <time>2017-01-12T13:58:03Z</time>
      </trkpt>
      <trkpt lat="46.04127" lon="4.59254">
        <ele>532</ele>
        <time>2017-01-12T13:58:13Z</time>
      </trkpt>
      <trkpt lat="46.04126" lon="4.59253">
        <ele>532</ele>
        <time>2017-01-12T13:58:14Z</time>
      </trkpt>
      <trkpt lat="46.0413" lon="4.59242">
        <ele>533</ele>
        <time>2017-01-12T13:58:31Z</time>
      </trkpt>
      <trkpt lat="46.0413" lon="4.5924">
        <ele>533</ele>
        <time>2017-01-12T13:58:32Z</time>
      </trkpt>
      <trkpt lat="46.04136" lon="4.59232">
        <ele>532</ele>
        <time>2017-01-12T13:58:40Z</time>
      </trkpt>
      <trkpt lat="46.04137" lon="4.59231">
        <ele>532</ele>
        <time>2017-01-12T13:58:41Z</time>
      </trkpt>
      <trkpt lat="46.04143" lon="4.59221">
        <ele>532</ele>
        <time>2017-01-12T13:58:51Z</time>
      </trkpt>
      <trkpt lat="46.04143" lon="4.59219">
        <ele>532</ele>
        <time>2017-01-12T13:58:52Z</time>
      </trkpt>
      <trkpt lat="46.04148" lon="4.59209">
        <ele>533</ele>
        <time>2017-01-12T13:58:58Z</time>
      </trkpt>
      <trkpt lat="46.04149" lon="4.59208">
        <ele>533</ele>
        <time>2017-01-12T13:58:59Z</time>
      </trkpt>
      <trkpt lat="46.04152" lon="4.59197">
        <ele>534</ele>
        <time>2017-01-12T13:59:05Z</time>
      </trkpt>
      <trkpt lat="46.04153" lon="4.59195">
        <ele>534</ele>
        <time>2017-01-12T13:59:06Z</time>
      </trkpt>
      <trkpt lat="46.04158" lon="4.59187">
        <ele>534</ele>
        <time>2017-01-12T13:59:12Z</time>
      </trkpt>
      <trkpt lat="46.04159" lon="4.59185">
        <ele>534</ele>
        <time>2017-01-12T13:59:13Z</time>
      </trkpt>
      <trkpt lat="46.04168" lon="4.59184">
        <ele>526</ele>
        <time>2017-01-12T13:59:25Z</time>
      </trkpt>
      <trkpt lat="46.04168" lon="4.59184">
        <ele>526</ele>
        <time>2017-01-12T13:59:26Z</time>
      </trkpt>
      <trkpt lat="46.04176" lon="4.5918">
        <ele>526</ele>
        <time>2017-01-12T13:59:39Z</time>
      </trkpt>
      <trkpt lat="46.04177" lon="4.5918">
        <ele>526</ele>
        <time>2017-01-12T13:59:40Z</time>
      </trkpt>
      <trkpt lat="46.04185" lon="4.59179">
        <ele>525</ele>
        <time>2017-01-12T13:59:51Z</time>
      </trkpt>
      <trkpt lat="46.04186" lon="4.59179">
        <ele>525</ele>
        <time>2017-01-12T13:59:52Z</time>
      </trkpt>
      <trkpt lat="46.04195" lon="4.59181">
        <ele>524</ele>
        <time>2017-01-12T13:59:59Z</time>
      </trkpt>
      <trkpt lat="46.04196" lon="4.59181">
        <ele>524</ele>
        <time>2017-01-12T14:00:00Z</time>
      </trkpt>
      <trkpt lat="46.04204" lon="4.59182">
        <ele>523</ele>
        <time>2017-01-12T14:00:07Z</time>
      </trkpt>
      <trkpt lat="46.04205" lon="4.59182">
        <ele>523</ele>
        <time>2017-01-12T14:00:08Z</time>
      </trkpt>
      <trkpt lat="46.04213" lon="4.59181">
        <ele>523</ele>
        <time>2017-01-12T14:00:13Z</time>
      </trkpt>
      <trkpt lat="46.04215" lon="4.5918">
        <ele>523</ele>
        <time>2017-01-12T14:00:14Z</time>
      </trkpt>
      <trkpt lat="46.04223" lon="4.59181">
        <ele>524</ele>
        <time>2017-01-12T14:00:19Z</time>
      </trkpt>
      <trkpt lat="46.04225" lon="4.59181">
        <ele>524</ele>
        <time>2017-01-12T14:00:20Z</time>
      </trkpt>
      <trkpt lat="46.04233" lon="4.59181">
        <ele>525</ele>
        <time>2017-01-12T14:00:28Z</time>
      </trkpt>
      <trkpt lat="46.04234" lon="4.59182">
        <ele>525</ele>
        <time>2017-01-12T14:00:29Z</time>
      </trkpt>
      <trkpt lat="46.04243" lon="4.59181">
        <ele>526</ele>
        <time>2017-01-12T14:00:36Z</time>
      </trkpt>
      <trkpt lat="46.04244" lon="4.59181">
        <ele>526</ele>
        <time>2017-01-12T14:00:37Z</time>
      </trkpt>
      <trkpt lat="46.04252" lon="4.59178">
        <ele>526</ele>
        <time>2017-01-12T14:00:52Z</time>
      </trkpt>
      <trkpt lat="46.04253" lon="4.59177">
        <ele>526</ele>
        <time>2017-01-12T14:00:53Z</time>
      </trkpt>
      <trkpt lat="46.04261" lon="4.59174">
        <ele>525</ele>
        <time>2017-01-12T14:00:59Z</time>
      </trkpt>
      <trkpt lat="46.04262" lon="4.59173">
        <ele>525</ele>
        <time>2017-01-12T14:01:00Z</time>
      </trkpt>
      <trkpt lat="46.0427" lon="4.59168">
        <ele>523</ele>
        <time>2017-01-12T14:01:07Z</time>
      </trkpt>
      <trkpt lat="46.04271" lon="4.59168">
        <ele>523</ele>
        <time>2017-01-12T14:01:08Z</time>
      </trkpt>
      <trkpt lat="46.04279" lon="4.59166">
        <ele>541</ele>
        <time>2017-01-12T14:01:15Z</time>
      </trkpt>
      <trkpt lat="46.0428" lon="4.59165">
        <ele>541</ele>
        <time>2017-01-12T14:01:16Z</time>
      </trkpt>
      <trkpt lat="46.04287" lon="4.59161">
        <ele>542</ele>
        <time>2017-01-12T14:01:23Z</time>
      </trkpt>
      <trkpt lat="46.04288" lon="4.59161">
        <ele>542</ele>
        <time>2017-01-12T14:01:24Z</time>
      </trkpt>
      <trkpt lat="46.04297" lon="4.59158">
        <ele>541</ele>
        <time>2017-01-12T14:01:32Z</time>
      </trkpt>
      <trkpt lat="46.04298" lon="4.59158">
        <ele>541</ele>
        <time>2017-01-12T14:01:33Z</time>
      </trkpt>
      <trkpt lat="46.04307" lon="4.59157">
        <ele>540</ele>
        <time>2017-01-12T14:01:42Z</time>
      </trkpt>
      <trkpt lat="46.04308" lon="4.59157">
        <ele>540</ele>
        <time>2017-01-12T14:01:43Z</time>
      </trkpt>
      <trkpt lat="46.04315" lon="4.59154">
        <ele>539</ele>
        <time>2017-01-12T14:01:51Z</time>
      </trkpt>
      <trkpt lat="46.04317" lon="4.59154">
        <ele>539</ele>
        <time>2017-01-12T14:01:52Z</time>
      </trkpt>
      <trkpt lat="46.04325" lon="4.59151">
        <ele>538</ele>
        <time>2017-01-12T14:02:00Z</time>
      </trkpt>
      <trkpt lat="46.04326" lon="4.59151">
        <ele>538</ele>
        <time>2017-01-12T14:02:01Z</time>
      </trkpt>
      <trkpt lat="46.04334" lon="4.59149">
        <ele>537</ele>
        <time>2017-01-12T14:02:09Z</time>
      </trkpt>
      <trkpt lat="46.04335" lon="4.59149">
        <ele>538</ele>
        <time>2017-01-12T14:02:10Z</time>
      </trkpt>
      <trkpt lat="46.04343" lon="4.59149">
        <ele>538</ele>
        <time>2017-01-12T14:02:17Z</time>
      </trkpt>
      <trkpt lat="46.04344" lon="4.59149">
        <ele>538</ele>
        <time>2017-01-12T14:02:18Z</time>
      </trkpt>
      <trkpt lat="46.04353" lon="4.59147">
        <ele>540</ele>
        <time>2017-01-12T14:02:25Z</time>
      </trkpt>
      <trkpt lat="46.04354" lon="4.59147">
        <ele>540</ele>
        <time>2017-01-12T14:02:26Z</time>
      </trkpt>
      <trkpt lat="46.04363" lon="4.59146">
        <ele>541</ele>
        <time>2017-01-12T14:02:34Z</time>
      </trkpt>
      <trkpt lat="46.04364" lon="4.59145">
        <ele>541</ele>
        <time>2017-01-12T14:02:35Z</time>
      </trkpt>
      <trkpt lat="46.04373" lon="4.59145">
        <ele>542</ele>
        <time>2017-01-12T14:02:46Z</time>
      </trkpt>
      <trkpt lat="46.04373" lon="4.59145">
        <ele>542</ele>
        <time>2017-01-12T14:02:47Z</time>
      </trkpt>
      <trkpt lat="46.04382" lon="4.59147">
        <ele>542</ele>
        <time>2017-01-12T14:02:56Z</time>
      </trkpt>
      <trkpt lat="46.04383" lon="4.59147">
        <ele>542</ele>
        <time>2017-01-12T14:02:57Z</time>
      </trkpt>
      <trkpt lat="46.04391" lon="4.5915">
        <ele>541</ele>
        <time>2017-01-12T14:03:11Z</time>
      </trkpt>
      <trkpt lat="46.04392" lon="4.5915">
        <ele>541</ele>
        <time>2017-01-12T14:03:12Z</time>
      </trkpt>
      <trkpt lat="46.04399" lon="4.59151">
        <ele>540</ele>
        <time>2017-01-12T14:03:22Z</time>
      </trkpt>
      <trkpt lat="46.04401" lon="4.59151">
        <ele>540</ele>
        <time>2017-01-12T14:03:23Z</time>
      </trkpt>
      <trkpt lat="46.04409" lon="4.59152">
        <ele>539</ele>
        <time>2017-01-12T14:03:30Z</time>
      </trkpt>
      <trkpt lat="46.0441" lon="4.59153">
        <ele>539</ele>
        <time>2017-01-12T14:03:31Z</time>
      </trkpt>
      <trkpt lat="46.04418" lon="4.59153">
        <ele>537</ele>
        <time>2017-01-12T14:03:36Z</time>
      </trkpt>
      <trkpt lat="46.0442" lon="4.59153">
        <ele>537</ele>
        <time>2017-01-12T14:03:37Z</time>
      </trkpt>
      <trkpt lat="46.04427" lon="4.59152">
        <ele>538</ele>
        <time>2017-01-12T14:03:41Z</time>
      </trkpt>
      <trkpt lat="46.04429" lon="4.59152">
        <ele>538</ele>
        <time>2017-01-12T14:03:42Z</time>
      </trkpt>
      <trkpt lat="46.04437" lon="4.5915">
        <ele>539</ele>
        <time>2017-01-12T14:03:47Z</time>
      </trkpt>
      <trkpt lat="46.04438" lon="4.59149">
        <ele>539</ele>
        <time>2017-01-12T14:03:48Z</time>
      </trkpt>
      <trkpt lat="46.04446" lon="4.59145">
        <ele>540</ele>
        <time>2017-01-12T14:03:54Z</time>
      </trkpt>
      <trkpt lat="46.04447" lon="4.59143">
        <ele>540</ele>
        <time>2017-01-12T14:03:55Z</time>
      </trkpt>
      <trkpt lat="46.04452" lon="4.59133">
        <ele>541</ele>
        <time>2017-01-12T14:04:03Z</time>
      </trkpt>
      <trkpt lat="46.04452" lon="4.59131">
        <ele>541</ele>
        <time>2017-01-12T14:04:04Z</time>
      </trkpt>
      <trkpt lat="46.04451" lon="4.5912">
        <ele>542</ele>
        <time>2017-01-12T14:04:12Z</time>
      </trkpt>
      <trkpt lat="46.0445" lon="4.59118">
        <ele>542</ele>
        <time>2017-01-12T14:04:13Z</time>
      </trkpt>
      <trkpt lat="46.04449" lon="4.59106">
        <ele>543</ele>
        <time>2017-01-12T14:04:24Z</time>
      </trkpt>
      <trkpt lat="46.04449" lon="4.59105">
        <ele>543</ele>
        <time>2017-01-12T14:04:25Z</time>
      </trkpt>
      <trkpt lat="46.04446" lon="4.59093">
        <ele>545</ele>
        <time>2017-01-12T14:04:34Z</time>
      </trkpt>
      <trkpt lat="46.04446" lon="4.59092">
        <ele>545</ele>
        <time>2017-01-12T14:04:35Z</time>
      </trkpt>
      <trkpt lat="46.04444" lon="4.59079">
        <ele>549</ele>
        <time>2017-01-12T14:04:43Z</time>
      </trkpt>
      <trkpt lat="46.04444" lon="4.59078">
        <ele>549</ele>
        <time>2017-01-12T14:04:44Z</time>
      </trkpt>
      <trkpt lat="46.04443" lon="4.59065">
        <ele>549</ele>
        <time>2017-01-12T14:04:52Z</time>
      </trkpt>
      <trkpt lat="46.04443" lon="4.59063">
        <ele>549</ele>
        <time>2017-01-12T14:04:53Z</time>
      </trkpt>
      <trkpt lat="46.0444" lon="4.59052">
        <ele>549</ele>
        <time>2017-01-12T14:05:01Z</time>
      </trkpt>
      <trkpt lat="46.0444" lon="4.5905">
        <ele>549</ele>
        <time>2017-01-12T14:05:02Z</time>
      </trkpt>
      <trkpt lat="46.04436" lon="4.59039">
        <ele>549</ele>
        <time>2017-01-12T14:05:10Z</time>
      </trkpt>
      <trkpt lat="46.04436" lon="4.59037">
        <ele>550</ele>
        <time>2017-01-12T14:05:11Z</time>
      </trkpt>
      <trkpt lat="46.04433" lon="4.59026">
        <ele>551</ele>
        <time>2017-01-12T14:05:19Z</time>
      </trkpt>
      <trkpt lat="46.04433" lon="4.59024">
        <ele>551</ele>
        <time>2017-01-12T14:05:20Z</time>
      </trkpt>
      <trkpt lat="46.04431" lon="4.59012">
        <ele>553</ele>
        <time>2017-01-12T14:05:28Z</time>
      </trkpt>
      <trkpt lat="46.04431" lon="4.59011">
        <ele>553</ele>
        <time>2017-01-12T14:05:29Z</time>
      </trkpt>
      <trkpt lat="46.04426" lon="4.59001">
        <ele>556</ele>
        <time>2017-01-12T14:05:36Z</time>
      </trkpt>
      <trkpt lat="46.04425" lon="4.58999">
        <ele>555</ele>
        <time>2017-01-12T14:05:37Z</time>
      </trkpt>
      <trkpt lat="46.04422" lon="4.58989">
        <ele>554</ele>
        <time>2017-01-12T14:05:43Z</time>
      </trkpt>
      <trkpt lat="46.04421" lon="4.58987">
        <ele>554</ele>
        <time>2017-01-12T14:05:44Z</time>
      </trkpt>
      <trkpt lat="46.04421" lon="4.58975">
        <ele>551</ele>
        <time>2017-01-12T14:05:51Z</time>
      </trkpt>
      <trkpt lat="46.04421" lon="4.58973">
        <ele>551</ele>
        <time>2017-01-12T14:05:52Z</time>
      </trkpt>
      <trkpt lat="46.04419" lon="4.58961">
        <ele>549</ele>
        <time>2017-01-12T14:06:01Z</time>
      </trkpt>
      <trkpt lat="46.04419" lon="4.58959">
        <ele>549</ele>
        <time>2017-01-12T14:06:02Z</time>
      </trkpt>
      <trkpt lat="46.04418" lon="4.58947">
        <ele>549</ele>
        <time>2017-01-12T14:06:10Z</time>
      </trkpt>
      <trkpt lat="46.04417" lon="4.58946">
        <ele>550</ele>
        <time>2017-01-12T14:06:11Z</time>
      </trkpt>
      <trkpt lat="46.0441" lon="4.5894">
        <ele>565</ele>
        <time>2017-01-12T14:06:17Z</time>
      </trkpt>
      <trkpt lat="46.04408" lon="4.58938">
        <ele>565</ele>
        <time>2017-01-12T14:06:18Z</time>
      </trkpt>
      <trkpt lat="46.04405" lon="4.58927">
        <ele>563</ele>
        <time>2017-01-12T14:06:24Z</time>
      </trkpt>
      <trkpt lat="46.04405" lon="4.58925">
        <ele>563</ele>
        <time>2017-01-12T14:06:25Z</time>
      </trkpt>
      <trkpt lat="46.04407" lon="4.58913">
        <ele>561</ele>
        <time>2017-01-12T14:06:32Z</time>
      </trkpt>
      <trkpt lat="46.04407" lon="4.58911">
        <ele>561</ele>
        <time>2017-01-12T14:06:33Z</time>
      </trkpt>
      <trkpt lat="46.04407" lon="4.58899">
        <ele>564</ele>
        <time>2017-01-12T14:06:40Z</time>
      </trkpt>
      <trkpt lat="46.04406" lon="4.58897">
        <ele>564</ele>
        <time>2017-01-12T14:06:41Z</time>
      </trkpt>
      <trkpt lat="46.04403" lon="4.58886">
        <ele>566</ele>
        <time>2017-01-12T14:06:48Z</time>
      </trkpt>
      <trkpt lat="46.04402" lon="4.58884">
        <ele>566</ele>
        <time>2017-01-12T14:06:49Z</time>
      </trkpt>
      <trkpt lat="46.044" lon="4.58872">
        <ele>567</ele>
        <time>2017-01-12T14:06:57Z</time>
      </trkpt>
      <trkpt lat="46.044" lon="4.58871">
        <ele>567</ele>
        <time>2017-01-12T14:06:58Z</time>
      </trkpt>
      <trkpt lat="46.04394" lon="4.58862">
        <ele>567</ele>
        <time>2017-01-12T14:07:06Z</time>
      </trkpt>
      <trkpt lat="46.04393" lon="4.58861">
        <ele>567</ele>
        <time>2017-01-12T14:07:07Z</time>
      </trkpt>
      <trkpt lat="46.04394" lon="4.58849">
        <ele>567</ele>
        <time>2017-01-12T14:07:14Z</time>
      </trkpt>
      <trkpt lat="46.04395" lon="4.58847">
        <ele>566</ele>
        <time>2017-01-12T14:07:15Z</time>
      </trkpt>
      <trkpt lat="46.04398" lon="4.58837">
        <ele>565</ele>
        <time>2017-01-12T14:07:22Z</time>
      </trkpt>
      <trkpt lat="46.04399" lon="4.58835">
        <ele>564</ele>
        <time>2017-01-12T14:07:23Z</time>
      </trkpt>
      <trkpt lat="46.04403" lon="4.58825">
        <ele>564</ele>
        <time>2017-01-12T14:07:37Z</time>
      </trkpt>
      <trkpt lat="46.04403" lon="4.58824">
        <ele>564</ele>
        <time>2017-01-12T14:07:38Z</time>
      </trkpt>
      <trkpt lat="46.04404" lon="4.58812">
        <ele>566</ele>
        <time>2017-01-12T14:07:48Z</time>
      </trkpt>
      <trkpt lat="46.04405" lon="4.5881">
        <ele>566</ele>
        <time>2017-01-12T14:07:49Z</time>
      </trkpt>
      <trkpt lat="46.0441" lon="4.588">
        <ele>566</ele>
        <time>2017-01-12T14:07:58Z</time>
      </trkpt>
      <trkpt lat="46.0441" lon="4.58799">
        <ele>566</ele>
        <time>2017-01-12T14:07:59Z</time>
      </trkpt>
      <trkpt lat="46.04414" lon="4.58788">
        <ele>566</ele>
        <time>2017-01-12T14:08:07Z</time>
      </trkpt>
      <trkpt lat="46.04415" lon="4.58786">
        <ele>566</ele>
        <time>2017-01-12T14:08:08Z</time>
      </trkpt>
      <trkpt lat="46.04418" lon="4.58774">
        <ele>553</ele>
        <time>2017-01-12T14:08:14Z</time>
      </trkpt>
      <trkpt lat="46.04419" lon="4.58772">
        <ele>553</ele>
        <time>2017-01-12T14:08:15Z</time>
      </trkpt>
      <trkpt lat="46.04419" lon="4.58759">
        <ele>556</ele>
        <time>2017-01-12T14:08:22Z</time>
      </trkpt>
      <trkpt lat="46.04419" lon="4.58757">
        <ele>556</ele>
        <time>2017-01-12T14:08:23Z</time>
      </trkpt>
      <trkpt lat="46.04416" lon="4.58747">
        <ele>560</ele>
        <time>2017-01-12T14:08:32Z</time>
      </trkpt>
      <trkpt lat="46.04415" lon="4.58745">
        <ele>560</ele>
        <time>2017-01-12T14:08:33Z</time>
      </trkpt>
      <trkpt lat="46.04413" lon="4.58734">
        <ele>561</ele>
        <time>2017-01-12T14:08:41Z</time>
      </trkpt>
      <trkpt lat="46.04413" lon="4.58732">
        <ele>561</ele>
        <time>2017-01-12T14:08:42Z</time>
      </trkpt>
      <trkpt lat="46.04409" lon="4.58721">
        <ele>561</ele>
        <time>2017-01-12T14:08:50Z</time>
      </trkpt>
      <trkpt lat="46.04408" lon="4.5872">
        <ele>561</ele>
        <time>2017-01-12T14:08:51Z</time>
      </trkpt>
      <trkpt lat="46.04403" lon="4.58711">
        <ele>561</ele>
        <time>2017-01-12T14:09:00Z</time>
      </trkpt>
      <trkpt lat="46.04402" lon="4.5871">
        <ele>561</ele>
        <time>2017-01-12T14:09:01Z</time>
      </trkpt>
      <trkpt lat="46.04396" lon="4.58703">
        <ele>561</ele>
        <time>2017-01-12T14:09:09Z</time>
      </trkpt>
      <trkpt lat="46.04395" lon="4.58702">
        <ele>561</ele>
        <time>2017-01-12T14:09:10Z</time>
      </trkpt>
      <trkpt lat="46.04388" lon="4.58694">
        <ele>561</ele>
        <time>2017-01-12T14:09:19Z</time>
      </trkpt>
      <trkpt lat="46.04387" lon="4.58693">
        <ele>561</ele>
        <time>2017-01-12T14:09:20Z</time>
      </trkpt>
      <trkpt lat="46.0438" lon="4.58689">
        <ele>562</ele>
        <time>2017-01-12T14:09:27Z</time>
      </trkpt>
      <trkpt lat="46.04379" lon="4.58688">
        <ele>562</ele>
        <time>2017-01-12T14:09:28Z</time>
      </trkpt>
      <trkpt lat="46.04371" lon="4.58684">
        <ele>563</ele>
        <time>2017-01-12T14:09:35Z</time>
      </trkpt>
      <trkpt lat="46.0437" lon="4.58683">
        <ele>563</ele>
        <time>2017-01-12T14:09:36Z</time>
      </trkpt>
      <trkpt lat="46.04363" lon="4.58675">
        <ele>564</ele>
        <time>2017-01-12T14:09:45Z</time>
      </trkpt>
      <trkpt lat="46.04362" lon="4.58674">
        <ele>564</ele>
        <time>2017-01-12T14:09:46Z</time>
      </trkpt>
      <trkpt lat="46.04354" lon="4.5867">
        <ele>565</ele>
        <time>2017-01-12T14:09:53Z</time>
      </trkpt>
      <trkpt lat="46.04353" lon="4.58669">
        <ele>565</ele>
        <time>2017-01-12T14:09:54Z</time>
      </trkpt>
      <trkpt lat="46.04346" lon="4.58666">
        <ele>560</ele>
        <time>2017-01-12T14:10:03Z</time>
      </trkpt>
      <trkpt lat="46.04345" lon="4.58665">
        <ele>560</ele>
        <time>2017-01-12T14:10:04Z</time>
      </trkpt>
      <trkpt lat="46.04337" lon="4.58661">
        <ele>563</ele>
        <time>2017-01-12T14:10:14Z</time>
      </trkpt>
      <trkpt lat="46.04336" lon="4.5866">
        <ele>563</ele>
        <time>2017-01-12T14:10:15Z</time>
      </trkpt>
      <trkpt lat="46.04328" lon="4.58657">
        <ele>568</ele>
        <time>2017-01-12T14:10:22Z</time>
      </trkpt>
      <trkpt lat="46.04327" lon="4.58657">
        <ele>568</ele>
        <time>2017-01-12T14:10:23Z</time>
      </trkpt>
      <trkpt lat="46.04318" lon="4.58654">
        <ele>568</ele>
        <time>2017-01-12T14:10:30Z</time>
      </trkpt>
      <trkpt lat="46.04317" lon="4.58653">
        <ele>568</ele>
        <time>2017-01-12T14:10:31Z</time>
      </trkpt>
      <trkpt lat="46.04309" lon="4.5865">
        <ele>569</ele>
        <time>2017-01-12T14:10:44Z</time>
      </trkpt>
      <trkpt lat="46.04308" lon="4.58649">
        <ele>569</ele>
        <time>2017-01-12T14:10:45Z</time>
      </trkpt>
      <trkpt lat="46.04301" lon="4.58645">
        <ele>569</ele>
        <time>2017-01-12T14:10:51Z</time>
      </trkpt>
      <trkpt lat="46.043" lon="4.58644">
        <ele>569</ele>
        <time>2017-01-12T14:10:52Z</time>
      </trkpt>
      <trkpt lat="46.04292" lon="4.58642">
        <ele>570</ele>
        <time>2017-01-12T14:10:58Z</time>
      </trkpt>
      <trkpt lat="46.04291" lon="4.58641">
        <ele>570</ele>
        <time>2017-01-12T14:10:59Z</time>
      </trkpt>
      <trkpt lat="46.04282" lon="4.58637">
        <ele>571</ele>
        <time>2017-01-12T14:11:09Z</time>
      </trkpt>
      <trkpt lat="46.04282" lon="4.58637">
        <ele>571</ele>
        <time>2017-01-12T14:11:10Z</time>
      </trkpt>
      <trkpt lat="46.04274" lon="4.58634">
        <ele>572</ele>
        <time>2017-01-12T14:11:21Z</time>
      </trkpt>
      <trkpt lat="46.04273" lon="4.58633">
        <ele>572</ele>
        <time>2017-01-12T14:11:22Z</time>
      </trkpt>
      <trkpt lat="46.04265" lon="4.58629">
        <ele>572</ele>
        <time>2017-01-12T14:11:29Z</time>
      </trkpt>
      <trkpt lat="46.04264" lon="4.58628">
        <ele>572</ele>
        <time>2017-01-12T14:11:30Z</time>
      </trkpt>
      <trkpt lat="46.04256" lon="4.58625">
        <ele>572</ele>
        <time>2017-01-12T14:11:44Z</time>
      </trkpt>
      <trkpt lat="46.04255" lon="4.58625">
        <ele>572</ele>
        <time>2017-01-12T14:11:45Z</time>
      </trkpt>
      <trkpt lat="46.04246" lon="4.58621">
        <ele>582</ele>
        <time>2017-01-12T14:11:59Z</time>
      </trkpt>
      <trkpt lat="46.04245" lon="4.5862">
        <ele>582</ele>
        <time>2017-01-12T14:12:00Z</time>
      </trkpt>
      <trkpt lat="46.04237" lon="4.58616">
        <ele>582</ele>
        <time>2017-01-12T14:12:08Z</time>
      </trkpt>
      <trkpt lat="46.04236" lon="4.58615">
        <ele>582</ele>
        <time>2017-01-12T14:12:09Z</time>
      </trkpt>
      <trkpt lat="46.04228" lon="4.58613">
        <ele>582</ele>
        <time>2017-01-12T14:12:14Z</time>
      </trkpt>
      <trkpt lat="46.04227" lon="4.58612">
        <ele>582</ele>
        <time>2017-01-12T14:12:15Z</time>
      </trkpt>
      <trkpt lat="46.04219" lon="4.58609">
        <ele>583</ele>
        <time>2017-01-12T14:12:21Z</time>
      </trkpt>
      <trkpt lat="46.04217" lon="4.58608">
        <ele>583</ele>
        <time>2017-01-12T14:12:22Z</time>
      </trkpt>
      <trkpt lat="46.0421" lon="4.58605">
        <ele>583</ele>
        <time>2017-01-12T14:12:27Z</time>
      </trkpt>
      <trkpt lat="46.04208" lon="4.58604">
        <ele>583</ele>
        <time>2017-01-12T14:12:28Z</time>
      </trkpt>
      <trkpt lat="46.042" lon="4.58602">
        <ele>583</ele>
        <time>2017-01-12T14:12:38Z</time>
      </trkpt>
      <trkpt lat="46.04199" lon="4.58602">
        <ele>583</ele>
        <time>2017-01-12T14:12:39Z</time>
      </trkpt>
      <trkpt lat="46.04191" lon="4.58598">
        <ele>583</ele>
        <time>2017-01-12T14:12:48Z</time>
      </trkpt>
      <trkpt lat="46.04189" lon="4.58598">
        <ele>583</ele>
        <time>2017-01-12T14:12:49Z</time>
      </trkpt>
      <trkpt lat="46.04181" lon="4.58596">
        <ele>583</ele>
        <time>2017-01-12T14:12:54Z</time>
      </trkpt>
      <trkpt lat="46.0418" lon="4.58595">
        <ele>583</ele>
        <time>2017-01-12T14:12:55Z</time>
      </trkpt>
      <trkpt lat="46.04172" lon="4.58594">
        <ele>582</ele>
        <time>2017-01-12T14:13:01Z</time>
      </trkpt>
      <trkpt lat="46.04171" lon="4.58594">
        <ele>582</ele>
        <time>2017-01-12T14:13:02Z</time>
      </trkpt>
      <trkpt lat="46.04162" lon="4.58594">
        <ele>584</ele>
        <time>2017-01-12T14:13:11Z</time>
      </trkpt>
      <trkpt lat="46.04161" lon="4.58594">
        <ele>584</ele>
        <time>2017-01-12T14:13:12Z</time>
      </trkpt>
      <trkpt lat="46.04153" lon="4.58597">
        <ele>586</ele>
        <time>2017-01-12T14:13:19Z</time>
      </trkpt>
      <trkpt lat="46.04152" lon="4.58597">
        <ele>586</ele>
        <time>2017-01-12T14:13:20Z</time>
      </trkpt>
      <trkpt lat="46.04143" lon="4.58599">
        <ele>587</ele>
        <time>2017-01-12T14:13:27Z</time>
      </trkpt>
      <trkpt lat="46.04142" lon="4.58599">
        <ele>587</ele>
        <time>2017-01-12T14:13:28Z</time>
      </trkpt>
      <trkpt lat="46.04134" lon="4.58603">
        <ele>588</ele>
        <time>2017-01-12T14:13:37Z</time>
      </trkpt>
      <trkpt lat="46.04133" lon="4.58603">
        <ele>588</ele>
        <time>2017-01-12T14:13:38Z</time>
      </trkpt>
      <trkpt lat="46.04126" lon="4.58607">
        <ele>589</ele>
        <time>2017-01-12T14:13:48Z</time>
      </trkpt>
      <trkpt lat="46.04125" lon="4.58608">
        <ele>589</ele>
        <time>2017-01-12T14:13:49Z</time>
      </trkpt>
      <trkpt lat="46.04117" lon="4.58614">
        <ele>589</ele>
        <time>2017-01-12T14:14:01Z</time>
      </trkpt>
      <trkpt lat="46.04117" lon="4.58614">
        <ele>589</ele>
        <time>2017-01-12T14:14:02Z</time>
      </trkpt>
      <trkpt lat="46.04109" lon="4.58619">
        <ele>590</ele>
        <time>2017-01-12T14:14:14Z</time>
      </trkpt>
      <trkpt lat="46.04108" lon="4.58619">
        <ele>590</ele>
        <time>2017-01-12T14:14:15Z</time>
      </trkpt>
      <trkpt lat="46.04102" lon="4.58628">
        <ele>592</ele>
        <time>2017-01-12T14:14:28Z</time>
      </trkpt>
      <trkpt lat="46.04101" lon="4.58628">
        <ele>592</ele>
        <time>2017-01-12T14:14:29Z</time>
      </trkpt>
      <trkpt lat="46.04094" lon="4.58634">
        <ele>593</ele>
        <time>2017-01-12T14:14:40Z</time>
      </trkpt>
      <trkpt lat="46.04093" lon="4.58635">
        <ele>593</ele>
        <time>2017-01-12T14:14:41Z</time>
      </trkpt>
      <trkpt lat="46.04086" lon="4.58641">
        <ele>595</ele>
        <time>2017-01-12T14:14:50Z</time>
      </trkpt>
      <trkpt lat="46.04085" lon="4.58642">
        <ele>595</ele>
        <time>2017-01-12T14:14:51Z</time>
      </trkpt>
      <trkpt lat="46.04078" lon="4.5865">
        <ele>595</ele>
        <time>2017-01-12T14:15:02Z</time>
      </trkpt>
      <trkpt lat="46.04078" lon="4.5865">
        <ele>595</ele>
        <time>2017-01-12T14:15:03Z</time>
      </trkpt>
      <trkpt lat="46.04071" lon="4.58658">
        <ele>596</ele>
        <time>2017-01-12T14:15:14Z</time>
      </trkpt>
      <trkpt lat="46.04071" lon="4.58659">
        <ele>596</ele>
        <time>2017-01-12T14:15:15Z</time>
      </trkpt>
      <trkpt lat="46.04064" lon="4.58666">
        <ele>595</ele>
        <time>2017-01-12T14:15:26Z</time>
      </trkpt>
      <trkpt lat="46.04063" lon="4.58667">
        <ele>607</ele>
        <time>2017-01-12T14:15:27Z</time>
      </trkpt>
      <trkpt lat="46.04057" lon="4.58676">
        <ele>608</ele>
        <time>2017-01-12T14:15:39Z</time>
      </trkpt>
      <trkpt lat="46.04057" lon="4.58677">
        <ele>608</ele>
        <time>2017-01-12T14:15:40Z</time>
      </trkpt>
      <trkpt lat="46.04051" lon="4.58687">
        <ele>608</ele>
        <time>2017-01-12T14:15:53Z</time>
      </trkpt>
      <trkpt lat="46.0405" lon="4.58687">
        <ele>608</ele>
        <time>2017-01-12T14:15:54Z</time>
      </trkpt>
      <trkpt lat="46.04044" lon="4.58696">
        <ele>609</ele>
        <time>2017-01-12T14:16:07Z</time>
      </trkpt>
      <trkpt lat="46.04044" lon="4.58697">
        <ele>609</ele>
        <time>2017-01-12T14:16:08Z</time>
      </trkpt>
      <trkpt lat="46.04038" lon="4.58706">
        <ele>610</ele>
        <time>2017-01-12T14:16:20Z</time>
      </trkpt>
      <trkpt lat="46.04038" lon="4.58707">
        <ele>610</ele>
        <time>2017-01-12T14:16:21Z</time>
      </trkpt>
      <trkpt lat="46.04034" lon="4.58718">
        <ele>611</ele>
        <time>2017-01-12T14:16:34Z</time>
      </trkpt>
      <trkpt lat="46.04033" lon="4.58718">
        <ele>611</ele>
        <time>2017-01-12T14:16:35Z</time>
      </trkpt>
      <trkpt lat="46.04029" lon="4.58728">
        <ele>612</ele>
        <time>2017-01-12T14:16:49Z</time>
      </trkpt>
      <trkpt lat="46.04028" lon="4.58729">
        <ele>612</ele>
        <time>2017-01-12T14:16:50Z</time>
      </trkpt>
      <trkpt lat="46.04024" lon="4.5874">
        <ele>613</ele>
        <time>2017-01-12T14:17:04Z</time>
      </trkpt>
      <trkpt lat="46.04024" lon="4.58741">
        <ele>613</ele>
        <time>2017-01-12T14:17:05Z</time>
      </trkpt>
      <trkpt lat="46.04018" lon="4.58751">
        <ele>621</ele>
        <time>2017-01-12T14:17:18Z</time>
      </trkpt>
      <trkpt lat="46.04018" lon="4.58751">
        <ele>621</ele>
        <time>2017-01-12T14:17:19Z</time>
      </trkpt>
      <trkpt lat="46.04013" lon="4.58763">
        <ele>621</ele>
        <time>2017-01-12T14:17:33Z</time>
      </trkpt>
      <trkpt lat="46.04013" lon="4.58764">
        <ele>621</ele>
        <time>2017-01-12T14:17:34Z</time>
      </trkpt>
      <trkpt lat="46.04007" lon="4.58772">
        <ele>622</ele>
        <time>2017-01-12T14:17:46Z</time>
      </trkpt>
      <trkpt lat="46.04006" lon="4.58773">
        <ele>622</ele>
        <time>2017-01-12T14:17:47Z</time>
      </trkpt>
      <trkpt lat="46.04" lon="4.58782">
        <ele>624</ele>
        <time>2017-01-12T14:17:58Z</time>
      </trkpt>
      <trkpt lat="46.04" lon="4.58783">
        <ele>623</ele>
        <time>2017-01-12T14:17:59Z</time>
      </trkpt>
      <trkpt lat="46.03994" lon="4.58792">
        <ele>624</ele>
        <time>2017-01-12T14:18:10Z</time>
      </trkpt>
      <trkpt lat="46.03994" lon="4.58793">
        <ele>624</ele>
        <time>2017-01-12T14:18:11Z</time>
      </trkpt>
      <trkpt lat="46.03989" lon="4.58803">
        <ele>626</ele>
        <time>2017-01-12T14:18:21Z</time>
      </trkpt>
      <trkpt lat="46.03989" lon="4.58803">
        <ele>626</ele>
        <time>2017-01-12T14:18:22Z</time>
      </trkpt>
      <trkpt lat="46.03984" lon="4.58814">
        <ele>627</ele>
        <time>2017-01-12T14:18:32Z</time>
      </trkpt>
      <trkpt lat="46.03984" lon="4.58815">
        <ele>627</ele>
        <time>2017-01-12T14:18:33Z</time>
      </trkpt>
      <trkpt lat="46.0398" lon="4.58825">
        <ele>627</ele>
        <time>2017-01-12T14:18:43Z</time>
      </trkpt>
      <trkpt lat="46.03979" lon="4.58826">
        <ele>627</ele>
        <time>2017-01-12T14:18:44Z</time>
      </trkpt>
      <trkpt lat="46.03976" lon="4.58837">
        <ele>631</ele>
        <time>2017-01-12T14:18:56Z</time>
      </trkpt>
      <trkpt lat="46.03976" lon="4.58838">
        <ele>631</ele>
        <time>2017-01-12T14:18:57Z</time>
      </trkpt>
      <trkpt lat="46.03972" lon="4.5885">
        <ele>631</ele>
        <time>2017-01-12T14:19:18Z</time>
      </trkpt>
      <trkpt lat="46.03972" lon="4.5885">
        <ele>631</ele>
        <time>2017-01-12T14:19:19Z</time>
      </trkpt>
      <trkpt lat="46.03963" lon="4.58853">
        <ele>631</ele>
        <time>2017-01-12T14:24:04Z</time>
      </trkpt>
      <trkpt lat="46.03963" lon="4.58853">
        <ele>631</ele>
        <time>2017-01-12T14:24:05Z</time>
      </trkpt>
      <trkpt lat="46.03955" lon="4.58845">
        <ele>632</ele>
        <time>2017-01-12T14:24:16Z</time>
      </trkpt>
      <trkpt lat="46.03955" lon="4.58844">
        <ele>632</ele>
        <time>2017-01-12T14:24:17Z</time>
      </trkpt>
      <trkpt lat="46.03953" lon="4.58833">
        <ele>628</ele>
        <time>2017-01-12T14:24:30Z</time>
      </trkpt>
      <trkpt lat="46.03952" lon="4.58832">
        <ele>628</ele>
        <time>2017-01-12T14:24:31Z</time>
      </trkpt>
      <trkpt lat="46.03945" lon="4.58824">
        <ele>628</ele>
        <time>2017-01-12T14:24:39Z</time>
      </trkpt>
      <trkpt lat="46.03944" lon="4.58823">
        <ele>628</ele>
        <time>2017-01-12T14:24:40Z</time>
      </trkpt>
      <trkpt lat="46.03937" lon="4.58817">
        <ele>628</ele>
        <time>2017-01-12T14:24:48Z</time>
      </trkpt>
      <trkpt lat="46.03936" lon="4.58816">
        <ele>628</ele>
        <time>2017-01-12T14:24:49Z</time>
      </trkpt>
      <trkpt lat="46.03928" lon="4.58812">
        <ele>628</ele>
        <time>2017-01-12T14:24:57Z</time>
      </trkpt>
      <trkpt lat="46.03927" lon="4.58811">
        <ele>628</ele>
        <time>2017-01-12T14:24:58Z</time>
      </trkpt>
      <trkpt lat="46.0392" lon="4.58808">
        <ele>628</ele>
        <time>2017-01-12T14:25:05Z</time>
      </trkpt>
      <trkpt lat="46.03918" lon="4.58807">
        <ele>628</ele>
        <time>2017-01-12T14:25:06Z</time>
      </trkpt>
      <trkpt lat="46.0391" lon="4.58804">
        <ele>633</ele>
        <time>2017-01-12T14:25:13Z</time>
      </trkpt>
      <trkpt lat="46.03909" lon="4.58804">
        <ele>633</ele>
        <time>2017-01-12T14:25:14Z</time>
      </trkpt>
      <trkpt lat="46.03901" lon="4.588">
        <ele>633</ele>
        <time>2017-01-12T14:25:19Z</time>
      </trkpt>
      <trkpt lat="46.03899" lon="4.588">
        <ele>633</ele>
        <time>2017-01-12T14:25:20Z</time>
      </trkpt>
      <trkpt lat="46.03891" lon="4.58796">
        <ele>634</ele>
        <time>2017-01-12T14:25:25Z</time>
      </trkpt>
      <trkpt lat="46.03889" lon="4.58795">
        <ele>634</ele>
        <time>2017-01-12T14:25:26Z</time>
      </trkpt>
      <trkpt lat="46.03881" lon="4.58791">
        <ele>634</ele>
        <time>2017-01-12T14:25:32Z</time>
      </trkpt>
      <trkpt lat="46.0388" lon="4.58791">
        <ele>634</ele>
        <time>2017-01-12T14:25:33Z</time>
      </trkpt>
      <trkpt lat="46.03873" lon="4.58784">
        <ele>634</ele>
        <time>2017-01-12T14:25:41Z</time>
      </trkpt>
      <trkpt lat="46.03872" lon="4.58783">
        <ele>634</ele>
        <time>2017-01-12T14:25:42Z</time>
      </trkpt>
      <trkpt lat="46.03865" lon="4.58777">
        <ele>635</ele>
        <time>2017-01-12T14:25:50Z</time>
      </trkpt>
      <trkpt lat="46.03864" lon="4.58776">
        <ele>635</ele>
        <time>2017-01-12T14:25:51Z</time>
      </trkpt>
      <trkpt lat="46.03858" lon="4.58768">
        <ele>635</ele>
        <time>2017-01-12T14:25:59Z</time>
      </trkpt>
      <trkpt lat="46.03857" lon="4.58767">
        <ele>635</ele>
        <time>2017-01-12T14:26:00Z</time>
      </trkpt>
      <trkpt lat="46.03851" lon="4.58759">
        <ele>635</ele>
        <time>2017-01-12T14:26:06Z</time>
      </trkpt>
      <trkpt lat="46.0385" lon="4.58757">
        <ele>635</ele>
        <time>2017-01-12T14:26:07Z</time>
      </trkpt>
      <trkpt lat="46.03845" lon="4.58747">
        <ele>631</ele>
        <time>2017-01-12T14:26:13Z</time>
      </trkpt>
      <trkpt lat="46.03845" lon="4.58745">
        <ele>631</ele>
        <time>2017-01-12T14:26:14Z</time>
      </trkpt>
      <trkpt lat="46.03841" lon="4.58735">
        <ele>629</ele>
        <time>2017-01-12T14:26:21Z</time>
      </trkpt>
      <trkpt lat="46.0384" lon="4.58733">
        <ele>629</ele>
        <time>2017-01-12T14:26:22Z</time>
      </trkpt>
      <trkpt lat="46.03837" lon="4.58722">
        <ele>626</ele>
        <time>2017-01-12T14:26:29Z</time>
      </trkpt>
      <trkpt lat="46.03836" lon="4.5872">
        <ele>626</ele>
        <time>2017-01-12T14:26:30Z</time>
      </trkpt>
      <trkpt lat="46.03833" lon="4.5871">
        <ele>633</ele>
        <time>2017-01-12T14:26:36Z</time>
      </trkpt>
      <trkpt lat="46.03832" lon="4.58708">
        <ele>633</ele>
        <time>2017-01-12T14:26:37Z</time>
      </trkpt>
      <trkpt lat="46.03827" lon="4.58698">
        <ele>631</ele>
        <time>2017-01-12T14:26:44Z</time>
      </trkpt>
      <trkpt lat="46.03827" lon="4.58696">
        <ele>631</ele>
        <time>2017-01-12T14:26:45Z</time>
      </trkpt>
      <trkpt lat="46.03821" lon="4.58687">
        <ele>630</ele>
        <time>2017-01-12T14:26:53Z</time>
      </trkpt>
      <trkpt lat="46.03821" lon="4.58685">
        <ele>630</ele>
        <time>2017-01-12T14:26:54Z</time>
      </trkpt>
      <trkpt lat="46.03816" lon="4.58674">
        <ele>629</ele>
        <time>2017-01-12T14:27:04Z</time>
      </trkpt>
      <trkpt lat="46.03816" lon="4.58673">
        <ele>629</ele>
        <time>2017-01-12T14:27:05Z</time>
      </trkpt>
      <trkpt lat="46.03808" lon="4.58667">
        <ele>617</ele>
        <time>2017-01-12T14:27:16Z</time>
      </trkpt>
      <trkpt lat="46.03807" lon="4.58666">
        <ele>617</ele>
        <time>2017-01-12T14:27:17Z</time>
      </trkpt>
      <trkpt lat="46.03799" lon="4.58665">
        <ele>617</ele>
        <time>2017-01-12T14:27:23Z</time>
      </trkpt>
      <trkpt lat="46.03797" lon="4.58665">
        <ele>617</ele>
        <time>2017-01-12T14:27:24Z</time>
      </trkpt>
      <trkpt lat="46.0379" lon="4.5866">
        <ele>618</ele>
        <time>2017-01-12T14:27:34Z</time>
      </trkpt>
      <trkpt lat="46.03789" lon="4.58659">
        <ele>618</ele>
        <time>2017-01-12T14:27:35Z</time>
      </trkpt>
      <trkpt lat="46.03781" lon="4.58657">
        <ele>618</ele>
        <time>2017-01-12T14:27:45Z</time>
      </trkpt>
      <trkpt lat="46.03779" lon="4.58656">
        <ele>618</ele>
        <time>2017-01-12T14:27:46Z</time>
      </trkpt>
      <trkpt lat="46.03771" lon="4.58655">
        <ele>620</ele>
        <time>2017-01-12T14:27:52Z</time>
      </trkpt>
      <trkpt lat="46.03769" lon="4.58655">
        <ele>620</ele>
        <time>2017-01-12T14:27:53Z</time>
      </trkpt>
      <trkpt lat="46.03762" lon="4.58655">
        <ele>622</ele>
        <time>2017-01-12T14:27:59Z</time>
      </trkpt>
      <trkpt lat="46.0376" lon="4.58655">
        <ele>622</ele>
        <time>2017-01-12T14:28:00Z</time>
      </trkpt>
      <trkpt lat="46.03751" lon="4.58654">
        <ele>624</ele>
        <time>2017-01-12T14:28:06Z</time>
      </trkpt>
      <trkpt lat="46.0375" lon="4.58654">
        <ele>624</ele>
        <time>2017-01-12T14:28:07Z</time>
      </trkpt>
      <trkpt lat="46.03742" lon="4.58655">
        <ele>623</ele>
        <time>2017-01-12T14:28:13Z</time>
      </trkpt>
      <trkpt lat="46.0374" lon="4.58655">
        <ele>623</ele>
        <time>2017-01-12T14:28:14Z</time>
      </trkpt>
      <trkpt lat="46.03732" lon="4.58658">
        <ele>621</ele>
        <time>2017-01-12T14:28:20Z</time>
      </trkpt>
      <trkpt lat="46.03731" lon="4.58659">
        <ele>621</ele>
        <time>2017-01-12T14:28:21Z</time>
      </trkpt>
      <trkpt lat="46.03722" lon="4.5866">
        <ele>619</ele>
        <time>2017-01-12T14:28:27Z</time>
      </trkpt>
      <trkpt lat="46.03721" lon="4.58661">
        <ele>619</ele>
        <time>2017-01-12T14:28:28Z</time>
      </trkpt>
      <trkpt lat="46.03712" lon="4.58664">
        <ele>618</ele>
        <time>2017-01-12T14:28:34Z</time>
      </trkpt>
      <trkpt lat="46.03711" lon="4.58665">
        <ele>618</ele>
        <time>2017-01-12T14:28:35Z</time>
      </trkpt>
      <trkpt lat="46.03702" lon="4.58669">
        <ele>633</ele>
        <time>2017-01-12T14:28:41Z</time>
      </trkpt>
      <trkpt lat="46.03701" lon="4.5867">
        <ele>633</ele>
        <time>2017-01-12T14:28:42Z</time>
      </trkpt>
      <trkpt lat="46.03693" lon="4.58674">
        <ele>633</ele>
        <time>2017-01-12T14:28:49Z</time>
      </trkpt>
      <trkpt lat="46.03692" lon="4.58674">
        <ele>632</ele>
        <time>2017-01-12T14:28:50Z</time>
      </trkpt>
      <trkpt lat="46.03684" lon="4.58677">
        <ele>631</ele>
        <time>2017-01-12T14:28:57Z</time>
      </trkpt>
      <trkpt lat="46.03682" lon="4.58677">
        <ele>631</ele>
        <time>2017-01-12T14:28:58Z</time>
      </trkpt>
      <trkpt lat="46.03675" lon="4.58683">
        <ele>631</ele>
        <time>2017-01-12T14:29:05Z</time>
      </trkpt>
      <trkpt lat="46.03673" lon="4.58683">
        <ele>631</ele>
        <time>2017-01-12T14:29:06Z</time>
      </trkpt>
      <trkpt lat="46.03665" lon="4.58689">
        <ele>628</ele>
        <time>2017-01-12T14:29:13Z</time>
      </trkpt>
      <trkpt lat="46.03664" lon="4.5869">
        <ele>628</ele>
        <time>2017-01-12T14:29:14Z</time>
      </trkpt>
      <trkpt lat="46.03657" lon="4.58696">
        <ele>630</ele>
        <time>2017-01-12T14:29:20Z</time>
      </trkpt>
      <trkpt lat="46.03656" lon="4.58697">
        <ele>630</ele>
        <time>2017-01-12T14:29:21Z</time>
      </trkpt>
      <trkpt lat="46.03649" lon="4.58703">
        <ele>631</ele>
        <time>2017-01-12T14:29:27Z</time>
      </trkpt>
      <trkpt lat="46.03648" lon="4.58703">
        <ele>631</ele>
        <time>2017-01-12T14:29:28Z</time>
      </trkpt>
      <trkpt lat="46.0364" lon="4.58709">
        <ele>631</ele>
        <time>2017-01-12T14:29:36Z</time>
      </trkpt>
      <trkpt lat="46.03639" lon="4.5871">
        <ele>631</ele>
        <time>2017-01-12T14:29:37Z</time>
      </trkpt>
      <trkpt lat="46.03631" lon="4.58715">
        <ele>632</ele>
        <time>2017-01-12T14:29:44Z</time>
      </trkpt>
      <trkpt lat="46.0363" lon="4.58715">
        <ele>632</ele>
        <time>2017-01-12T14:29:45Z</time>
      </trkpt>
      <trkpt lat="46.03622" lon="4.58718">
        <ele>631</ele>
        <time>2017-01-12T14:29:51Z</time>
      </trkpt>
      <trkpt lat="46.03621" lon="4.58719">
        <ele>631</ele>
        <time>2017-01-12T14:29:52Z</time>
      </trkpt>
      <trkpt lat="46.03614" lon="4.58724">
        <ele>632</ele>
        <time>2017-01-12T14:29:59Z</time>
      </trkpt>
      <trkpt lat="46.03613" lon="4.58725">
        <ele>632</ele>
        <time>2017-01-12T14:30:00Z</time>
      </trkpt>
      <trkpt lat="46.03605" lon="4.5873">
        <ele>632</ele>
        <time>2017-01-12T14:30:06Z</time>
      </trkpt>
      <trkpt lat="46.03604" lon="4.58731">
        <ele>632</ele>
        <time>2017-01-12T14:30:07Z</time>
      </trkpt>
      <trkpt lat="46.03596" lon="4.58735">
        <ele>633</ele>
        <time>2017-01-12T14:30:13Z</time>
      </trkpt>
      <trkpt lat="46.03595" lon="4.58736">
        <ele>633</ele>
        <time>2017-01-12T14:30:14Z</time>
      </trkpt>
      <trkpt lat="46.03587" lon="4.5874">
        <ele>634</ele>
        <time>2017-01-12T14:30:20Z</time>
      </trkpt>
      <trkpt lat="46.03586" lon="4.58741">
        <ele>634</ele>
        <time>2017-01-12T14:30:21Z</time>
      </trkpt>
      <trkpt lat="46.03578" lon="4.58746">
        <ele>632</ele>
        <time>2017-01-12T14:30:28Z</time>
      </trkpt>
      <trkpt lat="46.03577" lon="4.58747">
        <ele>632</ele>
        <time>2017-01-12T14:30:29Z</time>
      </trkpt>
      <trkpt lat="46.03569" lon="4.58752">
        <ele>638</ele>
        <time>2017-01-12T14:30:36Z</time>
      </trkpt>
      <trkpt lat="46.03568" lon="4.58753">
        <ele>638</ele>
        <time>2017-01-12T14:30:37Z</time>
      </trkpt>
      <trkpt lat="46.03561" lon="4.58758">
        <ele>639</ele>
        <time>2017-01-12T14:30:44Z</time>
      </trkpt>
      <trkpt lat="46.0356" lon="4.58759">
        <ele>639</ele>
        <time>2017-01-12T14:30:45Z</time>
      </trkpt>
      <trkpt lat="46.03553" lon="4.58765">
        <ele>640</ele>
        <time>2017-01-12T14:30:52Z</time>
      </trkpt>
      <trkpt lat="46.03552" lon="4.58766">
        <ele>640</ele>
        <time>2017-01-12T14:30:53Z</time>
      </trkpt>
      <trkpt lat="46.03544" lon="4.5877">
        <ele>640</ele>
        <time>2017-01-12T14:31:00Z</time>
      </trkpt>
      <trkpt lat="46.03543" lon="4.58771">
        <ele>640</ele>
        <time>2017-01-12T14:31:01Z</time>
      </trkpt>
      <trkpt lat="46.03535" lon="4.58777">
        <ele>640</ele>
        <time>2017-01-12T14:31:09Z</time>
      </trkpt>
      <trkpt lat="46.03534" lon="4.58777">
        <ele>640</ele>
        <time>2017-01-12T14:31:10Z</time>
      </trkpt>
      <trkpt lat="46.03526" lon="4.58781">
        <ele>640</ele>
        <time>2017-01-12T14:31:17Z</time>
      </trkpt>
      <trkpt lat="46.03525" lon="4.58782">
        <ele>640</ele>
        <time>2017-01-12T14:31:18Z</time>
      </trkpt>
      <trkpt lat="46.03517" lon="4.58786">
        <ele>640</ele>
        <time>2017-01-12T14:31:25Z</time>
      </trkpt>
      <trkpt lat="46.03516" lon="4.58787">
        <ele>640</ele>
        <time>2017-01-12T14:31:26Z</time>
      </trkpt>
      <trkpt lat="46.03507" lon="4.58791">
        <ele>641</ele>
        <time>2017-01-12T14:31:35Z</time>
      </trkpt>
      <trkpt lat="46.03507" lon="4.58791">
        <ele>641</ele>
        <time>2017-01-12T14:31:36Z</time>
      </trkpt>
      <trkpt lat="46.03499" lon="4.58793">
        <ele>638</ele>
        <time>2017-01-12T14:31:44Z</time>
      </trkpt>
      <trkpt lat="46.03497" lon="4.58794">
        <ele>639</ele>
        <time>2017-01-12T14:31:45Z</time>
      </trkpt>
      <trkpt lat="46.0349" lon="4.58797">
        <ele>639</ele>
        <time>2017-01-12T14:31:53Z</time>
      </trkpt>
      <trkpt lat="46.03489" lon="4.58797">
        <ele>639</ele>
        <time>2017-01-12T14:31:54Z</time>
      </trkpt>
      <trkpt lat="46.03481" lon="4.588">
        <ele>639</ele>
        <time>2017-01-12T14:32:02Z</time>
      </trkpt>
      <trkpt lat="46.0348" lon="4.588">
        <ele>639</ele>
        <time>2017-01-12T14:32:03Z</time>
      </trkpt>
      <trkpt lat="46.03472" lon="4.58802">
        <ele>639</ele>
        <time>2017-01-12T14:32:10Z</time>
      </trkpt>
      <trkpt lat="46.0347" lon="4.58802">
        <ele>639</ele>
        <time>2017-01-12T14:32:11Z</time>
      </trkpt>
      <trkpt lat="46.03462" lon="4.58805">
        <ele>640</ele>
        <time>2017-01-12T14:32:18Z</time>
      </trkpt>
      <trkpt lat="46.03461" lon="4.58805">
        <ele>640</ele>
        <time>2017-01-12T14:32:19Z</time>
      </trkpt>
      <trkpt lat="46.03453" lon="4.58807">
        <ele>640</ele>
        <time>2017-01-12T14:32:27Z</time>
      </trkpt>
      <trkpt lat="46.03452" lon="4.58807">
        <ele>640</ele>
        <time>2017-01-12T14:32:28Z</time>
      </trkpt>
      <trkpt lat="46.03443" lon="4.58808">
        <ele>640</ele>
        <time>2017-01-12T14:32:38Z</time>
      </trkpt>
      <trkpt lat="46.03442" lon="4.58808">
        <ele>640</ele>
        <time>2017-01-12T14:32:39Z</time>
      </trkpt>
      <trkpt lat="46.03434" lon="4.58808">
        <ele>641</ele>
        <time>2017-01-12T14:32:49Z</time>
      </trkpt>
      <trkpt lat="46.03433" lon="4.58808">
        <ele>641</ele>
        <time>2017-01-12T14:32:50Z</time>
      </trkpt>
      <trkpt lat="46.03424" lon="4.58809">
        <ele>641</ele>
        <time>2017-01-12T14:32:57Z</time>
      </trkpt>
      <trkpt lat="46.03422" lon="4.58809">
        <ele>641</ele>
        <time>2017-01-12T14:32:58Z</time>
      </trkpt>
      <trkpt lat="46.03414" lon="4.58808">
        <ele>642</ele>
        <time>2017-01-12T14:33:05Z</time>
      </trkpt>
      <trkpt lat="46.03413" lon="4.58808">
        <ele>642</ele>
        <time>2017-01-12T14:33:06Z</time>
      </trkpt>
      <trkpt lat="46.03404" lon="4.58809">
        <ele>642</ele>
        <time>2017-01-12T14:33:15Z</time>
      </trkpt>
      <trkpt lat="46.03404" lon="4.58809">
        <ele>642</ele>
        <time>2017-01-12T14:33:16Z</time>
      </trkpt>
      <trkpt lat="46.03396" lon="4.58809">
        <ele>642</ele>
        <time>2017-01-12T14:33:26Z</time>
      </trkpt>
      <trkpt lat="46.03394" lon="4.58809">
        <ele>642</ele>
        <time>2017-01-12T14:33:27Z</time>
      </trkpt>
      <trkpt lat="46.03386" lon="4.58809">
        <ele>642</ele>
        <time>2017-01-12T14:33:32Z</time>
      </trkpt>
      <trkpt lat="46.03384" lon="4.58809">
        <ele>642</ele>
        <time>2017-01-12T14:33:33Z</time>
      </trkpt>
      <trkpt lat="46.03376" lon="4.58808">
        <ele>642</ele>
        <time>2017-01-12T14:33:39Z</time>
      </trkpt>
      <trkpt lat="46.03374" lon="4.58808">
        <ele>642</ele>
        <time>2017-01-12T14:33:40Z</time>
      </trkpt>
      <trkpt lat="46.03365" lon="4.58808">
        <ele>642</ele>
        <time>2017-01-12T14:33:45Z</time>
      </trkpt>
      <trkpt lat="46.03364" lon="4.58808">
        <ele>642</ele>
        <time>2017-01-12T14:33:46Z</time>
      </trkpt>
      <trkpt lat="46.03355" lon="4.58809">
        <ele>643</ele>
        <time>2017-01-12T14:33:51Z</time>
      </trkpt>
      <trkpt lat="46.03355" lon="4.58809">
        <ele>643</ele>
        <time>2017-01-12T14:33:52Z</time>
      </trkpt>
      <trkpt lat="46.03346" lon="4.58809">
        <ele>644</ele>
        <time>2017-01-12T14:34:05Z</time>
      </trkpt>
      <trkpt lat="46.03345" lon="4.58809">
        <ele>644</ele>
        <time>2017-01-12T14:34:06Z</time>
      </trkpt>
      <trkpt lat="46.03337" lon="4.58807">
        <ele>644</ele>
        <time>2017-01-12T14:34:12Z</time>
      </trkpt>
      <trkpt lat="46.03335" lon="4.58807">
        <ele>644</ele>
        <time>2017-01-12T14:34:13Z</time>
      </trkpt>
      <trkpt lat="46.03327" lon="4.58806">
        <ele>646</ele>
        <time>2017-01-12T14:34:21Z</time>
      </trkpt>
      <trkpt lat="46.03326" lon="4.58806">
        <ele>646</ele>
        <time>2017-01-12T14:34:22Z</time>
      </trkpt>
      <trkpt lat="46.03318" lon="4.58806">
        <ele>646</ele>
        <time>2017-01-12T14:34:29Z</time>
      </trkpt>
      <trkpt lat="46.03317" lon="4.58806">
        <ele>646</ele>
        <time>2017-01-12T14:34:30Z</time>
      </trkpt>
      <trkpt lat="46.03309" lon="4.58807">
        <ele>646</ele>
        <time>2017-01-12T14:34:36Z</time>
      </trkpt>
      <trkpt lat="46.03308" lon="4.58807">
        <ele>646</ele>
        <time>2017-01-12T14:34:37Z</time>
      </trkpt>
      <trkpt lat="46.03299" lon="4.58805">
        <ele>646</ele>
        <time>2017-01-12T14:34:42Z</time>
      </trkpt>
      <trkpt lat="46.03297" lon="4.58805">
        <ele>646</ele>
        <time>2017-01-12T14:34:43Z</time>
      </trkpt>
      <trkpt lat="46.03289" lon="4.58802">
        <ele>646</ele>
        <time>2017-01-12T14:34:48Z</time>
      </trkpt>
      <trkpt lat="46.03288" lon="4.58801">
        <ele>646</ele>
        <time>2017-01-12T14:34:49Z</time>
      </trkpt>
      <trkpt lat="46.03279" lon="4.588">
        <ele>646</ele>
        <time>2017-01-12T14:35:19Z</time>
      </trkpt>
      <trkpt lat="46.03279" lon="4.588">
        <ele>646</ele>
        <time>2017-01-12T14:35:20Z</time>
      </trkpt>
      <trkpt lat="46.03271" lon="4.58795">
        <ele>646</ele>
        <time>2017-01-12T14:37:36Z</time>
      </trkpt>
      <trkpt lat="46.0327" lon="4.58794">
        <ele>646</ele>
        <time>2017-01-12T14:37:37Z</time>
      </trkpt>
      <trkpt lat="46.03262" lon="4.58788">
        <ele>647</ele>
        <time>2017-01-12T14:37:44Z</time>
      </trkpt>
      <trkpt lat="46.03261" lon="4.58787">
        <ele>647</ele>
        <time>2017-01-12T14:37:45Z</time>
      </trkpt>
      <trkpt lat="46.03256" lon="4.58776">
        <ele>648</ele>
        <time>2017-01-12T14:37:53Z</time>
      </trkpt>
      <trkpt lat="46.03255" lon="4.58775">
        <ele>648</ele>
        <time>2017-01-12T14:37:54Z</time>
      </trkpt>
      <trkpt lat="46.03252" lon="4.58764">
        <ele>650</ele>
        <time>2017-01-12T14:38:04Z</time>
      </trkpt>
      <trkpt lat="46.03251" lon="4.58763">
        <ele>650</ele>
        <time>2017-01-12T14:38:05Z</time>
      </trkpt>
      <trkpt lat="46.03248" lon="4.58751">
        <ele>653</ele>
        <time>2017-01-12T14:38:16Z</time>
      </trkpt>
      <trkpt lat="46.03248" lon="4.5875">
        <ele>653</ele>
        <time>2017-01-12T14:38:17Z</time>
      </trkpt>
      <trkpt lat="46.03247" lon="4.58738">
        <ele>656</ele>
        <time>2017-01-12T14:38:28Z</time>
      </trkpt>
      <trkpt lat="46.03247" lon="4.58737">
        <ele>656</ele>
        <time>2017-01-12T14:38:29Z</time>
      </trkpt>
      <trkpt lat="46.03248" lon="4.58725">
        <ele>658</ele>
        <time>2017-01-12T14:38:38Z</time>
      </trkpt>
      <trkpt lat="46.03248" lon="4.58723">
        <ele>658</ele>
        <time>2017-01-12T14:38:39Z</time>
      </trkpt>
      <trkpt lat="46.03248" lon="4.58711">
        <ele>659</ele>
        <time>2017-01-12T14:38:47Z</time>
      </trkpt>
      <trkpt lat="46.03248" lon="4.58709">
        <ele>659</ele>
        <time>2017-01-12T14:38:48Z</time>
      </trkpt>
      <trkpt lat="46.03246" lon="4.58698">
        <ele>660</ele>
        <time>2017-01-12T14:38:56Z</time>
      </trkpt>
      <trkpt lat="46.03246" lon="4.58696">
        <ele>660</ele>
        <time>2017-01-12T14:38:57Z</time>
      </trkpt>
      <trkpt lat="46.03245" lon="4.58685">
        <ele>660</ele>
        <time>2017-01-12T14:39:04Z</time>
      </trkpt>
      <trkpt lat="46.03245" lon="4.58683">
        <ele>660</ele>
        <time>2017-01-12T14:39:05Z</time>
      </trkpt>
      <trkpt lat="46.03244" lon="4.58672">
        <ele>660</ele>
        <time>2017-01-12T14:39:12Z</time>
      </trkpt>
      <trkpt lat="46.03243" lon="4.5867">
        <ele>660</ele>
        <time>2017-01-12T14:39:13Z</time>
      </trkpt>
      <trkpt lat="46.03241" lon="4.58659">
        <ele>663</ele>
        <time>2017-01-12T14:39:20Z</time>
      </trkpt>
      <trkpt lat="46.03241" lon="4.58657">
        <ele>663</ele>
        <time>2017-01-12T14:39:21Z</time>
      </trkpt>
      <trkpt lat="46.03237" lon="4.58646">
        <ele>665</ele>
        <time>2017-01-12T14:39:31Z</time>
      </trkpt>
      <trkpt lat="46.03237" lon="4.58644">
        <ele>665</ele>
        <time>2017-01-12T14:39:32Z</time>
      </trkpt>
      <trkpt lat="46.03235" lon="4.58632">
        <ele>666</ele>
        <time>2017-01-12T14:39:40Z</time>
      </trkpt>
      <trkpt lat="46.03234" lon="4.58631">
        <ele>666</ele>
        <time>2017-01-12T14:39:41Z</time>
      </trkpt>
      <trkpt lat="46.03232" lon="4.5862">
        <ele>667</ele>
        <time>2017-01-12T14:39:49Z</time>
      </trkpt>
      <trkpt lat="46.03232" lon="4.58618">
        <ele>667</ele>
        <time>2017-01-12T14:39:50Z</time>
      </trkpt>
      <trkpt lat="46.03229" lon="4.58607">
        <ele>667</ele>
        <time>2017-01-12T14:39:58Z</time>
      </trkpt>
      <trkpt lat="46.03229" lon="4.58605">
        <ele>667</ele>
        <time>2017-01-12T14:39:59Z</time>
      </trkpt>
      <trkpt lat="46.03226" lon="4.58594">
        <ele>667</ele>
        <time>2017-01-12T14:40:06Z</time>
      </trkpt>
      <trkpt lat="46.03226" lon="4.58593">
        <ele>667</ele>
        <time>2017-01-12T14:40:07Z</time>
      </trkpt>
      <trkpt lat="46.03224" lon="4.58581">
        <ele>667</ele>
        <time>2017-01-12T14:40:15Z</time>
      </trkpt>
      <trkpt lat="46.03224" lon="4.58579">
        <ele>667</ele>
        <time>2017-01-12T14:40:16Z</time>
      </trkpt>
      <trkpt lat="46.03223" lon="4.58567">
        <ele>667</ele>
        <time>2017-01-12T14:40:23Z</time>
      </trkpt>
      <trkpt lat="46.03223" lon="4.58565">
        <ele>667</ele>
        <time>2017-01-12T14:40:24Z</time>
      </trkpt>
      <trkpt lat="46.03223" lon="4.58554">
        <ele>667</ele>
        <time>2017-01-12T14:40:32Z</time>
      </trkpt>
      <trkpt lat="46.03223" lon="4.58552">
        <ele>667</ele>
        <time>2017-01-12T14:40:33Z</time>
      </trkpt>
      <trkpt lat="46.0322" lon="4.58541">
        <ele>668</ele>
        <time>2017-01-12T14:40:39Z</time>
      </trkpt>
      <trkpt lat="46.0322" lon="4.58539">
        <ele>667</ele>
        <time>2017-01-12T14:40:40Z</time>
      </trkpt>
      <trkpt lat="46.03218" lon="4.58528">
        <ele>667</ele>
        <time>2017-01-12T14:40:47Z</time>
      </trkpt>
      <trkpt lat="46.03218" lon="4.58526">
        <ele>667</ele>
        <time>2017-01-12T14:40:48Z</time>
      </trkpt>
      <trkpt lat="46.03214" lon="4.58516">
        <ele>668</ele>
        <time>2017-01-12T14:40:55Z</time>
      </trkpt>
      <trkpt lat="46.03214" lon="4.58514">
        <ele>668</ele>
        <time>2017-01-12T14:40:56Z</time>
      </trkpt>
      <trkpt lat="46.03209" lon="4.58505">
        <ele>669</ele>
        <time>2017-01-12T14:41:02Z</time>
      </trkpt>
      <trkpt lat="46.03208" lon="4.58503">
        <ele>669</ele>
        <time>2017-01-12T14:41:03Z</time>
      </trkpt>
      <trkpt lat="46.03206" lon="4.5849">
        <ele>666</ele>
        <time>2017-01-12T14:41:10Z</time>
      </trkpt>
      <trkpt lat="46.03206" lon="4.58489">
        <ele>666</ele>
        <time>2017-01-12T14:41:11Z</time>
      </trkpt>
      <trkpt lat="46.03205" lon="4.58476">
        <ele>666</ele>
        <time>2017-01-12T14:41:22Z</time>
      </trkpt>
      <trkpt lat="46.03204" lon="4.58475">
        <ele>666</ele>
        <time>2017-01-12T14:41:23Z</time>
      </trkpt>
      <trkpt lat="46.03197" lon="4.58466">
        <ele>667</ele>
        <time>2017-01-12T14:41:30Z</time>
      </trkpt>
      <trkpt lat="46.03197" lon="4.58465">
        <ele>667</ele>
        <time>2017-01-12T14:41:31Z</time>
      </trkpt>
      <trkpt lat="46.03192" lon="4.58455">
        <ele>667</ele>
        <time>2017-01-12T14:41:38Z</time>
      </trkpt>
      <trkpt lat="46.03191" lon="4.58454">
        <ele>667</ele>
        <time>2017-01-12T14:41:39Z</time>
      </trkpt>
      <trkpt lat="46.03187" lon="4.58444">
        <ele>668</ele>
        <time>2017-01-12T14:41:47Z</time>
      </trkpt>
      <trkpt lat="46.03186" lon="4.58443">
        <ele>668</ele>
        <time>2017-01-12T14:41:48Z</time>
      </trkpt>
      <trkpt lat="46.0318" lon="4.58433">
        <ele>670</ele>
        <time>2017-01-12T14:41:56Z</time>
      </trkpt>
      <trkpt lat="46.03179" lon="4.58432">
        <ele>670</ele>
        <time>2017-01-12T14:41:57Z</time>
      </trkpt>
      <trkpt lat="46.03173" lon="4.58425">
        <ele>673</ele>
        <time>2017-01-12T14:42:04Z</time>
      </trkpt>
      <trkpt lat="46.03172" lon="4.58424">
        <ele>674</ele>
        <time>2017-01-12T14:42:05Z</time>
      </trkpt>
      <trkpt lat="46.03166" lon="4.58414">
        <ele>679</ele>
        <time>2017-01-12T14:42:12Z</time>
      </trkpt>
      <trkpt lat="46.03165" lon="4.58413">
        <ele>679</ele>
        <time>2017-01-12T14:42:13Z</time>
      </trkpt>
      <trkpt lat="46.03159" lon="4.58403">
        <ele>681</ele>
        <time>2017-01-12T14:42:20Z</time>
      </trkpt>
      <trkpt lat="46.03159" lon="4.58402">
        <ele>681</ele>
        <time>2017-01-12T14:42:21Z</time>
      </trkpt>
      <trkpt lat="46.03152" lon="4.58393">
        <ele>682</ele>
        <time>2017-01-12T14:42:29Z</time>
      </trkpt>
      <trkpt lat="46.03152" lon="4.58392">
        <ele>682</ele>
        <time>2017-01-12T14:42:30Z</time>
      </trkpt>
      <trkpt lat="46.03146" lon="4.58383">
        <ele>682</ele>
        <time>2017-01-12T14:42:38Z</time>
      </trkpt>
      <trkpt lat="46.03145" lon="4.58382">
        <ele>682</ele>
        <time>2017-01-12T14:42:39Z</time>
      </trkpt>
      <trkpt lat="46.03143" lon="4.5837">
        <ele>681</ele>
        <time>2017-01-12T14:42:48Z</time>
      </trkpt>
      <trkpt lat="46.03142" lon="4.58369">
        <ele>681</ele>
        <time>2017-01-12T14:42:49Z</time>
      </trkpt>
      <trkpt lat="46.03136" lon="4.58359">
        <ele>681</ele>
        <time>2017-01-12T14:42:58Z</time>
      </trkpt>
      <trkpt lat="46.03135" lon="4.58358">
        <ele>681</ele>
        <time>2017-01-12T14:42:59Z</time>
      </trkpt>
      <trkpt lat="46.03132" lon="4.58346">
        <ele>681</ele>
        <time>2017-01-12T14:43:10Z</time>
      </trkpt>
      <trkpt lat="46.03132" lon="4.58345">
        <ele>681</ele>
        <time>2017-01-12T14:43:11Z</time>
      </trkpt>
      <trkpt lat="46.03128" lon="4.58335">
        <ele>682</ele>
        <time>2017-01-12T14:43:18Z</time>
      </trkpt>
      <trkpt lat="46.03127" lon="4.58333">
        <ele>672</ele>
        <time>2017-01-12T14:43:19Z</time>
      </trkpt>
      <trkpt lat="46.03121" lon="4.58324">
        <ele>673</ele>
        <time>2017-01-12T14:43:28Z</time>
      </trkpt>
      <trkpt lat="46.0312" lon="4.58322">
        <ele>673</ele>
        <time>2017-01-12T14:43:29Z</time>
      </trkpt>
      <trkpt lat="46.03114" lon="4.58315">
        <ele>675</ele>
        <time>2017-01-12T14:43:34Z</time>
      </trkpt>
      <trkpt lat="46.03113" lon="4.58314">
        <ele>675</ele>
        <time>2017-01-12T14:43:35Z</time>
      </trkpt>
      <trkpt lat="46.03107" lon="4.58304">
        <ele>675</ele>
        <time>2017-01-12T14:43:43Z</time>
      </trkpt>
      <trkpt lat="46.03106" lon="4.58303">
        <ele>675</ele>
        <time>2017-01-12T14:43:44Z</time>
      </trkpt>
      <trkpt lat="46.031" lon="4.58296">
        <ele>675</ele>
        <time>2017-01-12T14:43:52Z</time>
      </trkpt>
      <trkpt lat="46.03099" lon="4.58295">
        <ele>675</ele>
        <time>2017-01-12T14:43:53Z</time>
      </trkpt>
      <trkpt lat="46.03092" lon="4.58287">
        <ele>674</ele>
        <time>2017-01-12T14:44:04Z</time>
      </trkpt>
      <trkpt lat="46.03092" lon="4.58286">
        <ele>674</ele>
        <time>2017-01-12T14:44:05Z</time>
      </trkpt>
      <trkpt lat="46.03086" lon="4.58279">
        <ele>674</ele>
        <time>2017-01-12T14:44:12Z</time>
      </trkpt>
      <trkpt lat="46.03085" lon="4.58277">
        <ele>674</ele>
        <time>2017-01-12T14:44:13Z</time>
      </trkpt>
      <trkpt lat="46.03079" lon="4.58269">
        <ele>687</ele>
        <time>2017-01-12T14:44:21Z</time>
      </trkpt>
      <trkpt lat="46.03078" lon="4.58268">
        <ele>687</ele>
        <time>2017-01-12T14:44:22Z</time>
      </trkpt>
      <trkpt lat="46.03072" lon="4.5826">
        <ele>686</ele>
        <time>2017-01-12T14:44:34Z</time>
      </trkpt>
      <trkpt lat="46.03071" lon="4.58259">
        <ele>686</ele>
        <time>2017-01-12T14:44:35Z</time>
      </trkpt>
      <trkpt lat="46.03062" lon="4.58255">
        <ele>688</ele>
        <time>2017-01-12T14:44:42Z</time>
      </trkpt>
      <trkpt lat="46.03061" lon="4.58254">
        <ele>688</ele>
        <time>2017-01-12T14:44:43Z</time>
      </trkpt>
      <trkpt lat="46.03054" lon="4.58247">
        <ele>679</ele>
        <time>2017-01-12T14:44:52Z</time>
      </trkpt>
      <trkpt lat="46.03053" lon="4.58246">
        <ele>679</ele>
        <time>2017-01-12T14:44:53Z</time>
      </trkpt>
      <trkpt lat="46.03046" lon="4.5824">
        <ele>680</ele>
        <time>2017-01-12T14:45:06Z</time>
      </trkpt>
      <trkpt lat="46.03046" lon="4.58239">
        <ele>680</ele>
        <time>2017-01-12T14:45:07Z</time>
      </trkpt>
      <trkpt lat="46.03038" lon="4.58234">
        <ele>681</ele>
        <time>2017-01-12T14:45:15Z</time>
      </trkpt>
      <trkpt lat="46.03037" lon="4.58233">
        <ele>681</ele>
        <time>2017-01-12T14:45:16Z</time>
      </trkpt>
      <trkpt lat="46.0303" lon="4.58227">
        <ele>681</ele>
        <time>2017-01-12T14:45:23Z</time>
      </trkpt>
      <trkpt lat="46.03028" lon="4.58226">
        <ele>681</ele>
        <time>2017-01-12T14:45:24Z</time>
      </trkpt>
      <trkpt lat="46.0302" lon="4.58222">
        <ele>682</ele>
        <time>2017-01-12T14:45:31Z</time>
      </trkpt>
      <trkpt lat="46.03019" lon="4.58222">
        <ele>682</ele>
        <time>2017-01-12T14:45:32Z</time>
      </trkpt>
      <trkpt lat="46.03011" lon="4.5822">
        <ele>682</ele>
        <time>2017-01-12T14:45:39Z</time>
      </trkpt>
      <trkpt lat="46.0301" lon="4.5822">
        <ele>683</ele>
        <time>2017-01-12T14:45:40Z</time>
      </trkpt>
      <trkpt lat="46.03001" lon="4.58219">
        <ele>683</ele>
        <time>2017-01-12T14:45:51Z</time>
      </trkpt>
      <trkpt lat="46.02999" lon="4.58219">
        <ele>689</ele>
        <time>2017-01-12T14:45:52Z</time>
      </trkpt>
      <trkpt lat="46.02991" lon="4.58218">
        <ele>688</ele>
        <time>2017-01-12T14:45:58Z</time>
      </trkpt>
      <trkpt lat="46.02989" lon="4.58217">
        <ele>688</ele>
        <time>2017-01-12T14:45:59Z</time>
      </trkpt>
      <trkpt lat="46.02981" lon="4.58218">
        <ele>688</ele>
        <time>2017-01-12T14:46:05Z</time>
      </trkpt>
      <trkpt lat="46.0298" lon="4.58218">
        <ele>688</ele>
        <time>2017-01-12T14:46:06Z</time>
      </trkpt>
      <trkpt lat="46.02972" lon="4.58218">
        <ele>688</ele>
        <time>2017-01-12T14:46:11Z</time>
      </trkpt>
      <trkpt lat="46.0297" lon="4.58219">
        <ele>688</ele>
        <time>2017-01-12T14:46:12Z</time>
      </trkpt>
      <trkpt lat="46.02962" lon="4.58223">
        <ele>688</ele>
        <time>2017-01-12T14:46:18Z</time>
      </trkpt>
      <trkpt lat="46.02961" lon="4.58224">
        <ele>688</ele>
        <time>2017-01-12T14:46:19Z</time>
      </trkpt>
      <trkpt lat="46.02953" lon="4.58229">
        <ele>688</ele>
        <time>2017-01-12T14:46:26Z</time>
      </trkpt>
      <trkpt lat="46.02952" lon="4.58231">
        <ele>688</ele>
        <time>2017-01-12T14:46:27Z</time>
      </trkpt>
      <trkpt lat="46.02945" lon="4.58237">
        <ele>688</ele>
        <time>2017-01-12T14:46:35Z</time>
      </trkpt>
      <trkpt lat="46.02945" lon="4.58238">
        <ele>688</ele>
        <time>2017-01-12T14:46:36Z</time>
      </trkpt>
      <trkpt lat="46.02938" lon="4.58247">
        <ele>689</ele>
        <time>2017-01-12T14:46:46Z</time>
      </trkpt>
      <trkpt lat="46.02938" lon="4.58248">
        <ele>689</ele>
        <time>2017-01-12T14:46:47Z</time>
      </trkpt>
      <trkpt lat="46.02934" lon="4.58259">
        <ele>695</ele>
        <time>2017-01-12T14:46:59Z</time>
      </trkpt>
      <trkpt lat="46.02934" lon="4.5826">
        <ele>695</ele>
        <time>2017-01-12T14:47:00Z</time>
      </trkpt>
      <trkpt lat="46.02932" lon="4.58272">
        <ele>696</ele>
        <time>2017-01-12T14:47:11Z</time>
      </trkpt>
      <trkpt lat="46.02933" lon="4.58274">
        <ele>697</ele>
        <time>2017-01-12T14:47:12Z</time>
      </trkpt>
      <trkpt lat="46.02929" lon="4.58285">
        <ele>698</ele>
        <time>2017-01-12T14:47:21Z</time>
      </trkpt>
      <trkpt lat="46.02929" lon="4.58286">
        <ele>698</ele>
        <time>2017-01-12T14:47:22Z</time>
      </trkpt>
      <trkpt lat="46.02927" lon="4.58298">
        <ele>699</ele>
        <time>2017-01-12T14:47:31Z</time>
      </trkpt>
      <trkpt lat="46.02926" lon="4.58299">
        <ele>699</ele>
        <time>2017-01-12T14:47:32Z</time>
      </trkpt>
      <trkpt lat="46.02925" lon="4.5831">
        <ele>700</ele>
        <time>2017-01-12T14:47:38Z</time>
      </trkpt>
      <trkpt lat="46.02925" lon="4.58312">
        <ele>700</ele>
        <time>2017-01-12T14:47:39Z</time>
      </trkpt>
      <trkpt lat="46.02921" lon="4.58322">
        <ele>700</ele>
        <time>2017-01-12T14:47:46Z</time>
      </trkpt>
      <trkpt lat="46.02921" lon="4.58324">
        <ele>700</ele>
        <time>2017-01-12T14:47:47Z</time>
      </trkpt>
      <trkpt lat="46.02917" lon="4.58335">
        <ele>701</ele>
        <time>2017-01-12T14:47:54Z</time>
      </trkpt>
      <trkpt lat="46.02916" lon="4.58337">
        <ele>699</ele>
        <time>2017-01-12T14:47:55Z</time>
      </trkpt>
      <trkpt lat="46.02914" lon="4.58347">
        <ele>697</ele>
        <time>2017-01-12T14:48:00Z</time>
      </trkpt>
      <trkpt lat="46.02913" lon="4.58349">
        <ele>696</ele>
        <time>2017-01-12T14:48:01Z</time>
      </trkpt>
      <trkpt lat="46.02909" lon="4.58359">
        <ele>695</ele>
        <time>2017-01-12T14:48:07Z</time>
      </trkpt>
      <trkpt lat="46.02908" lon="4.58361">
        <ele>695</ele>
        <time>2017-01-12T14:48:08Z</time>
      </trkpt>
      <trkpt lat="46.02905" lon="4.58373">
        <ele>695</ele>
        <time>2017-01-12T14:48:14Z</time>
      </trkpt>
      <trkpt lat="46.02905" lon="4.58375">
        <ele>696</ele>
        <time>2017-01-12T14:48:15Z</time>
      </trkpt>
      <trkpt lat="46.029" lon="4.58384">
        <ele>696</ele>
        <time>2017-01-12T14:48:22Z</time>
      </trkpt>
      <trkpt lat="46.02899" lon="4.58385">
        <ele>696</ele>
        <time>2017-01-12T14:48:23Z</time>
      </trkpt>
      <trkpt lat="46.02897" lon="4.58396">
        <ele>698</ele>
        <time>2017-01-12T14:48:29Z</time>
      </trkpt>
      <trkpt lat="46.02897" lon="4.58399">
        <ele>698</ele>
        <time>2017-01-12T14:48:30Z</time>
      </trkpt>
      <trkpt lat="46.02892" lon="4.58409">
        <ele>698</ele>
        <time>2017-01-12T14:48:38Z</time>
      </trkpt>
      <trkpt lat="46.02891" lon="4.5841">
        <ele>698</ele>
        <time>2017-01-12T14:48:39Z</time>
      </trkpt>
      <trkpt lat="46.02887" lon="4.58421">
        <ele>706</ele>
        <time>2017-01-12T14:48:47Z</time>
      </trkpt>
      <trkpt lat="46.02886" lon="4.58423">
        <ele>706</ele>
        <time>2017-01-12T14:48:48Z</time>
      </trkpt>
      <trkpt lat="46.0288" lon="4.5843">
        <ele>705</ele>
        <time>2017-01-12T14:48:56Z</time>
      </trkpt>
      <trkpt lat="46.02879" lon="4.58431">
        <ele>705</ele>
        <time>2017-01-12T14:48:57Z</time>
      </trkpt>
      <trkpt lat="46.02875" lon="4.58442">
        <ele>705</ele>
        <time>2017-01-12T14:49:04Z</time>
      </trkpt>
      <trkpt lat="46.02875" lon="4.58444">
        <ele>705</ele>
        <time>2017-01-12T14:49:05Z</time>
      </trkpt>
      <trkpt lat="46.02871" lon="4.58455">
        <ele>705</ele>
        <time>2017-01-12T14:49:12Z</time>
      </trkpt>
      <trkpt lat="46.02871" lon="4.58457">
        <ele>705</ele>
        <time>2017-01-12T14:49:13Z</time>
      </trkpt>
      <trkpt lat="46.02867" lon="4.58468">
        <ele>706</ele>
        <time>2017-01-12T14:49:21Z</time>
      </trkpt>
      <trkpt lat="46.02866" lon="4.5847">
        <ele>706</ele>
        <time>2017-01-12T14:49:22Z</time>
      </trkpt>
      <trkpt lat="46.02862" lon="4.58481">
        <ele>706</ele>
        <time>2017-01-12T14:49:29Z</time>
      </trkpt>
      <trkpt lat="46.02861" lon="4.58482">
        <ele>706</ele>
        <time>2017-01-12T14:49:30Z</time>
      </trkpt>
      <trkpt lat="46.02855" lon="4.5849">
        <ele>706</ele>
        <time>2017-01-12T14:49:37Z</time>
      </trkpt>
      <trkpt lat="46.02855" lon="4.58491">
        <ele>706</ele>
        <time>2017-01-12T14:49:38Z</time>
      </trkpt>
      <trkpt lat="46.02851" lon="4.58503">
        <ele>711</ele>
        <time>2017-01-12T14:49:46Z</time>
      </trkpt>
      <trkpt lat="46.02851" lon="4.58504">
        <ele>711</ele>
        <time>2017-01-12T14:49:47Z</time>
      </trkpt>
      <trkpt lat="46.02845" lon="4.58513">
        <ele>711</ele>
        <time>2017-01-12T14:49:55Z</time>
      </trkpt>
      <trkpt lat="46.02845" lon="4.58516">
        <ele>711</ele>
        <time>2017-01-12T14:49:56Z</time>
      </trkpt>
      <trkpt lat="46.02841" lon="4.58525">
        <ele>712</ele>
        <time>2017-01-12T14:50:02Z</time>
      </trkpt>
      <trkpt lat="46.0284" lon="4.58527">
        <ele>712</ele>
        <time>2017-01-12T14:50:03Z</time>
      </trkpt>
      <trkpt lat="46.02834" lon="4.58535">
        <ele>713</ele>
        <time>2017-01-12T14:50:11Z</time>
      </trkpt>
      <trkpt lat="46.02833" lon="4.58537">
        <ele>705</ele>
        <time>2017-01-12T14:50:12Z</time>
      </trkpt>
      <trkpt lat="46.02829" lon="4.58547">
        <ele>706</ele>
        <time>2017-01-12T14:50:22Z</time>
      </trkpt>
      <trkpt lat="46.02828" lon="4.58549">
        <ele>706</ele>
        <time>2017-01-12T14:50:23Z</time>
      </trkpt>
      <trkpt lat="46.02823" lon="4.58558">
        <ele>707</ele>
        <time>2017-01-12T14:50:31Z</time>
      </trkpt>
      <trkpt lat="46.02823" lon="4.58559">
        <ele>707</ele>
        <time>2017-01-12T14:50:32Z</time>
      </trkpt>
      <trkpt lat="46.02818" lon="4.58568">
        <ele>708</ele>
        <time>2017-01-12T14:50:39Z</time>
      </trkpt>
      <trkpt lat="46.02817" lon="4.58569">
        <ele>708</ele>
        <time>2017-01-12T14:50:40Z</time>
      </trkpt>
      <trkpt lat="46.02814" lon="4.58579">
        <ele>708</ele>
        <time>2017-01-12T14:50:46Z</time>
      </trkpt>
      <trkpt lat="46.02813" lon="4.58581">
        <ele>708</ele>
        <time>2017-01-12T14:50:47Z</time>
      </trkpt>
      <trkpt lat="46.02806" lon="4.58587">
        <ele>713</ele>
        <time>2017-01-12T14:50:54Z</time>
      </trkpt>
      <trkpt lat="46.02805" lon="4.58588">
        <ele>713</ele>
        <time>2017-01-12T14:50:55Z</time>
      </trkpt>
      <trkpt lat="46.02801" lon="4.58599">
        <ele>713</ele>
        <time>2017-01-12T14:51:01Z</time>
      </trkpt>
      <trkpt lat="46.02801" lon="4.58602">
        <ele>713</ele>
        <time>2017-01-12T14:51:02Z</time>
      </trkpt>
      <trkpt lat="46.02795" lon="4.58611">
        <ele>713</ele>
        <time>2017-01-12T14:51:08Z</time>
      </trkpt>
      <trkpt lat="46.02795" lon="4.58612">
        <ele>713</ele>
        <time>2017-01-12T14:51:09Z</time>
      </trkpt>
      <trkpt lat="46.0279" lon="4.58621">
        <ele>713</ele>
        <time>2017-01-12T14:51:15Z</time>
      </trkpt>
      <trkpt lat="46.02789" lon="4.58622">
        <ele>713</ele>
        <time>2017-01-12T14:51:16Z</time>
      </trkpt>
      <trkpt lat="46.02781" lon="4.58628">
        <ele>713</ele>
        <time>2017-01-12T14:51:27Z</time>
      </trkpt>
      <trkpt lat="46.0278" lon="4.58628">
        <ele>713</ele>
        <time>2017-01-12T14:51:28Z</time>
      </trkpt>
      <trkpt lat="46.02772" lon="4.58631">
        <ele>713</ele>
        <time>2017-01-12T14:51:39Z</time>
      </trkpt>
      <trkpt lat="46.02771" lon="4.58632">
        <ele>713</ele>
        <time>2017-01-12T14:51:40Z</time>
      </trkpt>
      <trkpt lat="46.02763" lon="4.58634">
        <ele>713</ele>
        <time>2017-01-12T14:51:51Z</time>
      </trkpt>
      <trkpt lat="46.02762" lon="4.58635">
        <ele>713</ele>
        <time>2017-01-12T14:51:52Z</time>
      </trkpt>
      <trkpt lat="46.02754" lon="4.58634">
        <ele>713</ele>
        <time>2017-01-12T14:52:00Z</time>
      </trkpt>
      <trkpt lat="46.02753" lon="4.58634">
        <ele>713</ele>
        <time>2017-01-12T14:52:01Z</time>
      </trkpt>
      <trkpt lat="46.02744" lon="4.58633">
        <ele>712</ele>
        <time>2017-01-12T14:52:09Z</time>
      </trkpt>
      <trkpt lat="46.02743" lon="4.58633">
        <ele>712</ele>
        <time>2017-01-12T14:52:10Z</time>
      </trkpt>
      <trkpt lat="46.02735" lon="4.58629">
        <ele>711</ele>
        <time>2017-01-12T14:52:20Z</time>
      </trkpt>
      <trkpt lat="46.02734" lon="4.58629">
        <ele>711</ele>
        <time>2017-01-12T14:52:21Z</time>
      </trkpt>
      <trkpt lat="46.02726" lon="4.58626">
        <ele>711</ele>
        <time>2017-01-12T14:52:35Z</time>
      </trkpt>
      <trkpt lat="46.02725" lon="4.58626">
        <ele>711</ele>
        <time>2017-01-12T14:52:36Z</time>
      </trkpt>
      <trkpt lat="46.02717" lon="4.58621">
        <ele>711</ele>
        <time>2017-01-12T14:52:43Z</time>
      </trkpt>
      <trkpt lat="46.02716" lon="4.5862">
        <ele>710</ele>
        <time>2017-01-12T14:52:44Z</time>
      </trkpt>
      <trkpt lat="46.02708" lon="4.58617">
        <ele>710</ele>
        <time>2017-01-12T14:52:50Z</time>
      </trkpt>
      <trkpt lat="46.02707" lon="4.58617">
        <ele>710</ele>
        <time>2017-01-12T14:52:51Z</time>
      </trkpt>
      <trkpt lat="46.02699" lon="4.58614">
        <ele>710</ele>
        <time>2017-01-12T14:53:03Z</time>
      </trkpt>
      <trkpt lat="46.02698" lon="4.58614">
        <ele>710</ele>
        <time>2017-01-12T14:53:04Z</time>
      </trkpt>
      <trkpt lat="46.0269" lon="4.5861">
        <ele>710</ele>
        <time>2017-01-12T14:53:13Z</time>
      </trkpt>
      <trkpt lat="46.02689" lon="4.5861">
        <ele>709</ele>
        <time>2017-01-12T14:53:14Z</time>
      </trkpt>
      <trkpt lat="46.02681" lon="4.58608">
        <ele>709</ele>
        <time>2017-01-12T14:53:20Z</time>
      </trkpt>
      <trkpt lat="46.02679" lon="4.58607">
        <ele>709</ele>
        <time>2017-01-12T14:53:21Z</time>
      </trkpt>
      <trkpt lat="46.02671" lon="4.58606">
        <ele>708</ele>
        <time>2017-01-12T14:53:27Z</time>
      </trkpt>
      <trkpt lat="46.0267" lon="4.58605">
        <ele>708</ele>
        <time>2017-01-12T14:53:28Z</time>
      </trkpt>
      <trkpt lat="46.02662" lon="4.58606">
        <ele>706</ele>
        <time>2017-01-12T14:53:36Z</time>
      </trkpt>
      <trkpt lat="46.0266" lon="4.58606">
        <ele>706</ele>
        <time>2017-01-12T14:53:37Z</time>
      </trkpt>
      <trkpt lat="46.02652" lon="4.58606">
        <ele>706</ele>
        <time>2017-01-12T14:53:41Z</time>
      </trkpt>
      <trkpt lat="46.0265" lon="4.58606">
        <ele>706</ele>
        <time>2017-01-12T14:53:42Z</time>
      </trkpt>
      <trkpt lat="46.02642" lon="4.58604">
        <ele>706</ele>
        <time>2017-01-12T14:53:48Z</time>
      </trkpt>
      <trkpt lat="46.02641" lon="4.58604">
        <ele>706</ele>
        <time>2017-01-12T14:53:49Z</time>
      </trkpt>
      <trkpt lat="46.02633" lon="4.58604">
        <ele>706</ele>
        <time>2017-01-12T14:53:54Z</time>
      </trkpt>
      <trkpt lat="46.02632" lon="4.58604">
        <ele>706</ele>
        <time>2017-01-12T14:53:55Z</time>
      </trkpt>
      <trkpt lat="46.02624" lon="4.58606">
        <ele>705</ele>
        <time>2017-01-12T14:54:01Z</time>
      </trkpt>
      <trkpt lat="46.02622" lon="4.58607">
        <ele>705</ele>
        <time>2017-01-12T14:54:02Z</time>
      </trkpt>
      <trkpt lat="46.02614" lon="4.58606">
        <ele>704</ele>
        <time>2017-01-12T14:54:09Z</time>
      </trkpt>
      <trkpt lat="46.02612" lon="4.58606">
        <ele>704</ele>
        <time>2017-01-12T14:54:10Z</time>
      </trkpt>
      <trkpt lat="46.02604" lon="4.58607">
        <ele>704</ele>
        <time>2017-01-12T14:54:17Z</time>
      </trkpt>
      <trkpt lat="46.02603" lon="4.58607">
        <ele>704</ele>
        <time>2017-01-12T14:54:18Z</time>
      </trkpt>
      <trkpt lat="46.02595" lon="4.58611">
        <ele>704</ele>
        <time>2017-01-12T14:54:26Z</time>
      </trkpt>
      <trkpt lat="46.02594" lon="4.58611">
        <ele>704</ele>
        <time>2017-01-12T14:54:27Z</time>
      </trkpt>
      <trkpt lat="46.02586" lon="4.58613">
        <ele>703</ele>
        <time>2017-01-12T14:54:33Z</time>
      </trkpt>
      <trkpt lat="46.02584" lon="4.58613">
        <ele>703</ele>
        <time>2017-01-12T14:54:34Z</time>
      </trkpt>
      <trkpt lat="46.02575" lon="4.58616">
        <ele>695</ele>
        <time>2017-01-12T14:54:41Z</time>
      </trkpt>
      <trkpt lat="46.02574" lon="4.58616">
        <ele>695</ele>
        <time>2017-01-12T14:54:42Z</time>
      </trkpt>
      <trkpt lat="46.02566" lon="4.58618">
        <ele>694</ele>
        <time>2017-01-12T14:54:48Z</time>
      </trkpt>
      <trkpt lat="46.02564" lon="4.58619">
        <ele>694</ele>
        <time>2017-01-12T14:54:49Z</time>
      </trkpt>
      <trkpt lat="46.02557" lon="4.58624">
        <ele>694</ele>
        <time>2017-01-12T14:54:55Z</time>
      </trkpt>
      <trkpt lat="46.02555" lon="4.58625">
        <ele>694</ele>
        <time>2017-01-12T14:54:56Z</time>
      </trkpt>
      <trkpt lat="46.02548" lon="4.5863">
        <ele>694</ele>
        <time>2017-01-12T14:55:02Z</time>
      </trkpt>
      <trkpt lat="46.02546" lon="4.5863">
        <ele>694</ele>
        <time>2017-01-12T14:55:03Z</time>
      </trkpt>
      <trkpt lat="46.02538" lon="4.58632">
        <ele>693</ele>
        <time>2017-01-12T14:55:10Z</time>
      </trkpt>
      <trkpt lat="46.02537" lon="4.58632">
        <ele>693</ele>
        <time>2017-01-12T14:55:11Z</time>
      </trkpt>
      <trkpt lat="46.02529" lon="4.58634">
        <ele>692</ele>
        <time>2017-01-12T14:55:16Z</time>
      </trkpt>
      <trkpt lat="46.02528" lon="4.58636">
        <ele>692</ele>
        <time>2017-01-12T14:55:17Z</time>
      </trkpt>
      <trkpt lat="46.02521" lon="4.58641">
        <ele>692</ele>
        <time>2017-01-12T14:55:23Z</time>
      </trkpt>
      <trkpt lat="46.02519" lon="4.58642">
        <ele>692</ele>
        <time>2017-01-12T14:55:24Z</time>
      </trkpt>
      <trkpt lat="46.02512" lon="4.58645">
        <ele>692</ele>
        <time>2017-01-12T14:55:29Z</time>
      </trkpt>
      <trkpt lat="46.02511" lon="4.58646">
        <ele>692</ele>
        <time>2017-01-12T14:55:30Z</time>
      </trkpt>
      <trkpt lat="46.02503" lon="4.58649">
        <ele>692</ele>
        <time>2017-01-12T14:55:35Z</time>
      </trkpt>
      <trkpt lat="46.02502" lon="4.5865">
        <ele>692</ele>
        <time>2017-01-12T14:55:36Z</time>
      </trkpt>
      <trkpt lat="46.02494" lon="4.58655">
        <ele>684</ele>
        <time>2017-01-12T14:55:42Z</time>
      </trkpt>
      <trkpt lat="46.02494" lon="4.58656">
        <ele>685</ele>
        <time>2017-01-12T14:55:43Z</time>
      </trkpt>
      <trkpt lat="46.02486" lon="4.58662">
        <ele>683</ele>
        <time>2017-01-12T14:55:52Z</time>
      </trkpt>
      <trkpt lat="46.02485" lon="4.58663">
        <ele>683</ele>
        <time>2017-01-12T14:55:53Z</time>
      </trkpt>
      <trkpt lat="46.02478" lon="4.58669">
        <ele>690</ele>
        <time>2017-01-12T14:56:02Z</time>
      </trkpt>
      <trkpt lat="46.02477" lon="4.5867">
        <ele>690</ele>
        <time>2017-01-12T14:56:03Z</time>
      </trkpt>
      <trkpt lat="46.0247" lon="4.58677">
        <ele>689</ele>
        <time>2017-01-12T14:56:08Z</time>
      </trkpt>
      <trkpt lat="46.02469" lon="4.58678">
        <ele>688</ele>
        <time>2017-01-12T14:56:09Z</time>
      </trkpt>
      <trkpt lat="46.02463" lon="4.58686">
        <ele>688</ele>
        <time>2017-01-12T14:56:16Z</time>
      </trkpt>
      <trkpt lat="46.02462" lon="4.58687">
        <ele>688</ele>
        <time>2017-01-12T14:56:17Z</time>
      </trkpt>
      <trkpt lat="46.02455" lon="4.58694">
        <ele>687</ele>
        <time>2017-01-12T14:56:24Z</time>
      </trkpt>
      <trkpt lat="46.02454" lon="4.58695">
        <ele>687</ele>
        <time>2017-01-12T14:56:25Z</time>
      </trkpt>
      <trkpt lat="46.02447" lon="4.58702">
        <ele>687</ele>
        <time>2017-01-12T14:56:31Z</time>
      </trkpt>
      <trkpt lat="46.02447" lon="4.58704">
        <ele>687</ele>
        <time>2017-01-12T14:56:32Z</time>
      </trkpt>
      <trkpt lat="46.02442" lon="4.58713">
        <ele>687</ele>
        <time>2017-01-12T14:56:38Z</time>
      </trkpt>
      <trkpt lat="46.02441" lon="4.58714">
        <ele>687</ele>
        <time>2017-01-12T14:56:39Z</time>
      </trkpt>
      <trkpt lat="46.02433" lon="4.58719">
        <ele>687</ele>
        <time>2017-01-12T14:56:47Z</time>
      </trkpt>
      <trkpt lat="46.02432" lon="4.5872">
        <ele>686</ele>
        <time>2017-01-12T14:56:48Z</time>
      </trkpt>
      <trkpt lat="46.02424" lon="4.58725">
        <ele>686</ele>
        <time>2017-01-12T14:56:56Z</time>
      </trkpt>
      <trkpt lat="46.02423" lon="4.58726">
        <ele>686</ele>
        <time>2017-01-12T14:56:57Z</time>
      </trkpt>
      <trkpt lat="46.02415" lon="4.58732">
        <ele>673</ele>
        <time>2017-01-12T14:57:04Z</time>
      </trkpt>
      <trkpt lat="46.02414" lon="4.58733">
        <ele>674</ele>
        <time>2017-01-12T14:57:05Z</time>
      </trkpt>
      <trkpt lat="46.02407" lon="4.58739">
        <ele>674</ele>
        <time>2017-01-12T14:57:11Z</time>
      </trkpt>
      <trkpt lat="46.02405" lon="4.58741">
        <ele>674</ele>
        <time>2017-01-12T14:57:12Z</time>
      </trkpt>
      <trkpt lat="46.02399" lon="4.58746">
        <ele>673</ele>
        <time>2017-01-12T14:57:16Z</time>
      </trkpt>
      <trkpt lat="46.02398" lon="4.58747">
        <ele>672</ele>
        <time>2017-01-12T14:57:17Z</time>
      </trkpt>
      <trkpt lat="46.02392" lon="4.58755">
        <ele>677</ele>
        <time>2017-01-12T14:57:23Z</time>
      </trkpt>
      <trkpt lat="46.02391" lon="4.58756">
        <ele>677</ele>
        <time>2017-01-12T14:57:24Z</time>
      </trkpt>
      <trkpt lat="46.02384" lon="4.58764">
        <ele>675</ele>
        <time>2017-01-12T14:57:32Z</time>
      </trkpt>
      <trkpt lat="46.02383" lon="4.58765">
        <ele>675</ele>
        <time>2017-01-12T14:57:33Z</time>
      </trkpt>
      <trkpt lat="46.02377" lon="4.58774">
        <ele>674</ele>
        <time>2017-01-12T14:57:40Z</time>
      </trkpt>
      <trkpt lat="46.02376" lon="4.58775">
        <ele>674</ele>
        <time>2017-01-12T14:57:41Z</time>
      </trkpt>
      <trkpt lat="46.02371" lon="4.58783">
        <ele>674</ele>
        <time>2017-01-12T14:57:48Z</time>
      </trkpt>
      <trkpt lat="46.0237" lon="4.58784">
        <ele>674</ele>
        <time>2017-01-12T14:57:49Z</time>
      </trkpt>
      <trkpt lat="46.02363" lon="4.58792">
        <ele>673</ele>
        <time>2017-01-12T14:57:55Z</time>
      </trkpt>
      <trkpt lat="46.02362" lon="4.58794">
        <ele>673</ele>
        <time>2017-01-12T14:57:56Z</time>
      </trkpt>
      <trkpt lat="46.02359" lon="4.58805">
        <ele>673</ele>
        <time>2017-01-12T14:58:03Z</time>
      </trkpt>
      <trkpt lat="46.02358" lon="4.58805">
        <ele>673</ele>
        <time>2017-01-12T14:58:04Z</time>
      </trkpt>
      <trkpt lat="46.0235" lon="4.58812">
        <ele>672</ele>
        <time>2017-01-12T14:58:12Z</time>
      </trkpt>
      <trkpt lat="46.02349" lon="4.58813">
        <ele>672</ele>
        <time>2017-01-12T14:58:13Z</time>
      </trkpt>
      <trkpt lat="46.02345" lon="4.58823">
        <ele>671</ele>
        <time>2017-01-12T14:58:19Z</time>
      </trkpt>
      <trkpt lat="46.02344" lon="4.58824">
        <ele>670</ele>
        <time>2017-01-12T14:58:20Z</time>
      </trkpt>
      <trkpt lat="46.02337" lon="4.58832">
        <ele>668</ele>
        <time>2017-01-12T14:58:26Z</time>
      </trkpt>
      <trkpt lat="46.02336" lon="4.58833">
        <ele>668</ele>
        <time>2017-01-12T14:58:27Z</time>
      </trkpt>
      <trkpt lat="46.0233" lon="4.58841">
        <ele>664</ele>
        <time>2017-01-12T14:58:34Z</time>
      </trkpt>
      <trkpt lat="46.02329" lon="4.58842">
        <ele>664</ele>
        <time>2017-01-12T14:58:35Z</time>
      </trkpt>
      <trkpt lat="46.02324" lon="4.58852">
        <ele>662</ele>
        <time>2017-01-12T14:58:42Z</time>
      </trkpt>
      <trkpt lat="46.02323" lon="4.58853">
        <ele>662</ele>
        <time>2017-01-12T14:58:43Z</time>
      </trkpt>
      <trkpt lat="46.02317" lon="4.5886">
        <ele>661</ele>
        <time>2017-01-12T14:58:49Z</time>
      </trkpt>
      <trkpt lat="46.02316" lon="4.58862">
        <ele>660</ele>
        <time>2017-01-12T14:58:50Z</time>
      </trkpt>
      <trkpt lat="46.02311" lon="4.58872">
        <ele>660</ele>
        <time>2017-01-12T14:58:56Z</time>
      </trkpt>
      <trkpt lat="46.02311" lon="4.58874">
        <ele>660</ele>
        <time>2017-01-12T14:58:57Z</time>
      </trkpt>
      <trkpt lat="46.02305" lon="4.58883">
        <ele>660</ele>
        <time>2017-01-12T14:59:05Z</time>
      </trkpt>
      <trkpt lat="46.02305" lon="4.58885">
        <ele>660</ele>
        <time>2017-01-12T14:59:06Z</time>
      </trkpt>
      <trkpt lat="46.02301" lon="4.58894">
        <ele>660</ele>
        <time>2017-01-12T14:59:11Z</time>
      </trkpt>
      <trkpt lat="46.023" lon="4.58896">
        <ele>660</ele>
        <time>2017-01-12T14:59:12Z</time>
      </trkpt>
      <trkpt lat="46.02295" lon="4.58906">
        <ele>659</ele>
        <time>2017-01-12T14:59:17Z</time>
      </trkpt>
      <trkpt lat="46.02294" lon="4.58907">
        <ele>659</ele>
        <time>2017-01-12T14:59:18Z</time>
      </trkpt>
      <trkpt lat="46.0229" lon="4.58916">
        <ele>658</ele>
        <time>2017-01-12T14:59:23Z</time>
      </trkpt>
      <trkpt lat="46.02289" lon="4.58918">
        <ele>660</ele>
        <time>2017-01-12T14:59:24Z</time>
      </trkpt>
      <trkpt lat="46.02283" lon="4.58928">
        <ele>659</ele>
        <time>2017-01-12T14:59:30Z</time>
      </trkpt>
      <trkpt lat="46.02282" lon="4.5893">
        <ele>659</ele>
        <time>2017-01-12T14:59:31Z</time>
      </trkpt>
      <trkpt lat="46.02279" lon="4.58941">
        <ele>659</ele>
        <time>2017-01-12T14:59:37Z</time>
      </trkpt>
      <trkpt lat="46.02278" lon="4.58943">
        <ele>659</ele>
        <time>2017-01-12T14:59:38Z</time>
      </trkpt>
      <trkpt lat="46.02274" lon="4.58953">
        <ele>658</ele>
        <time>2017-01-12T14:59:44Z</time>
      </trkpt>
      <trkpt lat="46.02273" lon="4.58955">
        <ele>658</ele>
        <time>2017-01-12T14:59:45Z</time>
      </trkpt>
      <trkpt lat="46.02271" lon="4.58966">
        <ele>658</ele>
        <time>2017-01-12T14:59:51Z</time>
      </trkpt>
      <trkpt lat="46.02271" lon="4.58968">
        <ele>658</ele>
        <time>2017-01-12T14:59:52Z</time>
      </trkpt>
      <trkpt lat="46.0227" lon="4.58981">
        <ele>658</ele>
        <time>2017-01-12T14:59:58Z</time>
      </trkpt>
      <trkpt lat="46.0227" lon="4.58982">
        <ele>658</ele>
        <time>2017-01-12T14:59:59Z</time>
      </trkpt>
      <trkpt lat="46.02265" lon="4.58993">
        <ele>657</ele>
        <time>2017-01-12T15:00:06Z</time>
      </trkpt>
      <trkpt lat="46.02264" lon="4.58994">
        <ele>657</ele>
        <time>2017-01-12T15:00:07Z</time>
      </trkpt>
      <trkpt lat="46.02257" lon="4.59">
        <ele>654</ele>
        <time>2017-01-12T15:00:15Z</time>
      </trkpt>
      <trkpt lat="46.02256" lon="4.59001">
        <ele>654</ele>
        <time>2017-01-12T15:00:16Z</time>
      </trkpt>
      <trkpt lat="46.02247" lon="4.59005">
        <ele>652</ele>
        <time>2017-01-12T15:00:23Z</time>
      </trkpt>
      <trkpt lat="46.02246" lon="4.59005">
        <ele>652</ele>
        <time>2017-01-12T15:00:24Z</time>
      </trkpt>
      <trkpt lat="46.02239" lon="4.59012">
        <ele>650</ele>
        <time>2017-01-12T15:00:30Z</time>
      </trkpt>
      <trkpt lat="46.02238" lon="4.59014">
        <ele>650</ele>
        <time>2017-01-12T15:00:31Z</time>
      </trkpt>
      <trkpt lat="46.02232" lon="4.59022">
        <ele>649</ele>
        <time>2017-01-12T15:00:36Z</time>
      </trkpt>
      <trkpt lat="46.02231" lon="4.59023">
        <ele>648</ele>
        <time>2017-01-12T15:00:37Z</time>
      </trkpt>
      <trkpt lat="46.02224" lon="4.5903">
        <ele>648</ele>
        <time>2017-01-12T15:00:43Z</time>
      </trkpt>
      <trkpt lat="46.02223" lon="4.59031">
        <ele>648</ele>
        <time>2017-01-12T15:00:44Z</time>
      </trkpt>
      <trkpt lat="46.02218" lon="4.59039">
        <ele>647</ele>
        <time>2017-01-12T15:00:51Z</time>
      </trkpt>
      <trkpt lat="46.02217" lon="4.5904">
        <ele>647</ele>
        <time>2017-01-12T15:00:52Z</time>
      </trkpt>
      <trkpt lat="46.02211" lon="4.59048">
        <ele>647</ele>
        <time>2017-01-12T15:00:59Z</time>
      </trkpt>
      <trkpt lat="46.0221" lon="4.59049">
        <ele>647</ele>
        <time>2017-01-12T15:01:00Z</time>
      </trkpt>
      <trkpt lat="46.02205" lon="4.59058">
        <ele>647</ele>
        <time>2017-01-12T15:01:06Z</time>
      </trkpt>
      <trkpt lat="46.02204" lon="4.59059">
        <ele>647</ele>
        <time>2017-01-12T15:01:07Z</time>
      </trkpt>
      <trkpt lat="46.02197" lon="4.59067">
        <ele>646</ele>
        <time>2017-01-12T15:01:46Z</time>
      </trkpt>
      <trkpt lat="46.02197" lon="4.59067">
        <ele>646</ele>
        <time>2017-01-12T15:01:47Z</time>
      </trkpt>
      <trkpt lat="46.02191" lon="4.59076">
        <ele>646</ele>
        <time>2017-01-12T15:02:24Z</time>
      </trkpt>
      <trkpt lat="46.0219" lon="4.59077">
        <ele>646</ele>
        <time>2017-01-12T15:02:25Z</time>
      </trkpt>
      <trkpt lat="46.02182" lon="4.5908">
        <ele>646</ele>
        <time>2017-01-12T15:02:54Z</time>
      </trkpt>
      <trkpt lat="46.02182" lon="4.59081">
        <ele>646</ele>
        <time>2017-01-12T15:02:55Z</time>
      </trkpt>
      <trkpt lat="46.02175" lon="4.59088">
        <ele>646</ele>
        <time>2017-01-12T15:03:02Z</time>
      </trkpt>
      <trkpt lat="46.02174" lon="4.59088">
        <ele>646</ele>
        <time>2017-01-12T15:03:03Z</time>
      </trkpt>
      <trkpt lat="46.02166" lon="4.59093">
        <ele>647</ele>
        <time>2017-01-12T15:03:10Z</time>
      </trkpt>
      <trkpt lat="46.02165" lon="4.59094">
        <ele>647</ele>
        <time>2017-01-12T15:03:11Z</time>
      </trkpt>
      <trkpt lat="46.02157" lon="4.59098">
        <ele>647</ele>
        <time>2017-01-12T15:03:19Z</time>
      </trkpt>
      <trkpt lat="46.02156" lon="4.59099">
        <ele>647</ele>
        <time>2017-01-12T15:03:20Z</time>
      </trkpt>
      <trkpt lat="46.02147" lon="4.59101">
        <ele>647</ele>
        <time>2017-01-12T15:03:28Z</time>
      </trkpt>
      <trkpt lat="46.02147" lon="4.59102">
        <ele>647</ele>
        <time>2017-01-12T15:03:29Z</time>
      </trkpt>
      <trkpt lat="46.0214" lon="4.5911">
        <ele>647</ele>
        <time>2017-01-12T15:03:37Z</time>
      </trkpt>
      <trkpt lat="46.02139" lon="4.5911">
        <ele>647</ele>
        <time>2017-01-12T15:03:38Z</time>
      </trkpt>
      <trkpt lat="46.02132" lon="4.59116">
        <ele>648</ele>
        <time>2017-01-12T15:03:46Z</time>
      </trkpt>
      <trkpt lat="46.02131" lon="4.59117">
        <ele>648</ele>
        <time>2017-01-12T15:03:47Z</time>
      </trkpt>
      <trkpt lat="46.02123" lon="4.5912">
        <ele>648</ele>
        <time>2017-01-12T15:03:57Z</time>
      </trkpt>
      <trkpt lat="46.02122" lon="4.5912">
        <ele>648</ele>
        <time>2017-01-12T15:03:58Z</time>
      </trkpt>
      <trkpt lat="46.02115" lon="4.59124">
        <ele>648</ele>
        <time>2017-01-12T15:04:07Z</time>
      </trkpt>
      <trkpt lat="46.02114" lon="4.59125">
        <ele>648</ele>
        <time>2017-01-12T15:04:08Z</time>
      </trkpt>
      <trkpt lat="46.02106" lon="4.5913">
        <ele>649</ele>
        <time>2017-01-12T15:04:17Z</time>
      </trkpt>
      <trkpt lat="46.02105" lon="4.5913">
        <ele>649</ele>
        <time>2017-01-12T15:04:18Z</time>
      </trkpt>
      <trkpt lat="46.02097" lon="4.59135">
        <ele>650</ele>
        <time>2017-01-12T15:04:27Z</time>
      </trkpt>
      <trkpt lat="46.02096" lon="4.59136">
        <ele>650</ele>
        <time>2017-01-12T15:04:28Z</time>
      </trkpt>
      <trkpt lat="46.02088" lon="4.59141">
        <ele>651</ele>
        <time>2017-01-12T15:04:36Z</time>
      </trkpt>
      <trkpt lat="46.02087" lon="4.59141">
        <ele>652</ele>
        <time>2017-01-12T15:04:37Z</time>
      </trkpt>
      <trkpt lat="46.0208" lon="4.59147">
        <ele>649</ele>
        <time>2017-01-12T15:04:44Z</time>
      </trkpt>
      <trkpt lat="46.02079" lon="4.59148">
        <ele>649</ele>
        <time>2017-01-12T15:04:45Z</time>
      </trkpt>
      <trkpt lat="46.02072" lon="4.59154">
        <ele>650</ele>
        <time>2017-01-12T15:04:52Z</time>
      </trkpt>
      <trkpt lat="46.02071" lon="4.59155">
        <ele>650</ele>
        <time>2017-01-12T15:04:53Z</time>
      </trkpt>
      <trkpt lat="46.02065" lon="4.59163">
        <ele>649</ele>
        <time>2017-01-12T15:05:00Z</time>
      </trkpt>
      <trkpt lat="46.02064" lon="4.59164">
        <ele>649</ele>
        <time>2017-01-12T15:05:01Z</time>
      </trkpt>
      <trkpt lat="46.02057" lon="4.59172">
        <ele>656</ele>
        <time>2017-01-12T15:05:09Z</time>
      </trkpt>
      <trkpt lat="46.02056" lon="4.59173">
        <ele>656</ele>
        <time>2017-01-12T15:05:10Z</time>
      </trkpt>
      <trkpt lat="46.0205" lon="4.59179">
        <ele>655</ele>
        <time>2017-01-12T15:05:17Z</time>
      </trkpt>
      <trkpt lat="46.02049" lon="4.5918">
        <ele>655</ele>
        <time>2017-01-12T15:05:18Z</time>
      </trkpt>
      <trkpt lat="46.02041" lon="4.59187">
        <ele>654</ele>
        <time>2017-01-12T15:05:26Z</time>
      </trkpt>
      <trkpt lat="46.0204" lon="4.59187">
        <ele>654</ele>
        <time>2017-01-12T15:05:27Z</time>
      </trkpt>
      <trkpt lat="46.02033" lon="4.59193">
        <ele>653</ele>
        <time>2017-01-12T15:05:34Z</time>
      </trkpt>
      <trkpt lat="46.02032" lon="4.59194">
        <ele>653</ele>
        <time>2017-01-12T15:05:35Z</time>
      </trkpt>
      <trkpt lat="46.02025" lon="4.59202">
        <ele>653</ele>
        <time>2017-01-12T15:05:42Z</time>
      </trkpt>
      <trkpt lat="46.02024" lon="4.59203">
        <ele>653</ele>
        <time>2017-01-12T15:05:43Z</time>
      </trkpt>
      <trkpt lat="46.02017" lon="4.59209">
        <ele>653</ele>
        <time>2017-01-12T15:05:50Z</time>
      </trkpt>
      <trkpt lat="46.02017" lon="4.5921">
        <ele>653</ele>
        <time>2017-01-12T15:05:51Z</time>
      </trkpt>
      <trkpt lat="46.02012" lon="4.5922">
        <ele>654</ele>
        <time>2017-01-12T15:05:58Z</time>
      </trkpt>
      <trkpt lat="46.02011" lon="4.59222">
        <ele>654</ele>
        <time>2017-01-12T15:05:59Z</time>
      </trkpt>
      <trkpt lat="46.02006" lon="4.59232">
        <ele>654</ele>
        <time>2017-01-12T15:06:06Z</time>
      </trkpt>
      <trkpt lat="46.02006" lon="4.59234">
        <ele>654</ele>
        <time>2017-01-12T15:06:07Z</time>
      </trkpt>
      <trkpt lat="46.02" lon="4.59243">
        <ele>654</ele>
        <time>2017-01-12T15:06:14Z</time>
      </trkpt>
      <trkpt lat="46.01999" lon="4.59244">
        <ele>651</ele>
        <time>2017-01-12T15:06:15Z</time>
      </trkpt>
      <trkpt lat="46.01994" lon="4.59254">
        <ele>652</ele>
        <time>2017-01-12T15:06:22Z</time>
      </trkpt>
      <trkpt lat="46.01993" lon="4.59256">
        <ele>652</ele>
        <time>2017-01-12T15:06:23Z</time>
      </trkpt>
      <trkpt lat="46.01987" lon="4.59264">
        <ele>650</ele>
        <time>2017-01-12T15:06:30Z</time>
      </trkpt>
      <trkpt lat="46.01986" lon="4.59265">
        <ele>650</ele>
        <time>2017-01-12T15:06:31Z</time>
      </trkpt>
      <trkpt lat="46.01979" lon="4.59272">
        <ele>648</ele>
        <time>2017-01-12T15:06:38Z</time>
      </trkpt>
      <trkpt lat="46.01978" lon="4.59272">
        <ele>648</ele>
        <time>2017-01-12T15:06:39Z</time>
      </trkpt>
      <trkpt lat="46.01974" lon="4.59282">
        <ele>648</ele>
        <time>2017-01-12T15:06:45Z</time>
      </trkpt>
      <trkpt lat="46.01973" lon="4.59283">
        <ele>648</ele>
        <time>2017-01-12T15:06:46Z</time>
      </trkpt>
      <trkpt lat="46.0197" lon="4.59294">
        <ele>648</ele>
        <time>2017-01-12T15:06:52Z</time>
      </trkpt>
      <trkpt lat="46.01969" lon="4.59295">
        <ele>648</ele>
        <time>2017-01-12T15:06:53Z</time>
      </trkpt>
      <trkpt lat="46.01966" lon="4.59307">
        <ele>648</ele>
        <time>2017-01-12T15:07:00Z</time>
      </trkpt>
      <trkpt lat="46.01966" lon="4.59309">
        <ele>648</ele>
        <time>2017-01-12T15:07:01Z</time>
      </trkpt>
      <trkpt lat="46.01962" lon="4.5932">
        <ele>648</ele>
        <time>2017-01-12T15:07:10Z</time>
      </trkpt>
      <trkpt lat="46.01962" lon="4.59322">
        <ele>648</ele>
        <time>2017-01-12T15:07:11Z</time>
      </trkpt>
      <trkpt lat="46.01962" lon="4.59334">
        <ele>650</ele>
        <time>2017-01-12T15:07:18Z</time>
      </trkpt>
      <trkpt lat="46.01962" lon="4.59337">
        <ele>650</ele>
        <time>2017-01-12T15:07:19Z</time>
      </trkpt>
      <trkpt lat="46.01961" lon="4.59348">
        <ele>650</ele>
        <time>2017-01-12T15:07:25Z</time>
      </trkpt>
      <trkpt lat="46.01961" lon="4.5935">
        <ele>649</ele>
        <time>2017-01-12T15:07:26Z</time>
      </trkpt>
      <trkpt lat="46.01958" lon="4.59362">
        <ele>649</ele>
        <time>2017-01-12T15:07:34Z</time>
      </trkpt>
      <trkpt lat="46.01958" lon="4.59363">
        <ele>649</ele>
        <time>2017-01-12T15:07:35Z</time>
      </trkpt>
      <trkpt lat="46.01954" lon="4.59374">
        <ele>648</ele>
        <time>2017-01-12T15:07:44Z</time>
      </trkpt>
      <trkpt lat="46.01954" lon="4.59375">
        <ele>648</ele>
        <time>2017-01-12T15:07:45Z</time>
      </trkpt>
      <trkpt lat="46.01953" lon="4.59388">
        <ele>648</ele>
        <time>2017-01-12T15:07:51Z</time>
      </trkpt>
      <trkpt lat="46.01953" lon="4.5939">
        <ele>648</ele>
        <time>2017-01-12T15:07:52Z</time>
      </trkpt>
      <trkpt lat="46.01951" lon="4.59402">
        <ele>648</ele>
        <time>2017-01-12T15:07:59Z</time>
      </trkpt>
      <trkpt lat="46.01951" lon="4.59404">
        <ele>648</ele>
        <time>2017-01-12T15:08:00Z</time>
      </trkpt>
      <trkpt lat="46.01948" lon="4.59415">
        <ele>647</ele>
        <time>2017-01-12T15:08:07Z</time>
      </trkpt>
      <trkpt lat="46.01948" lon="4.59416">
        <ele>647</ele>
        <time>2017-01-12T15:08:08Z</time>
      </trkpt>
      <trkpt lat="46.01947" lon="4.59427">
        <ele>647</ele>
        <time>2017-01-12T15:08:13Z</time>
      </trkpt>
      <trkpt lat="46.01947" lon="4.59429">
        <ele>647</ele>
        <time>2017-01-12T15:08:14Z</time>
      </trkpt>
      <trkpt lat="46.01946" lon="4.5944">
        <ele>647</ele>
        <time>2017-01-12T15:08:19Z</time>
      </trkpt>
      <trkpt lat="46.01946" lon="4.59442">
        <ele>647</ele>
        <time>2017-01-12T15:08:20Z</time>
      </trkpt>
      <trkpt lat="46.01944" lon="4.59455">
        <ele>647</ele>
        <time>2017-01-12T15:08:26Z</time>
      </trkpt>
      <trkpt lat="46.01943" lon="4.59457">
        <ele>647</ele>
        <time>2017-01-12T15:08:27Z</time>
      </trkpt>
      <trkpt lat="46.01942" lon="4.59469">
        <ele>647</ele>
        <time>2017-01-12T15:08:34Z</time>
      </trkpt>
      <trkpt lat="46.01941" lon="4.5947">
        <ele>647</ele>
        <time>2017-01-12T15:08:35Z</time>
      </trkpt>
      <trkpt lat="46.01939" lon="4.59483">
        <ele>646</ele>
        <time>2017-01-12T15:08:42Z</time>
      </trkpt>
      <trkpt lat="46.01939" lon="4.59484">
        <ele>646</ele>
        <time>2017-01-12T15:08:43Z</time>
      </trkpt>
      <trkpt lat="46.01937" lon="4.59495">
        <ele>646</ele>
        <time>2017-01-12T15:08:50Z</time>
      </trkpt>
      <trkpt lat="46.01936" lon="4.59497">
        <ele>646</ele>
        <time>2017-01-12T15:08:51Z</time>
      </trkpt>
      <trkpt lat="46.01935" lon="4.59508">
        <ele>644</ele>
        <time>2017-01-12T15:08:57Z</time>
      </trkpt>
      <trkpt lat="46.01935" lon="4.59509">
        <ele>644</ele>
        <time>2017-01-12T15:08:58Z</time>
      </trkpt>
      <trkpt lat="46.01935" lon="4.59522">
        <ele>644</ele>
        <time>2017-01-12T15:09:04Z</time>
      </trkpt>
      <trkpt lat="46.01935" lon="4.59524">
        <ele>644</ele>
        <time>2017-01-12T15:09:05Z</time>
      </trkpt>
      <trkpt lat="46.01937" lon="4.59536">
        <ele>644</ele>
        <time>2017-01-12T15:09:10Z</time>
      </trkpt>
      <trkpt lat="46.01937" lon="4.59539">
        <ele>644</ele>
        <time>2017-01-12T15:09:11Z</time>
      </trkpt>
      <trkpt lat="46.0194" lon="4.5955">
        <ele>644</ele>
        <time>2017-01-12T15:09:16Z</time>
      </trkpt>
      <trkpt lat="46.0194" lon="4.59553">
        <ele>644</ele>
        <time>2017-01-12T15:09:17Z</time>
      </trkpt>
      <trkpt lat="46.01943" lon="4.59563">
        <ele>643</ele>
        <time>2017-01-12T15:09:23Z</time>
      </trkpt>
      <trkpt lat="46.01944" lon="4.59565">
        <ele>643</ele>
        <time>2017-01-12T15:09:24Z</time>
      </trkpt>
      <trkpt lat="46.01946" lon="4.59576">
        <ele>643</ele>
        <time>2017-01-12T15:09:30Z</time>
      </trkpt>
      <trkpt lat="46.01947" lon="4.59578">
        <ele>643</ele>
        <time>2017-01-12T15:09:31Z</time>
      </trkpt>
      <trkpt lat="46.0195" lon="4.5959">
        <ele>641</ele>
        <time>2017-01-12T15:09:38Z</time>
      </trkpt>
      <trkpt lat="46.01951" lon="4.59591">
        <ele>641</ele>
        <time>2017-01-12T15:09:39Z</time>
      </trkpt>
      <trkpt lat="46.01954" lon="4.59602">
        <ele>641</ele>
        <time>2017-01-12T15:09:47Z</time>
      </trkpt>
      <trkpt lat="46.01954" lon="4.59603">
        <ele>641</ele>
        <time>2017-01-12T15:09:48Z</time>
      </trkpt>
      <trkpt lat="46.01957" lon="4.59614">
        <ele>641</ele>
        <time>2017-01-12T15:09:55Z</time>
      </trkpt>
      <trkpt lat="46.01958" lon="4.59615">
        <ele>641</ele>
        <time>2017-01-12T15:09:56Z</time>
      </trkpt>
      <trkpt lat="46.01961" lon="4.59626">
        <ele>641</ele>
        <time>2017-01-12T15:10:04Z</time>
      </trkpt>
      <trkpt lat="46.01962" lon="4.59627">
        <ele>641</ele>
        <time>2017-01-12T15:10:05Z</time>
      </trkpt>
      <trkpt lat="46.01966" lon="4.59637">
        <ele>641</ele>
        <time>2017-01-12T15:10:13Z</time>
      </trkpt>
      <trkpt lat="46.01967" lon="4.59638">
        <ele>641</ele>
        <time>2017-01-12T15:10:14Z</time>
      </trkpt>
      <trkpt lat="46.01966" lon="4.59651">
        <ele>641</ele>
        <time>2017-01-12T15:10:26Z</time>
      </trkpt>
      <trkpt lat="46.01966" lon="4.59651">
        <ele>641</ele>
        <time>2017-01-12T15:10:27Z</time>
      </trkpt>
      <trkpt lat="46.01964" lon="4.59664">
        <ele>641</ele>
        <time>2017-01-12T15:10:36Z</time>
      </trkpt>
      <trkpt lat="46.01963" lon="4.59665">
        <ele>641</ele>
        <time>2017-01-12T15:10:37Z</time>
      </trkpt>
      <trkpt lat="46.01963" lon="4.59678">
        <ele>640</ele>
        <time>2017-01-12T15:10:43Z</time>
      </trkpt>
      <trkpt lat="46.01963" lon="4.5968">
        <ele>640</ele>
        <time>2017-01-12T15:10:44Z</time>
      </trkpt>
      <trkpt lat="46.01962" lon="4.59693">
        <ele>640</ele>
        <time>2017-01-12T15:10:49Z</time>
      </trkpt>
      <trkpt lat="46.01962" lon="4.59695">
        <ele>640</ele>
        <time>2017-01-12T15:10:50Z</time>
      </trkpt>
      <trkpt lat="46.01961" lon="4.59708">
        <ele>640</ele>
        <time>2017-01-12T15:10:55Z</time>
      </trkpt>
      <trkpt lat="46.01961" lon="4.5971">
        <ele>640</ele>
        <time>2017-01-12T15:10:56Z</time>
      </trkpt>
      <trkpt lat="46.01959" lon="4.59721">
        <ele>640</ele>
        <time>2017-01-12T15:11:02Z</time>
      </trkpt>
      <trkpt lat="46.01958" lon="4.59722">
        <ele>640</ele>
        <time>2017-01-12T15:11:03Z</time>
      </trkpt>
      <trkpt lat="46.01957" lon="4.59734">
        <ele>640</ele>
        <time>2017-01-12T15:11:09Z</time>
      </trkpt>
      <trkpt lat="46.01957" lon="4.59737">
        <ele>640</ele>
        <time>2017-01-12T15:11:10Z</time>
      </trkpt>
      <trkpt lat="46.01956" lon="4.59748">
        <ele>640</ele>
        <time>2017-01-12T15:11:15Z</time>
      </trkpt>
      <trkpt lat="46.01955" lon="4.5975">
        <ele>641</ele>
        <time>2017-01-12T15:11:16Z</time>
      </trkpt>
      <trkpt lat="46.01953" lon="4.59762">
        <ele>641</ele>
        <time>2017-01-12T15:11:22Z</time>
      </trkpt>
      <trkpt lat="46.01953" lon="4.59765">
        <ele>641</ele>
        <time>2017-01-12T15:11:23Z</time>
      </trkpt>
      <trkpt lat="46.01952" lon="4.59776">
        <ele>641</ele>
        <time>2017-01-12T15:11:29Z</time>
      </trkpt>
      <trkpt lat="46.01951" lon="4.59778">
        <ele>641</ele>
        <time>2017-01-12T15:11:30Z</time>
      </trkpt>
      <trkpt lat="46.01948" lon="4.59789">
        <ele>641</ele>
        <time>2017-01-12T15:11:37Z</time>
      </trkpt>
      <trkpt lat="46.01948" lon="4.59791">
        <ele>641</ele>
        <time>2017-01-12T15:11:38Z</time>
      </trkpt>
      <trkpt lat="46.01946" lon="4.59802">
        <ele>640</ele>
        <time>2017-01-12T15:11:45Z</time>
      </trkpt>
      <trkpt lat="46.01945" lon="4.59803">
        <ele>640</ele>
        <time>2017-01-12T15:11:46Z</time>
      </trkpt>
      <trkpt lat="46.01942" lon="4.59815">
        <ele>640</ele>
        <time>2017-01-12T15:11:55Z</time>
      </trkpt>
      <trkpt lat="46.01941" lon="4.59816">
        <ele>640</ele>
        <time>2017-01-12T15:11:56Z</time>
      </trkpt>
      <trkpt lat="46.0194" lon="4.59828">
        <ele>640</ele>
        <time>2017-01-12T15:12:02Z</time>
      </trkpt>
      <trkpt lat="46.0194" lon="4.5983">
        <ele>640</ele>
        <time>2017-01-12T15:12:03Z</time>
      </trkpt>
      <trkpt lat="46.01939" lon="4.59842">
        <ele>639</ele>
        <time>2017-01-12T15:12:09Z</time>
      </trkpt>
      <trkpt lat="46.01939" lon="4.59844">
        <ele>639</ele>
        <time>2017-01-12T15:12:10Z</time>
      </trkpt>
      <trkpt lat="46.01936" lon="4.59856">
        <ele>639</ele>
        <time>2017-01-12T15:12:17Z</time>
      </trkpt>
      <trkpt lat="46.01936" lon="4.59857">
        <ele>639</ele>
        <time>2017-01-12T15:12:18Z</time>
      </trkpt>
      <trkpt lat="46.01934" lon="4.59869">
        <ele>639</ele>
        <time>2017-01-12T15:12:25Z</time>
      </trkpt>
      <trkpt lat="46.01933" lon="4.59871">
        <ele>639</ele>
        <time>2017-01-12T15:12:26Z</time>
      </trkpt>
      <trkpt lat="46.01931" lon="4.59882">
        <ele>639</ele>
        <time>2017-01-12T15:12:32Z</time>
      </trkpt>
      <trkpt lat="46.01931" lon="4.59883">
        <ele>639</ele>
        <time>2017-01-12T15:12:33Z</time>
      </trkpt>
      <trkpt lat="46.01928" lon="4.59896">
        <ele>639</ele>
        <time>2017-01-12T15:12:40Z</time>
      </trkpt>
      <trkpt lat="46.01928" lon="4.59898">
        <ele>639</ele>
        <time>2017-01-12T15:12:41Z</time>
      </trkpt>
      <trkpt lat="46.01926" lon="4.59908">
        <ele>639</ele>
        <time>2017-01-12T15:12:46Z</time>
      </trkpt>
      <trkpt lat="46.01926" lon="4.59911">
        <ele>639</ele>
        <time>2017-01-12T15:12:47Z</time>
      </trkpt>
      <trkpt lat="46.01925" lon="4.59923">
        <ele>639</ele>
        <time>2017-01-12T15:12:52Z</time>
      </trkpt>
      <trkpt lat="46.01925" lon="4.59925">
        <ele>639</ele>
        <time>2017-01-12T15:12:53Z</time>
      </trkpt>
      <trkpt lat="46.01924" lon="4.59937">
        <ele>639</ele>
        <time>2017-01-12T15:12:59Z</time>
      </trkpt>
      <trkpt lat="46.01923" lon="4.59939">
        <ele>639</ele>
        <time>2017-01-12T15:13:00Z</time>
      </trkpt>
      <trkpt lat="46.01922" lon="4.59951">
        <ele>640</ele>
        <time>2017-01-12T15:13:06Z</time>
      </trkpt>
      <trkpt lat="46.01922" lon="4.59953">
        <ele>640</ele>
        <time>2017-01-12T15:13:07Z</time>
      </trkpt>
      <trkpt lat="46.01921" lon="4.59965">
        <ele>640</ele>
        <time>2017-01-12T15:13:14Z</time>
      </trkpt>
      <trkpt lat="46.01921" lon="4.59967">
        <ele>641</ele>
        <time>2017-01-12T15:13:15Z</time>
      </trkpt>
      <trkpt lat="46.01919" lon="4.59978">
        <ele>641</ele>
        <time>2017-01-12T15:13:22Z</time>
      </trkpt>
      <trkpt lat="46.01919" lon="4.5998">
        <ele>641</ele>
        <time>2017-01-12T15:13:23Z</time>
      </trkpt>
      <trkpt lat="46.01916" lon="4.59991">
        <ele>640</ele>
        <time>2017-01-12T15:13:30Z</time>
      </trkpt>
      <trkpt lat="46.01915" lon="4.59993">
        <ele>641</ele>
        <time>2017-01-12T15:13:31Z</time>
      </trkpt>
      <trkpt lat="46.01909" lon="4.6">
        <ele>641</ele>
        <time>2017-01-12T15:13:40Z</time>
      </trkpt>
      <trkpt lat="46.01908" lon="4.60001">
        <ele>643</ele>
        <time>2017-01-12T15:13:41Z</time>
      </trkpt>
      <trkpt lat="46.01901" lon="4.60009">
        <ele>644</ele>
        <time>2017-01-12T15:13:50Z</time>
      </trkpt>
      <trkpt lat="46.01901" lon="4.6001">
        <ele>644</ele>
        <time>2017-01-12T15:13:51Z</time>
      </trkpt>
      <trkpt lat="46.01899" lon="4.60022">
        <ele>644</ele>
        <time>2017-01-12T15:13:59Z</time>
      </trkpt>
      <trkpt lat="46.01898" lon="4.60024">
        <ele>644</ele>
        <time>2017-01-12T15:14:00Z</time>
      </trkpt>
      <trkpt lat="46.01895" lon="4.60036">
        <ele>645</ele>
        <time>2017-01-12T15:14:12Z</time>
      </trkpt>
      <trkpt lat="46.01895" lon="4.60037">
        <ele>645</ele>
        <time>2017-01-12T15:14:13Z</time>
      </trkpt>
      <trkpt lat="46.01891" lon="4.60048">
        <ele>645</ele>
        <time>2017-01-12T15:14:33Z</time>
      </trkpt>
      <trkpt lat="46.01891" lon="4.60049">
        <ele>645</ele>
        <time>2017-01-12T15:14:34Z</time>
      </trkpt>
      <trkpt lat="46.01888" lon="4.6006">
        <ele>646</ele>
        <time>2017-01-12T15:14:44Z</time>
      </trkpt>
      <trkpt lat="46.01887" lon="4.60061">
        <ele>646</ele>
        <time>2017-01-12T15:14:45Z</time>
      </trkpt>
      <trkpt lat="46.01885" lon="4.60073">
        <ele>646</ele>
        <time>2017-01-12T15:14:58Z</time>
      </trkpt>
      <trkpt lat="46.01884" lon="4.60074">
        <ele>647</ele>
        <time>2017-01-12T15:14:59Z</time>
      </trkpt>
      <trkpt lat="46.0188" lon="4.60085">
        <ele>653</ele>
        <time>2017-01-12T15:15:14Z</time>
      </trkpt>
      <trkpt lat="46.0188" lon="4.60086">
        <ele>653</ele>
        <time>2017-01-12T15:15:15Z</time>
      </trkpt>
      <trkpt lat="46.01877" lon="4.60098">
        <ele>654</ele>
        <time>2017-01-12T15:15:27Z</time>
      </trkpt>
      <trkpt lat="46.01877" lon="4.60099">
        <ele>654</ele>
        <time>2017-01-12T15:15:28Z</time>
      </trkpt>
      <trkpt lat="46.01875" lon="4.60111">
        <ele>654</ele>
        <time>2017-01-12T15:15:40Z</time>
      </trkpt>
      <trkpt lat="46.01875" lon="4.60112">
        <ele>654</ele>
        <time>2017-01-12T15:15:41Z</time>
      </trkpt>
      <trkpt lat="46.01872" lon="4.60124">
        <ele>655</ele>
        <time>2017-01-12T15:15:56Z</time>
      </trkpt>
      <trkpt lat="46.01872" lon="4.60125">
        <ele>655</ele>
        <time>2017-01-12T15:15:57Z</time>
      </trkpt>
      <trkpt lat="46.01869" lon="4.60136">
        <ele>656</ele>
        <time>2017-01-12T15:16:13Z</time>
      </trkpt>
      <trkpt lat="46.01869" lon="4.60137">
        <ele>656</ele>
        <time>2017-01-12T15:16:14Z</time>
      </trkpt>
      <trkpt lat="46.01868" lon="4.6015">
        <ele>657</ele>
        <time>2017-01-12T15:16:26Z</time>
      </trkpt>
      <trkpt lat="46.01868" lon="4.60151">
        <ele>657</ele>
        <time>2017-01-12T15:16:27Z</time>
      </trkpt>
      <trkpt lat="46.0187" lon="4.60163">
        <ele>657</ele>
        <time>2017-01-12T15:16:38Z</time>
      </trkpt>
      <trkpt lat="46.0187" lon="4.60164">
        <ele>657</ele>
        <time>2017-01-12T15:16:39Z</time>
      </trkpt>
      <trkpt lat="46.01873" lon="4.60176">
        <ele>661</ele>
        <time>2017-01-12T15:16:49Z</time>
      </trkpt>
      <trkpt lat="46.01873" lon="4.60177">
        <ele>661</ele>
        <time>2017-01-12T15:16:50Z</time>
      </trkpt>
      <trkpt lat="46.01871" lon="4.60189">
        <ele>661</ele>
        <time>2017-01-12T15:17:02Z</time>
      </trkpt>
      <trkpt lat="46.01871" lon="4.60189">
        <ele>661</ele>
        <time>2017-01-12T15:17:03Z</time>
      </trkpt>
      <trkpt lat="46.01866" lon="4.602">
        <ele>662</ele>
        <time>2017-01-12T15:17:16Z</time>
      </trkpt>
      <trkpt lat="46.01865" lon="4.60201">
        <ele>662</ele>
        <time>2017-01-12T15:17:17Z</time>
      </trkpt>
      <trkpt lat="46.01861" lon="4.60212">
        <ele>662</ele>
        <time>2017-01-12T15:17:28Z</time>
      </trkpt>
      <trkpt lat="46.01861" lon="4.60213">
        <ele>662</ele>
        <time>2017-01-12T15:17:29Z</time>
      </trkpt>
      <trkpt lat="46.01858" lon="4.60224">
        <ele>662</ele>
        <time>2017-01-12T15:17:40Z</time>
      </trkpt>
      <trkpt lat="46.01858" lon="4.60225">
        <ele>662</ele>
        <time>2017-01-12T15:17:41Z</time>
      </trkpt>
      <trkpt lat="46.01853" lon="4.60236">
        <ele>663</ele>
        <time>2017-01-12T15:18:01Z</time>
      </trkpt>
      <trkpt lat="46.01853" lon="4.60236">
        <ele>663</ele>
        <time>2017-01-12T15:18:02Z</time>
      </trkpt>
      <trkpt lat="46.01846" lon="4.60241">
        <ele>664</ele>
        <time>2017-01-12T15:18:14Z</time>
      </trkpt>
      <trkpt lat="46.01845" lon="4.60242">
        <ele>664</ele>
        <time>2017-01-12T15:18:15Z</time>
      </trkpt>
      <trkpt lat="46.01836" lon="4.60246">
        <ele>665</ele>
        <time>2017-01-12T15:18:25Z</time>
      </trkpt>
      <trkpt lat="46.01835" lon="4.60247">
        <ele>665</ele>
        <time>2017-01-12T15:18:26Z</time>
      </trkpt>
      <trkpt lat="46.01827" lon="4.60249">
        <ele>664</ele>
        <time>2017-01-12T15:18:36Z</time>
      </trkpt>
      <trkpt lat="46.01826" lon="4.60248">
        <ele>663</ele>
        <time>2017-01-12T15:18:37Z</time>
      </trkpt>
      <trkpt lat="46.01818" lon="4.60251">
        <ele>659</ele>
        <time>2017-01-12T15:18:46Z</time>
      </trkpt>
      <trkpt lat="46.01817" lon="4.60251">
        <ele>659</ele>
        <time>2017-01-12T15:18:47Z</time>
      </trkpt>
      <trkpt lat="46.0181" lon="4.60259">
        <ele>657</ele>
        <time>2017-01-12T15:18:57Z</time>
      </trkpt>
      <trkpt lat="46.0181" lon="4.6026">
        <ele>657</ele>
        <time>2017-01-12T15:18:58Z</time>
      </trkpt>
      <trkpt lat="46.01805" lon="4.6027">
        <ele>655</ele>
        <time>2017-01-12T15:19:08Z</time>
      </trkpt>
      <trkpt lat="46.01804" lon="4.60271">
        <ele>655</ele>
        <time>2017-01-12T15:19:09Z</time>
      </trkpt>
      <trkpt lat="46.01796" lon="4.60276">
        <ele>653</ele>
        <time>2017-01-12T15:19:22Z</time>
      </trkpt>
      <trkpt lat="46.01796" lon="4.60276">
        <ele>653</ele>
        <time>2017-01-12T15:19:23Z</time>
      </trkpt>
      <trkpt lat="46.01788" lon="4.60282">
        <ele>652</ele>
        <time>2017-01-12T15:19:34Z</time>
      </trkpt>
      <trkpt lat="46.01787" lon="4.60283">
        <ele>652</ele>
        <time>2017-01-12T15:19:35Z</time>
      </trkpt>
      <trkpt lat="46.01778" lon="4.60284">
        <ele>651</ele>
        <time>2017-01-12T15:19:48Z</time>
      </trkpt>
      <trkpt lat="46.01777" lon="4.60284">
        <ele>651</ele>
        <time>2017-01-12T15:19:49Z</time>
      </trkpt>
      <trkpt lat="46.01769" lon="4.60278">
        <ele>651</ele>
        <time>2017-01-12T15:19:59Z</time>
      </trkpt>
      <trkpt lat="46.01769" lon="4.60278">
        <ele>651</ele>
        <time>2017-01-12T15:20:00Z</time>
      </trkpt>
      <trkpt lat="46.0176" lon="4.60278">
        <ele>651</ele>
        <time>2017-01-12T15:20:09Z</time>
      </trkpt>
      <trkpt lat="46.01759" lon="4.60278">
        <ele>651</ele>
        <time>2017-01-12T15:20:10Z</time>
      </trkpt>
      <trkpt lat="46.0175" lon="4.60279">
        <ele>650</ele>
        <time>2017-01-12T15:20:19Z</time>
      </trkpt>
      <trkpt lat="46.0175" lon="4.60279">
        <ele>642</ele>
        <time>2017-01-12T15:20:20Z</time>
      </trkpt>
      <trkpt lat="46.01741" lon="4.60278">
        <ele>641</ele>
        <time>2017-01-12T15:20:32Z</time>
      </trkpt>
      <trkpt lat="46.0174" lon="4.60278">
        <ele>641</ele>
        <time>2017-01-12T15:20:33Z</time>
      </trkpt>
      <trkpt lat="46.01732" lon="4.60279">
        <ele>640</ele>
        <time>2017-01-12T15:20:47Z</time>
      </trkpt>
      <trkpt lat="46.01731" lon="4.60279">
        <ele>640</ele>
        <time>2017-01-12T15:20:48Z</time>
      </trkpt>
      <trkpt lat="46.01723" lon="4.60283">
        <ele>639</ele>
        <time>2017-01-12T15:21:01Z</time>
      </trkpt>
      <trkpt lat="46.01722" lon="4.60284">
        <ele>639</ele>
        <time>2017-01-12T15:21:02Z</time>
      </trkpt>
      <trkpt lat="46.01715" lon="4.6029">
        <ele>638</ele>
        <time>2017-01-12T15:21:09Z</time>
      </trkpt>
      <trkpt lat="46.01714" lon="4.60291">
        <ele>637</ele>
        <time>2017-01-12T15:21:10Z</time>
      </trkpt>
      <trkpt lat="46.01705" lon="4.60294">
        <ele>636</ele>
        <time>2017-01-12T15:21:21Z</time>
      </trkpt>
      <trkpt lat="46.01705" lon="4.60294">
        <ele>636</ele>
        <time>2017-01-12T15:21:22Z</time>
      </trkpt>
      <trkpt lat="46.01696" lon="4.60289">
        <ele>635</ele>
        <time>2017-01-12T15:21:37Z</time>
      </trkpt>
      <trkpt lat="46.01696" lon="4.60289">
        <ele>635</ele>
        <time>2017-01-12T15:21:38Z</time>
      </trkpt>
      <trkpt lat="46.01687" lon="4.60288">
        <ele>634</ele>
        <time>2017-01-12T15:21:54Z</time>
      </trkpt>
      <trkpt lat="46.01686" lon="4.60288">
        <ele>634</ele>
        <time>2017-01-12T15:21:55Z</time>
      </trkpt>
      <trkpt lat="46.01677" lon="4.60289">
        <ele>634</ele>
        <time>2017-01-12T15:22:08Z</time>
      </trkpt>
      <trkpt lat="46.01676" lon="4.60289">
        <ele>634</ele>
        <time>2017-01-12T15:22:09Z</time>
      </trkpt>
      <trkpt lat="46.01667" lon="4.60287">
        <ele>633</ele>
        <time>2017-01-12T15:22:21Z</time>
      </trkpt>
      <trkpt lat="46.01667" lon="4.60288">
        <ele>633</ele>
        <time>2017-01-12T15:22:22Z</time>
      </trkpt>
      <trkpt lat="46.01658" lon="4.60291">
        <ele>619</ele>
        <time>2017-01-12T15:22:34Z</time>
      </trkpt>
      <trkpt lat="46.01658" lon="4.60291">
        <ele>619</ele>
        <time>2017-01-12T15:22:35Z</time>
      </trkpt>
      <trkpt lat="46.0165" lon="4.60286">
        <ele>618</ele>
        <time>2017-01-12T15:22:47Z</time>
      </trkpt>
      <trkpt lat="46.01649" lon="4.60285">
        <ele>618</ele>
        <time>2017-01-12T15:22:48Z</time>
      </trkpt>
      <trkpt lat="46.01641" lon="4.6028">
        <ele>617</ele>
        <time>2017-01-12T15:23:00Z</time>
      </trkpt>
      <trkpt lat="46.01641" lon="4.6028">
        <ele>617</ele>
        <time>2017-01-12T15:23:01Z</time>
      </trkpt>
      <trkpt lat="46.01633" lon="4.60276">
        <ele>616</ele>
        <time>2017-01-12T15:23:15Z</time>
      </trkpt>
      <trkpt lat="46.01632" lon="4.60275">
        <ele>616</ele>
        <time>2017-01-12T15:23:16Z</time>
      </trkpt>
      <trkpt lat="46.01624" lon="4.6027">
        <ele>615</ele>
        <time>2017-01-12T15:23:24Z</time>
      </trkpt>
      <trkpt lat="46.01624" lon="4.60269">
        <ele>615</ele>
        <time>2017-01-12T15:23:25Z</time>
      </trkpt>
      <trkpt lat="46.01615" lon="4.60265">
        <ele>614</ele>
        <time>2017-01-12T15:23:36Z</time>
      </trkpt>
      <trkpt lat="46.01615" lon="4.60265">
        <ele>614</ele>
        <time>2017-01-12T15:23:37Z</time>
      </trkpt>
      <trkpt lat="46.01606" lon="4.60263">
        <ele>612</ele>
        <time>2017-01-12T15:23:47Z</time>
      </trkpt>
      <trkpt lat="46.01605" lon="4.60263">
        <ele>612</ele>
        <time>2017-01-12T15:23:48Z</time>
      </trkpt>
      <trkpt lat="46.01596" lon="4.60261">
        <ele>611</ele>
        <time>2017-01-12T15:23:57Z</time>
      </trkpt>
      <trkpt lat="46.01595" lon="4.60261">
        <ele>610</ele>
        <time>2017-01-12T15:23:58Z</time>
      </trkpt>
      <trkpt lat="46.01588" lon="4.60259">
        <ele>609</ele>
        <time>2017-01-12T15:24:06Z</time>
      </trkpt>
      <trkpt lat="46.01586" lon="4.60259">
        <ele>609</ele>
        <time>2017-01-12T15:24:07Z</time>
      </trkpt>
      <trkpt lat="46.0158" lon="4.60251">
        <ele>605</ele>
        <time>2017-01-12T15:24:15Z</time>
      </trkpt>
      <trkpt lat="46.01579" lon="4.6025">
        <ele>605</ele>
        <time>2017-01-12T15:24:16Z</time>
      </trkpt>
      <trkpt lat="46.0157" lon="4.60248">
        <ele>602</ele>
        <time>2017-01-12T15:24:24Z</time>
      </trkpt>
      <trkpt lat="46.01569" lon="4.60248">
        <ele>602</ele>
        <time>2017-01-12T15:24:25Z</time>
      </trkpt>
      <trkpt lat="46.01561" lon="4.60248">
        <ele>599</ele>
        <time>2017-01-12T15:24:34Z</time>
      </trkpt>
      <trkpt lat="46.0156" lon="4.60247">
        <ele>599</ele>
        <time>2017-01-12T15:24:35Z</time>
      </trkpt>
      <trkpt lat="46.01552" lon="4.60243">
        <ele>598</ele>
        <time>2017-01-12T15:24:42Z</time>
      </trkpt>
      <trkpt lat="46.01551" lon="4.60242">
        <ele>597</ele>
        <time>2017-01-12T15:24:43Z</time>
      </trkpt>
      <trkpt lat="46.01544" lon="4.60234">
        <ele>596</ele>
        <time>2017-01-12T15:24:51Z</time>
      </trkpt>
      <trkpt lat="46.01543" lon="4.60233">
        <ele>596</ele>
        <time>2017-01-12T15:24:52Z</time>
      </trkpt>
      <trkpt lat="46.01536" lon="4.60226">
        <ele>595</ele>
        <time>2017-01-12T15:25:02Z</time>
      </trkpt>
      <trkpt lat="46.01536" lon="4.60226">
        <ele>595</ele>
        <time>2017-01-12T15:25:03Z</time>
      </trkpt>
      <trkpt lat="46.01528" lon="4.6022">
        <ele>594</ele>
        <time>2017-01-12T15:25:14Z</time>
      </trkpt>
      <trkpt lat="46.01527" lon="4.6022">
        <ele>594</ele>
        <time>2017-01-12T15:25:15Z</time>
      </trkpt>
      <trkpt lat="46.0152" lon="4.60215">
        <ele>593</ele>
        <time>2017-01-12T15:25:27Z</time>
      </trkpt>
      <trkpt lat="46.01519" lon="4.60214">
        <ele>593</ele>
        <time>2017-01-12T15:25:28Z</time>
      </trkpt>
      <trkpt lat="46.01512" lon="4.60205">
        <ele>593</ele>
        <time>2017-01-12T15:25:37Z</time>
      </trkpt>
      <trkpt lat="46.01512" lon="4.60204">
        <ele>593</ele>
        <time>2017-01-12T15:25:38Z</time>
      </trkpt>
      <trkpt lat="46.01506" lon="4.60195">
        <ele>592</ele>
        <time>2017-01-12T15:25:47Z</time>
      </trkpt>
      <trkpt lat="46.01506" lon="4.60194">
        <ele>592</ele>
        <time>2017-01-12T15:25:48Z</time>
      </trkpt>
      <trkpt lat="46.01499" lon="4.60186">
        <ele>584</ele>
        <time>2017-01-12T15:25:57Z</time>
      </trkpt>
      <trkpt lat="46.01498" lon="4.60185">
        <ele>584</ele>
        <time>2017-01-12T15:25:58Z</time>
      </trkpt>
      <trkpt lat="46.01493" lon="4.60175">
        <ele>585</ele>
        <time>2017-01-12T15:26:06Z</time>
      </trkpt>
      <trkpt lat="46.01492" lon="4.60174">
        <ele>585</ele>
        <time>2017-01-12T15:26:07Z</time>
      </trkpt>
      <trkpt lat="46.01489" lon="4.60162">
        <ele>584</ele>
        <time>2017-01-12T15:26:18Z</time>
      </trkpt>
      <trkpt lat="46.01489" lon="4.60161">
        <ele>583</ele>
        <time>2017-01-12T15:26:19Z</time>
      </trkpt>
      <trkpt lat="46.01485" lon="4.60149">
        <ele>581</ele>
        <time>2017-01-12T15:26:30Z</time>
      </trkpt>
      <trkpt lat="46.01485" lon="4.60148">
        <ele>581</ele>
        <time>2017-01-12T15:26:31Z</time>
      </trkpt>
      <trkpt lat="46.01481" lon="4.60137">
        <ele>579</ele>
        <time>2017-01-12T15:26:42Z</time>
      </trkpt>
      <trkpt lat="46.0148" lon="4.60136">
        <ele>579</ele>
        <time>2017-01-12T15:26:43Z</time>
      </trkpt>
      <trkpt lat="46.01475" lon="4.60126">
        <ele>578</ele>
        <time>2017-01-12T15:26:52Z</time>
      </trkpt>
      <trkpt lat="46.01474" lon="4.60125">
        <ele>578</ele>
        <time>2017-01-12T15:26:53Z</time>
      </trkpt>
      <trkpt lat="46.01466" lon="4.60126">
        <ele>577</ele>
        <time>2017-01-12T15:27:01Z</time>
      </trkpt>
      <trkpt lat="46.01465" lon="4.60127">
        <ele>577</ele>
        <time>2017-01-12T15:27:02Z</time>
      </trkpt>
      <trkpt lat="46.01457" lon="4.60131">
        <ele>577</ele>
        <time>2017-01-12T15:27:08Z</time>
      </trkpt>
      <trkpt lat="46.01456" lon="4.60132">
        <ele>577</ele>
        <time>2017-01-12T15:27:09Z</time>
      </trkpt>
      <trkpt lat="46.01449" lon="4.60138">
        <ele>577</ele>
        <time>2017-01-12T15:27:16Z</time>
      </trkpt>
      <trkpt lat="46.01448" lon="4.60139">
        <ele>577</ele>
        <time>2017-01-12T15:27:17Z</time>
      </trkpt>
      <trkpt lat="46.01442" lon="4.60148">
        <ele>577</ele>
        <time>2017-01-12T15:27:25Z</time>
      </trkpt>
      <trkpt lat="46.01442" lon="4.60149">
        <ele>577</ele>
        <time>2017-01-12T15:27:26Z</time>
      </trkpt>
      <trkpt lat="46.01439" lon="4.60161">
        <ele>576</ele>
        <time>2017-01-12T15:27:35Z</time>
      </trkpt>
      <trkpt lat="46.01438" lon="4.60162">
        <ele>576</ele>
        <time>2017-01-12T15:27:36Z</time>
      </trkpt>
      <trkpt lat="46.01437" lon="4.60175">
        <ele>578</ele>
        <time>2017-01-12T15:27:45Z</time>
      </trkpt>
      <trkpt lat="46.01437" lon="4.60176">
        <ele>578</ele>
        <time>2017-01-12T15:27:46Z</time>
      </trkpt>
      <trkpt lat="46.01436" lon="4.60188">
        <ele>578</ele>
        <time>2017-01-12T15:27:53Z</time>
      </trkpt>
      <trkpt lat="46.01436" lon="4.6019">
        <ele>578</ele>
        <time>2017-01-12T15:27:54Z</time>
      </trkpt>
      <trkpt lat="46.01436" lon="4.60203">
        <ele>578</ele>
        <time>2017-01-12T15:28:01Z</time>
      </trkpt>
      <trkpt lat="46.01435" lon="4.60204">
        <ele>578</ele>
        <time>2017-01-12T15:28:02Z</time>
      </trkpt>
      <trkpt lat="46.01436" lon="4.60217">
        <ele>577</ele>
        <time>2017-01-12T15:28:09Z</time>
      </trkpt>
      <trkpt lat="46.01436" lon="4.60218">
        <ele>577</ele>
        <time>2017-01-12T15:28:10Z</time>
      </trkpt>
      <trkpt lat="46.01438" lon="4.6023">
        <ele>577</ele>
        <time>2017-01-12T15:28:17Z</time>
      </trkpt>
      <trkpt lat="46.01439" lon="4.60232">
        <ele>577</ele>
        <time>2017-01-12T15:28:18Z</time>
      </trkpt>
      <trkpt lat="46.01442" lon="4.60242">
        <ele>577</ele>
        <time>2017-01-12T15:28:24Z</time>
      </trkpt>
      <trkpt lat="46.01443" lon="4.60244">
        <ele>577</ele>
        <time>2017-01-12T15:28:25Z</time>
      </trkpt>
      <trkpt lat="46.01448" lon="4.60253">
        <ele>572</ele>
        <time>2017-01-12T15:28:31Z</time>
      </trkpt>
      <trkpt lat="46.01449" lon="4.60255">
        <ele>572</ele>
        <time>2017-01-12T15:28:32Z</time>
      </trkpt>
      <trkpt lat="46.01455" lon="4.60263">
        <ele>572</ele>
        <time>2017-01-12T15:28:37Z</time>
      </trkpt>
      <trkpt lat="46.01456" lon="4.60265">
        <ele>572</ele>
        <time>2017-01-12T15:28:38Z</time>
      </trkpt>
      <trkpt lat="46.01462" lon="4.60274">
        <ele>573</ele>
        <time>2017-01-12T15:28:44Z</time>
      </trkpt>
      <trkpt lat="46.01463" lon="4.60275">
        <ele>573</ele>
        <time>2017-01-12T15:28:45Z</time>
      </trkpt>
      <trkpt lat="46.0147" lon="4.60282">
        <ele>573</ele>
        <time>2017-01-12T15:28:51Z</time>
      </trkpt>
      <trkpt lat="46.01472" lon="4.60283">
        <ele>573</ele>
        <time>2017-01-12T15:28:52Z</time>
      </trkpt>
      <trkpt lat="46.01479" lon="4.60289">
        <ele>573</ele>
        <time>2017-01-12T15:28:59Z</time>
      </trkpt>
      <trkpt lat="46.0148" lon="4.6029">
        <ele>573</ele>
        <time>2017-01-12T15:29:00Z</time>
      </trkpt>
      <trkpt lat="46.01488" lon="4.60297">
        <ele>573</ele>
        <time>2017-01-12T15:29:07Z</time>
      </trkpt>
      <trkpt lat="46.01489" lon="4.60298">
        <ele>573</ele>
        <time>2017-01-12T15:29:08Z</time>
      </trkpt>
      <trkpt lat="46.01495" lon="4.60306">
        <ele>573</ele>
        <time>2017-01-12T15:29:15Z</time>
      </trkpt>
      <trkpt lat="46.01496" lon="4.60307">
        <ele>573</ele>
        <time>2017-01-12T15:29:16Z</time>
      </trkpt>
      <trkpt lat="46.01501" lon="4.60316">
        <ele>582</ele>
        <time>2017-01-12T15:29:23Z</time>
      </trkpt>
      <trkpt lat="46.01502" lon="4.60317">
        <ele>582</ele>
        <time>2017-01-12T15:29:24Z</time>
      </trkpt>
      <trkpt lat="46.0151" lon="4.60323">
        <ele>581</ele>
        <time>2017-01-12T15:29:32Z</time>
      </trkpt>
      <trkpt lat="46.01511" lon="4.60323">
        <ele>581</ele>
        <time>2017-01-12T15:29:33Z</time>
      </trkpt>
      <trkpt lat="46.01514" lon="4.60324">
        <ele>582</ele>
        <time>2017-01-12T15:30:46.756Z</time>
      </trkpt>
    </trkseg>
  </trk>
</gpx>